<?xml version="1.0" encoding="UTF-8" standalone="no" ?>
<gpx xmlns="http://www.topografix.com/GPX/1/1" xmlns:xsi="http://www.w3.org/2001/XMLSchema-instance" xsi:schemaLocation="http://www.topografix.com/GPX/1/1 http://www.topografix.com/GPX/1/1/gpx.xsd" version="1.1" creator="VisuGPX - https://www.visugpx.com">
  <metadata>
    <name>2020-04-09</name>
    <desc><![CDATA[
]]></desc>
  </metadata>
  <trk>
    <name><![CDATA[2020-04-09_1]]></name>
    <trkseg>
      <trkpt lat="47.29215" lon="-2.1947">
        <ele>13.2</ele>
        <time>2020-04-09T13:57:30.000Z</time>
      </trkpt>
      <trkpt lat="47.29212" lon="-2.19476">
        <ele>13.2</ele>
        <time>2020-04-09T13:57:34.000Z</time>
      </trkpt>
      <trkpt lat="47.2921" lon="-2.1948">
        <ele>13</ele>
        <time>2020-04-09T13:57:35.000Z</time>
      </trkpt>
      <trkpt lat="47.29215" lon="-2.19485">
        <ele>12.8</ele>
        <time>2020-04-09T13:57:36.000Z</time>
      </trkpt>
      <trkpt lat="47.29207" lon="-2.19485">
        <ele>13</ele>
        <time>2020-04-09T13:57:37.000Z</time>
      </trkpt>
      <trkpt lat="47.29202" lon="-2.19487">
        <ele>13</ele>
        <time>2020-04-09T13:57:38.000Z</time>
      </trkpt>
      <trkpt lat="47.29197" lon="-2.19489">
        <ele>13.2</ele>
        <time>2020-04-09T13:57:39.000Z</time>
      </trkpt>
      <trkpt lat="47.29193" lon="-2.1949">
        <ele>13</ele>
        <time>2020-04-09T13:57:40.000Z</time>
      </trkpt>
      <trkpt lat="47.29187" lon="-2.19492">
        <ele>12.8</ele>
        <time>2020-04-09T13:57:41.000Z</time>
      </trkpt>
      <trkpt lat="47.29182" lon="-2.19494">
        <ele>12.8</ele>
        <time>2020-04-09T13:57:42.000Z</time>
      </trkpt>
      <trkpt lat="47.29182" lon="-2.19494">
        <ele>12.8</ele>
        <time>2020-04-09T13:57:43.000Z</time>
      </trkpt>
      <trkpt lat="47.29182" lon="-2.19494">
        <ele>12.8</ele>
        <time>2020-04-09T13:57:44.000Z</time>
      </trkpt>
      <trkpt lat="47.2916" lon="-2.19495">
        <ele>13</ele>
        <time>2020-04-09T13:57:45.000Z</time>
      </trkpt>
      <trkpt lat="47.29153" lon="-2.19496">
        <ele>12.6</ele>
        <time>2020-04-09T13:57:46.000Z</time>
      </trkpt>
      <trkpt lat="47.29147" lon="-2.19498">
        <ele>13</ele>
        <time>2020-04-09T13:57:47.000Z</time>
      </trkpt>
      <trkpt lat="47.29144" lon="-2.195">
        <ele>12.8</ele>
        <time>2020-04-09T13:57:48.000Z</time>
      </trkpt>
      <trkpt lat="47.29139" lon="-2.19502">
        <ele>12.8</ele>
        <time>2020-04-09T13:57:49.000Z</time>
      </trkpt>
      <trkpt lat="47.29135" lon="-2.19503">
        <ele>13</ele>
        <time>2020-04-09T13:57:50.000Z</time>
      </trkpt>
      <trkpt lat="47.29132" lon="-2.19505">
        <ele>13</ele>
        <time>2020-04-09T13:57:51.000Z</time>
      </trkpt>
      <trkpt lat="47.29131" lon="-2.19506">
        <ele>13</ele>
        <time>2020-04-09T13:57:52.000Z</time>
      </trkpt>
      <trkpt lat="47.29128" lon="-2.19507">
        <ele>13.2</ele>
        <time>2020-04-09T13:57:53.000Z</time>
      </trkpt>
      <trkpt lat="47.29119" lon="-2.19508">
        <ele>13.2</ele>
        <time>2020-04-09T13:57:54.000Z</time>
      </trkpt>
      <trkpt lat="47.29114" lon="-2.19508">
        <ele>13.2</ele>
        <time>2020-04-09T13:57:55.000Z</time>
      </trkpt>
      <trkpt lat="47.29109" lon="-2.1951">
        <ele>13</ele>
        <time>2020-04-09T13:57:56.000Z</time>
      </trkpt>
      <trkpt lat="47.29105" lon="-2.19515">
        <ele>13</ele>
        <time>2020-04-09T13:57:57.000Z</time>
      </trkpt>
      <trkpt lat="47.29105" lon="-2.19517">
        <ele>13</ele>
        <time>2020-04-09T13:57:58.000Z</time>
      </trkpt>
      <trkpt lat="47.29104" lon="-2.19518">
        <ele>13.2</ele>
        <time>2020-04-09T13:57:59.000Z</time>
      </trkpt>
      <trkpt lat="47.29101" lon="-2.19514">
        <ele>13</ele>
        <time>2020-04-09T13:58:00.000Z</time>
      </trkpt>
      <trkpt lat="47.291" lon="-2.19509">
        <ele>13</ele>
        <time>2020-04-09T13:58:01.000Z</time>
      </trkpt>
      <trkpt lat="47.291" lon="-2.19507">
        <ele>13</ele>
        <time>2020-04-09T13:58:02.000Z</time>
      </trkpt>
      <trkpt lat="47.29027" lon="-2.19484">
        <ele>13</ele>
        <time>2020-04-09T13:58:03.000Z</time>
      </trkpt>
      <trkpt lat="47.29018" lon="-2.19477">
        <ele>13.4</ele>
        <time>2020-04-09T13:58:04.000Z</time>
      </trkpt>
      <trkpt lat="47.29012" lon="-2.19468">
        <ele>13.4</ele>
        <time>2020-04-09T13:58:05.000Z</time>
      </trkpt>
      <trkpt lat="47.29009" lon="-2.19463">
        <ele>13.4</ele>
        <time>2020-04-09T13:58:06.000Z</time>
      </trkpt>
      <trkpt lat="47.29006" lon="-2.19459">
        <ele>13.2</ele>
        <time>2020-04-09T13:58:07.000Z</time>
      </trkpt>
      <trkpt lat="47.29004" lon="-2.19453">
        <ele>13</ele>
        <time>2020-04-09T13:58:08.000Z</time>
      </trkpt>
      <trkpt lat="47.29002" lon="-2.19448">
        <ele>13</ele>
        <time>2020-04-09T13:58:09.000Z</time>
      </trkpt>
      <trkpt lat="47.29001" lon="-2.19442">
        <ele>13</ele>
        <time>2020-04-09T13:58:10.000Z</time>
      </trkpt>
      <trkpt lat="47.28999" lon="-2.19437">
        <ele>13</ele>
        <time>2020-04-09T13:58:11.000Z</time>
      </trkpt>
      <trkpt lat="47.28997" lon="-2.19431">
        <ele>13.2</ele>
        <time>2020-04-09T13:58:12.000Z</time>
      </trkpt>
      <trkpt lat="47.28996" lon="-2.19426">
        <ele>13.4</ele>
        <time>2020-04-09T13:58:13.000Z</time>
      </trkpt>
      <trkpt lat="47.28995" lon="-2.19419">
        <ele>13.6</ele>
        <time>2020-04-09T13:58:14.000Z</time>
      </trkpt>
      <trkpt lat="47.28994" lon="-2.19414">
        <ele>13.8</ele>
        <time>2020-04-09T13:58:15.000Z</time>
      </trkpt>
      <trkpt lat="47.28993" lon="-2.19408">
        <ele>13.6</ele>
        <time>2020-04-09T13:58:16.000Z</time>
      </trkpt>
      <trkpt lat="47.28992" lon="-2.19402">
        <ele>13.8</ele>
        <time>2020-04-09T13:58:17.000Z</time>
      </trkpt>
      <trkpt lat="47.28991" lon="-2.19397">
        <ele>13.6</ele>
        <time>2020-04-09T13:58:18.000Z</time>
      </trkpt>
      <trkpt lat="47.28991" lon="-2.1939">
        <ele>13.8</ele>
        <time>2020-04-09T13:58:19.000Z</time>
      </trkpt>
      <trkpt lat="47.2899" lon="-2.19385">
        <ele>13.8</ele>
        <time>2020-04-09T13:58:20.000Z</time>
      </trkpt>
      <trkpt lat="47.2899" lon="-2.1938">
        <ele>13.6</ele>
        <time>2020-04-09T13:58:21.000Z</time>
      </trkpt>
      <trkpt lat="47.28989" lon="-2.19375">
        <ele>13.4</ele>
        <time>2020-04-09T13:58:22.000Z</time>
      </trkpt>
      <trkpt lat="47.28988" lon="-2.19371">
        <ele>13.4</ele>
        <time>2020-04-09T13:58:23.000Z</time>
      </trkpt>
      <trkpt lat="47.28987" lon="-2.19365">
        <ele>13.6</ele>
        <time>2020-04-09T13:58:24.000Z</time>
      </trkpt>
      <trkpt lat="47.28987" lon="-2.19362">
        <ele>13.6</ele>
        <time>2020-04-09T13:58:25.000Z</time>
      </trkpt>
      <trkpt lat="47.28986" lon="-2.19356">
        <ele>13.8</ele>
        <time>2020-04-09T13:58:26.000Z</time>
      </trkpt>
      <trkpt lat="47.28984" lon="-2.19357">
        <ele>14</ele>
        <time>2020-04-09T13:58:27.000Z</time>
      </trkpt>
      <trkpt lat="47.28983" lon="-2.19356">
        <ele>13.8</ele>
        <time>2020-04-09T13:58:28.000Z</time>
      </trkpt>
      <trkpt lat="47.28981" lon="-2.19357">
        <ele>14.2</ele>
        <time>2020-04-09T13:58:29.000Z</time>
      </trkpt>
      <trkpt lat="47.2898" lon="-2.19359">
        <ele>14</ele>
        <time>2020-04-09T13:58:30.000Z</time>
      </trkpt>
      <trkpt lat="47.2898" lon="-2.19365">
        <ele>14</ele>
        <time>2020-04-09T13:58:31.000Z</time>
      </trkpt>
      <trkpt lat="47.2898" lon="-2.19368">
        <ele>14</ele>
        <time>2020-04-09T13:58:32.000Z</time>
      </trkpt>
      <trkpt lat="47.28982" lon="-2.19374">
        <ele>13.8</ele>
        <time>2020-04-09T13:58:33.000Z</time>
      </trkpt>
      <trkpt lat="47.28983" lon="-2.19379">
        <ele>13.6</ele>
        <time>2020-04-09T13:58:34.000Z</time>
      </trkpt>
      <trkpt lat="47.28984" lon="-2.19385">
        <ele>13.6</ele>
        <time>2020-04-09T13:58:35.000Z</time>
      </trkpt>
      <trkpt lat="47.28985" lon="-2.1939">
        <ele>13.8</ele>
        <time>2020-04-09T13:58:36.000Z</time>
      </trkpt>
      <trkpt lat="47.28986" lon="-2.19396">
        <ele>14</ele>
        <time>2020-04-09T13:58:37.000Z</time>
      </trkpt>
      <trkpt lat="47.28987" lon="-2.19402">
        <ele>13.8</ele>
        <time>2020-04-09T13:58:38.000Z</time>
      </trkpt>
      <trkpt lat="47.28988" lon="-2.19409">
        <ele>14</ele>
        <time>2020-04-09T13:58:39.000Z</time>
      </trkpt>
      <trkpt lat="47.28989" lon="-2.19414">
        <ele>14.2</ele>
        <time>2020-04-09T13:58:40.000Z</time>
      </trkpt>
      <trkpt lat="47.2899" lon="-2.19421">
        <ele>14</ele>
        <time>2020-04-09T13:58:41.000Z</time>
      </trkpt>
      <trkpt lat="47.28991" lon="-2.19428">
        <ele>14.2</ele>
        <time>2020-04-09T13:58:42.000Z</time>
      </trkpt>
      <trkpt lat="47.28991" lon="-2.19436">
        <ele>13.8</ele>
        <time>2020-04-09T13:58:43.000Z</time>
      </trkpt>
      <trkpt lat="47.28992" lon="-2.19443">
        <ele>13.8</ele>
        <time>2020-04-09T13:58:44.000Z</time>
      </trkpt>
      <trkpt lat="47.28993" lon="-2.1945">
        <ele>13.8</ele>
        <time>2020-04-09T13:58:45.000Z</time>
      </trkpt>
      <trkpt lat="47.28994" lon="-2.19457">
        <ele>13.6</ele>
        <time>2020-04-09T13:58:46.000Z</time>
      </trkpt>
      <trkpt lat="47.28995" lon="-2.19464">
        <ele>13.8</ele>
        <time>2020-04-09T13:58:47.000Z</time>
      </trkpt>
      <trkpt lat="47.28996" lon="-2.19472">
        <ele>13.8</ele>
        <time>2020-04-09T13:58:48.000Z</time>
      </trkpt>
      <trkpt lat="47.28997" lon="-2.1948">
        <ele>13.8</ele>
        <time>2020-04-09T13:58:49.000Z</time>
      </trkpt>
      <trkpt lat="47.28998" lon="-2.19487">
        <ele>13.8</ele>
        <time>2020-04-09T13:58:50.000Z</time>
      </trkpt>
      <trkpt lat="47.28998" lon="-2.19495">
        <ele>13.6</ele>
        <time>2020-04-09T13:58:51.000Z</time>
      </trkpt>
      <trkpt lat="47.28999" lon="-2.19501">
        <ele>13.8</ele>
        <time>2020-04-09T13:58:52.000Z</time>
      </trkpt>
      <trkpt lat="47.28999" lon="-2.1951">
        <ele>14</ele>
        <time>2020-04-09T13:58:53.000Z</time>
      </trkpt>
      <trkpt lat="47.29001" lon="-2.19517">
        <ele>13.8</ele>
        <time>2020-04-09T13:58:54.000Z</time>
      </trkpt>
      <trkpt lat="47.29003" lon="-2.19524">
        <ele>14</ele>
        <time>2020-04-09T13:58:55.000Z</time>
      </trkpt>
      <trkpt lat="47.29004" lon="-2.19531">
        <ele>13.8</ele>
        <time>2020-04-09T13:58:56.000Z</time>
      </trkpt>
      <trkpt lat="47.29005" lon="-2.19538">
        <ele>13.8</ele>
        <time>2020-04-09T13:58:57.000Z</time>
      </trkpt>
      <trkpt lat="47.29006" lon="-2.19545">
        <ele>14</ele>
        <time>2020-04-09T13:58:58.000Z</time>
      </trkpt>
      <trkpt lat="47.29006" lon="-2.19552">
        <ele>14.2</ele>
        <time>2020-04-09T13:58:59.000Z</time>
      </trkpt>
      <trkpt lat="47.29007" lon="-2.19558">
        <ele>14.2</ele>
        <time>2020-04-09T13:59:00.000Z</time>
      </trkpt>
      <trkpt lat="47.29008" lon="-2.19567">
        <ele>14.2</ele>
        <time>2020-04-09T13:59:01.000Z</time>
      </trkpt>
      <trkpt lat="47.29009" lon="-2.19574">
        <ele>14.2</ele>
        <time>2020-04-09T13:59:02.000Z</time>
      </trkpt>
      <trkpt lat="47.2901" lon="-2.19581">
        <ele>14.4</ele>
        <time>2020-04-09T13:59:03.000Z</time>
      </trkpt>
      <trkpt lat="47.29011" lon="-2.19588">
        <ele>14.4</ele>
        <time>2020-04-09T13:59:04.000Z</time>
      </trkpt>
      <trkpt lat="47.29012" lon="-2.19596">
        <ele>14.6</ele>
        <time>2020-04-09T13:59:05.000Z</time>
      </trkpt>
      <trkpt lat="47.29012" lon="-2.19603">
        <ele>14.4</ele>
        <time>2020-04-09T13:59:06.000Z</time>
      </trkpt>
      <trkpt lat="47.29013" lon="-2.1961">
        <ele>14.2</ele>
        <time>2020-04-09T13:59:07.000Z</time>
      </trkpt>
      <trkpt lat="47.29014" lon="-2.19617">
        <ele>14.2</ele>
        <time>2020-04-09T13:59:08.000Z</time>
      </trkpt>
      <trkpt lat="47.29015" lon="-2.19625">
        <ele>14</ele>
        <time>2020-04-09T13:59:09.000Z</time>
      </trkpt>
      <trkpt lat="47.29016" lon="-2.19631">
        <ele>14.2</ele>
        <time>2020-04-09T13:59:10.000Z</time>
      </trkpt>
      <trkpt lat="47.29017" lon="-2.19638">
        <ele>14.4</ele>
        <time>2020-04-09T13:59:11.000Z</time>
      </trkpt>
      <trkpt lat="47.29018" lon="-2.19645">
        <ele>14.4</ele>
        <time>2020-04-09T13:59:12.000Z</time>
      </trkpt>
      <trkpt lat="47.29019" lon="-2.19652">
        <ele>14.2</ele>
        <time>2020-04-09T13:59:13.000Z</time>
      </trkpt>
      <trkpt lat="47.29019" lon="-2.19659">
        <ele>14.4</ele>
        <time>2020-04-09T13:59:14.000Z</time>
      </trkpt>
      <trkpt lat="47.2902" lon="-2.19666">
        <ele>14.6</ele>
        <time>2020-04-09T13:59:15.000Z</time>
      </trkpt>
      <trkpt lat="47.29021" lon="-2.19673">
        <ele>14.6</ele>
        <time>2020-04-09T13:59:16.000Z</time>
      </trkpt>
      <trkpt lat="47.29022" lon="-2.1968">
        <ele>14.8</ele>
        <time>2020-04-09T13:59:17.000Z</time>
      </trkpt>
      <trkpt lat="47.29023" lon="-2.19687">
        <ele>14.8</ele>
        <time>2020-04-09T13:59:18.000Z</time>
      </trkpt>
      <trkpt lat="47.29023" lon="-2.19694">
        <ele>14.6</ele>
        <time>2020-04-09T13:59:19.000Z</time>
      </trkpt>
      <trkpt lat="47.29024" lon="-2.19701">
        <ele>14.6</ele>
        <time>2020-04-09T13:59:20.000Z</time>
      </trkpt>
      <trkpt lat="47.29025" lon="-2.19708">
        <ele>14.8</ele>
        <time>2020-04-09T13:59:21.000Z</time>
      </trkpt>
      <trkpt lat="47.29026" lon="-2.19715">
        <ele>14.8</ele>
        <time>2020-04-09T13:59:22.000Z</time>
      </trkpt>
      <trkpt lat="47.29027" lon="-2.19722">
        <ele>14.8</ele>
        <time>2020-04-09T13:59:23.000Z</time>
      </trkpt>
      <trkpt lat="47.29028" lon="-2.19728">
        <ele>14.6</ele>
        <time>2020-04-09T13:59:24.000Z</time>
      </trkpt>
      <trkpt lat="47.29029" lon="-2.19735">
        <ele>14.4</ele>
        <time>2020-04-09T13:59:25.000Z</time>
      </trkpt>
      <trkpt lat="47.2903" lon="-2.19743">
        <ele>14.6</ele>
        <time>2020-04-09T13:59:26.000Z</time>
      </trkpt>
      <trkpt lat="47.29031" lon="-2.1975">
        <ele>14.8</ele>
        <time>2020-04-09T13:59:27.000Z</time>
      </trkpt>
      <trkpt lat="47.29032" lon="-2.19757">
        <ele>14.8</ele>
        <time>2020-04-09T13:59:28.000Z</time>
      </trkpt>
      <trkpt lat="47.29032" lon="-2.19763">
        <ele>15</ele>
        <time>2020-04-09T13:59:29.000Z</time>
      </trkpt>
      <trkpt lat="47.29033" lon="-2.1977">
        <ele>14.8</ele>
        <time>2020-04-09T13:59:30.000Z</time>
      </trkpt>
      <trkpt lat="47.29034" lon="-2.19777">
        <ele>14.8</ele>
        <time>2020-04-09T13:59:31.000Z</time>
      </trkpt>
      <trkpt lat="47.29035" lon="-2.19783">
        <ele>14.8</ele>
        <time>2020-04-09T13:59:32.000Z</time>
      </trkpt>
      <trkpt lat="47.29036" lon="-2.1979">
        <ele>14.6</ele>
        <time>2020-04-09T13:59:33.000Z</time>
      </trkpt>
      <trkpt lat="47.29037" lon="-2.19797">
        <ele>14.6</ele>
        <time>2020-04-09T13:59:34.000Z</time>
      </trkpt>
      <trkpt lat="47.29037" lon="-2.19804">
        <ele>14.4</ele>
        <time>2020-04-09T13:59:35.000Z</time>
      </trkpt>
      <trkpt lat="47.29035" lon="-2.1981">
        <ele>14.6</ele>
        <time>2020-04-09T13:59:36.000Z</time>
      </trkpt>
      <trkpt lat="47.29033" lon="-2.19816">
        <ele>14.4</ele>
        <time>2020-04-09T13:59:37.000Z</time>
      </trkpt>
      <trkpt lat="47.29029" lon="-2.1982">
        <ele>14.6</ele>
        <time>2020-04-09T13:59:38.000Z</time>
      </trkpt>
      <trkpt lat="47.29025" lon="-2.19824">
        <ele>14.6</ele>
        <time>2020-04-09T13:59:39.000Z</time>
      </trkpt>
      <trkpt lat="47.29022" lon="-2.19827">
        <ele>14.8</ele>
        <time>2020-04-09T13:59:40.000Z</time>
      </trkpt>
      <trkpt lat="47.29018" lon="-2.19831">
        <ele>14.6</ele>
        <time>2020-04-09T13:59:41.000Z</time>
      </trkpt>
      <trkpt lat="47.29013" lon="-2.19834">
        <ele>14.8</ele>
        <time>2020-04-09T13:59:42.000Z</time>
      </trkpt>
      <trkpt lat="47.29009" lon="-2.19836">
        <ele>14.6</ele>
        <time>2020-04-09T13:59:43.000Z</time>
      </trkpt>
      <trkpt lat="47.29004" lon="-2.19838">
        <ele>14.8</ele>
        <time>2020-04-09T13:59:44.000Z</time>
      </trkpt>
      <trkpt lat="47.29" lon="-2.1984">
        <ele>14.8</ele>
        <time>2020-04-09T13:59:45.000Z</time>
      </trkpt>
      <trkpt lat="47.28995" lon="-2.19842">
        <ele>14.6</ele>
        <time>2020-04-09T13:59:46.000Z</time>
      </trkpt>
      <trkpt lat="47.28991" lon="-2.19845">
        <ele>14.6</ele>
        <time>2020-04-09T13:59:47.000Z</time>
      </trkpt>
      <trkpt lat="47.28987" lon="-2.19847">
        <ele>14.4</ele>
        <time>2020-04-09T13:59:48.000Z</time>
      </trkpt>
      <trkpt lat="47.28982" lon="-2.19849">
        <ele>14.6</ele>
        <time>2020-04-09T13:59:49.000Z</time>
      </trkpt>
      <trkpt lat="47.28978" lon="-2.1985">
        <ele>14.6</ele>
        <time>2020-04-09T13:59:50.000Z</time>
      </trkpt>
      <trkpt lat="47.28973" lon="-2.19851">
        <ele>14.6</ele>
        <time>2020-04-09T13:59:51.000Z</time>
      </trkpt>
      <trkpt lat="47.28969" lon="-2.19851">
        <ele>14.8</ele>
        <time>2020-04-09T13:59:52.000Z</time>
      </trkpt>
      <trkpt lat="47.28964" lon="-2.19852">
        <ele>14.8</ele>
        <time>2020-04-09T13:59:53.000Z</time>
      </trkpt>
      <trkpt lat="47.2896" lon="-2.19853">
        <ele>15</ele>
        <time>2020-04-09T13:59:54.000Z</time>
      </trkpt>
      <trkpt lat="47.28956" lon="-2.19854">
        <ele>15</ele>
        <time>2020-04-09T13:59:55.000Z</time>
      </trkpt>
      <trkpt lat="47.28952" lon="-2.19855">
        <ele>15.2</ele>
        <time>2020-04-09T13:59:56.000Z</time>
      </trkpt>
      <trkpt lat="47.28948" lon="-2.19855">
        <ele>14.8</ele>
        <time>2020-04-09T13:59:57.000Z</time>
      </trkpt>
      <trkpt lat="47.28944" lon="-2.19854">
        <ele>14.8</ele>
        <time>2020-04-09T13:59:58.000Z</time>
      </trkpt>
      <trkpt lat="47.2894" lon="-2.19853">
        <ele>14.8</ele>
        <time>2020-04-09T13:59:59.000Z</time>
      </trkpt>
      <trkpt lat="47.28935" lon="-2.19853">
        <ele>14.6</ele>
        <time>2020-04-09T14:00:00.000Z</time>
      </trkpt>
      <trkpt lat="47.28931" lon="-2.19854">
        <ele>14.6</ele>
        <time>2020-04-09T14:00:01.000Z</time>
      </trkpt>
      <trkpt lat="47.28927" lon="-2.19855">
        <ele>14.8</ele>
        <time>2020-04-09T14:00:02.000Z</time>
      </trkpt>
      <trkpt lat="47.28922" lon="-2.19856">
        <ele>14.6</ele>
        <time>2020-04-09T14:00:03.000Z</time>
      </trkpt>
      <trkpt lat="47.28918" lon="-2.19857">
        <ele>14.8</ele>
        <time>2020-04-09T14:00:04.000Z</time>
      </trkpt>
      <trkpt lat="47.28914" lon="-2.19858">
        <ele>14.8</ele>
        <time>2020-04-09T14:00:05.000Z</time>
      </trkpt>
      <trkpt lat="47.2891" lon="-2.1986">
        <ele>14.6</ele>
        <time>2020-04-09T14:00:06.000Z</time>
      </trkpt>
      <trkpt lat="47.28906" lon="-2.19862">
        <ele>14.6</ele>
        <time>2020-04-09T14:00:07.000Z</time>
      </trkpt>
      <trkpt lat="47.28902" lon="-2.19864">
        <ele>14.4</ele>
        <time>2020-04-09T14:00:08.000Z</time>
      </trkpt>
      <trkpt lat="47.28899" lon="-2.19866">
        <ele>14.2</ele>
        <time>2020-04-09T14:00:09.000Z</time>
      </trkpt>
      <trkpt lat="47.28896" lon="-2.1987">
        <ele>14.6</ele>
        <time>2020-04-09T14:00:10.000Z</time>
      </trkpt>
      <trkpt lat="47.28894" lon="-2.19875">
        <ele>14.6</ele>
        <time>2020-04-09T14:00:11.000Z</time>
      </trkpt>
      <trkpt lat="47.28891" lon="-2.19879">
        <ele>14.8</ele>
        <time>2020-04-09T14:00:12.000Z</time>
      </trkpt>
      <trkpt lat="47.28888" lon="-2.19881">
        <ele>14.8</ele>
        <time>2020-04-09T14:00:13.000Z</time>
      </trkpt>
      <trkpt lat="47.28885" lon="-2.19884">
        <ele>14.6</ele>
        <time>2020-04-09T14:00:14.000Z</time>
      </trkpt>
      <trkpt lat="47.28882" lon="-2.19886">
        <ele>14.6</ele>
        <time>2020-04-09T14:00:15.000Z</time>
      </trkpt>
      <trkpt lat="47.28879" lon="-2.19889">
        <ele>14.6</ele>
        <time>2020-04-09T14:00:16.000Z</time>
      </trkpt>
      <trkpt lat="47.28876" lon="-2.1989">
        <ele>14.6</ele>
        <time>2020-04-09T14:00:17.000Z</time>
      </trkpt>
      <trkpt lat="47.28873" lon="-2.19893">
        <ele>14.6</ele>
        <time>2020-04-09T14:00:18.000Z</time>
      </trkpt>
      <trkpt lat="47.2887" lon="-2.19895">
        <ele>14.6</ele>
        <time>2020-04-09T14:00:19.000Z</time>
      </trkpt>
      <trkpt lat="47.28867" lon="-2.19898">
        <ele>14.6</ele>
        <time>2020-04-09T14:00:20.000Z</time>
      </trkpt>
      <trkpt lat="47.28863" lon="-2.19901">
        <ele>14.8</ele>
        <time>2020-04-09T14:00:21.000Z</time>
      </trkpt>
      <trkpt lat="47.2886" lon="-2.19903">
        <ele>14.8</ele>
        <time>2020-04-09T14:00:22.000Z</time>
      </trkpt>
      <trkpt lat="47.28857" lon="-2.19904">
        <ele>14.8</ele>
        <time>2020-04-09T14:00:23.000Z</time>
      </trkpt>
      <trkpt lat="47.28853" lon="-2.19906">
        <ele>14.8</ele>
        <time>2020-04-09T14:00:24.000Z</time>
      </trkpt>
      <trkpt lat="47.2885" lon="-2.19907">
        <ele>14.8</ele>
        <time>2020-04-09T14:00:25.000Z</time>
      </trkpt>
      <trkpt lat="47.28846" lon="-2.19908">
        <ele>14.8</ele>
        <time>2020-04-09T14:00:26.000Z</time>
      </trkpt>
      <trkpt lat="47.28842" lon="-2.19908">
        <ele>14.8</ele>
        <time>2020-04-09T14:00:27.000Z</time>
      </trkpt>
      <trkpt lat="47.28839" lon="-2.19908">
        <ele>14.8</ele>
        <time>2020-04-09T14:00:28.000Z</time>
      </trkpt>
      <trkpt lat="47.28835" lon="-2.19909">
        <ele>14.6</ele>
        <time>2020-04-09T14:00:29.000Z</time>
      </trkpt>
      <trkpt lat="47.28831" lon="-2.19911">
        <ele>14.8</ele>
        <time>2020-04-09T14:00:30.000Z</time>
      </trkpt>
      <trkpt lat="47.28828" lon="-2.19913">
        <ele>14.8</ele>
        <time>2020-04-09T14:00:31.000Z</time>
      </trkpt>
      <trkpt lat="47.28824" lon="-2.19915">
        <ele>15</ele>
        <time>2020-04-09T14:00:32.000Z</time>
      </trkpt>
      <trkpt lat="47.2882" lon="-2.19916">
        <ele>14.8</ele>
        <time>2020-04-09T14:00:33.000Z</time>
      </trkpt>
      <trkpt lat="47.28816" lon="-2.19916">
        <ele>14.8</ele>
        <time>2020-04-09T14:00:34.000Z</time>
      </trkpt>
      <trkpt lat="47.28812" lon="-2.19915">
        <ele>14.8</ele>
        <time>2020-04-09T14:00:35.000Z</time>
      </trkpt>
      <trkpt lat="47.28808" lon="-2.19915">
        <ele>14.6</ele>
        <time>2020-04-09T14:00:36.000Z</time>
      </trkpt>
      <trkpt lat="47.28805" lon="-2.19916">
        <ele>14.8</ele>
        <time>2020-04-09T14:00:37.000Z</time>
      </trkpt>
      <trkpt lat="47.28801" lon="-2.19918">
        <ele>14.6</ele>
        <time>2020-04-09T14:00:38.000Z</time>
      </trkpt>
      <trkpt lat="47.28798" lon="-2.19919">
        <ele>14.8</ele>
        <time>2020-04-09T14:00:39.000Z</time>
      </trkpt>
      <trkpt lat="47.28794" lon="-2.19919">
        <ele>14.8</ele>
        <time>2020-04-09T14:00:40.000Z</time>
      </trkpt>
      <trkpt lat="47.2879" lon="-2.1992">
        <ele>15</ele>
        <time>2020-04-09T14:00:41.000Z</time>
      </trkpt>
      <trkpt lat="47.28786" lon="-2.1992">
        <ele>14.8</ele>
        <time>2020-04-09T14:00:42.000Z</time>
      </trkpt>
      <trkpt lat="47.28782" lon="-2.19921">
        <ele>14.8</ele>
        <time>2020-04-09T14:00:43.000Z</time>
      </trkpt>
      <trkpt lat="47.28778" lon="-2.19923">
        <ele>14.6</ele>
        <time>2020-04-09T14:00:44.000Z</time>
      </trkpt>
      <trkpt lat="47.28774" lon="-2.19925">
        <ele>14.6</ele>
        <time>2020-04-09T14:00:45.000Z</time>
      </trkpt>
      <trkpt lat="47.2877" lon="-2.19929">
        <ele>14.6</ele>
        <time>2020-04-09T14:00:46.000Z</time>
      </trkpt>
      <trkpt lat="47.28768" lon="-2.19933">
        <ele>14.6</ele>
        <time>2020-04-09T14:00:47.000Z</time>
      </trkpt>
      <trkpt lat="47.28765" lon="-2.19937">
        <ele>14.6</ele>
        <time>2020-04-09T14:00:48.000Z</time>
      </trkpt>
      <trkpt lat="47.28762" lon="-2.19942">
        <ele>14.6</ele>
        <time>2020-04-09T14:00:49.000Z</time>
      </trkpt>
      <trkpt lat="47.2876" lon="-2.19947">
        <ele>14.6</ele>
        <time>2020-04-09T14:00:50.000Z</time>
      </trkpt>
      <trkpt lat="47.28758" lon="-2.19953">
        <ele>14.4</ele>
        <time>2020-04-09T14:00:51.000Z</time>
      </trkpt>
      <trkpt lat="47.28757" lon="-2.1996">
        <ele>14.4</ele>
        <time>2020-04-09T14:00:52.000Z</time>
      </trkpt>
      <trkpt lat="47.28756" lon="-2.19966">
        <ele>14.6</ele>
        <time>2020-04-09T14:00:53.000Z</time>
      </trkpt>
      <trkpt lat="47.28757" lon="-2.19972">
        <ele>14.6</ele>
        <time>2020-04-09T14:00:54.000Z</time>
      </trkpt>
      <trkpt lat="47.28758" lon="-2.19978">
        <ele>14.4</ele>
        <time>2020-04-09T14:00:55.000Z</time>
      </trkpt>
      <trkpt lat="47.28759" lon="-2.19984">
        <ele>14.2</ele>
        <time>2020-04-09T14:00:56.000Z</time>
      </trkpt>
      <trkpt lat="47.28758" lon="-2.19991">
        <ele>14</ele>
        <time>2020-04-09T14:00:57.000Z</time>
      </trkpt>
      <trkpt lat="47.28756" lon="-2.19997">
        <ele>14</ele>
        <time>2020-04-09T14:00:58.000Z</time>
      </trkpt>
      <trkpt lat="47.28753" lon="-2.20001">
        <ele>14</ele>
        <time>2020-04-09T14:00:59.000Z</time>
      </trkpt>
      <trkpt lat="47.28745" lon="-2.20009">
        <ele>14.4</ele>
        <time>2020-04-09T14:01:01.000Z</time>
      </trkpt>
      <trkpt lat="47.28742" lon="-2.20012">
        <ele>14.4</ele>
        <time>2020-04-09T14:01:02.000Z</time>
      </trkpt>
      <trkpt lat="47.28738" lon="-2.20016">
        <ele>14.4</ele>
        <time>2020-04-09T14:01:03.000Z</time>
      </trkpt>
      <trkpt lat="47.28734" lon="-2.2002">
        <ele>14.4</ele>
        <time>2020-04-09T14:01:04.000Z</time>
      </trkpt>
      <trkpt lat="47.2873" lon="-2.20023">
        <ele>14.6</ele>
        <time>2020-04-09T14:01:05.000Z</time>
      </trkpt>
      <trkpt lat="47.28726" lon="-2.20027">
        <ele>14.4</ele>
        <time>2020-04-09T14:01:06.000Z</time>
      </trkpt>
      <trkpt lat="47.28722" lon="-2.20029">
        <ele>14.4</ele>
        <time>2020-04-09T14:01:07.000Z</time>
      </trkpt>
      <trkpt lat="47.28717" lon="-2.20033">
        <ele>14.4</ele>
        <time>2020-04-09T14:01:08.000Z</time>
      </trkpt>
      <trkpt lat="47.28713" lon="-2.20036">
        <ele>14.4</ele>
        <time>2020-04-09T14:01:09.000Z</time>
      </trkpt>
      <trkpt lat="47.28708" lon="-2.20038">
        <ele>14.2</ele>
        <time>2020-04-09T14:01:10.000Z</time>
      </trkpt>
      <trkpt lat="47.28704" lon="-2.2004">
        <ele>14.4</ele>
        <time>2020-04-09T14:01:11.000Z</time>
      </trkpt>
      <trkpt lat="47.28699" lon="-2.20042">
        <ele>14.4</ele>
        <time>2020-04-09T14:01:12.000Z</time>
      </trkpt>
      <trkpt lat="47.28694" lon="-2.20044">
        <ele>14.2</ele>
        <time>2020-04-09T14:01:13.000Z</time>
      </trkpt>
      <trkpt lat="47.2869" lon="-2.20046">
        <ele>14.2</ele>
        <time>2020-04-09T14:01:14.000Z</time>
      </trkpt>
      <trkpt lat="47.28686" lon="-2.20047">
        <ele>14.4</ele>
        <time>2020-04-09T14:01:15.000Z</time>
      </trkpt>
      <trkpt lat="47.28681" lon="-2.20049">
        <ele>14.2</ele>
        <time>2020-04-09T14:01:16.000Z</time>
      </trkpt>
      <trkpt lat="47.28672" lon="-2.20052">
        <ele>14.2</ele>
        <time>2020-04-09T14:01:18.000Z</time>
      </trkpt>
      <trkpt lat="47.28668" lon="-2.20053">
        <ele>14.2</ele>
        <time>2020-04-09T14:01:19.000Z</time>
      </trkpt>
      <trkpt lat="47.28658" lon="-2.20056">
        <ele>14.2</ele>
        <time>2020-04-09T14:01:20.000Z</time>
      </trkpt>
      <trkpt lat="47.28654" lon="-2.20057">
        <ele>14.2</ele>
        <time>2020-04-09T14:01:21.000Z</time>
      </trkpt>
      <trkpt lat="47.28649" lon="-2.20058">
        <ele>14.4</ele>
        <time>2020-04-09T14:01:22.000Z</time>
      </trkpt>
      <trkpt lat="47.28644" lon="-2.20059">
        <ele>14.6</ele>
        <time>2020-04-09T14:01:23.000Z</time>
      </trkpt>
      <trkpt lat="47.2864" lon="-2.2006">
        <ele>14.8</ele>
        <time>2020-04-09T14:01:24.000Z</time>
      </trkpt>
      <trkpt lat="47.28635" lon="-2.20062">
        <ele>14.8</ele>
        <time>2020-04-09T14:01:25.000Z</time>
      </trkpt>
      <trkpt lat="47.2863" lon="-2.20063">
        <ele>14.6</ele>
        <time>2020-04-09T14:01:26.000Z</time>
      </trkpt>
      <trkpt lat="47.28625" lon="-2.20064">
        <ele>14.4</ele>
        <time>2020-04-09T14:01:27.000Z</time>
      </trkpt>
      <trkpt lat="47.28621" lon="-2.20066">
        <ele>14.4</ele>
        <time>2020-04-09T14:01:28.000Z</time>
      </trkpt>
      <trkpt lat="47.28616" lon="-2.20067">
        <ele>14.6</ele>
        <time>2020-04-09T14:01:29.000Z</time>
      </trkpt>
      <trkpt lat="47.28612" lon="-2.20068">
        <ele>14.6</ele>
        <time>2020-04-09T14:01:30.000Z</time>
      </trkpt>
      <trkpt lat="47.28607" lon="-2.20068">
        <ele>14.4</ele>
        <time>2020-04-09T14:01:31.000Z</time>
      </trkpt>
      <trkpt lat="47.28602" lon="-2.20069">
        <ele>14.2</ele>
        <time>2020-04-09T14:01:32.000Z</time>
      </trkpt>
      <trkpt lat="47.28598" lon="-2.2007">
        <ele>14.2</ele>
        <time>2020-04-09T14:01:33.000Z</time>
      </trkpt>
      <trkpt lat="47.28598" lon="-2.2007">
        <ele>14.2</ele>
        <time>2020-04-09T14:01:34.000Z</time>
      </trkpt>
      <trkpt lat="47.28593" lon="-2.2007">
        <ele>14.6</ele>
        <time>2020-04-09T14:01:35.000Z</time>
      </trkpt>
      <trkpt lat="47.28589" lon="-2.20071">
        <ele>14.8</ele>
        <time>2020-04-09T14:01:36.000Z</time>
      </trkpt>
      <trkpt lat="47.28584" lon="-2.20071">
        <ele>14.6</ele>
        <time>2020-04-09T14:01:38.000Z</time>
      </trkpt>
      <trkpt lat="47.28575" lon="-2.2007">
        <ele>14.6</ele>
        <time>2020-04-09T14:01:39.000Z</time>
      </trkpt>
      <trkpt lat="47.28571" lon="-2.20069">
        <ele>14.8</ele>
        <time>2020-04-09T14:01:40.000Z</time>
      </trkpt>
      <trkpt lat="47.28568" lon="-2.20066">
        <ele>14.8</ele>
        <time>2020-04-09T14:01:41.000Z</time>
      </trkpt>
      <trkpt lat="47.28564" lon="-2.20063">
        <ele>14.8</ele>
        <time>2020-04-09T14:01:42.000Z</time>
      </trkpt>
      <trkpt lat="47.2856" lon="-2.20062">
        <ele>14.8</ele>
        <time>2020-04-09T14:01:43.000Z</time>
      </trkpt>
      <trkpt lat="47.28556" lon="-2.20062">
        <ele>14.6</ele>
        <time>2020-04-09T14:01:44.000Z</time>
      </trkpt>
      <trkpt lat="47.28553" lon="-2.20061">
        <ele>14.6</ele>
        <time>2020-04-09T14:01:45.000Z</time>
      </trkpt>
      <trkpt lat="47.28549" lon="-2.2006">
        <ele>14.4</ele>
        <time>2020-04-09T14:01:46.000Z</time>
      </trkpt>
      <trkpt lat="47.28545" lon="-2.20057">
        <ele>14.4</ele>
        <time>2020-04-09T14:01:47.000Z</time>
      </trkpt>
      <trkpt lat="47.28542" lon="-2.20054">
        <ele>14.4</ele>
        <time>2020-04-09T14:01:48.000Z</time>
      </trkpt>
      <trkpt lat="47.28539" lon="-2.2005">
        <ele>14.6</ele>
        <time>2020-04-09T14:01:49.000Z</time>
      </trkpt>
      <trkpt lat="47.28536" lon="-2.20048">
        <ele>14.6</ele>
        <time>2020-04-09T14:01:50.000Z</time>
      </trkpt>
      <trkpt lat="47.28533" lon="-2.20045">
        <ele>14.6</ele>
        <time>2020-04-09T14:01:51.000Z</time>
      </trkpt>
      <trkpt lat="47.28529" lon="-2.20043">
        <ele>14.8</ele>
        <time>2020-04-09T14:01:52.000Z</time>
      </trkpt>
      <trkpt lat="47.28525" lon="-2.2004">
        <ele>14.6</ele>
        <time>2020-04-09T14:01:53.000Z</time>
      </trkpt>
      <trkpt lat="47.28521" lon="-2.20038">
        <ele>14.8</ele>
        <time>2020-04-09T14:01:54.000Z</time>
      </trkpt>
      <trkpt lat="47.28517" lon="-2.20035">
        <ele>14.8</ele>
        <time>2020-04-09T14:01:55.000Z</time>
      </trkpt>
      <trkpt lat="47.28514" lon="-2.20032">
        <ele>14.8</ele>
        <time>2020-04-09T14:01:56.000Z</time>
      </trkpt>
      <trkpt lat="47.28511" lon="-2.20029">
        <ele>14.8</ele>
        <time>2020-04-09T14:01:57.000Z</time>
      </trkpt>
      <trkpt lat="47.28507" lon="-2.20025">
        <ele>14.6</ele>
        <time>2020-04-09T14:01:58.000Z</time>
      </trkpt>
      <trkpt lat="47.28504" lon="-2.20023">
        <ele>14.8</ele>
        <time>2020-04-09T14:01:59.000Z</time>
      </trkpt>
      <trkpt lat="47.285" lon="-2.20021">
        <ele>14.8</ele>
        <time>2020-04-09T14:02:00.000Z</time>
      </trkpt>
      <trkpt lat="47.28496" lon="-2.20019">
        <ele>14.8</ele>
        <time>2020-04-09T14:02:01.000Z</time>
      </trkpt>
      <trkpt lat="47.28492" lon="-2.20017">
        <ele>15</ele>
        <time>2020-04-09T14:02:02.000Z</time>
      </trkpt>
      <trkpt lat="47.28488" lon="-2.20016">
        <ele>14.8</ele>
        <time>2020-04-09T14:02:03.000Z</time>
      </trkpt>
      <trkpt lat="47.28484" lon="-2.20014">
        <ele>15</ele>
        <time>2020-04-09T14:02:04.000Z</time>
      </trkpt>
      <trkpt lat="47.2848" lon="-2.20012">
        <ele>14.8</ele>
        <time>2020-04-09T14:02:05.000Z</time>
      </trkpt>
      <trkpt lat="47.28476" lon="-2.20011">
        <ele>14.8</ele>
        <time>2020-04-09T14:02:06.000Z</time>
      </trkpt>
      <trkpt lat="47.28472" lon="-2.20011">
        <ele>15.2</ele>
        <time>2020-04-09T14:02:07.000Z</time>
      </trkpt>
      <trkpt lat="47.28468" lon="-2.2001">
        <ele>14.8</ele>
        <time>2020-04-09T14:02:08.000Z</time>
      </trkpt>
      <trkpt lat="47.28464" lon="-2.20009">
        <ele>15</ele>
        <time>2020-04-09T14:02:09.000Z</time>
      </trkpt>
      <trkpt lat="47.28459" lon="-2.20008">
        <ele>15</ele>
        <time>2020-04-09T14:02:10.000Z</time>
      </trkpt>
      <trkpt lat="47.28455" lon="-2.20006">
        <ele>14.8</ele>
        <time>2020-04-09T14:02:11.000Z</time>
      </trkpt>
      <trkpt lat="47.28451" lon="-2.20005">
        <ele>14.8</ele>
        <time>2020-04-09T14:02:12.000Z</time>
      </trkpt>
      <trkpt lat="47.28447" lon="-2.20004">
        <ele>15</ele>
        <time>2020-04-09T14:02:13.000Z</time>
      </trkpt>
      <trkpt lat="47.28443" lon="-2.20005">
        <ele>15.2</ele>
        <time>2020-04-09T14:02:14.000Z</time>
      </trkpt>
      <trkpt lat="47.28439" lon="-2.20005">
        <ele>15.2</ele>
        <time>2020-04-09T14:02:15.000Z</time>
      </trkpt>
      <trkpt lat="47.28435" lon="-2.20005">
        <ele>15</ele>
        <time>2020-04-09T14:02:16.000Z</time>
      </trkpt>
      <trkpt lat="47.2843" lon="-2.20005">
        <ele>14.8</ele>
        <time>2020-04-09T14:02:17.000Z</time>
      </trkpt>
      <trkpt lat="47.28426" lon="-2.20005">
        <ele>14.8</ele>
        <time>2020-04-09T14:02:18.000Z</time>
      </trkpt>
      <trkpt lat="47.28422" lon="-2.20005">
        <ele>15</ele>
        <time>2020-04-09T14:02:19.000Z</time>
      </trkpt>
      <trkpt lat="47.28418" lon="-2.20005">
        <ele>15</ele>
        <time>2020-04-09T14:02:20.000Z</time>
      </trkpt>
      <trkpt lat="47.28414" lon="-2.20006">
        <ele>15</ele>
        <time>2020-04-09T14:02:21.000Z</time>
      </trkpt>
      <trkpt lat="47.2841" lon="-2.20006">
        <ele>15.2</ele>
        <time>2020-04-09T14:02:22.000Z</time>
      </trkpt>
      <trkpt lat="47.28406" lon="-2.20006">
        <ele>15.2</ele>
        <time>2020-04-09T14:02:23.000Z</time>
      </trkpt>
      <trkpt lat="47.28402" lon="-2.20007">
        <ele>15</ele>
        <time>2020-04-09T14:02:24.000Z</time>
      </trkpt>
      <trkpt lat="47.28398" lon="-2.20008">
        <ele>15.2</ele>
        <time>2020-04-09T14:02:25.000Z</time>
      </trkpt>
      <trkpt lat="47.28393" lon="-2.20009">
        <ele>15.2</ele>
        <time>2020-04-09T14:02:26.000Z</time>
      </trkpt>
      <trkpt lat="47.28389" lon="-2.20009">
        <ele>15.2</ele>
        <time>2020-04-09T14:02:27.000Z</time>
      </trkpt>
      <trkpt lat="47.28386" lon="-2.20009">
        <ele>15.4</ele>
        <time>2020-04-09T14:02:28.000Z</time>
      </trkpt>
      <trkpt lat="47.28382" lon="-2.20008">
        <ele>15.4</ele>
        <time>2020-04-09T14:02:29.000Z</time>
      </trkpt>
      <trkpt lat="47.28378" lon="-2.20008">
        <ele>15.2</ele>
        <time>2020-04-09T14:02:30.000Z</time>
      </trkpt>
      <trkpt lat="47.28374" lon="-2.20007">
        <ele>15.2</ele>
        <time>2020-04-09T14:02:31.000Z</time>
      </trkpt>
      <trkpt lat="47.2837" lon="-2.20007">
        <ele>15.2</ele>
        <time>2020-04-09T14:02:32.000Z</time>
      </trkpt>
      <trkpt lat="47.28366" lon="-2.20008">
        <ele>15.2</ele>
        <time>2020-04-09T14:02:33.000Z</time>
      </trkpt>
      <trkpt lat="47.28362" lon="-2.2001">
        <ele>15</ele>
        <time>2020-04-09T14:02:34.000Z</time>
      </trkpt>
      <trkpt lat="47.28359" lon="-2.20011">
        <ele>14.8</ele>
        <time>2020-04-09T14:02:35.000Z</time>
      </trkpt>
      <trkpt lat="47.28356" lon="-2.20014">
        <ele>14.8</ele>
        <time>2020-04-09T14:02:36.000Z</time>
      </trkpt>
      <trkpt lat="47.28353" lon="-2.20016">
        <ele>13.8</ele>
        <time>2020-04-09T14:02:37.000Z</time>
      </trkpt>
      <trkpt lat="47.28349" lon="-2.2002">
        <ele>14.4</ele>
        <time>2020-04-09T14:02:38.000Z</time>
      </trkpt>
      <trkpt lat="47.28346" lon="-2.20023">
        <ele>14.4</ele>
        <time>2020-04-09T14:02:39.000Z</time>
      </trkpt>
      <trkpt lat="47.28344" lon="-2.20026">
        <ele>14.4</ele>
        <time>2020-04-09T14:02:40.000Z</time>
      </trkpt>
      <trkpt lat="47.28341" lon="-2.2003">
        <ele>15</ele>
        <time>2020-04-09T14:02:41.000Z</time>
      </trkpt>
      <trkpt lat="47.28338" lon="-2.20032">
        <ele>15</ele>
        <time>2020-04-09T14:02:42.000Z</time>
      </trkpt>
      <trkpt lat="47.28335" lon="-2.20034">
        <ele>15</ele>
        <time>2020-04-09T14:02:43.000Z</time>
      </trkpt>
      <trkpt lat="47.28331" lon="-2.20035">
        <ele>15</ele>
        <time>2020-04-09T14:02:44.000Z</time>
      </trkpt>
      <trkpt lat="47.28327" lon="-2.20035">
        <ele>15</ele>
        <time>2020-04-09T14:02:45.000Z</time>
      </trkpt>
      <trkpt lat="47.28324" lon="-2.20035">
        <ele>15.2</ele>
        <time>2020-04-09T14:02:46.000Z</time>
      </trkpt>
      <trkpt lat="47.2832" lon="-2.20036">
        <ele>15.2</ele>
        <time>2020-04-09T14:02:47.000Z</time>
      </trkpt>
      <trkpt lat="47.28316" lon="-2.20036">
        <ele>15.2</ele>
        <time>2020-04-09T14:02:48.000Z</time>
      </trkpt>
      <trkpt lat="47.28312" lon="-2.20035">
        <ele>15.2</ele>
        <time>2020-04-09T14:02:49.000Z</time>
      </trkpt>
      <trkpt lat="47.28308" lon="-2.20034">
        <ele>15.2</ele>
        <time>2020-04-09T14:02:50.000Z</time>
      </trkpt>
      <trkpt lat="47.28304" lon="-2.20033">
        <ele>15.2</ele>
        <time>2020-04-09T14:02:51.000Z</time>
      </trkpt>
      <trkpt lat="47.283" lon="-2.20032">
        <ele>15.2</ele>
        <time>2020-04-09T14:02:52.000Z</time>
      </trkpt>
      <trkpt lat="47.28296" lon="-2.20031">
        <ele>15.2</ele>
        <time>2020-04-09T14:02:53.000Z</time>
      </trkpt>
      <trkpt lat="47.28293" lon="-2.2003">
        <ele>15</ele>
        <time>2020-04-09T14:02:54.000Z</time>
      </trkpt>
      <trkpt lat="47.28289" lon="-2.20029">
        <ele>15.2</ele>
        <time>2020-04-09T14:02:55.000Z</time>
      </trkpt>
      <trkpt lat="47.28285" lon="-2.20028">
        <ele>15</ele>
        <time>2020-04-09T14:02:56.000Z</time>
      </trkpt>
      <trkpt lat="47.28281" lon="-2.20028">
        <ele>15</ele>
        <time>2020-04-09T14:02:57.000Z</time>
      </trkpt>
      <trkpt lat="47.28277" lon="-2.20028">
        <ele>15</ele>
        <time>2020-04-09T14:02:58.000Z</time>
      </trkpt>
      <trkpt lat="47.28273" lon="-2.20028">
        <ele>15</ele>
        <time>2020-04-09T14:02:59.000Z</time>
      </trkpt>
      <trkpt lat="47.28269" lon="-2.20028">
        <ele>15.2</ele>
        <time>2020-04-09T14:03:00.000Z</time>
      </trkpt>
      <trkpt lat="47.28265" lon="-2.20028">
        <ele>15.2</ele>
        <time>2020-04-09T14:03:01.000Z</time>
      </trkpt>
      <trkpt lat="47.28261" lon="-2.20028">
        <ele>15.2</ele>
        <time>2020-04-09T14:03:02.000Z</time>
      </trkpt>
      <trkpt lat="47.28257" lon="-2.20029">
        <ele>15</ele>
        <time>2020-04-09T14:03:03.000Z</time>
      </trkpt>
      <trkpt lat="47.28253" lon="-2.2003">
        <ele>15</ele>
        <time>2020-04-09T14:03:04.000Z</time>
      </trkpt>
      <trkpt lat="47.28249" lon="-2.2003">
        <ele>15</ele>
        <time>2020-04-09T14:03:05.000Z</time>
      </trkpt>
      <trkpt lat="47.28246" lon="-2.2003">
        <ele>15.2</ele>
        <time>2020-04-09T14:03:06.000Z</time>
      </trkpt>
      <trkpt lat="47.28242" lon="-2.2003">
        <ele>15</ele>
        <time>2020-04-09T14:03:07.000Z</time>
      </trkpt>
      <trkpt lat="47.28238" lon="-2.2003">
        <ele>15</ele>
        <time>2020-04-09T14:03:08.000Z</time>
      </trkpt>
      <trkpt lat="47.28234" lon="-2.20031">
        <ele>15</ele>
        <time>2020-04-09T14:03:09.000Z</time>
      </trkpt>
      <trkpt lat="47.2823" lon="-2.20031">
        <ele>15.2</ele>
        <time>2020-04-09T14:03:10.000Z</time>
      </trkpt>
      <trkpt lat="47.28226" lon="-2.20032">
        <ele>15.2</ele>
        <time>2020-04-09T14:03:11.000Z</time>
      </trkpt>
      <trkpt lat="47.28222" lon="-2.20032">
        <ele>15.2</ele>
        <time>2020-04-09T14:03:12.000Z</time>
      </trkpt>
      <trkpt lat="47.28218" lon="-2.20033">
        <ele>15.2</ele>
        <time>2020-04-09T14:03:13.000Z</time>
      </trkpt>
      <trkpt lat="47.28214" lon="-2.20034">
        <ele>15.4</ele>
        <time>2020-04-09T14:03:14.000Z</time>
      </trkpt>
      <trkpt lat="47.2821" lon="-2.20036">
        <ele>15.4</ele>
        <time>2020-04-09T14:03:15.000Z</time>
      </trkpt>
      <trkpt lat="47.28206" lon="-2.20037">
        <ele>15</ele>
        <time>2020-04-09T14:03:16.000Z</time>
      </trkpt>
      <trkpt lat="47.28202" lon="-2.20038">
        <ele>15</ele>
        <time>2020-04-09T14:03:17.000Z</time>
      </trkpt>
      <trkpt lat="47.28198" lon="-2.20039">
        <ele>14.8</ele>
        <time>2020-04-09T14:03:18.000Z</time>
      </trkpt>
      <trkpt lat="47.28194" lon="-2.2004">
        <ele>15</ele>
        <time>2020-04-09T14:03:19.000Z</time>
      </trkpt>
      <trkpt lat="47.2819" lon="-2.20042">
        <ele>15</ele>
        <time>2020-04-09T14:03:20.000Z</time>
      </trkpt>
      <trkpt lat="47.28186" lon="-2.20043">
        <ele>15.2</ele>
        <time>2020-04-09T14:03:21.000Z</time>
      </trkpt>
      <trkpt lat="47.28182" lon="-2.20045">
        <ele>15.2</ele>
        <time>2020-04-09T14:03:22.000Z</time>
      </trkpt>
      <trkpt lat="47.28178" lon="-2.20047">
        <ele>15.2</ele>
        <time>2020-04-09T14:03:23.000Z</time>
      </trkpt>
      <trkpt lat="47.28175" lon="-2.20048">
        <ele>15.4</ele>
        <time>2020-04-09T14:03:24.000Z</time>
      </trkpt>
      <trkpt lat="47.28171" lon="-2.20049">
        <ele>15.4</ele>
        <time>2020-04-09T14:03:25.000Z</time>
      </trkpt>
      <trkpt lat="47.28167" lon="-2.2005">
        <ele>15.4</ele>
        <time>2020-04-09T14:03:26.000Z</time>
      </trkpt>
      <trkpt lat="47.28163" lon="-2.20052">
        <ele>15.2</ele>
        <time>2020-04-09T14:03:27.000Z</time>
      </trkpt>
      <trkpt lat="47.28159" lon="-2.20051">
        <ele>15</ele>
        <time>2020-04-09T14:03:28.000Z</time>
      </trkpt>
      <trkpt lat="47.28155" lon="-2.20051">
        <ele>15</ele>
        <time>2020-04-09T14:03:29.000Z</time>
      </trkpt>
      <trkpt lat="47.28151" lon="-2.20052">
        <ele>14.8</ele>
        <time>2020-04-09T14:03:30.000Z</time>
      </trkpt>
      <trkpt lat="47.28146" lon="-2.20054">
        <ele>15.2</ele>
        <time>2020-04-09T14:03:31.000Z</time>
      </trkpt>
      <trkpt lat="47.28142" lon="-2.20054">
        <ele>15.2</ele>
        <time>2020-04-09T14:03:32.000Z</time>
      </trkpt>
      <trkpt lat="47.28138" lon="-2.20054">
        <ele>15.2</ele>
        <time>2020-04-09T14:03:33.000Z</time>
      </trkpt>
      <trkpt lat="47.28134" lon="-2.20055">
        <ele>15.4</ele>
        <time>2020-04-09T14:03:34.000Z</time>
      </trkpt>
      <trkpt lat="47.28129" lon="-2.20055">
        <ele>15.2</ele>
        <time>2020-04-09T14:03:35.000Z</time>
      </trkpt>
      <trkpt lat="47.28124" lon="-2.20056">
        <ele>15.2</ele>
        <time>2020-04-09T14:03:36.000Z</time>
      </trkpt>
      <trkpt lat="47.28119" lon="-2.20055">
        <ele>15</ele>
        <time>2020-04-09T14:03:37.000Z</time>
      </trkpt>
      <trkpt lat="47.28114" lon="-2.20055">
        <ele>15</ele>
        <time>2020-04-09T14:03:38.000Z</time>
      </trkpt>
      <trkpt lat="47.2811" lon="-2.20054">
        <ele>14.8</ele>
        <time>2020-04-09T14:03:39.000Z</time>
      </trkpt>
      <trkpt lat="47.28105" lon="-2.20052">
        <ele>15</ele>
        <time>2020-04-09T14:03:40.000Z</time>
      </trkpt>
      <trkpt lat="47.28101" lon="-2.2005">
        <ele>15.2</ele>
        <time>2020-04-09T14:03:41.000Z</time>
      </trkpt>
      <trkpt lat="47.28096" lon="-2.20047">
        <ele>15.2</ele>
        <time>2020-04-09T14:03:42.000Z</time>
      </trkpt>
      <trkpt lat="47.28091" lon="-2.20044">
        <ele>15.2</ele>
        <time>2020-04-09T14:03:43.000Z</time>
      </trkpt>
      <trkpt lat="47.28089" lon="-2.20047">
        <ele>15.4</ele>
        <time>2020-04-09T14:03:44.000Z</time>
      </trkpt>
      <trkpt lat="47.28086" lon="-2.20052">
        <ele>15.2</ele>
        <time>2020-04-09T14:03:45.000Z</time>
      </trkpt>
      <trkpt lat="47.28083" lon="-2.20055">
        <ele>15.4</ele>
        <time>2020-04-09T14:03:46.000Z</time>
      </trkpt>
      <trkpt lat="47.2808" lon="-2.20058">
        <ele>15.4</ele>
        <time>2020-04-09T14:03:47.000Z</time>
      </trkpt>
      <trkpt lat="47.28077" lon="-2.20061">
        <ele>15.2</ele>
        <time>2020-04-09T14:03:48.000Z</time>
      </trkpt>
      <trkpt lat="47.28073" lon="-2.20063">
        <ele>14.8</ele>
        <time>2020-04-09T14:03:49.000Z</time>
      </trkpt>
      <trkpt lat="47.2807" lon="-2.20065">
        <ele>14.8</ele>
        <time>2020-04-09T14:03:50.000Z</time>
      </trkpt>
      <trkpt lat="47.28067" lon="-2.20067">
        <ele>15</ele>
        <time>2020-04-09T14:03:51.000Z</time>
      </trkpt>
      <trkpt lat="47.28063" lon="-2.20068">
        <ele>15</ele>
        <time>2020-04-09T14:03:52.000Z</time>
      </trkpt>
      <trkpt lat="47.28059" lon="-2.2007">
        <ele>15.2</ele>
        <time>2020-04-09T14:03:53.000Z</time>
      </trkpt>
      <trkpt lat="47.28056" lon="-2.20071">
        <ele>15</ele>
        <time>2020-04-09T14:03:54.000Z</time>
      </trkpt>
      <trkpt lat="47.28053" lon="-2.20073">
        <ele>15</ele>
        <time>2020-04-09T14:03:55.000Z</time>
      </trkpt>
      <trkpt lat="47.2805" lon="-2.20074">
        <ele>15.2</ele>
        <time>2020-04-09T14:03:56.000Z</time>
      </trkpt>
      <trkpt lat="47.28047" lon="-2.20075">
        <ele>14.8</ele>
        <time>2020-04-09T14:03:57.000Z</time>
      </trkpt>
      <trkpt lat="47.28044" lon="-2.20076">
        <ele>15.2</ele>
        <time>2020-04-09T14:03:58.000Z</time>
      </trkpt>
      <trkpt lat="47.28041" lon="-2.20077">
        <ele>15.2</ele>
        <time>2020-04-09T14:03:59.000Z</time>
      </trkpt>
      <trkpt lat="47.28039" lon="-2.2008">
        <ele>15.2</ele>
        <time>2020-04-09T14:04:00.000Z</time>
      </trkpt>
      <trkpt lat="47.28037" lon="-2.20081">
        <ele>15.2</ele>
        <time>2020-04-09T14:04:01.000Z</time>
      </trkpt>
      <trkpt lat="47.28035" lon="-2.20081">
        <ele>15</ele>
        <time>2020-04-09T14:04:02.000Z</time>
      </trkpt>
      <trkpt lat="47.28033" lon="-2.2008">
        <ele>15</ele>
        <time>2020-04-09T14:04:03.000Z</time>
      </trkpt>
      <trkpt lat="47.28033" lon="-2.20078">
        <ele>15.2</ele>
        <time>2020-04-09T14:04:04.000Z</time>
      </trkpt>
      <trkpt lat="47.28033" lon="-2.20075">
        <ele>15.2</ele>
        <time>2020-04-09T14:04:05.000Z</time>
      </trkpt>
      <trkpt lat="47.28035" lon="-2.20074">
        <ele>15.4</ele>
        <time>2020-04-09T14:04:06.000Z</time>
      </trkpt>
      <trkpt lat="47.28037" lon="-2.20074">
        <ele>15.4</ele>
        <time>2020-04-09T14:04:07.000Z</time>
      </trkpt>
      <trkpt lat="47.28039" lon="-2.20074">
        <ele>15.2</ele>
        <time>2020-04-09T14:04:08.000Z</time>
      </trkpt>
      <trkpt lat="47.28042" lon="-2.20073">
        <ele>15.4</ele>
        <time>2020-04-09T14:04:09.000Z</time>
      </trkpt>
      <trkpt lat="47.28045" lon="-2.20073">
        <ele>15.4</ele>
        <time>2020-04-09T14:04:10.000Z</time>
      </trkpt>
      <trkpt lat="47.28048" lon="-2.20072">
        <ele>15.4</ele>
        <time>2020-04-09T14:04:11.000Z</time>
      </trkpt>
      <trkpt lat="47.28051" lon="-2.20071">
        <ele>15.4</ele>
        <time>2020-04-09T14:04:12.000Z</time>
      </trkpt>
      <trkpt lat="47.28055" lon="-2.2007">
        <ele>15.2</ele>
        <time>2020-04-09T14:04:13.000Z</time>
      </trkpt>
      <trkpt lat="47.28059" lon="-2.20069">
        <ele>15.2</ele>
        <time>2020-04-09T14:04:14.000Z</time>
      </trkpt>
      <trkpt lat="47.28062" lon="-2.20069">
        <ele>15.2</ele>
        <time>2020-04-09T14:04:15.000Z</time>
      </trkpt>
      <trkpt lat="47.28066" lon="-2.20068">
        <ele>15</ele>
        <time>2020-04-09T14:04:16.000Z</time>
      </trkpt>
      <trkpt lat="47.2807" lon="-2.20067">
        <ele>15</ele>
        <time>2020-04-09T14:04:17.000Z</time>
      </trkpt>
      <trkpt lat="47.28074" lon="-2.20066">
        <ele>15</ele>
        <time>2020-04-09T14:04:18.000Z</time>
      </trkpt>
      <trkpt lat="47.28078" lon="-2.20064">
        <ele>15</ele>
        <time>2020-04-09T14:04:19.000Z</time>
      </trkpt>
      <trkpt lat="47.28082" lon="-2.20063">
        <ele>14.6</ele>
        <time>2020-04-09T14:04:20.000Z</time>
      </trkpt>
      <trkpt lat="47.28086" lon="-2.20062">
        <ele>14.6</ele>
        <time>2020-04-09T14:04:21.000Z</time>
      </trkpt>
      <trkpt lat="47.2809" lon="-2.20061">
        <ele>14.8</ele>
        <time>2020-04-09T14:04:22.000Z</time>
      </trkpt>
      <trkpt lat="47.28094" lon="-2.20061">
        <ele>15</ele>
        <time>2020-04-09T14:04:23.000Z</time>
      </trkpt>
      <trkpt lat="47.28098" lon="-2.20059">
        <ele>15.2</ele>
        <time>2020-04-09T14:04:24.000Z</time>
      </trkpt>
      <trkpt lat="47.28102" lon="-2.20058">
        <ele>15.2</ele>
        <time>2020-04-09T14:04:25.000Z</time>
      </trkpt>
      <trkpt lat="47.28105" lon="-2.20056">
        <ele>15</ele>
        <time>2020-04-09T14:04:26.000Z</time>
      </trkpt>
      <trkpt lat="47.28109" lon="-2.20057">
        <ele>15.4</ele>
        <time>2020-04-09T14:04:27.000Z</time>
      </trkpt>
      <trkpt lat="47.28113" lon="-2.20058">
        <ele>15.2</ele>
        <time>2020-04-09T14:04:28.000Z</time>
      </trkpt>
      <trkpt lat="47.28117" lon="-2.20059">
        <ele>15.4</ele>
        <time>2020-04-09T14:04:29.000Z</time>
      </trkpt>
      <trkpt lat="47.28121" lon="-2.20058">
        <ele>15.2</ele>
        <time>2020-04-09T14:04:30.000Z</time>
      </trkpt>
      <trkpt lat="47.28124" lon="-2.20057">
        <ele>15.2</ele>
        <time>2020-04-09T14:04:31.000Z</time>
      </trkpt>
      <trkpt lat="47.28128" lon="-2.20055">
        <ele>15</ele>
        <time>2020-04-09T14:04:32.000Z</time>
      </trkpt>
      <trkpt lat="47.28132" lon="-2.20053">
        <ele>15.2</ele>
        <time>2020-04-09T14:04:33.000Z</time>
      </trkpt>
      <trkpt lat="47.28136" lon="-2.20052">
        <ele>14.8</ele>
        <time>2020-04-09T14:04:34.000Z</time>
      </trkpt>
      <trkpt lat="47.2814" lon="-2.2005">
        <ele>15</ele>
        <time>2020-04-09T14:04:35.000Z</time>
      </trkpt>
      <trkpt lat="47.28145" lon="-2.20049">
        <ele>14.8</ele>
        <time>2020-04-09T14:04:36.000Z</time>
      </trkpt>
      <trkpt lat="47.28148" lon="-2.20048">
        <ele>14.6</ele>
        <time>2020-04-09T14:04:37.000Z</time>
      </trkpt>
      <trkpt lat="47.28152" lon="-2.20047">
        <ele>14.6</ele>
        <time>2020-04-09T14:04:38.000Z</time>
      </trkpt>
      <trkpt lat="47.28156" lon="-2.20046">
        <ele>14.8</ele>
        <time>2020-04-09T14:04:39.000Z</time>
      </trkpt>
      <trkpt lat="47.28161" lon="-2.20044">
        <ele>15</ele>
        <time>2020-04-09T14:04:40.000Z</time>
      </trkpt>
      <trkpt lat="47.28166" lon="-2.20043">
        <ele>15.2</ele>
        <time>2020-04-09T14:04:41.000Z</time>
      </trkpt>
      <trkpt lat="47.2817" lon="-2.20042">
        <ele>15.4</ele>
        <time>2020-04-09T14:04:42.000Z</time>
      </trkpt>
      <trkpt lat="47.28174" lon="-2.2004">
        <ele>15</ele>
        <time>2020-04-09T14:04:43.000Z</time>
      </trkpt>
      <trkpt lat="47.28179" lon="-2.20038">
        <ele>15.2</ele>
        <time>2020-04-09T14:04:44.000Z</time>
      </trkpt>
      <trkpt lat="47.28184" lon="-2.20037">
        <ele>14.8</ele>
        <time>2020-04-09T14:04:45.000Z</time>
      </trkpt>
      <trkpt lat="47.28189" lon="-2.20035">
        <ele>14.8</ele>
        <time>2020-04-09T14:04:46.000Z</time>
      </trkpt>
      <trkpt lat="47.28193" lon="-2.20034">
        <ele>14.8</ele>
        <time>2020-04-09T14:04:47.000Z</time>
      </trkpt>
      <trkpt lat="47.28198" lon="-2.20033">
        <ele>15</ele>
        <time>2020-04-09T14:04:48.000Z</time>
      </trkpt>
      <trkpt lat="47.28203" lon="-2.20031">
        <ele>15.2</ele>
        <time>2020-04-09T14:04:49.000Z</time>
      </trkpt>
      <trkpt lat="47.28208" lon="-2.20029">
        <ele>15.2</ele>
        <time>2020-04-09T14:04:50.000Z</time>
      </trkpt>
      <trkpt lat="47.28212" lon="-2.20027">
        <ele>15</ele>
        <time>2020-04-09T14:04:51.000Z</time>
      </trkpt>
      <trkpt lat="47.28217" lon="-2.20025">
        <ele>15</ele>
        <time>2020-04-09T14:04:52.000Z</time>
      </trkpt>
      <trkpt lat="47.28222" lon="-2.20024">
        <ele>15.2</ele>
        <time>2020-04-09T14:04:53.000Z</time>
      </trkpt>
      <trkpt lat="47.28226" lon="-2.20023">
        <ele>15</ele>
        <time>2020-04-09T14:04:54.000Z</time>
      </trkpt>
      <trkpt lat="47.28231" lon="-2.20022">
        <ele>15</ele>
        <time>2020-04-09T14:04:55.000Z</time>
      </trkpt>
      <trkpt lat="47.28235" lon="-2.20024">
        <ele>14.8</ele>
        <time>2020-04-09T14:04:56.000Z</time>
      </trkpt>
      <trkpt lat="47.28239" lon="-2.20028">
        <ele>14.6</ele>
        <time>2020-04-09T14:04:57.000Z</time>
      </trkpt>
      <trkpt lat="47.28243" lon="-2.2003">
        <ele>14.2</ele>
        <time>2020-04-09T14:04:58.000Z</time>
      </trkpt>
      <trkpt lat="47.28247" lon="-2.20031">
        <ele>14.4</ele>
        <time>2020-04-09T14:04:59.000Z</time>
      </trkpt>
      <trkpt lat="47.28257" lon="-2.20031">
        <ele>15</ele>
        <time>2020-04-09T14:05:01.000Z</time>
      </trkpt>
      <trkpt lat="47.28261" lon="-2.20031">
        <ele>15</ele>
        <time>2020-04-09T14:05:02.000Z</time>
      </trkpt>
      <trkpt lat="47.28266" lon="-2.20032">
        <ele>15</ele>
        <time>2020-04-09T14:05:03.000Z</time>
      </trkpt>
      <trkpt lat="47.28271" lon="-2.20032">
        <ele>15</ele>
        <time>2020-04-09T14:05:04.000Z</time>
      </trkpt>
      <trkpt lat="47.28276" lon="-2.20033">
        <ele>15</ele>
        <time>2020-04-09T14:05:05.000Z</time>
      </trkpt>
      <trkpt lat="47.28281" lon="-2.20033">
        <ele>15</ele>
        <time>2020-04-09T14:05:06.000Z</time>
      </trkpt>
      <trkpt lat="47.28286" lon="-2.20034">
        <ele>15</ele>
        <time>2020-04-09T14:05:07.000Z</time>
      </trkpt>
      <trkpt lat="47.28291" lon="-2.20034">
        <ele>15</ele>
        <time>2020-04-09T14:05:08.000Z</time>
      </trkpt>
      <trkpt lat="47.28295" lon="-2.20035">
        <ele>15</ele>
        <time>2020-04-09T14:05:09.000Z</time>
      </trkpt>
      <trkpt lat="47.283" lon="-2.20035">
        <ele>15.2</ele>
        <time>2020-04-09T14:05:10.000Z</time>
      </trkpt>
      <trkpt lat="47.28305" lon="-2.20036">
        <ele>15</ele>
        <time>2020-04-09T14:05:11.000Z</time>
      </trkpt>
      <trkpt lat="47.2831" lon="-2.20035">
        <ele>15.2</ele>
        <time>2020-04-09T14:05:12.000Z</time>
      </trkpt>
      <trkpt lat="47.28314" lon="-2.20035">
        <ele>15</ele>
        <time>2020-04-09T14:05:13.000Z</time>
      </trkpt>
      <trkpt lat="47.28319" lon="-2.20035">
        <ele>15.2</ele>
        <time>2020-04-09T14:05:14.000Z</time>
      </trkpt>
      <trkpt lat="47.28323" lon="-2.20035">
        <ele>15.2</ele>
        <time>2020-04-09T14:05:15.000Z</time>
      </trkpt>
      <trkpt lat="47.28328" lon="-2.20036">
        <ele>15</ele>
        <time>2020-04-09T14:05:16.000Z</time>
      </trkpt>
      <trkpt lat="47.28333" lon="-2.20038">
        <ele>15</ele>
        <time>2020-04-09T14:05:17.000Z</time>
      </trkpt>
      <trkpt lat="47.28337" lon="-2.2004">
        <ele>15</ele>
        <time>2020-04-09T14:05:18.000Z</time>
      </trkpt>
      <trkpt lat="47.28342" lon="-2.20041">
        <ele>15.4</ele>
        <time>2020-04-09T14:05:19.000Z</time>
      </trkpt>
      <trkpt lat="47.28346" lon="-2.20042">
        <ele>15.2</ele>
        <time>2020-04-09T14:05:20.000Z</time>
      </trkpt>
      <trkpt lat="47.2835" lon="-2.20041">
        <ele>15.2</ele>
        <time>2020-04-09T14:05:21.000Z</time>
      </trkpt>
      <trkpt lat="47.28355" lon="-2.20039">
        <ele>15.2</ele>
        <time>2020-04-09T14:05:22.000Z</time>
      </trkpt>
      <trkpt lat="47.28363" lon="-2.20035">
        <ele>15.2</ele>
        <time>2020-04-09T14:05:23.000Z</time>
      </trkpt>
      <trkpt lat="47.28368" lon="-2.20033">
        <ele>15.2</ele>
        <time>2020-04-09T14:05:24.000Z</time>
      </trkpt>
      <trkpt lat="47.28372" lon="-2.20031">
        <ele>15.4</ele>
        <time>2020-04-09T14:05:25.000Z</time>
      </trkpt>
      <trkpt lat="47.28377" lon="-2.20029">
        <ele>15.2</ele>
        <time>2020-04-09T14:05:26.000Z</time>
      </trkpt>
      <trkpt lat="47.28381" lon="-2.20029">
        <ele>15.2</ele>
        <time>2020-04-09T14:05:27.000Z</time>
      </trkpt>
      <trkpt lat="47.28385" lon="-2.20032">
        <ele>14.8</ele>
        <time>2020-04-09T14:05:28.000Z</time>
      </trkpt>
      <trkpt lat="47.28388" lon="-2.20036">
        <ele>15</ele>
        <time>2020-04-09T14:05:29.000Z</time>
      </trkpt>
      <trkpt lat="47.2839" lon="-2.20041">
        <ele>14.8</ele>
        <time>2020-04-09T14:05:30.000Z</time>
      </trkpt>
      <trkpt lat="47.28389" lon="-2.20047">
        <ele>14.8</ele>
        <time>2020-04-09T14:05:31.000Z</time>
      </trkpt>
      <trkpt lat="47.28387" lon="-2.20051">
        <ele>15</ele>
        <time>2020-04-09T14:05:33.000Z</time>
      </trkpt>
      <trkpt lat="47.28379" lon="-2.20055">
        <ele>14.6</ele>
        <time>2020-04-09T14:05:34.000Z</time>
      </trkpt>
      <trkpt lat="47.28375" lon="-2.20057">
        <ele>14.6</ele>
        <time>2020-04-09T14:05:35.000Z</time>
      </trkpt>
      <trkpt lat="47.28375" lon="-2.20057">
        <ele>15</ele>
        <time>2020-04-09T14:05:36.000Z</time>
      </trkpt>
      <trkpt lat="47.28371" lon="-2.20058">
        <ele>15</ele>
        <time>2020-04-09T14:05:37.000Z</time>
      </trkpt>
      <trkpt lat="47.28363" lon="-2.2006">
        <ele>15.2</ele>
        <time>2020-04-09T14:05:38.000Z</time>
      </trkpt>
      <trkpt lat="47.28358" lon="-2.20061">
        <ele>15</ele>
        <time>2020-04-09T14:05:39.000Z</time>
      </trkpt>
      <trkpt lat="47.28354" lon="-2.20063">
        <ele>15.4</ele>
        <time>2020-04-09T14:05:40.000Z</time>
      </trkpt>
      <trkpt lat="47.28354" lon="-2.20063">
        <ele>15.2</ele>
        <time>2020-04-09T14:05:41.000Z</time>
      </trkpt>
      <trkpt lat="47.28349" lon="-2.20063">
        <ele>15.2</ele>
        <time>2020-04-09T14:05:42.000Z</time>
      </trkpt>
      <trkpt lat="47.28345" lon="-2.20064">
        <ele>15.4</ele>
        <time>2020-04-09T14:05:43.000Z</time>
      </trkpt>
      <trkpt lat="47.2834" lon="-2.20065">
        <ele>15.2</ele>
        <time>2020-04-09T14:05:44.000Z</time>
      </trkpt>
      <trkpt lat="47.28336" lon="-2.20066">
        <ele>15.2</ele>
        <time>2020-04-09T14:05:45.000Z</time>
      </trkpt>
      <trkpt lat="47.28331" lon="-2.20068">
        <ele>15.2</ele>
        <time>2020-04-09T14:05:46.000Z</time>
      </trkpt>
      <trkpt lat="47.28327" lon="-2.2007">
        <ele>15.2</ele>
        <time>2020-04-09T14:05:47.000Z</time>
      </trkpt>
      <trkpt lat="47.28324" lon="-2.20075">
        <ele>15</ele>
        <time>2020-04-09T14:05:48.000Z</time>
      </trkpt>
      <trkpt lat="47.28323" lon="-2.2008">
        <ele>15.2</ele>
        <time>2020-04-09T14:05:49.000Z</time>
      </trkpt>
      <trkpt lat="47.28323" lon="-2.20086">
        <ele>15.4</ele>
        <time>2020-04-09T14:05:50.000Z</time>
      </trkpt>
      <trkpt lat="47.28323" lon="-2.20092">
        <ele>15.2</ele>
        <time>2020-04-09T14:05:51.000Z</time>
      </trkpt>
      <trkpt lat="47.28323" lon="-2.20098">
        <ele>15.2</ele>
        <time>2020-04-09T14:05:52.000Z</time>
      </trkpt>
      <trkpt lat="47.28324" lon="-2.20104">
        <ele>15.2</ele>
        <time>2020-04-09T14:05:53.000Z</time>
      </trkpt>
      <trkpt lat="47.28325" lon="-2.20111">
        <ele>15</ele>
        <time>2020-04-09T14:05:54.000Z</time>
      </trkpt>
      <trkpt lat="47.28325" lon="-2.20118">
        <ele>14.8</ele>
        <time>2020-04-09T14:05:55.000Z</time>
      </trkpt>
      <trkpt lat="47.28323" lon="-2.20124">
        <ele>14.8</ele>
        <time>2020-04-09T14:05:56.000Z</time>
      </trkpt>
      <trkpt lat="47.2832" lon="-2.20129">
        <ele>14.8</ele>
        <time>2020-04-09T14:05:57.000Z</time>
      </trkpt>
      <trkpt lat="47.28316" lon="-2.20134">
        <ele>15.2</ele>
        <time>2020-04-09T14:05:58.000Z</time>
      </trkpt>
      <trkpt lat="47.28313" lon="-2.20137">
        <ele>15.2</ele>
        <time>2020-04-09T14:05:59.000Z</time>
      </trkpt>
      <trkpt lat="47.28308" lon="-2.20139">
        <ele>15.2</ele>
        <time>2020-04-09T14:06:00.000Z</time>
      </trkpt>
      <trkpt lat="47.28304" lon="-2.20141">
        <ele>15.2</ele>
        <time>2020-04-09T14:06:01.000Z</time>
      </trkpt>
      <trkpt lat="47.283" lon="-2.20142">
        <ele>15.2</ele>
        <time>2020-04-09T14:06:02.000Z</time>
      </trkpt>
      <trkpt lat="47.28296" lon="-2.20144">
        <ele>15.2</ele>
        <time>2020-04-09T14:06:03.000Z</time>
      </trkpt>
      <trkpt lat="47.28291" lon="-2.20145">
        <ele>15</ele>
        <time>2020-04-09T14:06:04.000Z</time>
      </trkpt>
      <trkpt lat="47.28286" lon="-2.20146">
        <ele>14.8</ele>
        <time>2020-04-09T14:06:05.000Z</time>
      </trkpt>
      <trkpt lat="47.28282" lon="-2.20147">
        <ele>15</ele>
        <time>2020-04-09T14:06:06.000Z</time>
      </trkpt>
      <trkpt lat="47.28277" lon="-2.20148">
        <ele>15.2</ele>
        <time>2020-04-09T14:06:07.000Z</time>
      </trkpt>
      <trkpt lat="47.28273" lon="-2.2015">
        <ele>15.2</ele>
        <time>2020-04-09T14:06:08.000Z</time>
      </trkpt>
      <trkpt lat="47.28268" lon="-2.20151">
        <ele>15.2</ele>
        <time>2020-04-09T14:06:09.000Z</time>
      </trkpt>
      <trkpt lat="47.28264" lon="-2.20152">
        <ele>15.4</ele>
        <time>2020-04-09T14:06:10.000Z</time>
      </trkpt>
      <trkpt lat="47.28259" lon="-2.20154">
        <ele>15.4</ele>
        <time>2020-04-09T14:06:11.000Z</time>
      </trkpt>
      <trkpt lat="47.28254" lon="-2.20155">
        <ele>15.2</ele>
        <time>2020-04-09T14:06:12.000Z</time>
      </trkpt>
      <trkpt lat="47.2825" lon="-2.20156">
        <ele>15.6</ele>
        <time>2020-04-09T14:06:13.000Z</time>
      </trkpt>
      <trkpt lat="47.28246" lon="-2.20157">
        <ele>15.6</ele>
        <time>2020-04-09T14:06:14.000Z</time>
      </trkpt>
      <trkpt lat="47.28241" lon="-2.20158">
        <ele>15.6</ele>
        <time>2020-04-09T14:06:15.000Z</time>
      </trkpt>
      <trkpt lat="47.28236" lon="-2.20159">
        <ele>15.6</ele>
        <time>2020-04-09T14:06:16.000Z</time>
      </trkpt>
      <trkpt lat="47.28232" lon="-2.20161">
        <ele>15.4</ele>
        <time>2020-04-09T14:06:17.000Z</time>
      </trkpt>
      <trkpt lat="47.28227" lon="-2.20162">
        <ele>15.2</ele>
        <time>2020-04-09T14:06:18.000Z</time>
      </trkpt>
      <trkpt lat="47.28222" lon="-2.20163">
        <ele>15</ele>
        <time>2020-04-09T14:06:19.000Z</time>
      </trkpt>
      <trkpt lat="47.28217" lon="-2.20164">
        <ele>15.2</ele>
        <time>2020-04-09T14:06:20.000Z</time>
      </trkpt>
      <trkpt lat="47.28212" lon="-2.20165">
        <ele>15.2</ele>
        <time>2020-04-09T14:06:21.000Z</time>
      </trkpt>
      <trkpt lat="47.28207" lon="-2.20167">
        <ele>15.4</ele>
        <time>2020-04-09T14:06:22.000Z</time>
      </trkpt>
      <trkpt lat="47.28201" lon="-2.20168">
        <ele>15.2</ele>
        <time>2020-04-09T14:06:23.000Z</time>
      </trkpt>
      <trkpt lat="47.28196" lon="-2.2017">
        <ele>15</ele>
        <time>2020-04-09T14:06:24.000Z</time>
      </trkpt>
      <trkpt lat="47.28191" lon="-2.20171">
        <ele>15.2</ele>
        <time>2020-04-09T14:06:25.000Z</time>
      </trkpt>
      <trkpt lat="47.28186" lon="-2.20172">
        <ele>15</ele>
        <time>2020-04-09T14:06:26.000Z</time>
      </trkpt>
      <trkpt lat="47.28181" lon="-2.20173">
        <ele>15</ele>
        <time>2020-04-09T14:06:27.000Z</time>
      </trkpt>
      <trkpt lat="47.28176" lon="-2.20174">
        <ele>15.4</ele>
        <time>2020-04-09T14:06:28.000Z</time>
      </trkpt>
      <trkpt lat="47.28171" lon="-2.20175">
        <ele>15</ele>
        <time>2020-04-09T14:06:29.000Z</time>
      </trkpt>
      <trkpt lat="47.28166" lon="-2.20175">
        <ele>15</ele>
        <time>2020-04-09T14:06:30.000Z</time>
      </trkpt>
      <trkpt lat="47.28161" lon="-2.20175">
        <ele>15</ele>
        <time>2020-04-09T14:06:31.000Z</time>
      </trkpt>
      <trkpt lat="47.28157" lon="-2.20175">
        <ele>15</ele>
        <time>2020-04-09T14:06:32.000Z</time>
      </trkpt>
      <trkpt lat="47.28152" lon="-2.20174">
        <ele>15.2</ele>
        <time>2020-04-09T14:06:33.000Z</time>
      </trkpt>
      <trkpt lat="47.28147" lon="-2.20173">
        <ele>15.2</ele>
        <time>2020-04-09T14:06:34.000Z</time>
      </trkpt>
      <trkpt lat="47.28143" lon="-2.20172">
        <ele>15.4</ele>
        <time>2020-04-09T14:06:35.000Z</time>
      </trkpt>
      <trkpt lat="47.28138" lon="-2.20172">
        <ele>15.4</ele>
        <time>2020-04-09T14:06:36.000Z</time>
      </trkpt>
      <trkpt lat="47.28134" lon="-2.20171">
        <ele>15.4</ele>
        <time>2020-04-09T14:06:37.000Z</time>
      </trkpt>
      <trkpt lat="47.2813" lon="-2.2017">
        <ele>15.4</ele>
        <time>2020-04-09T14:06:38.000Z</time>
      </trkpt>
      <trkpt lat="47.28125" lon="-2.20167">
        <ele>15.2</ele>
        <time>2020-04-09T14:06:39.000Z</time>
      </trkpt>
      <trkpt lat="47.28121" lon="-2.20165">
        <ele>15.2</ele>
        <time>2020-04-09T14:06:40.000Z</time>
      </trkpt>
      <trkpt lat="47.28117" lon="-2.20163">
        <ele>15.2</ele>
        <time>2020-04-09T14:06:41.000Z</time>
      </trkpt>
      <trkpt lat="47.28113" lon="-2.2016">
        <ele>15.2</ele>
        <time>2020-04-09T14:06:42.000Z</time>
      </trkpt>
      <trkpt lat="47.28109" lon="-2.20157">
        <ele>15.6</ele>
        <time>2020-04-09T14:06:43.000Z</time>
      </trkpt>
      <trkpt lat="47.28106" lon="-2.20153">
        <ele>15.4</ele>
        <time>2020-04-09T14:06:44.000Z</time>
      </trkpt>
      <trkpt lat="47.28103" lon="-2.20148">
        <ele>15.6</ele>
        <time>2020-04-09T14:06:45.000Z</time>
      </trkpt>
      <trkpt lat="47.281" lon="-2.20143">
        <ele>15.4</ele>
        <time>2020-04-09T14:06:46.000Z</time>
      </trkpt>
      <trkpt lat="47.28097" lon="-2.20139">
        <ele>15.4</ele>
        <time>2020-04-09T14:06:47.000Z</time>
      </trkpt>
      <trkpt lat="47.28093" lon="-2.20136">
        <ele>15.2</ele>
        <time>2020-04-09T14:06:48.000Z</time>
      </trkpt>
      <trkpt lat="47.28088" lon="-2.20135">
        <ele>15.4</ele>
        <time>2020-04-09T14:06:49.000Z</time>
      </trkpt>
      <trkpt lat="47.28084" lon="-2.20135">
        <ele>15.4</ele>
        <time>2020-04-09T14:06:50.000Z</time>
      </trkpt>
      <trkpt lat="47.2808" lon="-2.20136">
        <ele>15.2</ele>
        <time>2020-04-09T14:06:51.000Z</time>
      </trkpt>
      <trkpt lat="47.28075" lon="-2.20137">
        <ele>15.2</ele>
        <time>2020-04-09T14:06:52.000Z</time>
      </trkpt>
      <trkpt lat="47.28071" lon="-2.20139">
        <ele>15.2</ele>
        <time>2020-04-09T14:06:53.000Z</time>
      </trkpt>
      <trkpt lat="47.28067" lon="-2.2014">
        <ele>15.2</ele>
        <time>2020-04-09T14:06:54.000Z</time>
      </trkpt>
      <trkpt lat="47.28063" lon="-2.20141">
        <ele>15.2</ele>
        <time>2020-04-09T14:06:55.000Z</time>
      </trkpt>
      <trkpt lat="47.28058" lon="-2.20142">
        <ele>15.4</ele>
        <time>2020-04-09T14:06:56.000Z</time>
      </trkpt>
      <trkpt lat="47.28054" lon="-2.20144">
        <ele>15.4</ele>
        <time>2020-04-09T14:06:57.000Z</time>
      </trkpt>
      <trkpt lat="47.2805" lon="-2.20145">
        <ele>15.2</ele>
        <time>2020-04-09T14:06:58.000Z</time>
      </trkpt>
      <trkpt lat="47.28046" lon="-2.20146">
        <ele>15.4</ele>
        <time>2020-04-09T14:06:59.000Z</time>
      </trkpt>
      <trkpt lat="47.28042" lon="-2.20147">
        <ele>15.6</ele>
        <time>2020-04-09T14:07:00.000Z</time>
      </trkpt>
      <trkpt lat="47.28038" lon="-2.20149">
        <ele>15.6</ele>
        <time>2020-04-09T14:07:01.000Z</time>
      </trkpt>
      <trkpt lat="47.28033" lon="-2.2015">
        <ele>15.8</ele>
        <time>2020-04-09T14:07:02.000Z</time>
      </trkpt>
      <trkpt lat="47.28029" lon="-2.20151">
        <ele>15.6</ele>
        <time>2020-04-09T14:07:03.000Z</time>
      </trkpt>
      <trkpt lat="47.28025" lon="-2.20152">
        <ele>15.6</ele>
        <time>2020-04-09T14:07:04.000Z</time>
      </trkpt>
      <trkpt lat="47.28021" lon="-2.20153">
        <ele>15.4</ele>
        <time>2020-04-09T14:07:05.000Z</time>
      </trkpt>
      <trkpt lat="47.28016" lon="-2.20153">
        <ele>15.6</ele>
        <time>2020-04-09T14:07:06.000Z</time>
      </trkpt>
      <trkpt lat="47.28012" lon="-2.20154">
        <ele>15.8</ele>
        <time>2020-04-09T14:07:07.000Z</time>
      </trkpt>
      <trkpt lat="47.28009" lon="-2.20155">
        <ele>15.8</ele>
        <time>2020-04-09T14:07:08.000Z</time>
      </trkpt>
      <trkpt lat="47.28005" lon="-2.20155">
        <ele>15.6</ele>
        <time>2020-04-09T14:07:09.000Z</time>
      </trkpt>
      <trkpt lat="47.28001" lon="-2.20157">
        <ele>15.6</ele>
        <time>2020-04-09T14:07:10.000Z</time>
      </trkpt>
      <trkpt lat="47.27998" lon="-2.20158">
        <ele>15.6</ele>
        <time>2020-04-09T14:07:11.000Z</time>
      </trkpt>
      <trkpt lat="47.27995" lon="-2.20158">
        <ele>15.6</ele>
        <time>2020-04-09T14:07:12.000Z</time>
      </trkpt>
      <trkpt lat="47.27992" lon="-2.20159">
        <ele>15.4</ele>
        <time>2020-04-09T14:07:13.000Z</time>
      </trkpt>
      <trkpt lat="47.27988" lon="-2.20159">
        <ele>15.6</ele>
        <time>2020-04-09T14:07:14.000Z</time>
      </trkpt>
      <trkpt lat="47.27984" lon="-2.2016">
        <ele>15.6</ele>
        <time>2020-04-09T14:07:15.000Z</time>
      </trkpt>
      <trkpt lat="47.27981" lon="-2.20162">
        <ele>15.8</ele>
        <time>2020-04-09T14:07:16.000Z</time>
      </trkpt>
      <trkpt lat="47.27979" lon="-2.20163">
        <ele>15.8</ele>
        <time>2020-04-09T14:07:17.000Z</time>
      </trkpt>
      <trkpt lat="47.27976" lon="-2.20165">
        <ele>15.4</ele>
        <time>2020-04-09T14:07:18.000Z</time>
      </trkpt>
      <trkpt lat="47.27975" lon="-2.20168">
        <ele>15.6</ele>
        <time>2020-04-09T14:07:19.000Z</time>
      </trkpt>
      <trkpt lat="47.27974" lon="-2.20172">
        <ele>15.8</ele>
        <time>2020-04-09T14:07:20.000Z</time>
      </trkpt>
      <trkpt lat="47.27973" lon="-2.20176">
        <ele>15.8</ele>
        <time>2020-04-09T14:07:21.000Z</time>
      </trkpt>
      <trkpt lat="47.27973" lon="-2.2018">
        <ele>15.8</ele>
        <time>2020-04-09T14:07:22.000Z</time>
      </trkpt>
      <trkpt lat="47.27973" lon="-2.20185">
        <ele>15.8</ele>
        <time>2020-04-09T14:07:23.000Z</time>
      </trkpt>
      <trkpt lat="47.27974" lon="-2.20189">
        <ele>15.8</ele>
        <time>2020-04-09T14:07:24.000Z</time>
      </trkpt>
      <trkpt lat="47.27973" lon="-2.20193">
        <ele>15.8</ele>
        <time>2020-04-09T14:07:25.000Z</time>
      </trkpt>
      <trkpt lat="47.27973" lon="-2.20198">
        <ele>15.6</ele>
        <time>2020-04-09T14:07:26.000Z</time>
      </trkpt>
      <trkpt lat="47.27973" lon="-2.20202">
        <ele>15.6</ele>
        <time>2020-04-09T14:07:27.000Z</time>
      </trkpt>
      <trkpt lat="47.27974" lon="-2.20206">
        <ele>15.6</ele>
        <time>2020-04-09T14:07:28.000Z</time>
      </trkpt>
      <trkpt lat="47.27975" lon="-2.20211">
        <ele>15.6</ele>
        <time>2020-04-09T14:07:29.000Z</time>
      </trkpt>
      <trkpt lat="47.27976" lon="-2.20215">
        <ele>15.6</ele>
        <time>2020-04-09T14:07:30.000Z</time>
      </trkpt>
      <trkpt lat="47.27977" lon="-2.2022">
        <ele>15.8</ele>
        <time>2020-04-09T14:07:31.000Z</time>
      </trkpt>
      <trkpt lat="47.27978" lon="-2.20225">
        <ele>15.8</ele>
        <time>2020-04-09T14:07:32.000Z</time>
      </trkpt>
      <trkpt lat="47.27979" lon="-2.2023">
        <ele>15.6</ele>
        <time>2020-04-09T14:07:33.000Z</time>
      </trkpt>
      <trkpt lat="47.27979" lon="-2.20235">
        <ele>15.6</ele>
        <time>2020-04-09T14:07:34.000Z</time>
      </trkpt>
      <trkpt lat="47.2798" lon="-2.2024">
        <ele>15.6</ele>
        <time>2020-04-09T14:07:35.000Z</time>
      </trkpt>
      <trkpt lat="47.2798" lon="-2.20244">
        <ele>15.8</ele>
        <time>2020-04-09T14:07:36.000Z</time>
      </trkpt>
      <trkpt lat="47.27981" lon="-2.20246">
        <ele>15.8</ele>
        <time>2020-04-09T14:07:37.000Z</time>
      </trkpt>
      <trkpt lat="47.27981" lon="-2.20246">
        <ele>15.8</ele>
        <time>2020-04-09T14:07:38.000Z</time>
      </trkpt>
      <trkpt lat="47.27982" lon="-2.20249">
        <ele>15.4</ele>
        <time>2020-04-09T14:07:43.000Z</time>
      </trkpt>
      <trkpt lat="47.27982" lon="-2.20251">
        <ele>15.6</ele>
        <time>2020-04-09T14:07:44.000Z</time>
      </trkpt>
      <trkpt lat="47.27982" lon="-2.20253">
        <ele>15.6</ele>
        <time>2020-04-09T14:07:45.000Z</time>
      </trkpt>
      <trkpt lat="47.27982" lon="-2.20255">
        <ele>15.6</ele>
        <time>2020-04-09T14:07:46.000Z</time>
      </trkpt>
      <trkpt lat="47.27981" lon="-2.20258">
        <ele>15.8</ele>
        <time>2020-04-09T14:07:47.000Z</time>
      </trkpt>
      <trkpt lat="47.27979" lon="-2.2026">
        <ele>15.6</ele>
        <time>2020-04-09T14:07:48.000Z</time>
      </trkpt>
      <trkpt lat="47.27977" lon="-2.20261">
        <ele>15.6</ele>
        <time>2020-04-09T14:07:49.000Z</time>
      </trkpt>
      <trkpt lat="47.27974" lon="-2.20261">
        <ele>15.6</ele>
        <time>2020-04-09T14:07:50.000Z</time>
      </trkpt>
      <trkpt lat="47.2797" lon="-2.20262">
        <ele>15.4</ele>
        <time>2020-04-09T14:07:51.000Z</time>
      </trkpt>
      <trkpt lat="47.27967" lon="-2.20262">
        <ele>15.6</ele>
        <time>2020-04-09T14:07:52.000Z</time>
      </trkpt>
      <trkpt lat="47.27964" lon="-2.20264">
        <ele>15.4</ele>
        <time>2020-04-09T14:07:53.000Z</time>
      </trkpt>
      <trkpt lat="47.2796" lon="-2.20264">
        <ele>15.4</ele>
        <time>2020-04-09T14:07:54.000Z</time>
      </trkpt>
      <trkpt lat="47.27957" lon="-2.20265">
        <ele>15.4</ele>
        <time>2020-04-09T14:07:55.000Z</time>
      </trkpt>
      <trkpt lat="47.27953" lon="-2.20266">
        <ele>15.4</ele>
        <time>2020-04-09T14:07:56.000Z</time>
      </trkpt>
      <trkpt lat="47.27949" lon="-2.20267">
        <ele>15.4</ele>
        <time>2020-04-09T14:07:57.000Z</time>
      </trkpt>
      <trkpt lat="47.27946" lon="-2.20268">
        <ele>15.2</ele>
        <time>2020-04-09T14:07:58.000Z</time>
      </trkpt>
      <trkpt lat="47.27942" lon="-2.20269">
        <ele>15</ele>
        <time>2020-04-09T14:07:59.000Z</time>
      </trkpt>
      <trkpt lat="47.27938" lon="-2.2027">
        <ele>15</ele>
        <time>2020-04-09T14:08:00.000Z</time>
      </trkpt>
      <trkpt lat="47.27934" lon="-2.20271">
        <ele>15.2</ele>
        <time>2020-04-09T14:08:01.000Z</time>
      </trkpt>
      <trkpt lat="47.27931" lon="-2.20272">
        <ele>15.2</ele>
        <time>2020-04-09T14:08:02.000Z</time>
      </trkpt>
      <trkpt lat="47.27927" lon="-2.20273">
        <ele>15.4</ele>
        <time>2020-04-09T14:08:03.000Z</time>
      </trkpt>
      <trkpt lat="47.27923" lon="-2.20274">
        <ele>15.6</ele>
        <time>2020-04-09T14:08:04.000Z</time>
      </trkpt>
      <trkpt lat="47.27919" lon="-2.20275">
        <ele>15.4</ele>
        <time>2020-04-09T14:08:05.000Z</time>
      </trkpt>
      <trkpt lat="47.27915" lon="-2.20276">
        <ele>15.6</ele>
        <time>2020-04-09T14:08:06.000Z</time>
      </trkpt>
      <trkpt lat="47.27911" lon="-2.20277">
        <ele>15.4</ele>
        <time>2020-04-09T14:08:07.000Z</time>
      </trkpt>
      <trkpt lat="47.27906" lon="-2.20279">
        <ele>15</ele>
        <time>2020-04-09T14:08:08.000Z</time>
      </trkpt>
      <trkpt lat="47.27902" lon="-2.2028">
        <ele>15</ele>
        <time>2020-04-09T14:08:09.000Z</time>
      </trkpt>
      <trkpt lat="47.27898" lon="-2.20281">
        <ele>15</ele>
        <time>2020-04-09T14:08:10.000Z</time>
      </trkpt>
      <trkpt lat="47.27893" lon="-2.20283">
        <ele>15.2</ele>
        <time>2020-04-09T14:08:11.000Z</time>
      </trkpt>
      <trkpt lat="47.27889" lon="-2.20284">
        <ele>15.6</ele>
        <time>2020-04-09T14:08:12.000Z</time>
      </trkpt>
      <trkpt lat="47.27885" lon="-2.20285">
        <ele>15.6</ele>
        <time>2020-04-09T14:08:13.000Z</time>
      </trkpt>
      <trkpt lat="47.2788" lon="-2.20286">
        <ele>15.6</ele>
        <time>2020-04-09T14:08:14.000Z</time>
      </trkpt>
      <trkpt lat="47.27876" lon="-2.20288">
        <ele>15.6</ele>
        <time>2020-04-09T14:08:15.000Z</time>
      </trkpt>
      <trkpt lat="47.27871" lon="-2.20289">
        <ele>15.6</ele>
        <time>2020-04-09T14:08:16.000Z</time>
      </trkpt>
      <trkpt lat="47.27867" lon="-2.2029">
        <ele>15.4</ele>
        <time>2020-04-09T14:08:17.000Z</time>
      </trkpt>
      <trkpt lat="47.27862" lon="-2.20292">
        <ele>15.4</ele>
        <time>2020-04-09T14:08:18.000Z</time>
      </trkpt>
      <trkpt lat="47.27857" lon="-2.20293">
        <ele>15.4</ele>
        <time>2020-04-09T14:08:19.000Z</time>
      </trkpt>
      <trkpt lat="47.27853" lon="-2.20294">
        <ele>15.6</ele>
        <time>2020-04-09T14:08:20.000Z</time>
      </trkpt>
      <trkpt lat="47.27848" lon="-2.20296">
        <ele>15.6</ele>
        <time>2020-04-09T14:08:21.000Z</time>
      </trkpt>
      <trkpt lat="47.27844" lon="-2.20297">
        <ele>15.6</ele>
        <time>2020-04-09T14:08:22.000Z</time>
      </trkpt>
      <trkpt lat="47.27839" lon="-2.20299">
        <ele>15.6</ele>
        <time>2020-04-09T14:08:23.000Z</time>
      </trkpt>
      <trkpt lat="47.27834" lon="-2.203">
        <ele>15.4</ele>
        <time>2020-04-09T14:08:24.000Z</time>
      </trkpt>
      <trkpt lat="47.2783" lon="-2.20302">
        <ele>15.4</ele>
        <time>2020-04-09T14:08:25.000Z</time>
      </trkpt>
      <trkpt lat="47.27825" lon="-2.20303">
        <ele>15.4</ele>
        <time>2020-04-09T14:08:26.000Z</time>
      </trkpt>
      <trkpt lat="47.2782" lon="-2.20305">
        <ele>15.6</ele>
        <time>2020-04-09T14:08:27.000Z</time>
      </trkpt>
      <trkpt lat="47.27816" lon="-2.20306">
        <ele>15.2</ele>
        <time>2020-04-09T14:08:28.000Z</time>
      </trkpt>
      <trkpt lat="47.27811" lon="-2.20307">
        <ele>15.4</ele>
        <time>2020-04-09T14:08:29.000Z</time>
      </trkpt>
      <trkpt lat="47.27806" lon="-2.20309">
        <ele>15.4</ele>
        <time>2020-04-09T14:08:30.000Z</time>
      </trkpt>
      <trkpt lat="47.27801" lon="-2.2031">
        <ele>15.4</ele>
        <time>2020-04-09T14:08:31.000Z</time>
      </trkpt>
      <trkpt lat="47.27797" lon="-2.20312">
        <ele>15.4</ele>
        <time>2020-04-09T14:08:32.000Z</time>
      </trkpt>
      <trkpt lat="47.27792" lon="-2.20313">
        <ele>15.6</ele>
        <time>2020-04-09T14:08:33.000Z</time>
      </trkpt>
      <trkpt lat="47.27787" lon="-2.20314">
        <ele>15.6</ele>
        <time>2020-04-09T14:08:34.000Z</time>
      </trkpt>
      <trkpt lat="47.27783" lon="-2.20316">
        <ele>15.4</ele>
        <time>2020-04-09T14:08:35.000Z</time>
      </trkpt>
      <trkpt lat="47.27778" lon="-2.20318">
        <ele>15.2</ele>
        <time>2020-04-09T14:08:36.000Z</time>
      </trkpt>
      <trkpt lat="47.27773" lon="-2.20319">
        <ele>15.4</ele>
        <time>2020-04-09T14:08:37.000Z</time>
      </trkpt>
      <trkpt lat="47.27769" lon="-2.20321">
        <ele>15.2</ele>
        <time>2020-04-09T14:08:38.000Z</time>
      </trkpt>
      <trkpt lat="47.27764" lon="-2.20322">
        <ele>15.4</ele>
        <time>2020-04-09T14:08:39.000Z</time>
      </trkpt>
      <trkpt lat="47.27759" lon="-2.20323">
        <ele>15.4</ele>
        <time>2020-04-09T14:08:40.000Z</time>
      </trkpt>
      <trkpt lat="47.27755" lon="-2.20325">
        <ele>15.2</ele>
        <time>2020-04-09T14:08:41.000Z</time>
      </trkpt>
      <trkpt lat="47.2775" lon="-2.20326">
        <ele>15.4</ele>
        <time>2020-04-09T14:08:42.000Z</time>
      </trkpt>
      <trkpt lat="47.27746" lon="-2.20327">
        <ele>15.6</ele>
        <time>2020-04-09T14:08:43.000Z</time>
      </trkpt>
      <trkpt lat="47.27741" lon="-2.20328">
        <ele>15.4</ele>
        <time>2020-04-09T14:08:44.000Z</time>
      </trkpt>
      <trkpt lat="47.27737" lon="-2.20329">
        <ele>15.6</ele>
        <time>2020-04-09T14:08:45.000Z</time>
      </trkpt>
      <trkpt lat="47.27733" lon="-2.20331">
        <ele>15.6</ele>
        <time>2020-04-09T14:08:46.000Z</time>
      </trkpt>
      <trkpt lat="47.27729" lon="-2.20332">
        <ele>15.8</ele>
        <time>2020-04-09T14:08:47.000Z</time>
      </trkpt>
      <trkpt lat="47.27724" lon="-2.20334">
        <ele>15.6</ele>
        <time>2020-04-09T14:08:48.000Z</time>
      </trkpt>
      <trkpt lat="47.27719" lon="-2.20335">
        <ele>15.4</ele>
        <time>2020-04-09T14:08:49.000Z</time>
      </trkpt>
      <trkpt lat="47.27714" lon="-2.20337">
        <ele>15.2</ele>
        <time>2020-04-09T14:08:50.000Z</time>
      </trkpt>
      <trkpt lat="47.27709" lon="-2.20338">
        <ele>15.4</ele>
        <time>2020-04-09T14:08:51.000Z</time>
      </trkpt>
      <trkpt lat="47.27705" lon="-2.20339">
        <ele>15.4</ele>
        <time>2020-04-09T14:08:52.000Z</time>
      </trkpt>
      <trkpt lat="47.277" lon="-2.2034">
        <ele>15.2</ele>
        <time>2020-04-09T14:08:53.000Z</time>
      </trkpt>
      <trkpt lat="47.27695" lon="-2.20341">
        <ele>15.2</ele>
        <time>2020-04-09T14:08:54.000Z</time>
      </trkpt>
      <trkpt lat="47.2769" lon="-2.20343">
        <ele>15.4</ele>
        <time>2020-04-09T14:08:55.000Z</time>
      </trkpt>
      <trkpt lat="47.27686" lon="-2.20343">
        <ele>15.4</ele>
        <time>2020-04-09T14:08:56.000Z</time>
      </trkpt>
      <trkpt lat="47.27681" lon="-2.20345">
        <ele>15.6</ele>
        <time>2020-04-09T14:08:57.000Z</time>
      </trkpt>
      <trkpt lat="47.27676" lon="-2.20346">
        <ele>15.6</ele>
        <time>2020-04-09T14:08:58.000Z</time>
      </trkpt>
      <trkpt lat="47.27672" lon="-2.20347">
        <ele>15.6</ele>
        <time>2020-04-09T14:08:59.000Z</time>
      </trkpt>
      <trkpt lat="47.27663" lon="-2.20349">
        <ele>15.4</ele>
        <time>2020-04-09T14:09:01.000Z</time>
      </trkpt>
      <trkpt lat="47.27658" lon="-2.20351">
        <ele>15.4</ele>
        <time>2020-04-09T14:09:02.000Z</time>
      </trkpt>
      <trkpt lat="47.27654" lon="-2.20352">
        <ele>15.4</ele>
        <time>2020-04-09T14:09:03.000Z</time>
      </trkpt>
      <trkpt lat="47.27651" lon="-2.20354">
        <ele>15.4</ele>
        <time>2020-04-09T14:09:04.000Z</time>
      </trkpt>
      <trkpt lat="47.27648" lon="-2.20354">
        <ele>15.4</ele>
        <time>2020-04-09T14:09:05.000Z</time>
      </trkpt>
      <trkpt lat="47.27643" lon="-2.20355">
        <ele>15.6</ele>
        <time>2020-04-09T14:09:06.000Z</time>
      </trkpt>
      <trkpt lat="47.27639" lon="-2.20356">
        <ele>15.6</ele>
        <time>2020-04-09T14:09:07.000Z</time>
      </trkpt>
      <trkpt lat="47.27635" lon="-2.20357">
        <ele>15.4</ele>
        <time>2020-04-09T14:09:08.000Z</time>
      </trkpt>
      <trkpt lat="47.2763" lon="-2.20358">
        <ele>15.6</ele>
        <time>2020-04-09T14:09:09.000Z</time>
      </trkpt>
      <trkpt lat="47.27626" lon="-2.2036">
        <ele>15.4</ele>
        <time>2020-04-09T14:09:10.000Z</time>
      </trkpt>
      <trkpt lat="47.27621" lon="-2.20361">
        <ele>15.6</ele>
        <time>2020-04-09T14:09:11.000Z</time>
      </trkpt>
      <trkpt lat="47.27616" lon="-2.20362">
        <ele>15.6</ele>
        <time>2020-04-09T14:09:12.000Z</time>
      </trkpt>
      <trkpt lat="47.27611" lon="-2.20363">
        <ele>15.4</ele>
        <time>2020-04-09T14:09:13.000Z</time>
      </trkpt>
      <trkpt lat="47.27606" lon="-2.20364">
        <ele>15.6</ele>
        <time>2020-04-09T14:09:14.000Z</time>
      </trkpt>
      <trkpt lat="47.27601" lon="-2.20366">
        <ele>15.4</ele>
        <time>2020-04-09T14:09:15.000Z</time>
      </trkpt>
      <trkpt lat="47.27596" lon="-2.20368">
        <ele>15.4</ele>
        <time>2020-04-09T14:09:16.000Z</time>
      </trkpt>
      <trkpt lat="47.27591" lon="-2.20369">
        <ele>15.6</ele>
        <time>2020-04-09T14:09:17.000Z</time>
      </trkpt>
      <trkpt lat="47.27586" lon="-2.20371">
        <ele>15.4</ele>
        <time>2020-04-09T14:09:18.000Z</time>
      </trkpt>
      <trkpt lat="47.27581" lon="-2.20372">
        <ele>15.6</ele>
        <time>2020-04-09T14:09:19.000Z</time>
      </trkpt>
      <trkpt lat="47.27577" lon="-2.20374">
        <ele>15.6</ele>
        <time>2020-04-09T14:09:20.000Z</time>
      </trkpt>
      <trkpt lat="47.27572" lon="-2.20376">
        <ele>15.6</ele>
        <time>2020-04-09T14:09:21.000Z</time>
      </trkpt>
      <trkpt lat="47.27567" lon="-2.20377">
        <ele>15.6</ele>
        <time>2020-04-09T14:09:22.000Z</time>
      </trkpt>
      <trkpt lat="47.27562" lon="-2.20379">
        <ele>15.6</ele>
        <time>2020-04-09T14:09:23.000Z</time>
      </trkpt>
      <trkpt lat="47.27557" lon="-2.2038">
        <ele>15.6</ele>
        <time>2020-04-09T14:09:24.000Z</time>
      </trkpt>
      <trkpt lat="47.27553" lon="-2.20381">
        <ele>15.6</ele>
        <time>2020-04-09T14:09:25.000Z</time>
      </trkpt>
      <trkpt lat="47.27548" lon="-2.20382">
        <ele>15.4</ele>
        <time>2020-04-09T14:09:26.000Z</time>
      </trkpt>
      <trkpt lat="47.27543" lon="-2.20383">
        <ele>15.6</ele>
        <time>2020-04-09T14:09:27.000Z</time>
      </trkpt>
      <trkpt lat="47.27538" lon="-2.20385">
        <ele>15.6</ele>
        <time>2020-04-09T14:09:28.000Z</time>
      </trkpt>
      <trkpt lat="47.27534" lon="-2.20385">
        <ele>15.6</ele>
        <time>2020-04-09T14:09:29.000Z</time>
      </trkpt>
      <trkpt lat="47.27529" lon="-2.20386">
        <ele>15.8</ele>
        <time>2020-04-09T14:09:30.000Z</time>
      </trkpt>
      <trkpt lat="47.27524" lon="-2.20387">
        <ele>15.6</ele>
        <time>2020-04-09T14:09:31.000Z</time>
      </trkpt>
      <trkpt lat="47.27519" lon="-2.20389">
        <ele>15.4</ele>
        <time>2020-04-09T14:09:32.000Z</time>
      </trkpt>
      <trkpt lat="47.27509" lon="-2.20391">
        <ele>15.2</ele>
        <time>2020-04-09T14:09:33.000Z</time>
      </trkpt>
      <trkpt lat="47.27505" lon="-2.20392">
        <ele>15.2</ele>
        <time>2020-04-09T14:09:34.000Z</time>
      </trkpt>
      <trkpt lat="47.275" lon="-2.20394">
        <ele>15.2</ele>
        <time>2020-04-09T14:09:35.000Z</time>
      </trkpt>
      <trkpt lat="47.27495" lon="-2.20396">
        <ele>15.4</ele>
        <time>2020-04-09T14:09:36.000Z</time>
      </trkpt>
      <trkpt lat="47.2749" lon="-2.20397">
        <ele>15.6</ele>
        <time>2020-04-09T14:09:37.000Z</time>
      </trkpt>
      <trkpt lat="47.27486" lon="-2.20398">
        <ele>15.6</ele>
        <time>2020-04-09T14:09:38.000Z</time>
      </trkpt>
      <trkpt lat="47.27481" lon="-2.20399">
        <ele>15.8</ele>
        <time>2020-04-09T14:09:39.000Z</time>
      </trkpt>
      <trkpt lat="47.27477" lon="-2.20401">
        <ele>15.8</ele>
        <time>2020-04-09T14:09:40.000Z</time>
      </trkpt>
      <trkpt lat="47.27472" lon="-2.20402">
        <ele>15.8</ele>
        <time>2020-04-09T14:09:41.000Z</time>
      </trkpt>
      <trkpt lat="47.27467" lon="-2.20403">
        <ele>15.6</ele>
        <time>2020-04-09T14:09:42.000Z</time>
      </trkpt>
      <trkpt lat="47.27463" lon="-2.20403">
        <ele>15.6</ele>
        <time>2020-04-09T14:09:43.000Z</time>
      </trkpt>
      <trkpt lat="47.27459" lon="-2.20404">
        <ele>15.6</ele>
        <time>2020-04-09T14:09:44.000Z</time>
      </trkpt>
      <trkpt lat="47.27454" lon="-2.20406">
        <ele>15.6</ele>
        <time>2020-04-09T14:09:45.000Z</time>
      </trkpt>
      <trkpt lat="47.27454" lon="-2.20406">
        <ele>15.8</ele>
        <time>2020-04-09T14:09:46.000Z</time>
      </trkpt>
      <trkpt lat="47.27445" lon="-2.20409">
        <ele>15.8</ele>
        <time>2020-04-09T14:09:47.000Z</time>
      </trkpt>
      <trkpt lat="47.27441" lon="-2.20411">
        <ele>16</ele>
        <time>2020-04-09T14:09:48.000Z</time>
      </trkpt>
      <trkpt lat="47.27437" lon="-2.20412">
        <ele>16.2</ele>
        <time>2020-04-09T14:09:49.000Z</time>
      </trkpt>
      <trkpt lat="47.27437" lon="-2.20412">
        <ele>16.4</ele>
        <time>2020-04-09T14:09:50.000Z</time>
      </trkpt>
      <trkpt lat="47.27432" lon="-2.20413">
        <ele>16.4</ele>
        <time>2020-04-09T14:09:52.000Z</time>
      </trkpt>
      <trkpt lat="47.27424" lon="-2.20415">
        <ele>16.4</ele>
        <time>2020-04-09T14:09:53.000Z</time>
      </trkpt>
      <trkpt lat="47.2742" lon="-2.20416">
        <ele>16.4</ele>
        <time>2020-04-09T14:09:54.000Z</time>
      </trkpt>
      <trkpt lat="47.27415" lon="-2.20417">
        <ele>16.6</ele>
        <time>2020-04-09T14:09:55.000Z</time>
      </trkpt>
      <trkpt lat="47.27411" lon="-2.20418">
        <ele>16.8</ele>
        <time>2020-04-09T14:09:56.000Z</time>
      </trkpt>
      <trkpt lat="47.27407" lon="-2.20419">
        <ele>16.8</ele>
        <time>2020-04-09T14:09:57.000Z</time>
      </trkpt>
      <trkpt lat="47.27403" lon="-2.2042">
        <ele>17</ele>
        <time>2020-04-09T14:09:58.000Z</time>
      </trkpt>
      <trkpt lat="47.27398" lon="-2.20421">
        <ele>17.2</ele>
        <time>2020-04-09T14:09:59.000Z</time>
      </trkpt>
      <trkpt lat="47.27394" lon="-2.20422">
        <ele>17.2</ele>
        <time>2020-04-09T14:10:00.000Z</time>
      </trkpt>
      <trkpt lat="47.2739" lon="-2.20423">
        <ele>17.4</ele>
        <time>2020-04-09T14:10:01.000Z</time>
      </trkpt>
      <trkpt lat="47.27385" lon="-2.20424">
        <ele>17.6</ele>
        <time>2020-04-09T14:10:02.000Z</time>
      </trkpt>
      <trkpt lat="47.27381" lon="-2.20425">
        <ele>17.6</ele>
        <time>2020-04-09T14:10:03.000Z</time>
      </trkpt>
      <trkpt lat="47.27377" lon="-2.20426">
        <ele>17.6</ele>
        <time>2020-04-09T14:10:04.000Z</time>
      </trkpt>
      <trkpt lat="47.27373" lon="-2.20427">
        <ele>17.6</ele>
        <time>2020-04-09T14:10:05.000Z</time>
      </trkpt>
      <trkpt lat="47.27369" lon="-2.20428">
        <ele>17.6</ele>
        <time>2020-04-09T14:10:06.000Z</time>
      </trkpt>
      <trkpt lat="47.27365" lon="-2.20429">
        <ele>17.8</ele>
        <time>2020-04-09T14:10:07.000Z</time>
      </trkpt>
      <trkpt lat="47.27361" lon="-2.2043">
        <ele>17.8</ele>
        <time>2020-04-09T14:10:08.000Z</time>
      </trkpt>
      <trkpt lat="47.27357" lon="-2.2043">
        <ele>18</ele>
        <time>2020-04-09T14:10:09.000Z</time>
      </trkpt>
      <trkpt lat="47.27353" lon="-2.20432">
        <ele>18.2</ele>
        <time>2020-04-09T14:10:10.000Z</time>
      </trkpt>
      <trkpt lat="47.27349" lon="-2.20433">
        <ele>18.2</ele>
        <time>2020-04-09T14:10:11.000Z</time>
      </trkpt>
      <trkpt lat="47.27345" lon="-2.20434">
        <ele>18.2</ele>
        <time>2020-04-09T14:10:12.000Z</time>
      </trkpt>
      <trkpt lat="47.27341" lon="-2.20435">
        <ele>18.2</ele>
        <time>2020-04-09T14:10:13.000Z</time>
      </trkpt>
      <trkpt lat="47.27337" lon="-2.20436">
        <ele>18.2</ele>
        <time>2020-04-09T14:10:14.000Z</time>
      </trkpt>
      <trkpt lat="47.27334" lon="-2.20437">
        <ele>18.2</ele>
        <time>2020-04-09T14:10:15.000Z</time>
      </trkpt>
      <trkpt lat="47.2733" lon="-2.20438">
        <ele>18.2</ele>
        <time>2020-04-09T14:10:16.000Z</time>
      </trkpt>
      <trkpt lat="47.27326" lon="-2.20439">
        <ele>18.2</ele>
        <time>2020-04-09T14:10:17.000Z</time>
      </trkpt>
      <trkpt lat="47.27323" lon="-2.2044">
        <ele>18.2</ele>
        <time>2020-04-09T14:10:18.000Z</time>
      </trkpt>
      <trkpt lat="47.27319" lon="-2.20441">
        <ele>18.2</ele>
        <time>2020-04-09T14:10:19.000Z</time>
      </trkpt>
      <trkpt lat="47.27316" lon="-2.20443">
        <ele>18.2</ele>
        <time>2020-04-09T14:10:20.000Z</time>
      </trkpt>
      <trkpt lat="47.27313" lon="-2.20444">
        <ele>18.4</ele>
        <time>2020-04-09T14:10:21.000Z</time>
      </trkpt>
      <trkpt lat="47.2731" lon="-2.20442">
        <ele>18.2</ele>
        <time>2020-04-09T14:10:22.000Z</time>
      </trkpt>
      <trkpt lat="47.27308" lon="-2.20437">
        <ele>18.4</ele>
        <time>2020-04-09T14:10:23.000Z</time>
      </trkpt>
      <trkpt lat="47.27308" lon="-2.20432">
        <ele>18.2</ele>
        <time>2020-04-09T14:10:24.000Z</time>
      </trkpt>
      <trkpt lat="47.27307" lon="-2.20427">
        <ele>18</ele>
        <time>2020-04-09T14:10:25.000Z</time>
      </trkpt>
      <trkpt lat="47.27307" lon="-2.20421">
        <ele>17.8</ele>
        <time>2020-04-09T14:10:26.000Z</time>
      </trkpt>
      <trkpt lat="47.27306" lon="-2.20415">
        <ele>17.8</ele>
        <time>2020-04-09T14:10:27.000Z</time>
      </trkpt>
      <trkpt lat="47.27306" lon="-2.20409">
        <ele>17.6</ele>
        <time>2020-04-09T14:10:28.000Z</time>
      </trkpt>
      <trkpt lat="47.27306" lon="-2.20403">
        <ele>17.4</ele>
        <time>2020-04-09T14:10:29.000Z</time>
      </trkpt>
      <trkpt lat="47.27305" lon="-2.20397">
        <ele>17.6</ele>
        <time>2020-04-09T14:10:30.000Z</time>
      </trkpt>
      <trkpt lat="47.27305" lon="-2.20391">
        <ele>17.4</ele>
        <time>2020-04-09T14:10:32.000Z</time>
      </trkpt>
      <trkpt lat="47.27303" lon="-2.20379">
        <ele>17.4</ele>
        <time>2020-04-09T14:10:33.000Z</time>
      </trkpt>
      <trkpt lat="47.27302" lon="-2.20373">
        <ele>17.2</ele>
        <time>2020-04-09T14:10:34.000Z</time>
      </trkpt>
      <trkpt lat="47.27301" lon="-2.20366">
        <ele>17.2</ele>
        <time>2020-04-09T14:10:35.000Z</time>
      </trkpt>
      <trkpt lat="47.273" lon="-2.2036">
        <ele>17</ele>
        <time>2020-04-09T14:10:36.000Z</time>
      </trkpt>
      <trkpt lat="47.27299" lon="-2.20354">
        <ele>16.8</ele>
        <time>2020-04-09T14:10:37.000Z</time>
      </trkpt>
      <trkpt lat="47.27298" lon="-2.20347">
        <ele>17</ele>
        <time>2020-04-09T14:10:38.000Z</time>
      </trkpt>
      <trkpt lat="47.27298" lon="-2.20341">
        <ele>16.6</ele>
        <time>2020-04-09T14:10:39.000Z</time>
      </trkpt>
      <trkpt lat="47.27297" lon="-2.20335">
        <ele>16.8</ele>
        <time>2020-04-09T14:10:40.000Z</time>
      </trkpt>
      <trkpt lat="47.27295" lon="-2.2033">
        <ele>16.6</ele>
        <time>2020-04-09T14:10:41.000Z</time>
      </trkpt>
      <trkpt lat="47.27293" lon="-2.20324">
        <ele>16.4</ele>
        <time>2020-04-09T14:10:42.000Z</time>
      </trkpt>
      <trkpt lat="47.27292" lon="-2.20318">
        <ele>16.4</ele>
        <time>2020-04-09T14:10:43.000Z</time>
      </trkpt>
      <trkpt lat="47.27291" lon="-2.20311">
        <ele>16.4</ele>
        <time>2020-04-09T14:10:44.000Z</time>
      </trkpt>
      <trkpt lat="47.2729" lon="-2.20305">
        <ele>16.4</ele>
        <time>2020-04-09T14:10:45.000Z</time>
      </trkpt>
      <trkpt lat="47.27289" lon="-2.20298">
        <ele>16.2</ele>
        <time>2020-04-09T14:10:46.000Z</time>
      </trkpt>
      <trkpt lat="47.27289" lon="-2.20292">
        <ele>16.2</ele>
        <time>2020-04-09T14:10:47.000Z</time>
      </trkpt>
      <trkpt lat="47.27289" lon="-2.20285">
        <ele>16</ele>
        <time>2020-04-09T14:10:48.000Z</time>
      </trkpt>
      <trkpt lat="47.27289" lon="-2.20278">
        <ele>16</ele>
        <time>2020-04-09T14:10:49.000Z</time>
      </trkpt>
      <trkpt lat="47.27288" lon="-2.20271">
        <ele>16</ele>
        <time>2020-04-09T14:10:50.000Z</time>
      </trkpt>
      <trkpt lat="47.27287" lon="-2.20265">
        <ele>16</ele>
        <time>2020-04-09T14:10:51.000Z</time>
      </trkpt>
      <trkpt lat="47.27285" lon="-2.20258">
        <ele>15.8</ele>
        <time>2020-04-09T14:10:52.000Z</time>
      </trkpt>
      <trkpt lat="47.27283" lon="-2.20252">
        <ele>16</ele>
        <time>2020-04-09T14:10:53.000Z</time>
      </trkpt>
      <trkpt lat="47.27281" lon="-2.20247">
        <ele>15.8</ele>
        <time>2020-04-09T14:10:54.000Z</time>
      </trkpt>
      <trkpt lat="47.27278" lon="-2.20242">
        <ele>16</ele>
        <time>2020-04-09T14:10:55.000Z</time>
      </trkpt>
      <trkpt lat="47.27275" lon="-2.20236">
        <ele>16</ele>
        <time>2020-04-09T14:10:56.000Z</time>
      </trkpt>
      <trkpt lat="47.27274" lon="-2.2023">
        <ele>16.2</ele>
        <time>2020-04-09T14:10:57.000Z</time>
      </trkpt>
      <trkpt lat="47.27272" lon="-2.20224">
        <ele>16.2</ele>
        <time>2020-04-09T14:10:58.000Z</time>
      </trkpt>
      <trkpt lat="47.27271" lon="-2.20218">
        <ele>16</ele>
        <time>2020-04-09T14:10:59.000Z</time>
      </trkpt>
      <trkpt lat="47.27271" lon="-2.20213">
        <ele>16.2</ele>
        <time>2020-04-09T14:11:00.000Z</time>
      </trkpt>
      <trkpt lat="47.27274" lon="-2.20209">
        <ele>16</ele>
        <time>2020-04-09T14:11:01.000Z</time>
      </trkpt>
      <trkpt lat="47.27275" lon="-2.20204">
        <ele>16</ele>
        <time>2020-04-09T14:11:02.000Z</time>
      </trkpt>
      <trkpt lat="47.27275" lon="-2.202">
        <ele>15.8</ele>
        <time>2020-04-09T14:11:03.000Z</time>
      </trkpt>
      <trkpt lat="47.27275" lon="-2.20197">
        <ele>15.8</ele>
        <time>2020-04-09T14:11:04.000Z</time>
      </trkpt>
      <trkpt lat="47.27274" lon="-2.20193">
        <ele>15.6</ele>
        <time>2020-04-09T14:11:05.000Z</time>
      </trkpt>
      <trkpt lat="47.27273" lon="-2.20189">
        <ele>15.8</ele>
        <time>2020-04-09T14:11:06.000Z</time>
      </trkpt>
      <trkpt lat="47.27273" lon="-2.20186">
        <ele>16</ele>
        <time>2020-04-09T14:11:07.000Z</time>
      </trkpt>
      <trkpt lat="47.27273" lon="-2.20181">
        <ele>15.8</ele>
        <time>2020-04-09T14:11:08.000Z</time>
      </trkpt>
      <trkpt lat="47.27272" lon="-2.20175">
        <ele>16</ele>
        <time>2020-04-09T14:11:09.000Z</time>
      </trkpt>
      <trkpt lat="47.2727" lon="-2.20167">
        <ele>16</ele>
        <time>2020-04-09T14:11:10.000Z</time>
      </trkpt>
      <trkpt lat="47.27268" lon="-2.2016">
        <ele>15.8</ele>
        <time>2020-04-09T14:11:11.000Z</time>
      </trkpt>
      <trkpt lat="47.27267" lon="-2.20153">
        <ele>16</ele>
        <time>2020-04-09T14:11:12.000Z</time>
      </trkpt>
      <trkpt lat="47.27265" lon="-2.20146">
        <ele>16</ele>
        <time>2020-04-09T14:11:13.000Z</time>
      </trkpt>
      <trkpt lat="47.27265" lon="-2.20139">
        <ele>16</ele>
        <time>2020-04-09T14:11:14.000Z</time>
      </trkpt>
      <trkpt lat="47.27263" lon="-2.20131">
        <ele>16.2</ele>
        <time>2020-04-09T14:11:15.000Z</time>
      </trkpt>
      <trkpt lat="47.27262" lon="-2.20123">
        <ele>16</ele>
        <time>2020-04-09T14:11:16.000Z</time>
      </trkpt>
      <trkpt lat="47.27261" lon="-2.20116">
        <ele>16.2</ele>
        <time>2020-04-09T14:11:17.000Z</time>
      </trkpt>
      <trkpt lat="47.2726" lon="-2.20109">
        <ele>16</ele>
        <time>2020-04-09T14:11:18.000Z</time>
      </trkpt>
      <trkpt lat="47.27259" lon="-2.20101">
        <ele>16.2</ele>
        <time>2020-04-09T14:11:19.000Z</time>
      </trkpt>
      <trkpt lat="47.27258" lon="-2.20094">
        <ele>16</ele>
        <time>2020-04-09T14:11:20.000Z</time>
      </trkpt>
      <trkpt lat="47.27256" lon="-2.20086">
        <ele>16.2</ele>
        <time>2020-04-09T14:11:21.000Z</time>
      </trkpt>
      <trkpt lat="47.27255" lon="-2.20079">
        <ele>16.2</ele>
        <time>2020-04-09T14:11:22.000Z</time>
      </trkpt>
      <trkpt lat="47.27253" lon="-2.20072">
        <ele>16.2</ele>
        <time>2020-04-09T14:11:23.000Z</time>
      </trkpt>
      <trkpt lat="47.27252" lon="-2.20065">
        <ele>16.4</ele>
        <time>2020-04-09T14:11:24.000Z</time>
      </trkpt>
      <trkpt lat="47.27251" lon="-2.20057">
        <ele>16.4</ele>
        <time>2020-04-09T14:11:25.000Z</time>
      </trkpt>
      <trkpt lat="47.2725" lon="-2.2005">
        <ele>16.4</ele>
        <time>2020-04-09T14:11:26.000Z</time>
      </trkpt>
      <trkpt lat="47.27249" lon="-2.20044">
        <ele>16.6</ele>
        <time>2020-04-09T14:11:27.000Z</time>
      </trkpt>
      <trkpt lat="47.27248" lon="-2.20037">
        <ele>16.4</ele>
        <time>2020-04-09T14:11:28.000Z</time>
      </trkpt>
      <trkpt lat="47.27247" lon="-2.20031">
        <ele>16.4</ele>
        <time>2020-04-09T14:11:29.000Z</time>
      </trkpt>
      <trkpt lat="47.27246" lon="-2.20025">
        <ele>16.6</ele>
        <time>2020-04-09T14:11:30.000Z</time>
      </trkpt>
      <trkpt lat="47.27245" lon="-2.20018">
        <ele>16.6</ele>
        <time>2020-04-09T14:11:31.000Z</time>
      </trkpt>
      <trkpt lat="47.27244" lon="-2.20012">
        <ele>16.6</ele>
        <time>2020-04-09T14:11:32.000Z</time>
      </trkpt>
      <trkpt lat="47.27244" lon="-2.20005">
        <ele>16.8</ele>
        <time>2020-04-09T14:11:33.000Z</time>
      </trkpt>
      <trkpt lat="47.27243" lon="-2.19999">
        <ele>16.6</ele>
        <time>2020-04-09T14:11:34.000Z</time>
      </trkpt>
      <trkpt lat="47.27242" lon="-2.19992">
        <ele>16.4</ele>
        <time>2020-04-09T14:11:35.000Z</time>
      </trkpt>
      <trkpt lat="47.27241" lon="-2.19985">
        <ele>16.6</ele>
        <time>2020-04-09T14:11:36.000Z</time>
      </trkpt>
      <trkpt lat="47.2724" lon="-2.19979">
        <ele>16.6</ele>
        <time>2020-04-09T14:11:37.000Z</time>
      </trkpt>
      <trkpt lat="47.27239" lon="-2.19972">
        <ele>16.6</ele>
        <time>2020-04-09T14:11:38.000Z</time>
      </trkpt>
      <trkpt lat="47.27238" lon="-2.19965">
        <ele>16.4</ele>
        <time>2020-04-09T14:11:39.000Z</time>
      </trkpt>
      <trkpt lat="47.27237" lon="-2.19958">
        <ele>16.4</ele>
        <time>2020-04-09T14:11:40.000Z</time>
      </trkpt>
      <trkpt lat="47.27236" lon="-2.19951">
        <ele>16.4</ele>
        <time>2020-04-09T14:11:41.000Z</time>
      </trkpt>
      <trkpt lat="47.27235" lon="-2.19944">
        <ele>16.6</ele>
        <time>2020-04-09T14:11:42.000Z</time>
      </trkpt>
      <trkpt lat="47.27234" lon="-2.19937">
        <ele>16.2</ele>
        <time>2020-04-09T14:11:43.000Z</time>
      </trkpt>
      <trkpt lat="47.27234" lon="-2.1993">
        <ele>16.4</ele>
        <time>2020-04-09T14:11:44.000Z</time>
      </trkpt>
      <trkpt lat="47.27232" lon="-2.19924">
        <ele>16.4</ele>
        <time>2020-04-09T14:11:45.000Z</time>
      </trkpt>
      <trkpt lat="47.27229" lon="-2.19919">
        <ele>16.4</ele>
        <time>2020-04-09T14:11:46.000Z</time>
      </trkpt>
      <trkpt lat="47.27225" lon="-2.19915">
        <ele>16.2</ele>
        <time>2020-04-09T14:11:47.000Z</time>
      </trkpt>
      <trkpt lat="47.27221" lon="-2.19914">
        <ele>15.8</ele>
        <time>2020-04-09T14:11:48.000Z</time>
      </trkpt>
      <trkpt lat="47.27217" lon="-2.19912">
        <ele>16.2</ele>
        <time>2020-04-09T14:11:49.000Z</time>
      </trkpt>
      <trkpt lat="47.27213" lon="-2.1991">
        <ele>16.2</ele>
        <time>2020-04-09T14:11:50.000Z</time>
      </trkpt>
      <trkpt lat="47.27209" lon="-2.19908">
        <ele>16.2</ele>
        <time>2020-04-09T14:11:51.000Z</time>
      </trkpt>
      <trkpt lat="47.27205" lon="-2.19906">
        <ele>16.4</ele>
        <time>2020-04-09T14:11:52.000Z</time>
      </trkpt>
      <trkpt lat="47.27201" lon="-2.19904">
        <ele>16.4</ele>
        <time>2020-04-09T14:11:53.000Z</time>
      </trkpt>
      <trkpt lat="47.27197" lon="-2.19902">
        <ele>16.6</ele>
        <time>2020-04-09T14:11:54.000Z</time>
      </trkpt>
      <trkpt lat="47.27193" lon="-2.19901">
        <ele>16.6</ele>
        <time>2020-04-09T14:11:55.000Z</time>
      </trkpt>
      <trkpt lat="47.27189" lon="-2.199">
        <ele>16.8</ele>
        <time>2020-04-09T14:11:56.000Z</time>
      </trkpt>
      <trkpt lat="47.27184" lon="-2.19898">
        <ele>16.8</ele>
        <time>2020-04-09T14:11:57.000Z</time>
      </trkpt>
      <trkpt lat="47.2718" lon="-2.19896">
        <ele>16.8</ele>
        <time>2020-04-09T14:11:58.000Z</time>
      </trkpt>
      <trkpt lat="47.27177" lon="-2.19894">
        <ele>16.8</ele>
        <time>2020-04-09T14:11:59.000Z</time>
      </trkpt>
      <trkpt lat="47.27173" lon="-2.19892">
        <ele>17</ele>
        <time>2020-04-09T14:12:00.000Z</time>
      </trkpt>
      <trkpt lat="47.27169" lon="-2.19891">
        <ele>16.8</ele>
        <time>2020-04-09T14:12:01.000Z</time>
      </trkpt>
      <trkpt lat="47.27166" lon="-2.1989">
        <ele>16.6</ele>
        <time>2020-04-09T14:12:02.000Z</time>
      </trkpt>
      <trkpt lat="47.27162" lon="-2.1989">
        <ele>16.4</ele>
        <time>2020-04-09T14:12:03.000Z</time>
      </trkpt>
      <trkpt lat="47.27158" lon="-2.19891">
        <ele>16.4</ele>
        <time>2020-04-09T14:12:04.000Z</time>
      </trkpt>
      <trkpt lat="47.27154" lon="-2.19891">
        <ele>16.6</ele>
        <time>2020-04-09T14:12:05.000Z</time>
      </trkpt>
      <trkpt lat="47.27151" lon="-2.19892">
        <ele>16.4</ele>
        <time>2020-04-09T14:12:06.000Z</time>
      </trkpt>
      <trkpt lat="47.27146" lon="-2.19892">
        <ele>16.6</ele>
        <time>2020-04-09T14:12:07.000Z</time>
      </trkpt>
      <trkpt lat="47.27141" lon="-2.19891">
        <ele>16.4</ele>
        <time>2020-04-09T14:12:08.000Z</time>
      </trkpt>
      <trkpt lat="47.27136" lon="-2.1989">
        <ele>16.6</ele>
        <time>2020-04-09T14:12:09.000Z</time>
      </trkpt>
      <trkpt lat="47.27132" lon="-2.19889">
        <ele>16.8</ele>
        <time>2020-04-09T14:12:10.000Z</time>
      </trkpt>
      <trkpt lat="47.27127" lon="-2.19889">
        <ele>16.6</ele>
        <time>2020-04-09T14:12:11.000Z</time>
      </trkpt>
      <trkpt lat="47.27122" lon="-2.19889">
        <ele>16.6</ele>
        <time>2020-04-09T14:12:12.000Z</time>
      </trkpt>
      <trkpt lat="47.27117" lon="-2.1989">
        <ele>16.4</ele>
        <time>2020-04-09T14:12:13.000Z</time>
      </trkpt>
      <trkpt lat="47.27112" lon="-2.19892">
        <ele>15.8</ele>
        <time>2020-04-09T14:12:14.000Z</time>
      </trkpt>
      <trkpt lat="47.27107" lon="-2.19895">
        <ele>15.8</ele>
        <time>2020-04-09T14:12:15.000Z</time>
      </trkpt>
      <trkpt lat="47.27102" lon="-2.19897">
        <ele>15.8</ele>
        <time>2020-04-09T14:12:16.000Z</time>
      </trkpt>
      <trkpt lat="47.27098" lon="-2.199">
        <ele>15.6</ele>
        <time>2020-04-09T14:12:17.000Z</time>
      </trkpt>
      <trkpt lat="47.27094" lon="-2.19902">
        <ele>16</ele>
        <time>2020-04-09T14:12:18.000Z</time>
      </trkpt>
      <trkpt lat="47.2709" lon="-2.19905">
        <ele>16</ele>
        <time>2020-04-09T14:12:19.000Z</time>
      </trkpt>
      <trkpt lat="47.27086" lon="-2.19907">
        <ele>16</ele>
        <time>2020-04-09T14:12:20.000Z</time>
      </trkpt>
      <trkpt lat="47.27081" lon="-2.1991">
        <ele>16</ele>
        <time>2020-04-09T14:12:21.000Z</time>
      </trkpt>
      <trkpt lat="47.27077" lon="-2.19912">
        <ele>15.6</ele>
        <time>2020-04-09T14:12:22.000Z</time>
      </trkpt>
      <trkpt lat="47.27073" lon="-2.19915">
        <ele>15.8</ele>
        <time>2020-04-09T14:12:23.000Z</time>
      </trkpt>
      <trkpt lat="47.2707" lon="-2.19917">
        <ele>15.8</ele>
        <time>2020-04-09T14:12:24.000Z</time>
      </trkpt>
      <trkpt lat="47.27066" lon="-2.19921">
        <ele>15.4</ele>
        <time>2020-04-09T14:12:25.000Z</time>
      </trkpt>
      <trkpt lat="47.27062" lon="-2.19924">
        <ele>15.8</ele>
        <time>2020-04-09T14:12:26.000Z</time>
      </trkpt>
      <trkpt lat="47.27059" lon="-2.19928">
        <ele>15.8</ele>
        <time>2020-04-09T14:12:27.000Z</time>
      </trkpt>
      <trkpt lat="47.27055" lon="-2.19931">
        <ele>15.8</ele>
        <time>2020-04-09T14:12:28.000Z</time>
      </trkpt>
      <trkpt lat="47.27051" lon="-2.19935">
        <ele>16</ele>
        <time>2020-04-09T14:12:29.000Z</time>
      </trkpt>
      <trkpt lat="47.27048" lon="-2.19938">
        <ele>16</ele>
        <time>2020-04-09T14:12:30.000Z</time>
      </trkpt>
      <trkpt lat="47.27044" lon="-2.19942">
        <ele>15.8</ele>
        <time>2020-04-09T14:12:31.000Z</time>
      </trkpt>
      <trkpt lat="47.2704" lon="-2.19945">
        <ele>16</ele>
        <time>2020-04-09T14:12:32.000Z</time>
      </trkpt>
      <trkpt lat="47.27036" lon="-2.19948">
        <ele>16.2</ele>
        <time>2020-04-09T14:12:33.000Z</time>
      </trkpt>
      <trkpt lat="47.27032" lon="-2.19951">
        <ele>16.2</ele>
        <time>2020-04-09T14:12:34.000Z</time>
      </trkpt>
      <trkpt lat="47.27028" lon="-2.19953">
        <ele>16.2</ele>
        <time>2020-04-09T14:12:35.000Z</time>
      </trkpt>
      <trkpt lat="47.27024" lon="-2.19957">
        <ele>16.4</ele>
        <time>2020-04-09T14:12:36.000Z</time>
      </trkpt>
      <trkpt lat="47.2702" lon="-2.1996">
        <ele>16.4</ele>
        <time>2020-04-09T14:12:37.000Z</time>
      </trkpt>
      <trkpt lat="47.27015" lon="-2.19963">
        <ele>16.2</ele>
        <time>2020-04-09T14:12:38.000Z</time>
      </trkpt>
      <trkpt lat="47.27011" lon="-2.19966">
        <ele>16.2</ele>
        <time>2020-04-09T14:12:39.000Z</time>
      </trkpt>
      <trkpt lat="47.27008" lon="-2.19969">
        <ele>16</ele>
        <time>2020-04-09T14:12:40.000Z</time>
      </trkpt>
      <trkpt lat="47.27004" lon="-2.19972">
        <ele>15.8</ele>
        <time>2020-04-09T14:12:41.000Z</time>
      </trkpt>
      <trkpt lat="47.27001" lon="-2.19975">
        <ele>15.8</ele>
        <time>2020-04-09T14:12:42.000Z</time>
      </trkpt>
      <trkpt lat="47.26997" lon="-2.19977">
        <ele>16.2</ele>
        <time>2020-04-09T14:12:43.000Z</time>
      </trkpt>
      <trkpt lat="47.26993" lon="-2.19979">
        <ele>16.4</ele>
        <time>2020-04-09T14:12:44.000Z</time>
      </trkpt>
      <trkpt lat="47.26989" lon="-2.1998">
        <ele>16.2</ele>
        <time>2020-04-09T14:12:45.000Z</time>
      </trkpt>
      <trkpt lat="47.26984" lon="-2.19981">
        <ele>16.2</ele>
        <time>2020-04-09T14:12:46.000Z</time>
      </trkpt>
      <trkpt lat="47.2698" lon="-2.19981">
        <ele>16.2</ele>
        <time>2020-04-09T14:12:47.000Z</time>
      </trkpt>
      <trkpt lat="47.26976" lon="-2.19983">
        <ele>16</ele>
        <time>2020-04-09T14:12:48.000Z</time>
      </trkpt>
      <trkpt lat="47.26972" lon="-2.19985">
        <ele>16</ele>
        <time>2020-04-09T14:12:49.000Z</time>
      </trkpt>
      <trkpt lat="47.26968" lon="-2.19988">
        <ele>15.8</ele>
        <time>2020-04-09T14:12:50.000Z</time>
      </trkpt>
      <trkpt lat="47.26964" lon="-2.1999">
        <ele>15.8</ele>
        <time>2020-04-09T14:12:51.000Z</time>
      </trkpt>
      <trkpt lat="47.2696" lon="-2.19993">
        <ele>16</ele>
        <time>2020-04-09T14:12:52.000Z</time>
      </trkpt>
      <trkpt lat="47.26956" lon="-2.19995">
        <ele>15.8</ele>
        <time>2020-04-09T14:12:53.000Z</time>
      </trkpt>
      <trkpt lat="47.26951" lon="-2.19997">
        <ele>16</ele>
        <time>2020-04-09T14:12:54.000Z</time>
      </trkpt>
      <trkpt lat="47.26947" lon="-2.2">
        <ele>16</ele>
        <time>2020-04-09T14:12:55.000Z</time>
      </trkpt>
      <trkpt lat="47.26943" lon="-2.20003">
        <ele>16</ele>
        <time>2020-04-09T14:12:56.000Z</time>
      </trkpt>
      <trkpt lat="47.26939" lon="-2.20006">
        <ele>16</ele>
        <time>2020-04-09T14:12:57.000Z</time>
      </trkpt>
      <trkpt lat="47.26935" lon="-2.20008">
        <ele>15.6</ele>
        <time>2020-04-09T14:12:58.000Z</time>
      </trkpt>
      <trkpt lat="47.26931" lon="-2.20011">
        <ele>15.4</ele>
        <time>2020-04-09T14:12:59.000Z</time>
      </trkpt>
      <trkpt lat="47.26926" lon="-2.20013">
        <ele>15.4</ele>
        <time>2020-04-09T14:13:00.000Z</time>
      </trkpt>
      <trkpt lat="47.26922" lon="-2.20016">
        <ele>15.4</ele>
        <time>2020-04-09T14:13:01.000Z</time>
      </trkpt>
      <trkpt lat="47.26918" lon="-2.20019">
        <ele>15.6</ele>
        <time>2020-04-09T14:13:02.000Z</time>
      </trkpt>
      <trkpt lat="47.26914" lon="-2.20021">
        <ele>15.6</ele>
        <time>2020-04-09T14:13:03.000Z</time>
      </trkpt>
      <trkpt lat="47.2691" lon="-2.20024">
        <ele>15.6</ele>
        <time>2020-04-09T14:13:04.000Z</time>
      </trkpt>
      <trkpt lat="47.26906" lon="-2.20027">
        <ele>15.6</ele>
        <time>2020-04-09T14:13:05.000Z</time>
      </trkpt>
      <trkpt lat="47.26902" lon="-2.2003">
        <ele>15.4</ele>
        <time>2020-04-09T14:13:06.000Z</time>
      </trkpt>
      <trkpt lat="47.26898" lon="-2.20033">
        <ele>15.6</ele>
        <time>2020-04-09T14:13:07.000Z</time>
      </trkpt>
      <trkpt lat="47.26894" lon="-2.20035">
        <ele>15.4</ele>
        <time>2020-04-09T14:13:08.000Z</time>
      </trkpt>
      <trkpt lat="47.2689" lon="-2.20038">
        <ele>15.6</ele>
        <time>2020-04-09T14:13:09.000Z</time>
      </trkpt>
      <trkpt lat="47.26887" lon="-2.20042">
        <ele>15.6</ele>
        <time>2020-04-09T14:13:10.000Z</time>
      </trkpt>
      <trkpt lat="47.26883" lon="-2.20046">
        <ele>15.4</ele>
        <time>2020-04-09T14:13:11.000Z</time>
      </trkpt>
      <trkpt lat="47.2688" lon="-2.2005">
        <ele>15.4</ele>
        <time>2020-04-09T14:13:12.000Z</time>
      </trkpt>
      <trkpt lat="47.26876" lon="-2.20053">
        <ele>15.4</ele>
        <time>2020-04-09T14:13:13.000Z</time>
      </trkpt>
      <trkpt lat="47.26872" lon="-2.20056">
        <ele>15.6</ele>
        <time>2020-04-09T14:13:14.000Z</time>
      </trkpt>
      <trkpt lat="47.26869" lon="-2.20059">
        <ele>15.6</ele>
        <time>2020-04-09T14:13:15.000Z</time>
      </trkpt>
      <trkpt lat="47.26865" lon="-2.20061">
        <ele>15.6</ele>
        <time>2020-04-09T14:13:16.000Z</time>
      </trkpt>
      <trkpt lat="47.26862" lon="-2.20064">
        <ele>15.4</ele>
        <time>2020-04-09T14:13:17.000Z</time>
      </trkpt>
      <trkpt lat="47.26858" lon="-2.20067">
        <ele>15.6</ele>
        <time>2020-04-09T14:13:18.000Z</time>
      </trkpt>
      <trkpt lat="47.26854" lon="-2.20069">
        <ele>15.6</ele>
        <time>2020-04-09T14:13:19.000Z</time>
      </trkpt>
      <trkpt lat="47.2685" lon="-2.20072">
        <ele>15.6</ele>
        <time>2020-04-09T14:13:20.000Z</time>
      </trkpt>
      <trkpt lat="47.26846" lon="-2.20074">
        <ele>15.6</ele>
        <time>2020-04-09T14:13:21.000Z</time>
      </trkpt>
      <trkpt lat="47.26842" lon="-2.20077">
        <ele>15.6</ele>
        <time>2020-04-09T14:13:22.000Z</time>
      </trkpt>
      <trkpt lat="47.26837" lon="-2.20079">
        <ele>15.6</ele>
        <time>2020-04-09T14:13:23.000Z</time>
      </trkpt>
      <trkpt lat="47.26833" lon="-2.20081">
        <ele>15.6</ele>
        <time>2020-04-09T14:13:24.000Z</time>
      </trkpt>
      <trkpt lat="47.26829" lon="-2.20083">
        <ele>15.8</ele>
        <time>2020-04-09T14:13:25.000Z</time>
      </trkpt>
      <trkpt lat="47.26825" lon="-2.20086">
        <ele>15.6</ele>
        <time>2020-04-09T14:13:26.000Z</time>
      </trkpt>
      <trkpt lat="47.26821" lon="-2.20088">
        <ele>15.6</ele>
        <time>2020-04-09T14:13:27.000Z</time>
      </trkpt>
      <trkpt lat="47.26817" lon="-2.2009">
        <ele>15.6</ele>
        <time>2020-04-09T14:13:28.000Z</time>
      </trkpt>
      <trkpt lat="47.26813" lon="-2.20093">
        <ele>15.6</ele>
        <time>2020-04-09T14:13:29.000Z</time>
      </trkpt>
      <trkpt lat="47.26809" lon="-2.20096">
        <ele>15.4</ele>
        <time>2020-04-09T14:13:30.000Z</time>
      </trkpt>
      <trkpt lat="47.26806" lon="-2.20098">
        <ele>15.6</ele>
        <time>2020-04-09T14:13:31.000Z</time>
      </trkpt>
      <trkpt lat="47.26802" lon="-2.20101">
        <ele>15.8</ele>
        <time>2020-04-09T14:13:32.000Z</time>
      </trkpt>
      <trkpt lat="47.26798" lon="-2.20103">
        <ele>15.6</ele>
        <time>2020-04-09T14:13:33.000Z</time>
      </trkpt>
      <trkpt lat="47.26795" lon="-2.20106">
        <ele>15.8</ele>
        <time>2020-04-09T14:13:34.000Z</time>
      </trkpt>
      <trkpt lat="47.26787" lon="-2.20111">
        <ele>15.8</ele>
        <time>2020-04-09T14:13:35.000Z</time>
      </trkpt>
      <trkpt lat="47.26784" lon="-2.20113">
        <ele>16</ele>
        <time>2020-04-09T14:13:36.000Z</time>
      </trkpt>
      <trkpt lat="47.2678" lon="-2.20116">
        <ele>15.8</ele>
        <time>2020-04-09T14:13:37.000Z</time>
      </trkpt>
      <trkpt lat="47.26776" lon="-2.20118">
        <ele>15.6</ele>
        <time>2020-04-09T14:13:38.000Z</time>
      </trkpt>
      <trkpt lat="47.26772" lon="-2.20121">
        <ele>15.2</ele>
        <time>2020-04-09T14:13:39.000Z</time>
      </trkpt>
      <trkpt lat="47.26769" lon="-2.20123">
        <ele>15.2</ele>
        <time>2020-04-09T14:13:40.000Z</time>
      </trkpt>
      <trkpt lat="47.26765" lon="-2.20126">
        <ele>15.2</ele>
        <time>2020-04-09T14:13:41.000Z</time>
      </trkpt>
      <trkpt lat="47.26761" lon="-2.20128">
        <ele>15.4</ele>
        <time>2020-04-09T14:13:42.000Z</time>
      </trkpt>
      <trkpt lat="47.26758" lon="-2.20131">
        <ele>15.4</ele>
        <time>2020-04-09T14:13:43.000Z</time>
      </trkpt>
      <trkpt lat="47.26754" lon="-2.20133">
        <ele>15.6</ele>
        <time>2020-04-09T14:13:44.000Z</time>
      </trkpt>
      <trkpt lat="47.2675" lon="-2.20136">
        <ele>15.8</ele>
        <time>2020-04-09T14:13:45.000Z</time>
      </trkpt>
      <trkpt lat="47.26747" lon="-2.20138">
        <ele>15.8</ele>
        <time>2020-04-09T14:13:47.000Z</time>
      </trkpt>
      <trkpt lat="47.2674" lon="-2.20143">
        <ele>15.8</ele>
        <time>2020-04-09T14:13:48.000Z</time>
      </trkpt>
      <trkpt lat="47.2674" lon="-2.20143">
        <ele>15.6</ele>
        <time>2020-04-09T14:13:49.000Z</time>
      </trkpt>
      <trkpt lat="47.26737" lon="-2.20146">
        <ele>15.6</ele>
        <time>2020-04-09T14:13:50.000Z</time>
      </trkpt>
      <trkpt lat="47.26734" lon="-2.20148">
        <ele>15.6</ele>
        <time>2020-04-09T14:13:51.000Z</time>
      </trkpt>
      <trkpt lat="47.26727" lon="-2.20152">
        <ele>15.6</ele>
        <time>2020-04-09T14:13:52.000Z</time>
      </trkpt>
      <trkpt lat="47.26727" lon="-2.20152">
        <ele>15.6</ele>
        <time>2020-04-09T14:13:53.000Z</time>
      </trkpt>
      <trkpt lat="47.26725" lon="-2.20154">
        <ele>15.6</ele>
        <time>2020-04-09T14:13:54.000Z</time>
      </trkpt>
      <trkpt lat="47.26722" lon="-2.20156">
        <ele>15.6</ele>
        <time>2020-04-09T14:13:55.000Z</time>
      </trkpt>
      <trkpt lat="47.26719" lon="-2.20157">
        <ele>15.6</ele>
        <time>2020-04-09T14:13:56.000Z</time>
      </trkpt>
      <trkpt lat="47.26717" lon="-2.20159">
        <ele>16</ele>
        <time>2020-04-09T14:13:57.000Z</time>
      </trkpt>
      <trkpt lat="47.26715" lon="-2.20161">
        <ele>15.8</ele>
        <time>2020-04-09T14:13:58.000Z</time>
      </trkpt>
      <trkpt lat="47.26713" lon="-2.20163">
        <ele>15.6</ele>
        <time>2020-04-09T14:13:59.000Z</time>
      </trkpt>
      <trkpt lat="47.26712" lon="-2.20166">
        <ele>16.2</ele>
        <time>2020-04-09T14:14:00.000Z</time>
      </trkpt>
      <trkpt lat="47.2671" lon="-2.20167">
        <ele>15.6</ele>
        <time>2020-04-09T14:14:01.000Z</time>
      </trkpt>
      <trkpt lat="47.26708" lon="-2.20168">
        <ele>15.8</ele>
        <time>2020-04-09T14:14:02.000Z</time>
      </trkpt>
      <trkpt lat="47.26707" lon="-2.20167">
        <ele>15.8</ele>
        <time>2020-04-09T14:14:03.000Z</time>
      </trkpt>
      <trkpt lat="47.26706" lon="-2.20164">
        <ele>15.8</ele>
        <time>2020-04-09T14:14:04.000Z</time>
      </trkpt>
      <trkpt lat="47.26707" lon="-2.20162">
        <ele>15.6</ele>
        <time>2020-04-09T14:14:05.000Z</time>
      </trkpt>
      <trkpt lat="47.26708" lon="-2.20159">
        <ele>15.4</ele>
        <time>2020-04-09T14:14:06.000Z</time>
      </trkpt>
      <trkpt lat="47.2671" lon="-2.20158">
        <ele>15.6</ele>
        <time>2020-04-09T14:14:07.000Z</time>
      </trkpt>
      <trkpt lat="47.26712" lon="-2.20157">
        <ele>15.6</ele>
        <time>2020-04-09T14:14:08.000Z</time>
      </trkpt>
      <trkpt lat="47.26714" lon="-2.20156">
        <ele>15.8</ele>
        <time>2020-04-09T14:14:09.000Z</time>
      </trkpt>
      <trkpt lat="47.26717" lon="-2.20155">
        <ele>15.6</ele>
        <time>2020-04-09T14:14:10.000Z</time>
      </trkpt>
      <trkpt lat="47.26719" lon="-2.20154">
        <ele>15.6</ele>
        <time>2020-04-09T14:14:11.000Z</time>
      </trkpt>
      <trkpt lat="47.26722" lon="-2.20153">
        <ele>15.8</ele>
        <time>2020-04-09T14:14:12.000Z</time>
      </trkpt>
      <trkpt lat="47.26725" lon="-2.20151">
        <ele>15.4</ele>
        <time>2020-04-09T14:14:13.000Z</time>
      </trkpt>
      <trkpt lat="47.26729" lon="-2.20149">
        <ele>15.6</ele>
        <time>2020-04-09T14:14:14.000Z</time>
      </trkpt>
      <trkpt lat="47.26732" lon="-2.20147">
        <ele>15.4</ele>
        <time>2020-04-09T14:14:15.000Z</time>
      </trkpt>
      <trkpt lat="47.26735" lon="-2.20144">
        <ele>15.4</ele>
        <time>2020-04-09T14:14:16.000Z</time>
      </trkpt>
      <trkpt lat="47.26739" lon="-2.20142">
        <ele>15.4</ele>
        <time>2020-04-09T14:14:17.000Z</time>
      </trkpt>
      <trkpt lat="47.26742" lon="-2.20139">
        <ele>15.6</ele>
        <time>2020-04-09T14:14:18.000Z</time>
      </trkpt>
      <trkpt lat="47.26746" lon="-2.20136">
        <ele>15.8</ele>
        <time>2020-04-09T14:14:19.000Z</time>
      </trkpt>
      <trkpt lat="47.2675" lon="-2.20133">
        <ele>15.8</ele>
        <time>2020-04-09T14:14:20.000Z</time>
      </trkpt>
      <trkpt lat="47.26753" lon="-2.20131">
        <ele>15.8</ele>
        <time>2020-04-09T14:14:21.000Z</time>
      </trkpt>
      <trkpt lat="47.26757" lon="-2.20128">
        <ele>15.8</ele>
        <time>2020-04-09T14:14:22.000Z</time>
      </trkpt>
      <trkpt lat="47.2676" lon="-2.20126">
        <ele>15.8</ele>
        <time>2020-04-09T14:14:23.000Z</time>
      </trkpt>
      <trkpt lat="47.26764" lon="-2.20124">
        <ele>15.6</ele>
        <time>2020-04-09T14:14:24.000Z</time>
      </trkpt>
      <trkpt lat="47.26768" lon="-2.20121">
        <ele>15.4</ele>
        <time>2020-04-09T14:14:25.000Z</time>
      </trkpt>
      <trkpt lat="47.26772" lon="-2.20118">
        <ele>15.4</ele>
        <time>2020-04-09T14:14:26.000Z</time>
      </trkpt>
      <trkpt lat="47.26775" lon="-2.20116">
        <ele>15.4</ele>
        <time>2020-04-09T14:14:27.000Z</time>
      </trkpt>
      <trkpt lat="47.26779" lon="-2.20113">
        <ele>15.6</ele>
        <time>2020-04-09T14:14:28.000Z</time>
      </trkpt>
      <trkpt lat="47.26783" lon="-2.20111">
        <ele>15.8</ele>
        <time>2020-04-09T14:14:29.000Z</time>
      </trkpt>
      <trkpt lat="47.26787" lon="-2.20108">
        <ele>15.6</ele>
        <time>2020-04-09T14:14:30.000Z</time>
      </trkpt>
      <trkpt lat="47.26791" lon="-2.20106">
        <ele>16</ele>
        <time>2020-04-09T14:14:31.000Z</time>
      </trkpt>
      <trkpt lat="47.26795" lon="-2.20103">
        <ele>15.8</ele>
        <time>2020-04-09T14:14:32.000Z</time>
      </trkpt>
      <trkpt lat="47.26799" lon="-2.201">
        <ele>15.8</ele>
        <time>2020-04-09T14:14:33.000Z</time>
      </trkpt>
      <trkpt lat="47.26803" lon="-2.20097">
        <ele>15.8</ele>
        <time>2020-04-09T14:14:34.000Z</time>
      </trkpt>
      <trkpt lat="47.26807" lon="-2.20095">
        <ele>15.8</ele>
        <time>2020-04-09T14:14:35.000Z</time>
      </trkpt>
      <trkpt lat="47.26811" lon="-2.20093">
        <ele>15.8</ele>
        <time>2020-04-09T14:14:36.000Z</time>
      </trkpt>
      <trkpt lat="47.26815" lon="-2.2009">
        <ele>15.6</ele>
        <time>2020-04-09T14:14:37.000Z</time>
      </trkpt>
      <trkpt lat="47.26819" lon="-2.20088">
        <ele>15.6</ele>
        <time>2020-04-09T14:14:38.000Z</time>
      </trkpt>
      <trkpt lat="47.26822" lon="-2.20086">
        <ele>15.4</ele>
        <time>2020-04-09T14:14:39.000Z</time>
      </trkpt>
      <trkpt lat="47.26826" lon="-2.20083">
        <ele>15.4</ele>
        <time>2020-04-09T14:14:40.000Z</time>
      </trkpt>
      <trkpt lat="47.26829" lon="-2.2008">
        <ele>15.6</ele>
        <time>2020-04-09T14:14:41.000Z</time>
      </trkpt>
      <trkpt lat="47.26832" lon="-2.20076">
        <ele>15.8</ele>
        <time>2020-04-09T14:14:42.000Z</time>
      </trkpt>
      <trkpt lat="47.26836" lon="-2.20073">
        <ele>15.8</ele>
        <time>2020-04-09T14:14:43.000Z</time>
      </trkpt>
      <trkpt lat="47.26839" lon="-2.2007">
        <ele>15.4</ele>
        <time>2020-04-09T14:14:44.000Z</time>
      </trkpt>
      <trkpt lat="47.26843" lon="-2.20068">
        <ele>15.4</ele>
        <time>2020-04-09T14:14:45.000Z</time>
      </trkpt>
      <trkpt lat="47.26847" lon="-2.20065">
        <ele>15.4</ele>
        <time>2020-04-09T14:14:46.000Z</time>
      </trkpt>
      <trkpt lat="47.26851" lon="-2.20062">
        <ele>15.4</ele>
        <time>2020-04-09T14:14:47.000Z</time>
      </trkpt>
      <trkpt lat="47.26855" lon="-2.20059">
        <ele>15.4</ele>
        <time>2020-04-09T14:14:48.000Z</time>
      </trkpt>
      <trkpt lat="47.26859" lon="-2.20056">
        <ele>15.6</ele>
        <time>2020-04-09T14:14:49.000Z</time>
      </trkpt>
      <trkpt lat="47.26863" lon="-2.20053">
        <ele>15.6</ele>
        <time>2020-04-09T14:14:50.000Z</time>
      </trkpt>
      <trkpt lat="47.26867" lon="-2.2005">
        <ele>15.6</ele>
        <time>2020-04-09T14:14:51.000Z</time>
      </trkpt>
      <trkpt lat="47.26871" lon="-2.20047">
        <ele>15.4</ele>
        <time>2020-04-09T14:14:52.000Z</time>
      </trkpt>
      <trkpt lat="47.26875" lon="-2.20044">
        <ele>15.6</ele>
        <time>2020-04-09T14:14:53.000Z</time>
      </trkpt>
      <trkpt lat="47.2688" lon="-2.2004">
        <ele>15.4</ele>
        <time>2020-04-09T14:14:54.000Z</time>
      </trkpt>
      <trkpt lat="47.26884" lon="-2.20037">
        <ele>15.6</ele>
        <time>2020-04-09T14:14:55.000Z</time>
      </trkpt>
      <trkpt lat="47.26888" lon="-2.20035">
        <ele>15.6</ele>
        <time>2020-04-09T14:14:56.000Z</time>
      </trkpt>
      <trkpt lat="47.26893" lon="-2.20032">
        <ele>15.6</ele>
        <time>2020-04-09T14:14:57.000Z</time>
      </trkpt>
      <trkpt lat="47.26897" lon="-2.20029">
        <ele>15.4</ele>
        <time>2020-04-09T14:14:58.000Z</time>
      </trkpt>
      <trkpt lat="47.26902" lon="-2.20026">
        <ele>15.6</ele>
        <time>2020-04-09T14:14:59.000Z</time>
      </trkpt>
      <trkpt lat="47.26906" lon="-2.20023">
        <ele>15.4</ele>
        <time>2020-04-09T14:15:00.000Z</time>
      </trkpt>
      <trkpt lat="47.2691" lon="-2.2002">
        <ele>15.4</ele>
        <time>2020-04-09T14:15:01.000Z</time>
      </trkpt>
      <trkpt lat="47.26915" lon="-2.20017">
        <ele>15.4</ele>
        <time>2020-04-09T14:15:02.000Z</time>
      </trkpt>
      <trkpt lat="47.26919" lon="-2.20014">
        <ele>15.2</ele>
        <time>2020-04-09T14:15:03.000Z</time>
      </trkpt>
      <trkpt lat="47.26923" lon="-2.20012">
        <ele>15.2</ele>
        <time>2020-04-09T14:15:04.000Z</time>
      </trkpt>
      <trkpt lat="47.26928" lon="-2.20008">
        <ele>15.2</ele>
        <time>2020-04-09T14:15:05.000Z</time>
      </trkpt>
      <trkpt lat="47.26932" lon="-2.20005">
        <ele>15.4</ele>
        <time>2020-04-09T14:15:06.000Z</time>
      </trkpt>
      <trkpt lat="47.26936" lon="-2.20002">
        <ele>15.6</ele>
        <time>2020-04-09T14:15:07.000Z</time>
      </trkpt>
      <trkpt lat="47.26941" lon="-2.19999">
        <ele>16</ele>
        <time>2020-04-09T14:15:08.000Z</time>
      </trkpt>
      <trkpt lat="47.26945" lon="-2.19996">
        <ele>15.8</ele>
        <time>2020-04-09T14:15:09.000Z</time>
      </trkpt>
      <trkpt lat="47.2695" lon="-2.19993">
        <ele>15.8</ele>
        <time>2020-04-09T14:15:10.000Z</time>
      </trkpt>
      <trkpt lat="47.26954" lon="-2.1999">
        <ele>15.6</ele>
        <time>2020-04-09T14:15:11.000Z</time>
      </trkpt>
      <trkpt lat="47.26958" lon="-2.19988">
        <ele>15.4</ele>
        <time>2020-04-09T14:15:12.000Z</time>
      </trkpt>
      <trkpt lat="47.26963" lon="-2.19985">
        <ele>15.6</ele>
        <time>2020-04-09T14:15:13.000Z</time>
      </trkpt>
      <trkpt lat="47.26967" lon="-2.19983">
        <ele>15.6</ele>
        <time>2020-04-09T14:15:14.000Z</time>
      </trkpt>
      <trkpt lat="47.26972" lon="-2.1998">
        <ele>15.6</ele>
        <time>2020-04-09T14:15:15.000Z</time>
      </trkpt>
      <trkpt lat="47.26976" lon="-2.19979">
        <ele>15.6</ele>
        <time>2020-04-09T14:15:16.000Z</time>
      </trkpt>
      <trkpt lat="47.26981" lon="-2.19978">
        <ele>15.6</ele>
        <time>2020-04-09T14:15:17.000Z</time>
      </trkpt>
      <trkpt lat="47.26986" lon="-2.19978">
        <ele>15.6</ele>
        <time>2020-04-09T14:15:18.000Z</time>
      </trkpt>
      <trkpt lat="47.2699" lon="-2.19978">
        <ele>15.4</ele>
        <time>2020-04-09T14:15:19.000Z</time>
      </trkpt>
      <trkpt lat="47.26995" lon="-2.19979">
        <ele>15.6</ele>
        <time>2020-04-09T14:15:20.000Z</time>
      </trkpt>
      <trkpt lat="47.26999" lon="-2.19981">
        <ele>15.6</ele>
        <time>2020-04-09T14:15:21.000Z</time>
      </trkpt>
      <trkpt lat="47.27003" lon="-2.19982">
        <ele>15.8</ele>
        <time>2020-04-09T14:15:22.000Z</time>
      </trkpt>
      <trkpt lat="47.27008" lon="-2.19983">
        <ele>15.8</ele>
        <time>2020-04-09T14:15:23.000Z</time>
      </trkpt>
      <trkpt lat="47.27012" lon="-2.19984">
        <ele>15.6</ele>
        <time>2020-04-09T14:15:24.000Z</time>
      </trkpt>
      <trkpt lat="47.27017" lon="-2.19984">
        <ele>15.8</ele>
        <time>2020-04-09T14:15:25.000Z</time>
      </trkpt>
      <trkpt lat="47.27021" lon="-2.19985">
        <ele>15.8</ele>
        <time>2020-04-09T14:15:26.000Z</time>
      </trkpt>
      <trkpt lat="47.27025" lon="-2.19985">
        <ele>15.6</ele>
        <time>2020-04-09T14:15:27.000Z</time>
      </trkpt>
      <trkpt lat="47.27029" lon="-2.19985">
        <ele>15.6</ele>
        <time>2020-04-09T14:15:28.000Z</time>
      </trkpt>
      <trkpt lat="47.27033" lon="-2.19985">
        <ele>15.6</ele>
        <time>2020-04-09T14:15:29.000Z</time>
      </trkpt>
      <trkpt lat="47.27037" lon="-2.19985">
        <ele>15.6</ele>
        <time>2020-04-09T14:15:30.000Z</time>
      </trkpt>
      <trkpt lat="47.27041" lon="-2.19984">
        <ele>15.4</ele>
        <time>2020-04-09T14:15:31.000Z</time>
      </trkpt>
      <trkpt lat="47.27045" lon="-2.19983">
        <ele>15.4</ele>
        <time>2020-04-09T14:15:32.000Z</time>
      </trkpt>
      <trkpt lat="47.27049" lon="-2.19981">
        <ele>15.6</ele>
        <time>2020-04-09T14:15:33.000Z</time>
      </trkpt>
      <trkpt lat="47.27054" lon="-2.19978">
        <ele>15.6</ele>
        <time>2020-04-09T14:15:34.000Z</time>
      </trkpt>
      <trkpt lat="47.27059" lon="-2.19976">
        <ele>15.6</ele>
        <time>2020-04-09T14:15:35.000Z</time>
      </trkpt>
      <trkpt lat="47.27063" lon="-2.19972">
        <ele>15.8</ele>
        <time>2020-04-09T14:15:36.000Z</time>
      </trkpt>
      <trkpt lat="47.27067" lon="-2.1997">
        <ele>15.8</ele>
        <time>2020-04-09T14:15:37.000Z</time>
      </trkpt>
      <trkpt lat="47.27071" lon="-2.19968">
        <ele>15.6</ele>
        <time>2020-04-09T14:15:38.000Z</time>
      </trkpt>
      <trkpt lat="47.27074" lon="-2.19969">
        <ele>15.6</ele>
        <time>2020-04-09T14:15:39.000Z</time>
      </trkpt>
      <trkpt lat="47.27077" lon="-2.19972">
        <ele>15.4</ele>
        <time>2020-04-09T14:15:40.000Z</time>
      </trkpt>
      <trkpt lat="47.27079" lon="-2.19977">
        <ele>15.4</ele>
        <time>2020-04-09T14:15:41.000Z</time>
      </trkpt>
      <trkpt lat="47.27081" lon="-2.19982">
        <ele>15.8</ele>
        <time>2020-04-09T14:15:42.000Z</time>
      </trkpt>
      <trkpt lat="47.27082" lon="-2.19988">
        <ele>16</ele>
        <time>2020-04-09T14:15:43.000Z</time>
      </trkpt>
      <trkpt lat="47.27082" lon="-2.19994">
        <ele>16</ele>
        <time>2020-04-09T14:15:44.000Z</time>
      </trkpt>
      <trkpt lat="47.27082" lon="-2.2">
        <ele>16</ele>
        <time>2020-04-09T14:15:45.000Z</time>
      </trkpt>
      <trkpt lat="47.27083" lon="-2.20006">
        <ele>16</ele>
        <time>2020-04-09T14:15:46.000Z</time>
      </trkpt>
      <trkpt lat="47.27084" lon="-2.20012">
        <ele>16</ele>
        <time>2020-04-09T14:15:47.000Z</time>
      </trkpt>
      <trkpt lat="47.27085" lon="-2.20018">
        <ele>16</ele>
        <time>2020-04-09T14:15:48.000Z</time>
      </trkpt>
      <trkpt lat="47.27085" lon="-2.20025">
        <ele>16</ele>
        <time>2020-04-09T14:15:49.000Z</time>
      </trkpt>
      <trkpt lat="47.27085" lon="-2.20031">
        <ele>16</ele>
        <time>2020-04-09T14:15:50.000Z</time>
      </trkpt>
      <trkpt lat="47.27086" lon="-2.20037">
        <ele>16.2</ele>
        <time>2020-04-09T14:15:51.000Z</time>
      </trkpt>
      <trkpt lat="47.27086" lon="-2.20044">
        <ele>16.2</ele>
        <time>2020-04-09T14:15:52.000Z</time>
      </trkpt>
      <trkpt lat="47.27086" lon="-2.2005">
        <ele>16.2</ele>
        <time>2020-04-09T14:15:53.000Z</time>
      </trkpt>
      <trkpt lat="47.27086" lon="-2.20056">
        <ele>16.4</ele>
        <time>2020-04-09T14:15:54.000Z</time>
      </trkpt>
      <trkpt lat="47.27086" lon="-2.20062">
        <ele>16.4</ele>
        <time>2020-04-09T14:15:55.000Z</time>
      </trkpt>
      <trkpt lat="47.27086" lon="-2.20068">
        <ele>16.4</ele>
        <time>2020-04-09T14:15:56.000Z</time>
      </trkpt>
      <trkpt lat="47.27087" lon="-2.20074">
        <ele>16.2</ele>
        <time>2020-04-09T14:15:57.000Z</time>
      </trkpt>
      <trkpt lat="47.27087" lon="-2.2008">
        <ele>16.2</ele>
        <time>2020-04-09T14:15:58.000Z</time>
      </trkpt>
      <trkpt lat="47.27088" lon="-2.20087">
        <ele>16.2</ele>
        <time>2020-04-09T14:15:59.000Z</time>
      </trkpt>
      <trkpt lat="47.27088" lon="-2.20093">
        <ele>16.2</ele>
        <time>2020-04-09T14:16:00.000Z</time>
      </trkpt>
      <trkpt lat="47.27089" lon="-2.201">
        <ele>16</ele>
        <time>2020-04-09T14:16:01.000Z</time>
      </trkpt>
      <trkpt lat="47.27089" lon="-2.20107">
        <ele>16</ele>
        <time>2020-04-09T14:16:02.000Z</time>
      </trkpt>
      <trkpt lat="47.27089" lon="-2.20113">
        <ele>16</ele>
        <time>2020-04-09T14:16:03.000Z</time>
      </trkpt>
      <trkpt lat="47.2709" lon="-2.20119">
        <ele>16.2</ele>
        <time>2020-04-09T14:16:04.000Z</time>
      </trkpt>
      <trkpt lat="47.2709" lon="-2.20126">
        <ele>16.2</ele>
        <time>2020-04-09T14:16:05.000Z</time>
      </trkpt>
      <trkpt lat="47.2709" lon="-2.20132">
        <ele>16.2</ele>
        <time>2020-04-09T14:16:06.000Z</time>
      </trkpt>
      <trkpt lat="47.27091" lon="-2.20139">
        <ele>16.2</ele>
        <time>2020-04-09T14:16:07.000Z</time>
      </trkpt>
      <trkpt lat="47.27092" lon="-2.20145">
        <ele>15.8</ele>
        <time>2020-04-09T14:16:08.000Z</time>
      </trkpt>
      <trkpt lat="47.27093" lon="-2.20151">
        <ele>15.8</ele>
        <time>2020-04-09T14:16:09.000Z</time>
      </trkpt>
      <trkpt lat="47.27095" lon="-2.20156">
        <ele>15.8</ele>
        <time>2020-04-09T14:16:10.000Z</time>
      </trkpt>
      <trkpt lat="47.27098" lon="-2.20161">
        <ele>15.8</ele>
        <time>2020-04-09T14:16:11.000Z</time>
      </trkpt>
      <trkpt lat="47.27102" lon="-2.20163">
        <ele>15.8</ele>
        <time>2020-04-09T14:16:12.000Z</time>
      </trkpt>
      <trkpt lat="47.27106" lon="-2.20164">
        <ele>16</ele>
        <time>2020-04-09T14:16:13.000Z</time>
      </trkpt>
      <trkpt lat="47.2711" lon="-2.20165">
        <ele>16.2</ele>
        <time>2020-04-09T14:16:14.000Z</time>
      </trkpt>
      <trkpt lat="47.27113" lon="-2.20165">
        <ele>16.4</ele>
        <time>2020-04-09T14:16:15.000Z</time>
      </trkpt>
      <trkpt lat="47.27117" lon="-2.20165">
        <ele>16.4</ele>
        <time>2020-04-09T14:16:16.000Z</time>
      </trkpt>
      <trkpt lat="47.2712" lon="-2.20165">
        <ele>16.4</ele>
        <time>2020-04-09T14:16:17.000Z</time>
      </trkpt>
      <trkpt lat="47.27123" lon="-2.20164">
        <ele>16.8</ele>
        <time>2020-04-09T14:16:18.000Z</time>
      </trkpt>
      <trkpt lat="47.27126" lon="-2.20163">
        <ele>17.2</ele>
        <time>2020-04-09T14:16:19.000Z</time>
      </trkpt>
      <trkpt lat="47.27129" lon="-2.20162">
        <ele>17.6</ele>
        <time>2020-04-09T14:16:20.000Z</time>
      </trkpt>
      <trkpt lat="47.27132" lon="-2.20161">
        <ele>17.8</ele>
        <time>2020-04-09T14:16:21.000Z</time>
      </trkpt>
      <trkpt lat="47.27135" lon="-2.20161">
        <ele>18</ele>
        <time>2020-04-09T14:16:22.000Z</time>
      </trkpt>
      <trkpt lat="47.27138" lon="-2.2016">
        <ele>18</ele>
        <time>2020-04-09T14:16:23.000Z</time>
      </trkpt>
      <trkpt lat="47.2714" lon="-2.20158">
        <ele>18.2</ele>
        <time>2020-04-09T14:16:24.000Z</time>
      </trkpt>
      <trkpt lat="47.27143" lon="-2.20155">
        <ele>18.4</ele>
        <time>2020-04-09T14:16:25.000Z</time>
      </trkpt>
      <trkpt lat="47.27145" lon="-2.20153">
        <ele>18.6</ele>
        <time>2020-04-09T14:16:26.000Z</time>
      </trkpt>
      <trkpt lat="47.27147" lon="-2.2015">
        <ele>18.8</ele>
        <time>2020-04-09T14:16:27.000Z</time>
      </trkpt>
      <trkpt lat="47.27149" lon="-2.20148">
        <ele>18.8</ele>
        <time>2020-04-09T14:16:28.000Z</time>
      </trkpt>
      <trkpt lat="47.27152" lon="-2.20145">
        <ele>18.8</ele>
        <time>2020-04-09T14:16:29.000Z</time>
      </trkpt>
      <trkpt lat="47.27154" lon="-2.20142">
        <ele>18.8</ele>
        <time>2020-04-09T14:16:30.000Z</time>
      </trkpt>
      <trkpt lat="47.27158" lon="-2.20141">
        <ele>18.8</ele>
        <time>2020-04-09T14:16:31.000Z</time>
      </trkpt>
      <trkpt lat="47.27161" lon="-2.20139">
        <ele>18.6</ele>
        <time>2020-04-09T14:16:32.000Z</time>
      </trkpt>
      <trkpt lat="47.27165" lon="-2.20138">
        <ele>18.4</ele>
        <time>2020-04-09T14:16:33.000Z</time>
      </trkpt>
      <trkpt lat="47.27169" lon="-2.20136">
        <ele>18.4</ele>
        <time>2020-04-09T14:16:34.000Z</time>
      </trkpt>
      <trkpt lat="47.27173" lon="-2.20135">
        <ele>18.2</ele>
        <time>2020-04-09T14:16:35.000Z</time>
      </trkpt>
      <trkpt lat="47.27177" lon="-2.20134">
        <ele>18</ele>
        <time>2020-04-09T14:16:36.000Z</time>
      </trkpt>
      <trkpt lat="47.27182" lon="-2.20132">
        <ele>18</ele>
        <time>2020-04-09T14:16:37.000Z</time>
      </trkpt>
      <trkpt lat="47.27187" lon="-2.20131">
        <ele>17.8</ele>
        <time>2020-04-09T14:16:38.000Z</time>
      </trkpt>
      <trkpt lat="47.27192" lon="-2.2013">
        <ele>17.4</ele>
        <time>2020-04-09T14:16:39.000Z</time>
      </trkpt>
      <trkpt lat="47.27197" lon="-2.20129">
        <ele>17.4</ele>
        <time>2020-04-09T14:16:40.000Z</time>
      </trkpt>
      <trkpt lat="47.27202" lon="-2.20128">
        <ele>17.2</ele>
        <time>2020-04-09T14:16:41.000Z</time>
      </trkpt>
      <trkpt lat="47.27208" lon="-2.20126">
        <ele>17</ele>
        <time>2020-04-09T14:16:42.000Z</time>
      </trkpt>
      <trkpt lat="47.27213" lon="-2.20124">
        <ele>17</ele>
        <time>2020-04-09T14:16:43.000Z</time>
      </trkpt>
      <trkpt lat="47.27218" lon="-2.20122">
        <ele>16.8</ele>
        <time>2020-04-09T14:16:44.000Z</time>
      </trkpt>
      <trkpt lat="47.27223" lon="-2.20121">
        <ele>16.4</ele>
        <time>2020-04-09T14:16:45.000Z</time>
      </trkpt>
      <trkpt lat="47.27227" lon="-2.2012">
        <ele>16.4</ele>
        <time>2020-04-09T14:16:46.000Z</time>
      </trkpt>
      <trkpt lat="47.27232" lon="-2.20118">
        <ele>16</ele>
        <time>2020-04-09T14:16:47.000Z</time>
      </trkpt>
      <trkpt lat="47.27236" lon="-2.20117">
        <ele>15.8</ele>
        <time>2020-04-09T14:16:48.000Z</time>
      </trkpt>
      <trkpt lat="47.27239" lon="-2.20116">
        <ele>15.8</ele>
        <time>2020-04-09T14:16:49.000Z</time>
      </trkpt>
      <trkpt lat="47.27243" lon="-2.20114">
        <ele>15.8</ele>
        <time>2020-04-09T14:16:50.000Z</time>
      </trkpt>
      <trkpt lat="47.27246" lon="-2.20112">
        <ele>15.6</ele>
        <time>2020-04-09T14:16:51.000Z</time>
      </trkpt>
      <trkpt lat="47.2725" lon="-2.20112">
        <ele>15.6</ele>
        <time>2020-04-09T14:16:52.000Z</time>
      </trkpt>
      <trkpt lat="47.27253" lon="-2.20112">
        <ele>15.4</ele>
        <time>2020-04-09T14:16:53.000Z</time>
      </trkpt>
      <trkpt lat="47.27255" lon="-2.20114">
        <ele>15.4</ele>
        <time>2020-04-09T14:16:54.000Z</time>
      </trkpt>
      <trkpt lat="47.27258" lon="-2.20117">
        <ele>15.2</ele>
        <time>2020-04-09T14:16:55.000Z</time>
      </trkpt>
      <trkpt lat="47.2726" lon="-2.20122">
        <ele>15.2</ele>
        <time>2020-04-09T14:16:56.000Z</time>
      </trkpt>
      <trkpt lat="47.27261" lon="-2.20127">
        <ele>15.4</ele>
        <time>2020-04-09T14:16:57.000Z</time>
      </trkpt>
      <trkpt lat="47.27262" lon="-2.20132">
        <ele>15.4</ele>
        <time>2020-04-09T14:16:58.000Z</time>
      </trkpt>
      <trkpt lat="47.27262" lon="-2.20137">
        <ele>15.6</ele>
        <time>2020-04-09T14:16:59.000Z</time>
      </trkpt>
      <trkpt lat="47.27263" lon="-2.20143">
        <ele>15.4</ele>
        <time>2020-04-09T14:17:00.000Z</time>
      </trkpt>
      <trkpt lat="47.27264" lon="-2.20148">
        <ele>15.4</ele>
        <time>2020-04-09T14:17:01.000Z</time>
      </trkpt>
      <trkpt lat="47.27265" lon="-2.20153">
        <ele>15.2</ele>
        <time>2020-04-09T14:17:02.000Z</time>
      </trkpt>
      <trkpt lat="47.27266" lon="-2.20157">
        <ele>15.2</ele>
        <time>2020-04-09T14:17:03.000Z</time>
      </trkpt>
      <trkpt lat="47.27266" lon="-2.20161">
        <ele>15.4</ele>
        <time>2020-04-09T14:17:04.000Z</time>
      </trkpt>
      <trkpt lat="47.27267" lon="-2.20163">
        <ele>15.4</ele>
        <time>2020-04-09T14:17:05.000Z</time>
      </trkpt>
      <trkpt lat="47.27267" lon="-2.20167">
        <ele>15.4</ele>
        <time>2020-04-09T14:17:06.000Z</time>
      </trkpt>
      <trkpt lat="47.27268" lon="-2.20172">
        <ele>15.4</ele>
        <time>2020-04-09T14:17:07.000Z</time>
      </trkpt>
      <trkpt lat="47.27269" lon="-2.20177">
        <ele>15.4</ele>
        <time>2020-04-09T14:17:08.000Z</time>
      </trkpt>
      <trkpt lat="47.27269" lon="-2.20181">
        <ele>15.4</ele>
        <time>2020-04-09T14:17:09.000Z</time>
      </trkpt>
      <trkpt lat="47.2727" lon="-2.20186">
        <ele>15.2</ele>
        <time>2020-04-09T14:17:10.000Z</time>
      </trkpt>
      <trkpt lat="47.27271" lon="-2.2019">
        <ele>15.6</ele>
        <time>2020-04-09T14:17:11.000Z</time>
      </trkpt>
      <trkpt lat="47.27271" lon="-2.20194">
        <ele>15.4</ele>
        <time>2020-04-09T14:17:12.000Z</time>
      </trkpt>
      <trkpt lat="47.27272" lon="-2.202">
        <ele>15.4</ele>
        <time>2020-04-09T14:17:13.000Z</time>
      </trkpt>
      <trkpt lat="47.27272" lon="-2.20206">
        <ele>15.6</ele>
        <time>2020-04-09T14:17:14.000Z</time>
      </trkpt>
      <trkpt lat="47.27271" lon="-2.20212">
        <ele>15.4</ele>
        <time>2020-04-09T14:17:15.000Z</time>
      </trkpt>
      <trkpt lat="47.27269" lon="-2.20217">
        <ele>15.6</ele>
        <time>2020-04-09T14:17:16.000Z</time>
      </trkpt>
      <trkpt lat="47.27266" lon="-2.20219">
        <ele>15.6</ele>
        <time>2020-04-09T14:17:17.000Z</time>
      </trkpt>
      <trkpt lat="47.27263" lon="-2.20221">
        <ele>15.6</ele>
        <time>2020-04-09T14:17:18.000Z</time>
      </trkpt>
      <trkpt lat="47.27259" lon="-2.20222">
        <ele>15.8</ele>
        <time>2020-04-09T14:17:19.000Z</time>
      </trkpt>
      <trkpt lat="47.27255" lon="-2.20223">
        <ele>15.6</ele>
        <time>2020-04-09T14:17:20.000Z</time>
      </trkpt>
      <trkpt lat="47.27251" lon="-2.20223">
        <ele>15.6</ele>
        <time>2020-04-09T14:17:21.000Z</time>
      </trkpt>
      <trkpt lat="47.27247" lon="-2.20224">
        <ele>15.8</ele>
        <time>2020-04-09T14:17:22.000Z</time>
      </trkpt>
      <trkpt lat="47.27243" lon="-2.20225">
        <ele>15.8</ele>
        <time>2020-04-09T14:17:23.000Z</time>
      </trkpt>
      <trkpt lat="47.27239" lon="-2.20225">
        <ele>16</ele>
        <time>2020-04-09T14:17:24.000Z</time>
      </trkpt>
      <trkpt lat="47.27235" lon="-2.20227">
        <ele>16</ele>
        <time>2020-04-09T14:17:25.000Z</time>
      </trkpt>
      <trkpt lat="47.2723" lon="-2.20228">
        <ele>15.8</ele>
        <time>2020-04-09T14:17:26.000Z</time>
      </trkpt>
      <trkpt lat="47.27226" lon="-2.20229">
        <ele>15.8</ele>
        <time>2020-04-09T14:17:27.000Z</time>
      </trkpt>
      <trkpt lat="47.27222" lon="-2.2023">
        <ele>16</ele>
        <time>2020-04-09T14:17:28.000Z</time>
      </trkpt>
      <trkpt lat="47.27217" lon="-2.20232">
        <ele>16</ele>
        <time>2020-04-09T14:17:29.000Z</time>
      </trkpt>
      <trkpt lat="47.27213" lon="-2.20234">
        <ele>16.2</ele>
        <time>2020-04-09T14:17:30.000Z</time>
      </trkpt>
      <trkpt lat="47.27208" lon="-2.20236">
        <ele>16</ele>
        <time>2020-04-09T14:17:31.000Z</time>
      </trkpt>
      <trkpt lat="47.27204" lon="-2.20237">
        <ele>16</ele>
        <time>2020-04-09T14:17:32.000Z</time>
      </trkpt>
      <trkpt lat="47.272" lon="-2.20239">
        <ele>16</ele>
        <time>2020-04-09T14:17:33.000Z</time>
      </trkpt>
      <trkpt lat="47.27196" lon="-2.20241">
        <ele>16.2</ele>
        <time>2020-04-09T14:17:34.000Z</time>
      </trkpt>
      <trkpt lat="47.27192" lon="-2.20242">
        <ele>16</ele>
        <time>2020-04-09T14:17:35.000Z</time>
      </trkpt>
      <trkpt lat="47.27187" lon="-2.20243">
        <ele>15.8</ele>
        <time>2020-04-09T14:17:36.000Z</time>
      </trkpt>
      <trkpt lat="47.27183" lon="-2.20244">
        <ele>15.8</ele>
        <time>2020-04-09T14:17:37.000Z</time>
      </trkpt>
      <trkpt lat="47.27175" lon="-2.20246">
        <ele>15.8</ele>
        <time>2020-04-09T14:17:38.000Z</time>
      </trkpt>
      <trkpt lat="47.2717" lon="-2.20248">
        <ele>15.8</ele>
        <time>2020-04-09T14:17:39.000Z</time>
      </trkpt>
      <trkpt lat="47.27166" lon="-2.20249">
        <ele>15.8</ele>
        <time>2020-04-09T14:17:40.000Z</time>
      </trkpt>
      <trkpt lat="47.27162" lon="-2.2025">
        <ele>16</ele>
        <time>2020-04-09T14:17:41.000Z</time>
      </trkpt>
      <trkpt lat="47.27157" lon="-2.20252">
        <ele>16</ele>
        <time>2020-04-09T14:17:43.000Z</time>
      </trkpt>
      <trkpt lat="47.27149" lon="-2.20254">
        <ele>16</ele>
        <time>2020-04-09T14:17:44.000Z</time>
      </trkpt>
      <trkpt lat="47.27145" lon="-2.20255">
        <ele>16</ele>
        <time>2020-04-09T14:17:45.000Z</time>
      </trkpt>
      <trkpt lat="47.2714" lon="-2.20255">
        <ele>16</ele>
        <time>2020-04-09T14:17:46.000Z</time>
      </trkpt>
      <trkpt lat="47.27136" lon="-2.20256">
        <ele>16</ele>
        <time>2020-04-09T14:17:47.000Z</time>
      </trkpt>
      <trkpt lat="47.27133" lon="-2.20257">
        <ele>16</ele>
        <time>2020-04-09T14:17:48.000Z</time>
      </trkpt>
      <trkpt lat="47.27129" lon="-2.20258">
        <ele>16</ele>
        <time>2020-04-09T14:17:49.000Z</time>
      </trkpt>
      <trkpt lat="47.27125" lon="-2.20259">
        <ele>16.2</ele>
        <time>2020-04-09T14:17:50.000Z</time>
      </trkpt>
      <trkpt lat="47.27121" lon="-2.2026">
        <ele>16</ele>
        <time>2020-04-09T14:17:51.000Z</time>
      </trkpt>
      <trkpt lat="47.27121" lon="-2.2026">
        <ele>16.2</ele>
        <time>2020-04-09T14:17:52.000Z</time>
      </trkpt>
      <trkpt lat="47.27117" lon="-2.20261">
        <ele>16.2</ele>
        <time>2020-04-09T14:17:53.000Z</time>
      </trkpt>
      <trkpt lat="47.27109" lon="-2.20262">
        <ele>16.2</ele>
        <time>2020-04-09T14:17:54.000Z</time>
      </trkpt>
      <trkpt lat="47.27105" lon="-2.20262">
        <ele>16.2</ele>
        <time>2020-04-09T14:17:55.000Z</time>
      </trkpt>
      <trkpt lat="47.27105" lon="-2.20262">
        <ele>16.2</ele>
        <time>2020-04-09T14:17:56.000Z</time>
      </trkpt>
      <trkpt lat="47.27101" lon="-2.20263">
        <ele>16</ele>
        <time>2020-04-09T14:17:57.000Z</time>
      </trkpt>
      <trkpt lat="47.27097" lon="-2.20263">
        <ele>16.2</ele>
        <time>2020-04-09T14:17:58.000Z</time>
      </trkpt>
      <trkpt lat="47.27092" lon="-2.20264">
        <ele>16</ele>
        <time>2020-04-09T14:17:59.000Z</time>
      </trkpt>
      <trkpt lat="47.27088" lon="-2.20265">
        <ele>16.2</ele>
        <time>2020-04-09T14:18:00.000Z</time>
      </trkpt>
      <trkpt lat="47.27084" lon="-2.20267">
        <ele>16.2</ele>
        <time>2020-04-09T14:18:02.000Z</time>
      </trkpt>
      <trkpt lat="47.27076" lon="-2.2027">
        <ele>16</ele>
        <time>2020-04-09T14:18:03.000Z</time>
      </trkpt>
      <trkpt lat="47.27072" lon="-2.20271">
        <ele>15.8</ele>
        <time>2020-04-09T14:18:04.000Z</time>
      </trkpt>
      <trkpt lat="47.27069" lon="-2.20274">
        <ele>15.8</ele>
        <time>2020-04-09T14:18:05.000Z</time>
      </trkpt>
      <trkpt lat="47.27066" lon="-2.20278">
        <ele>15.6</ele>
        <time>2020-04-09T14:18:06.000Z</time>
      </trkpt>
      <trkpt lat="47.27065" lon="-2.20284">
        <ele>15.6</ele>
        <time>2020-04-09T14:18:07.000Z</time>
      </trkpt>
      <trkpt lat="47.27065" lon="-2.2029">
        <ele>15.6</ele>
        <time>2020-04-09T14:18:08.000Z</time>
      </trkpt>
      <trkpt lat="47.27066" lon="-2.20297">
        <ele>15.6</ele>
        <time>2020-04-09T14:18:09.000Z</time>
      </trkpt>
      <trkpt lat="47.27067" lon="-2.20303">
        <ele>15.4</ele>
        <time>2020-04-09T14:18:10.000Z</time>
      </trkpt>
      <trkpt lat="47.27068" lon="-2.20309">
        <ele>15.4</ele>
        <time>2020-04-09T14:18:11.000Z</time>
      </trkpt>
      <trkpt lat="47.27069" lon="-2.20315">
        <ele>15.4</ele>
        <time>2020-04-09T14:18:12.000Z</time>
      </trkpt>
      <trkpt lat="47.27071" lon="-2.20321">
        <ele>15.4</ele>
        <time>2020-04-09T14:18:13.000Z</time>
      </trkpt>
      <trkpt lat="47.27072" lon="-2.20328">
        <ele>15.4</ele>
        <time>2020-04-09T14:18:14.000Z</time>
      </trkpt>
      <trkpt lat="47.27073" lon="-2.20334">
        <ele>15.4</ele>
        <time>2020-04-09T14:18:15.000Z</time>
      </trkpt>
      <trkpt lat="47.27075" lon="-2.20341">
        <ele>15.2</ele>
        <time>2020-04-09T14:18:16.000Z</time>
      </trkpt>
      <trkpt lat="47.27076" lon="-2.20347">
        <ele>15.2</ele>
        <time>2020-04-09T14:18:17.000Z</time>
      </trkpt>
      <trkpt lat="47.27077" lon="-2.20353">
        <ele>15.2</ele>
        <time>2020-04-09T14:18:18.000Z</time>
      </trkpt>
      <trkpt lat="47.27078" lon="-2.2036">
        <ele>15.4</ele>
        <time>2020-04-09T14:18:19.000Z</time>
      </trkpt>
      <trkpt lat="47.27079" lon="-2.20366">
        <ele>15.6</ele>
        <time>2020-04-09T14:18:20.000Z</time>
      </trkpt>
      <trkpt lat="47.27081" lon="-2.20372">
        <ele>15.4</ele>
        <time>2020-04-09T14:18:22.000Z</time>
      </trkpt>
      <trkpt lat="47.27083" lon="-2.20385">
        <ele>15.8</ele>
        <time>2020-04-09T14:18:23.000Z</time>
      </trkpt>
      <trkpt lat="47.27084" lon="-2.2039">
        <ele>15.8</ele>
        <time>2020-04-09T14:18:24.000Z</time>
      </trkpt>
      <trkpt lat="47.27086" lon="-2.20396">
        <ele>15.8</ele>
        <time>2020-04-09T14:18:25.000Z</time>
      </trkpt>
      <trkpt lat="47.27087" lon="-2.20402">
        <ele>16</ele>
        <time>2020-04-09T14:18:26.000Z</time>
      </trkpt>
      <trkpt lat="47.27089" lon="-2.20407">
        <ele>15.8</ele>
        <time>2020-04-09T14:18:27.000Z</time>
      </trkpt>
      <trkpt lat="47.27091" lon="-2.20413">
        <ele>16</ele>
        <time>2020-04-09T14:18:28.000Z</time>
      </trkpt>
      <trkpt lat="47.27092" lon="-2.20419">
        <ele>15.8</ele>
        <time>2020-04-09T14:18:29.000Z</time>
      </trkpt>
      <trkpt lat="47.27094" lon="-2.20425">
        <ele>16</ele>
        <time>2020-04-09T14:18:30.000Z</time>
      </trkpt>
      <trkpt lat="47.27095" lon="-2.20431">
        <ele>16</ele>
        <time>2020-04-09T14:18:31.000Z</time>
      </trkpt>
      <trkpt lat="47.27097" lon="-2.20437">
        <ele>16</ele>
        <time>2020-04-09T14:18:32.000Z</time>
      </trkpt>
      <trkpt lat="47.27099" lon="-2.20443">
        <ele>16.2</ele>
        <time>2020-04-09T14:18:33.000Z</time>
      </trkpt>
      <trkpt lat="47.27101" lon="-2.20448">
        <ele>16.4</ele>
        <time>2020-04-09T14:18:34.000Z</time>
      </trkpt>
      <trkpt lat="47.27104" lon="-2.20453">
        <ele>16.2</ele>
        <time>2020-04-09T14:18:35.000Z</time>
      </trkpt>
      <trkpt lat="47.27107" lon="-2.20458">
        <ele>16</ele>
        <time>2020-04-09T14:18:36.000Z</time>
      </trkpt>
      <trkpt lat="47.2711" lon="-2.20463">
        <ele>16</ele>
        <time>2020-04-09T14:18:37.000Z</time>
      </trkpt>
      <trkpt lat="47.27112" lon="-2.20468">
        <ele>16</ele>
        <time>2020-04-09T14:18:38.000Z</time>
      </trkpt>
      <trkpt lat="47.27115" lon="-2.20472">
        <ele>16</ele>
        <time>2020-04-09T14:18:39.000Z</time>
      </trkpt>
      <trkpt lat="47.27118" lon="-2.20477">
        <ele>16.2</ele>
        <time>2020-04-09T14:18:40.000Z</time>
      </trkpt>
      <trkpt lat="47.27121" lon="-2.20482">
        <ele>16.2</ele>
        <time>2020-04-09T14:18:41.000Z</time>
      </trkpt>
      <trkpt lat="47.27123" lon="-2.20486">
        <ele>16.2</ele>
        <time>2020-04-09T14:18:42.000Z</time>
      </trkpt>
      <trkpt lat="47.27126" lon="-2.20491">
        <ele>16</ele>
        <time>2020-04-09T14:18:43.000Z</time>
      </trkpt>
      <trkpt lat="47.27129" lon="-2.20495">
        <ele>16.2</ele>
        <time>2020-04-09T14:18:44.000Z</time>
      </trkpt>
      <trkpt lat="47.27131" lon="-2.205">
        <ele>16.2</ele>
        <time>2020-04-09T14:18:45.000Z</time>
      </trkpt>
      <trkpt lat="47.27133" lon="-2.20505">
        <ele>16.4</ele>
        <time>2020-04-09T14:18:46.000Z</time>
      </trkpt>
      <trkpt lat="47.27135" lon="-2.20509">
        <ele>16.4</ele>
        <time>2020-04-09T14:18:47.000Z</time>
      </trkpt>
      <trkpt lat="47.27136" lon="-2.20515">
        <ele>16.4</ele>
        <time>2020-04-09T14:18:48.000Z</time>
      </trkpt>
      <trkpt lat="47.27137" lon="-2.2052">
        <ele>16.4</ele>
        <time>2020-04-09T14:18:49.000Z</time>
      </trkpt>
      <trkpt lat="47.27137" lon="-2.20525">
        <ele>16.4</ele>
        <time>2020-04-09T14:18:50.000Z</time>
      </trkpt>
      <trkpt lat="47.27137" lon="-2.20531">
        <ele>16.6</ele>
        <time>2020-04-09T14:18:51.000Z</time>
      </trkpt>
      <trkpt lat="47.27137" lon="-2.20537">
        <ele>16.6</ele>
        <time>2020-04-09T14:18:52.000Z</time>
      </trkpt>
      <trkpt lat="47.27137" lon="-2.20543">
        <ele>16.6</ele>
        <time>2020-04-09T14:18:53.000Z</time>
      </trkpt>
      <trkpt lat="47.27137" lon="-2.20548">
        <ele>16.6</ele>
        <time>2020-04-09T14:18:54.000Z</time>
      </trkpt>
      <trkpt lat="47.27137" lon="-2.20554">
        <ele>16.4</ele>
        <time>2020-04-09T14:18:55.000Z</time>
      </trkpt>
      <trkpt lat="47.27136" lon="-2.2056">
        <ele>16.4</ele>
        <time>2020-04-09T14:18:56.000Z</time>
      </trkpt>
      <trkpt lat="47.27136" lon="-2.20566">
        <ele>16.4</ele>
        <time>2020-04-09T14:18:57.000Z</time>
      </trkpt>
      <trkpt lat="47.27135" lon="-2.20571">
        <ele>16.6</ele>
        <time>2020-04-09T14:18:58.000Z</time>
      </trkpt>
      <trkpt lat="47.27135" lon="-2.20578">
        <ele>16.6</ele>
        <time>2020-04-09T14:18:59.000Z</time>
      </trkpt>
      <trkpt lat="47.27134" lon="-2.20584">
        <ele>16.6</ele>
        <time>2020-04-09T14:19:00.000Z</time>
      </trkpt>
      <trkpt lat="47.27134" lon="-2.2059">
        <ele>16.6</ele>
        <time>2020-04-09T14:19:01.000Z</time>
      </trkpt>
      <trkpt lat="47.27134" lon="-2.20595">
        <ele>16.6</ele>
        <time>2020-04-09T14:19:02.000Z</time>
      </trkpt>
      <trkpt lat="47.27133" lon="-2.206">
        <ele>16.6</ele>
        <time>2020-04-09T14:19:03.000Z</time>
      </trkpt>
      <trkpt lat="47.27133" lon="-2.20606">
        <ele>16.8</ele>
        <time>2020-04-09T14:19:04.000Z</time>
      </trkpt>
      <trkpt lat="47.27132" lon="-2.20612">
        <ele>16.8</ele>
        <time>2020-04-09T14:19:05.000Z</time>
      </trkpt>
      <trkpt lat="47.27131" lon="-2.20618">
        <ele>16.8</ele>
        <time>2020-04-09T14:19:06.000Z</time>
      </trkpt>
      <trkpt lat="47.27131" lon="-2.20624">
        <ele>16.8</ele>
        <time>2020-04-09T14:19:07.000Z</time>
      </trkpt>
      <trkpt lat="47.27131" lon="-2.2063">
        <ele>16.8</ele>
        <time>2020-04-09T14:19:08.000Z</time>
      </trkpt>
      <trkpt lat="47.2713" lon="-2.20636">
        <ele>16.6</ele>
        <time>2020-04-09T14:19:09.000Z</time>
      </trkpt>
      <trkpt lat="47.2713" lon="-2.20641">
        <ele>16.8</ele>
        <time>2020-04-09T14:19:10.000Z</time>
      </trkpt>
      <trkpt lat="47.27131" lon="-2.20646">
        <ele>16.6</ele>
        <time>2020-04-09T14:19:11.000Z</time>
      </trkpt>
      <trkpt lat="47.27132" lon="-2.20648">
        <ele>16.8</ele>
        <time>2020-04-09T14:19:12.000Z</time>
      </trkpt>
      <trkpt lat="47.27134" lon="-2.20648">
        <ele>17</ele>
        <time>2020-04-09T14:19:13.000Z</time>
      </trkpt>
      <trkpt lat="47.27135" lon="-2.20647">
        <ele>17</ele>
        <time>2020-04-09T14:19:14.000Z</time>
      </trkpt>
      <trkpt lat="47.27135" lon="-2.20645">
        <ele>17</ele>
        <time>2020-04-09T14:19:15.000Z</time>
      </trkpt>
      <trkpt lat="47.27136" lon="-2.20641">
        <ele>17</ele>
        <time>2020-04-09T14:19:16.000Z</time>
      </trkpt>
      <trkpt lat="47.27136" lon="-2.20638">
        <ele>17</ele>
        <time>2020-04-09T14:19:17.000Z</time>
      </trkpt>
      <trkpt lat="47.27136" lon="-2.20634">
        <ele>17</ele>
        <time>2020-04-09T14:19:18.000Z</time>
      </trkpt>
      <trkpt lat="47.27137" lon="-2.20631">
        <ele>16.8</ele>
        <time>2020-04-09T14:19:19.000Z</time>
      </trkpt>
      <trkpt lat="47.27138" lon="-2.20628">
        <ele>16.8</ele>
        <time>2020-04-09T14:19:20.000Z</time>
      </trkpt>
      <trkpt lat="47.27138" lon="-2.20625">
        <ele>17</ele>
        <time>2020-04-09T14:19:21.000Z</time>
      </trkpt>
      <trkpt lat="47.27138" lon="-2.20622">
        <ele>17.2</ele>
        <time>2020-04-09T14:19:22.000Z</time>
      </trkpt>
      <trkpt lat="47.27139" lon="-2.20618">
        <ele>17</ele>
        <time>2020-04-09T14:19:23.000Z</time>
      </trkpt>
      <trkpt lat="47.27139" lon="-2.20615">
        <ele>17.2</ele>
        <time>2020-04-09T14:19:24.000Z</time>
      </trkpt>
      <trkpt lat="47.2714" lon="-2.20611">
        <ele>17.2</ele>
        <time>2020-04-09T14:19:25.000Z</time>
      </trkpt>
      <trkpt lat="47.2714" lon="-2.20606">
        <ele>17</ele>
        <time>2020-04-09T14:19:26.000Z</time>
      </trkpt>
      <trkpt lat="47.27141" lon="-2.20602">
        <ele>17.2</ele>
        <time>2020-04-09T14:19:27.000Z</time>
      </trkpt>
      <trkpt lat="47.27142" lon="-2.20597">
        <ele>17</ele>
        <time>2020-04-09T14:19:28.000Z</time>
      </trkpt>
      <trkpt lat="47.27142" lon="-2.20591">
        <ele>17</ele>
        <time>2020-04-09T14:19:29.000Z</time>
      </trkpt>
      <trkpt lat="47.27143" lon="-2.20586">
        <ele>17</ele>
        <time>2020-04-09T14:19:30.000Z</time>
      </trkpt>
      <trkpt lat="47.27144" lon="-2.20581">
        <ele>17</ele>
        <time>2020-04-09T14:19:31.000Z</time>
      </trkpt>
      <trkpt lat="47.27145" lon="-2.20575">
        <ele>17</ele>
        <time>2020-04-09T14:19:32.000Z</time>
      </trkpt>
      <trkpt lat="47.27146" lon="-2.2057">
        <ele>16.8</ele>
        <time>2020-04-09T14:19:33.000Z</time>
      </trkpt>
      <trkpt lat="47.27147" lon="-2.20564">
        <ele>17</ele>
        <time>2020-04-09T14:19:34.000Z</time>
      </trkpt>
      <trkpt lat="47.27147" lon="-2.20559">
        <ele>16.8</ele>
        <time>2020-04-09T14:19:35.000Z</time>
      </trkpt>
      <trkpt lat="47.27148" lon="-2.20553">
        <ele>17</ele>
        <time>2020-04-09T14:19:36.000Z</time>
      </trkpt>
      <trkpt lat="47.27149" lon="-2.20548">
        <ele>17</ele>
        <time>2020-04-09T14:19:37.000Z</time>
      </trkpt>
      <trkpt lat="47.27149" lon="-2.20542">
        <ele>17</ele>
        <time>2020-04-09T14:19:38.000Z</time>
      </trkpt>
      <trkpt lat="47.2715" lon="-2.20537">
        <ele>17</ele>
        <time>2020-04-09T14:19:39.000Z</time>
      </trkpt>
      <trkpt lat="47.2715" lon="-2.20531">
        <ele>17.2</ele>
        <time>2020-04-09T14:19:40.000Z</time>
      </trkpt>
      <trkpt lat="47.27152" lon="-2.20526">
        <ele>17.2</ele>
        <time>2020-04-09T14:19:41.000Z</time>
      </trkpt>
      <trkpt lat="47.27155" lon="-2.20522">
        <ele>17.2</ele>
        <time>2020-04-09T14:19:42.000Z</time>
      </trkpt>
      <trkpt lat="47.27158" lon="-2.20519">
        <ele>17.2</ele>
        <time>2020-04-09T14:19:43.000Z</time>
      </trkpt>
      <trkpt lat="47.27161" lon="-2.20517">
        <ele>17.2</ele>
        <time>2020-04-09T14:19:44.000Z</time>
      </trkpt>
      <trkpt lat="47.27166" lon="-2.20515">
        <ele>17.2</ele>
        <time>2020-04-09T14:19:45.000Z</time>
      </trkpt>
      <trkpt lat="47.2717" lon="-2.20514">
        <ele>17.2</ele>
        <time>2020-04-09T14:19:46.000Z</time>
      </trkpt>
      <trkpt lat="47.27174" lon="-2.20512">
        <ele>17.2</ele>
        <time>2020-04-09T14:19:47.000Z</time>
      </trkpt>
      <trkpt lat="47.27178" lon="-2.20511">
        <ele>17.2</ele>
        <time>2020-04-09T14:19:48.000Z</time>
      </trkpt>
      <trkpt lat="47.27183" lon="-2.2051">
        <ele>17.2</ele>
        <time>2020-04-09T14:19:49.000Z</time>
      </trkpt>
      <trkpt lat="47.27187" lon="-2.20509">
        <ele>17.2</ele>
        <time>2020-04-09T14:19:50.000Z</time>
      </trkpt>
      <trkpt lat="47.27191" lon="-2.20509">
        <ele>17</ele>
        <time>2020-04-09T14:19:51.000Z</time>
      </trkpt>
      <trkpt lat="47.27195" lon="-2.20508">
        <ele>17.2</ele>
        <time>2020-04-09T14:19:52.000Z</time>
      </trkpt>
      <trkpt lat="47.27199" lon="-2.20507">
        <ele>17</ele>
        <time>2020-04-09T14:19:53.000Z</time>
      </trkpt>
      <trkpt lat="47.27203" lon="-2.20506">
        <ele>17.4</ele>
        <time>2020-04-09T14:19:54.000Z</time>
      </trkpt>
      <trkpt lat="47.27207" lon="-2.20505">
        <ele>17.4</ele>
        <time>2020-04-09T14:19:55.000Z</time>
      </trkpt>
      <trkpt lat="47.27211" lon="-2.20503">
        <ele>17.4</ele>
        <time>2020-04-09T14:19:56.000Z</time>
      </trkpt>
      <trkpt lat="47.27213" lon="-2.20499">
        <ele>17.4</ele>
        <time>2020-04-09T14:19:57.000Z</time>
      </trkpt>
      <trkpt lat="47.27215" lon="-2.20494">
        <ele>17.4</ele>
        <time>2020-04-09T14:19:58.000Z</time>
      </trkpt>
      <trkpt lat="47.27214" lon="-2.20488">
        <ele>17.4</ele>
        <time>2020-04-09T14:19:59.000Z</time>
      </trkpt>
      <trkpt lat="47.27213" lon="-2.20482">
        <ele>17.2</ele>
        <time>2020-04-09T14:20:00.000Z</time>
      </trkpt>
      <trkpt lat="47.27212" lon="-2.20477">
        <ele>17.4</ele>
        <time>2020-04-09T14:20:01.000Z</time>
      </trkpt>
      <trkpt lat="47.27214" lon="-2.20471">
        <ele>17.4</ele>
        <time>2020-04-09T14:20:02.000Z</time>
      </trkpt>
      <trkpt lat="47.27216" lon="-2.20467">
        <ele>17.4</ele>
        <time>2020-04-09T14:20:03.000Z</time>
      </trkpt>
      <trkpt lat="47.2722" lon="-2.20464">
        <ele>17.2</ele>
        <time>2020-04-09T14:20:04.000Z</time>
      </trkpt>
      <trkpt lat="47.27224" lon="-2.20462">
        <ele>17.4</ele>
        <time>2020-04-09T14:20:05.000Z</time>
      </trkpt>
      <trkpt lat="47.27228" lon="-2.20461">
        <ele>17.4</ele>
        <time>2020-04-09T14:20:06.000Z</time>
      </trkpt>
      <trkpt lat="47.27232" lon="-2.2046">
        <ele>17.4</ele>
        <time>2020-04-09T14:20:07.000Z</time>
      </trkpt>
      <trkpt lat="47.27237" lon="-2.20458">
        <ele>17.4</ele>
        <time>2020-04-09T14:20:08.000Z</time>
      </trkpt>
      <trkpt lat="47.27241" lon="-2.20457">
        <ele>17.4</ele>
        <time>2020-04-09T14:20:09.000Z</time>
      </trkpt>
      <trkpt lat="47.27246" lon="-2.20456">
        <ele>17.4</ele>
        <time>2020-04-09T14:20:10.000Z</time>
      </trkpt>
      <trkpt lat="47.2725" lon="-2.20454">
        <ele>17.4</ele>
        <time>2020-04-09T14:20:11.000Z</time>
      </trkpt>
      <trkpt lat="47.27254" lon="-2.20453">
        <ele>17.4</ele>
        <time>2020-04-09T14:20:12.000Z</time>
      </trkpt>
      <trkpt lat="47.27259" lon="-2.20452">
        <ele>17.6</ele>
        <time>2020-04-09T14:20:13.000Z</time>
      </trkpt>
      <trkpt lat="47.27263" lon="-2.2045">
        <ele>17.6</ele>
        <time>2020-04-09T14:20:14.000Z</time>
      </trkpt>
      <trkpt lat="47.27268" lon="-2.20449">
        <ele>17.6</ele>
        <time>2020-04-09T14:20:15.000Z</time>
      </trkpt>
      <trkpt lat="47.27272" lon="-2.20448">
        <ele>17.6</ele>
        <time>2020-04-09T14:20:16.000Z</time>
      </trkpt>
      <trkpt lat="47.27277" lon="-2.20447">
        <ele>17.8</ele>
        <time>2020-04-09T14:20:17.000Z</time>
      </trkpt>
      <trkpt lat="47.27281" lon="-2.20446">
        <ele>17.8</ele>
        <time>2020-04-09T14:20:18.000Z</time>
      </trkpt>
      <trkpt lat="47.27286" lon="-2.20445">
        <ele>17.8</ele>
        <time>2020-04-09T14:20:19.000Z</time>
      </trkpt>
      <trkpt lat="47.27291" lon="-2.20445">
        <ele>17.8</ele>
        <time>2020-04-09T14:20:20.000Z</time>
      </trkpt>
      <trkpt lat="47.27295" lon="-2.20444">
        <ele>17.8</ele>
        <time>2020-04-09T14:20:21.000Z</time>
      </trkpt>
      <trkpt lat="47.27299" lon="-2.20443">
        <ele>18.2</ele>
        <time>2020-04-09T14:20:22.000Z</time>
      </trkpt>
      <trkpt lat="47.27303" lon="-2.20442">
        <ele>18.4</ele>
        <time>2020-04-09T14:20:23.000Z</time>
      </trkpt>
      <trkpt lat="47.27307" lon="-2.2044">
        <ele>18.4</ele>
        <time>2020-04-09T14:20:24.000Z</time>
      </trkpt>
      <trkpt lat="47.27311" lon="-2.2044">
        <ele>18.2</ele>
        <time>2020-04-09T14:20:25.000Z</time>
      </trkpt>
      <trkpt lat="47.27314" lon="-2.20444">
        <ele>18.2</ele>
        <time>2020-04-09T14:20:26.000Z</time>
      </trkpt>
      <trkpt lat="47.27314" lon="-2.20449">
        <ele>18.2</ele>
        <time>2020-04-09T14:20:27.000Z</time>
      </trkpt>
      <trkpt lat="47.27314" lon="-2.20455">
        <ele>18.2</ele>
        <time>2020-04-09T14:20:28.000Z</time>
      </trkpt>
      <trkpt lat="47.27315" lon="-2.20461">
        <ele>18.2</ele>
        <time>2020-04-09T14:20:29.000Z</time>
      </trkpt>
      <trkpt lat="47.27316" lon="-2.20468">
        <ele>18.2</ele>
        <time>2020-04-09T14:20:30.000Z</time>
      </trkpt>
      <trkpt lat="47.27317" lon="-2.20474">
        <ele>18.2</ele>
        <time>2020-04-09T14:20:31.000Z</time>
      </trkpt>
      <trkpt lat="47.27318" lon="-2.20481">
        <ele>18.4</ele>
        <time>2020-04-09T14:20:32.000Z</time>
      </trkpt>
      <trkpt lat="47.27319" lon="-2.20488">
        <ele>18.2</ele>
        <time>2020-04-09T14:20:33.000Z</time>
      </trkpt>
      <trkpt lat="47.27319" lon="-2.20495">
        <ele>18.2</ele>
        <time>2020-04-09T14:20:34.000Z</time>
      </trkpt>
      <trkpt lat="47.2732" lon="-2.20502">
        <ele>18.2</ele>
        <time>2020-04-09T14:20:35.000Z</time>
      </trkpt>
      <trkpt lat="47.27321" lon="-2.20509">
        <ele>18.2</ele>
        <time>2020-04-09T14:20:36.000Z</time>
      </trkpt>
      <trkpt lat="47.27322" lon="-2.20516">
        <ele>18.2</ele>
        <time>2020-04-09T14:20:37.000Z</time>
      </trkpt>
      <trkpt lat="47.27323" lon="-2.20523">
        <ele>18.2</ele>
        <time>2020-04-09T14:20:38.000Z</time>
      </trkpt>
      <trkpt lat="47.27324" lon="-2.2053">
        <ele>18.2</ele>
        <time>2020-04-09T14:20:39.000Z</time>
      </trkpt>
      <trkpt lat="47.27325" lon="-2.20537">
        <ele>18.2</ele>
        <time>2020-04-09T14:20:40.000Z</time>
      </trkpt>
      <trkpt lat="47.27326" lon="-2.20544">
        <ele>18.2</ele>
        <time>2020-04-09T14:20:41.000Z</time>
      </trkpt>
      <trkpt lat="47.27327" lon="-2.20552">
        <ele>18.2</ele>
        <time>2020-04-09T14:20:42.000Z</time>
      </trkpt>
      <trkpt lat="47.27328" lon="-2.20559">
        <ele>18.4</ele>
        <time>2020-04-09T14:20:43.000Z</time>
      </trkpt>
      <trkpt lat="47.27329" lon="-2.20565">
        <ele>18.4</ele>
        <time>2020-04-09T14:20:44.000Z</time>
      </trkpt>
      <trkpt lat="47.2733" lon="-2.20572">
        <ele>18.6</ele>
        <time>2020-04-09T14:20:45.000Z</time>
      </trkpt>
      <trkpt lat="47.27331" lon="-2.20579">
        <ele>18.6</ele>
        <time>2020-04-09T14:20:46.000Z</time>
      </trkpt>
      <trkpt lat="47.27332" lon="-2.20586">
        <ele>18.4</ele>
        <time>2020-04-09T14:20:47.000Z</time>
      </trkpt>
      <trkpt lat="47.27333" lon="-2.20592">
        <ele>18.4</ele>
        <time>2020-04-09T14:20:48.000Z</time>
      </trkpt>
      <trkpt lat="47.27334" lon="-2.20598">
        <ele>18.4</ele>
        <time>2020-04-09T14:20:49.000Z</time>
      </trkpt>
      <trkpt lat="47.27335" lon="-2.20604">
        <ele>18.6</ele>
        <time>2020-04-09T14:20:50.000Z</time>
      </trkpt>
      <trkpt lat="47.27338" lon="-2.2061">
        <ele>18.6</ele>
        <time>2020-04-09T14:20:51.000Z</time>
      </trkpt>
      <trkpt lat="47.27341" lon="-2.20613">
        <ele>18.6</ele>
        <time>2020-04-09T14:20:52.000Z</time>
      </trkpt>
      <trkpt lat="47.27345" lon="-2.20616">
        <ele>18.4</ele>
        <time>2020-04-09T14:20:53.000Z</time>
      </trkpt>
      <trkpt lat="47.27348" lon="-2.20619">
        <ele>18.4</ele>
        <time>2020-04-09T14:20:54.000Z</time>
      </trkpt>
      <trkpt lat="47.27352" lon="-2.20622">
        <ele>18.6</ele>
        <time>2020-04-09T14:20:55.000Z</time>
      </trkpt>
      <trkpt lat="47.27355" lon="-2.20623">
        <ele>18.6</ele>
        <time>2020-04-09T14:20:56.000Z</time>
      </trkpt>
      <trkpt lat="47.27359" lon="-2.20623">
        <ele>18.8</ele>
        <time>2020-04-09T14:20:57.000Z</time>
      </trkpt>
      <trkpt lat="47.27363" lon="-2.20622">
        <ele>18.8</ele>
        <time>2020-04-09T14:20:58.000Z</time>
      </trkpt>
      <trkpt lat="47.27366" lon="-2.20621">
        <ele>18.8</ele>
        <time>2020-04-09T14:20:59.000Z</time>
      </trkpt>
      <trkpt lat="47.27371" lon="-2.20619">
        <ele>18.8</ele>
        <time>2020-04-09T14:21:00.000Z</time>
      </trkpt>
      <trkpt lat="47.27374" lon="-2.20618">
        <ele>18.8</ele>
        <time>2020-04-09T14:21:01.000Z</time>
      </trkpt>
      <trkpt lat="47.27378" lon="-2.20616">
        <ele>19</ele>
        <time>2020-04-09T14:21:02.000Z</time>
      </trkpt>
      <trkpt lat="47.27383" lon="-2.20614">
        <ele>19</ele>
        <time>2020-04-09T14:21:03.000Z</time>
      </trkpt>
      <trkpt lat="47.27386" lon="-2.20613">
        <ele>19</ele>
        <time>2020-04-09T14:21:04.000Z</time>
      </trkpt>
      <trkpt lat="47.27391" lon="-2.20611">
        <ele>19.2</ele>
        <time>2020-04-09T14:21:05.000Z</time>
      </trkpt>
      <trkpt lat="47.27395" lon="-2.20609">
        <ele>19.2</ele>
        <time>2020-04-09T14:21:06.000Z</time>
      </trkpt>
      <trkpt lat="47.27399" lon="-2.20607">
        <ele>19.2</ele>
        <time>2020-04-09T14:21:07.000Z</time>
      </trkpt>
      <trkpt lat="47.27404" lon="-2.20606">
        <ele>19.2</ele>
        <time>2020-04-09T14:21:08.000Z</time>
      </trkpt>
      <trkpt lat="47.27409" lon="-2.20605">
        <ele>19.2</ele>
        <time>2020-04-09T14:21:09.000Z</time>
      </trkpt>
      <trkpt lat="47.27415" lon="-2.20605">
        <ele>19.2</ele>
        <time>2020-04-09T14:21:10.000Z</time>
      </trkpt>
      <trkpt lat="47.27421" lon="-2.20605">
        <ele>19.4</ele>
        <time>2020-04-09T14:21:11.000Z</time>
      </trkpt>
      <trkpt lat="47.27426" lon="-2.20605">
        <ele>19.4</ele>
        <time>2020-04-09T14:21:12.000Z</time>
      </trkpt>
      <trkpt lat="47.27431" lon="-2.20604">
        <ele>19.4</ele>
        <time>2020-04-09T14:21:13.000Z</time>
      </trkpt>
      <trkpt lat="47.27435" lon="-2.20602">
        <ele>19.4</ele>
        <time>2020-04-09T14:21:14.000Z</time>
      </trkpt>
      <trkpt lat="47.27438" lon="-2.206">
        <ele>19.4</ele>
        <time>2020-04-09T14:21:15.000Z</time>
      </trkpt>
      <trkpt lat="47.27444" lon="-2.206">
        <ele>19.6</ele>
        <time>2020-04-09T14:21:16.000Z</time>
      </trkpt>
      <trkpt lat="47.2745" lon="-2.20599">
        <ele>19.4</ele>
        <time>2020-04-09T14:21:17.000Z</time>
      </trkpt>
      <trkpt lat="47.27456" lon="-2.20597">
        <ele>19.4</ele>
        <time>2020-04-09T14:21:18.000Z</time>
      </trkpt>
      <trkpt lat="47.27461" lon="-2.20596">
        <ele>19.6</ele>
        <time>2020-04-09T14:21:19.000Z</time>
      </trkpt>
      <trkpt lat="47.27466" lon="-2.20594">
        <ele>19.6</ele>
        <time>2020-04-09T14:21:20.000Z</time>
      </trkpt>
      <trkpt lat="47.27471" lon="-2.20593">
        <ele>19.8</ele>
        <time>2020-04-09T14:21:21.000Z</time>
      </trkpt>
      <trkpt lat="47.27476" lon="-2.20592">
        <ele>19.8</ele>
        <time>2020-04-09T14:21:22.000Z</time>
      </trkpt>
      <trkpt lat="47.27481" lon="-2.20591">
        <ele>19.6</ele>
        <time>2020-04-09T14:21:23.000Z</time>
      </trkpt>
      <trkpt lat="47.27486" lon="-2.20589">
        <ele>19.6</ele>
        <time>2020-04-09T14:21:24.000Z</time>
      </trkpt>
      <trkpt lat="47.2749" lon="-2.20588">
        <ele>19.6</ele>
        <time>2020-04-09T14:21:25.000Z</time>
      </trkpt>
      <trkpt lat="47.27495" lon="-2.20587">
        <ele>19.6</ele>
        <time>2020-04-09T14:21:26.000Z</time>
      </trkpt>
      <trkpt lat="47.275" lon="-2.20586">
        <ele>19.6</ele>
        <time>2020-04-09T14:21:27.000Z</time>
      </trkpt>
      <trkpt lat="47.27505" lon="-2.20585">
        <ele>19.8</ele>
        <time>2020-04-09T14:21:28.000Z</time>
      </trkpt>
      <trkpt lat="47.2751" lon="-2.20584">
        <ele>19.8</ele>
        <time>2020-04-09T14:21:29.000Z</time>
      </trkpt>
      <trkpt lat="47.27514" lon="-2.20582">
        <ele>19.6</ele>
        <time>2020-04-09T14:21:30.000Z</time>
      </trkpt>
      <trkpt lat="47.27518" lon="-2.20581">
        <ele>19.8</ele>
        <time>2020-04-09T14:21:31.000Z</time>
      </trkpt>
      <trkpt lat="47.27522" lon="-2.20579">
        <ele>19.8</ele>
        <time>2020-04-09T14:21:32.000Z</time>
      </trkpt>
      <trkpt lat="47.27527" lon="-2.20578">
        <ele>19.8</ele>
        <time>2020-04-09T14:21:33.000Z</time>
      </trkpt>
      <trkpt lat="47.27531" lon="-2.20576">
        <ele>19.8</ele>
        <time>2020-04-09T14:21:34.000Z</time>
      </trkpt>
      <trkpt lat="47.27536" lon="-2.20574">
        <ele>19.8</ele>
        <time>2020-04-09T14:21:35.000Z</time>
      </trkpt>
      <trkpt lat="47.2754" lon="-2.20572">
        <ele>19.8</ele>
        <time>2020-04-09T14:21:36.000Z</time>
      </trkpt>
      <trkpt lat="47.27545" lon="-2.20571">
        <ele>19.8</ele>
        <time>2020-04-09T14:21:37.000Z</time>
      </trkpt>
      <trkpt lat="47.27549" lon="-2.20569">
        <ele>19.6</ele>
        <time>2020-04-09T14:21:38.000Z</time>
      </trkpt>
      <trkpt lat="47.2756" lon="-2.20567">
        <ele>19.4</ele>
        <time>2020-04-09T14:21:39.000Z</time>
      </trkpt>
      <trkpt lat="47.27566" lon="-2.20565">
        <ele>19.4</ele>
        <time>2020-04-09T14:21:40.000Z</time>
      </trkpt>
      <trkpt lat="47.27572" lon="-2.20564">
        <ele>19.2</ele>
        <time>2020-04-09T14:21:41.000Z</time>
      </trkpt>
      <trkpt lat="47.27577" lon="-2.20564">
        <ele>19.4</ele>
        <time>2020-04-09T14:21:42.000Z</time>
      </trkpt>
      <trkpt lat="47.27583" lon="-2.20562">
        <ele>19.4</ele>
        <time>2020-04-09T14:21:43.000Z</time>
      </trkpt>
      <trkpt lat="47.27588" lon="-2.20561">
        <ele>19.4</ele>
        <time>2020-04-09T14:21:44.000Z</time>
      </trkpt>
      <trkpt lat="47.27594" lon="-2.20559">
        <ele>19.4</ele>
        <time>2020-04-09T14:21:45.000Z</time>
      </trkpt>
      <trkpt lat="47.27599" lon="-2.20558">
        <ele>19.2</ele>
        <time>2020-04-09T14:21:46.000Z</time>
      </trkpt>
      <trkpt lat="47.27604" lon="-2.20556">
        <ele>19.4</ele>
        <time>2020-04-09T14:21:47.000Z</time>
      </trkpt>
      <trkpt lat="47.27609" lon="-2.20555">
        <ele>19.4</ele>
        <time>2020-04-09T14:21:48.000Z</time>
      </trkpt>
      <trkpt lat="47.27615" lon="-2.20554">
        <ele>19.2</ele>
        <time>2020-04-09T14:21:49.000Z</time>
      </trkpt>
      <trkpt lat="47.27621" lon="-2.20552">
        <ele>19</ele>
        <time>2020-04-09T14:21:50.000Z</time>
      </trkpt>
      <trkpt lat="47.27627" lon="-2.20551">
        <ele>19</ele>
        <time>2020-04-09T14:21:51.000Z</time>
      </trkpt>
      <trkpt lat="47.27632" lon="-2.2055">
        <ele>19</ele>
        <time>2020-04-09T14:21:52.000Z</time>
      </trkpt>
      <trkpt lat="47.27632" lon="-2.2055">
        <ele>19</ele>
        <time>2020-04-09T14:21:53.000Z</time>
      </trkpt>
      <trkpt lat="47.27643" lon="-2.20547">
        <ele>18.6</ele>
        <time>2020-04-09T14:21:54.000Z</time>
      </trkpt>
      <trkpt lat="47.27649" lon="-2.20545">
        <ele>18.8</ele>
        <time>2020-04-09T14:21:55.000Z</time>
      </trkpt>
      <trkpt lat="47.27654" lon="-2.20544">
        <ele>18.6</ele>
        <time>2020-04-09T14:21:56.000Z</time>
      </trkpt>
      <trkpt lat="47.27654" lon="-2.20544">
        <ele>18.4</ele>
        <time>2020-04-09T14:21:58.000Z</time>
      </trkpt>
      <trkpt lat="47.27665" lon="-2.20541">
        <ele>18.6</ele>
        <time>2020-04-09T14:21:59.000Z</time>
      </trkpt>
      <trkpt lat="47.27671" lon="-2.20539">
        <ele>18.8</ele>
        <time>2020-04-09T14:22:00.000Z</time>
      </trkpt>
      <trkpt lat="47.27676" lon="-2.20537">
        <ele>18.8</ele>
        <time>2020-04-09T14:22:01.000Z</time>
      </trkpt>
      <trkpt lat="47.27682" lon="-2.20535">
        <ele>19</ele>
        <time>2020-04-09T14:22:02.000Z</time>
      </trkpt>
      <trkpt lat="47.27687" lon="-2.20534">
        <ele>18.6</ele>
        <time>2020-04-09T14:22:03.000Z</time>
      </trkpt>
      <trkpt lat="47.27692" lon="-2.20533">
        <ele>18.6</ele>
        <time>2020-04-09T14:22:04.000Z</time>
      </trkpt>
      <trkpt lat="47.27698" lon="-2.20531">
        <ele>18.8</ele>
        <time>2020-04-09T14:22:05.000Z</time>
      </trkpt>
      <trkpt lat="47.27703" lon="-2.2053">
        <ele>18.6</ele>
        <time>2020-04-09T14:22:06.000Z</time>
      </trkpt>
      <trkpt lat="47.27708" lon="-2.20528">
        <ele>19</ele>
        <time>2020-04-09T14:22:07.000Z</time>
      </trkpt>
      <trkpt lat="47.27713" lon="-2.20527">
        <ele>19</ele>
        <time>2020-04-09T14:22:08.000Z</time>
      </trkpt>
      <trkpt lat="47.27718" lon="-2.20525">
        <ele>19</ele>
        <time>2020-04-09T14:22:09.000Z</time>
      </trkpt>
      <trkpt lat="47.27722" lon="-2.20523">
        <ele>18.8</ele>
        <time>2020-04-09T14:22:10.000Z</time>
      </trkpt>
      <trkpt lat="47.27727" lon="-2.20522">
        <ele>18.6</ele>
        <time>2020-04-09T14:22:11.000Z</time>
      </trkpt>
      <trkpt lat="47.27732" lon="-2.20521">
        <ele>18.8</ele>
        <time>2020-04-09T14:22:12.000Z</time>
      </trkpt>
      <trkpt lat="47.27737" lon="-2.2052">
        <ele>18.6</ele>
        <time>2020-04-09T14:22:13.000Z</time>
      </trkpt>
      <trkpt lat="47.27741" lon="-2.20518">
        <ele>18.6</ele>
        <time>2020-04-09T14:22:14.000Z</time>
      </trkpt>
      <trkpt lat="47.27746" lon="-2.20517">
        <ele>18.8</ele>
        <time>2020-04-09T14:22:15.000Z</time>
      </trkpt>
      <trkpt lat="47.27751" lon="-2.20516">
        <ele>18.8</ele>
        <time>2020-04-09T14:22:16.000Z</time>
      </trkpt>
      <trkpt lat="47.27756" lon="-2.20515">
        <ele>18.8</ele>
        <time>2020-04-09T14:22:17.000Z</time>
      </trkpt>
      <trkpt lat="47.27762" lon="-2.20514">
        <ele>18.8</ele>
        <time>2020-04-09T14:22:18.000Z</time>
      </trkpt>
      <trkpt lat="47.27767" lon="-2.20513">
        <ele>18.8</ele>
        <time>2020-04-09T14:22:19.000Z</time>
      </trkpt>
      <trkpt lat="47.27772" lon="-2.20512">
        <ele>18.8</ele>
        <time>2020-04-09T14:22:20.000Z</time>
      </trkpt>
      <trkpt lat="47.27777" lon="-2.2051">
        <ele>18.8</ele>
        <time>2020-04-09T14:22:21.000Z</time>
      </trkpt>
      <trkpt lat="47.27781" lon="-2.20509">
        <ele>19</ele>
        <time>2020-04-09T14:22:22.000Z</time>
      </trkpt>
      <trkpt lat="47.27786" lon="-2.20507">
        <ele>19</ele>
        <time>2020-04-09T14:22:23.000Z</time>
      </trkpt>
      <trkpt lat="47.27792" lon="-2.20506">
        <ele>18.8</ele>
        <time>2020-04-09T14:22:24.000Z</time>
      </trkpt>
      <trkpt lat="47.27796" lon="-2.20505">
        <ele>18.8</ele>
        <time>2020-04-09T14:22:25.000Z</time>
      </trkpt>
      <trkpt lat="47.27801" lon="-2.20503">
        <ele>18.8</ele>
        <time>2020-04-09T14:22:26.000Z</time>
      </trkpt>
      <trkpt lat="47.27806" lon="-2.20502">
        <ele>18.8</ele>
        <time>2020-04-09T14:22:27.000Z</time>
      </trkpt>
      <trkpt lat="47.27811" lon="-2.20501">
        <ele>18.8</ele>
        <time>2020-04-09T14:22:28.000Z</time>
      </trkpt>
      <trkpt lat="47.27816" lon="-2.205">
        <ele>18.8</ele>
        <time>2020-04-09T14:22:29.000Z</time>
      </trkpt>
      <trkpt lat="47.27821" lon="-2.20499">
        <ele>19</ele>
        <time>2020-04-09T14:22:30.000Z</time>
      </trkpt>
      <trkpt lat="47.27826" lon="-2.20498">
        <ele>19.2</ele>
        <time>2020-04-09T14:22:31.000Z</time>
      </trkpt>
      <trkpt lat="47.27831" lon="-2.20496">
        <ele>19.2</ele>
        <time>2020-04-09T14:22:32.000Z</time>
      </trkpt>
      <trkpt lat="47.27836" lon="-2.20495">
        <ele>19.2</ele>
        <time>2020-04-09T14:22:33.000Z</time>
      </trkpt>
      <trkpt lat="47.27841" lon="-2.20494">
        <ele>18.8</ele>
        <time>2020-04-09T14:22:34.000Z</time>
      </trkpt>
      <trkpt lat="47.27846" lon="-2.20493">
        <ele>19</ele>
        <time>2020-04-09T14:22:35.000Z</time>
      </trkpt>
      <trkpt lat="47.27851" lon="-2.20491">
        <ele>19</ele>
        <time>2020-04-09T14:22:36.000Z</time>
      </trkpt>
      <trkpt lat="47.27856" lon="-2.2049">
        <ele>19</ele>
        <time>2020-04-09T14:22:37.000Z</time>
      </trkpt>
      <trkpt lat="47.27861" lon="-2.20488">
        <ele>19.2</ele>
        <time>2020-04-09T14:22:38.000Z</time>
      </trkpt>
      <trkpt lat="47.27866" lon="-2.20487">
        <ele>19.2</ele>
        <time>2020-04-09T14:22:39.000Z</time>
      </trkpt>
      <trkpt lat="47.27871" lon="-2.20486">
        <ele>19.2</ele>
        <time>2020-04-09T14:22:40.000Z</time>
      </trkpt>
      <trkpt lat="47.27876" lon="-2.20484">
        <ele>19</ele>
        <time>2020-04-09T14:22:41.000Z</time>
      </trkpt>
      <trkpt lat="47.2788" lon="-2.20483">
        <ele>19</ele>
        <time>2020-04-09T14:22:42.000Z</time>
      </trkpt>
      <trkpt lat="47.27885" lon="-2.20481">
        <ele>19</ele>
        <time>2020-04-09T14:22:43.000Z</time>
      </trkpt>
      <trkpt lat="47.2789" lon="-2.2048">
        <ele>18.8</ele>
        <time>2020-04-09T14:22:44.000Z</time>
      </trkpt>
      <trkpt lat="47.27895" lon="-2.20478">
        <ele>18.8</ele>
        <time>2020-04-09T14:22:45.000Z</time>
      </trkpt>
      <trkpt lat="47.279" lon="-2.20477">
        <ele>18.8</ele>
        <time>2020-04-09T14:22:46.000Z</time>
      </trkpt>
      <trkpt lat="47.27904" lon="-2.20475">
        <ele>18.8</ele>
        <time>2020-04-09T14:22:47.000Z</time>
      </trkpt>
      <trkpt lat="47.27909" lon="-2.20474">
        <ele>18.8</ele>
        <time>2020-04-09T14:22:48.000Z</time>
      </trkpt>
      <trkpt lat="47.27914" lon="-2.20473">
        <ele>18.8</ele>
        <time>2020-04-09T14:22:49.000Z</time>
      </trkpt>
      <trkpt lat="47.27919" lon="-2.20471">
        <ele>18.8</ele>
        <time>2020-04-09T14:22:50.000Z</time>
      </trkpt>
      <trkpt lat="47.27924" lon="-2.20469">
        <ele>18.8</ele>
        <time>2020-04-09T14:22:51.000Z</time>
      </trkpt>
      <trkpt lat="47.27928" lon="-2.20468">
        <ele>18.8</ele>
        <time>2020-04-09T14:22:52.000Z</time>
      </trkpt>
      <trkpt lat="47.27933" lon="-2.20466">
        <ele>18.8</ele>
        <time>2020-04-09T14:22:53.000Z</time>
      </trkpt>
      <trkpt lat="47.27938" lon="-2.20464">
        <ele>18.8</ele>
        <time>2020-04-09T14:22:54.000Z</time>
      </trkpt>
      <trkpt lat="47.27943" lon="-2.20463">
        <ele>18.8</ele>
        <time>2020-04-09T14:22:55.000Z</time>
      </trkpt>
      <trkpt lat="47.27948" lon="-2.20462">
        <ele>19</ele>
        <time>2020-04-09T14:22:56.000Z</time>
      </trkpt>
      <trkpt lat="47.27953" lon="-2.20461">
        <ele>18.8</ele>
        <time>2020-04-09T14:22:57.000Z</time>
      </trkpt>
      <trkpt lat="47.27958" lon="-2.20459">
        <ele>19</ele>
        <time>2020-04-09T14:22:58.000Z</time>
      </trkpt>
      <trkpt lat="47.27963" lon="-2.20457">
        <ele>18.8</ele>
        <time>2020-04-09T14:22:59.000Z</time>
      </trkpt>
      <trkpt lat="47.27968" lon="-2.20456">
        <ele>19</ele>
        <time>2020-04-09T14:23:00.000Z</time>
      </trkpt>
      <trkpt lat="47.27973" lon="-2.20455">
        <ele>18.6</ele>
        <time>2020-04-09T14:23:01.000Z</time>
      </trkpt>
      <trkpt lat="47.27979" lon="-2.20453">
        <ele>18.4</ele>
        <time>2020-04-09T14:23:02.000Z</time>
      </trkpt>
      <trkpt lat="47.27984" lon="-2.20452">
        <ele>18.4</ele>
        <time>2020-04-09T14:23:03.000Z</time>
      </trkpt>
      <trkpt lat="47.2799" lon="-2.2045">
        <ele>18</ele>
        <time>2020-04-09T14:23:04.000Z</time>
      </trkpt>
      <trkpt lat="47.27995" lon="-2.20449">
        <ele>18.2</ele>
        <time>2020-04-09T14:23:05.000Z</time>
      </trkpt>
      <trkpt lat="47.28001" lon="-2.20448">
        <ele>18</ele>
        <time>2020-04-09T14:23:06.000Z</time>
      </trkpt>
      <trkpt lat="47.28007" lon="-2.20446">
        <ele>18</ele>
        <time>2020-04-09T14:23:07.000Z</time>
      </trkpt>
      <trkpt lat="47.28013" lon="-2.20445">
        <ele>18</ele>
        <time>2020-04-09T14:23:08.000Z</time>
      </trkpt>
      <trkpt lat="47.28018" lon="-2.20443">
        <ele>17.6</ele>
        <time>2020-04-09T14:23:09.000Z</time>
      </trkpt>
      <trkpt lat="47.28025" lon="-2.20442">
        <ele>17.6</ele>
        <time>2020-04-09T14:23:10.000Z</time>
      </trkpt>
      <trkpt lat="47.28031" lon="-2.2044">
        <ele>17.4</ele>
        <time>2020-04-09T14:23:11.000Z</time>
      </trkpt>
      <trkpt lat="47.28037" lon="-2.20438">
        <ele>17.4</ele>
        <time>2020-04-09T14:23:12.000Z</time>
      </trkpt>
      <trkpt lat="47.28044" lon="-2.20437">
        <ele>17.4</ele>
        <time>2020-04-09T14:23:13.000Z</time>
      </trkpt>
      <trkpt lat="47.2805" lon="-2.20435">
        <ele>17</ele>
        <time>2020-04-09T14:23:14.000Z</time>
      </trkpt>
      <trkpt lat="47.28056" lon="-2.20433">
        <ele>17</ele>
        <time>2020-04-09T14:23:15.000Z</time>
      </trkpt>
      <trkpt lat="47.28062" lon="-2.20431">
        <ele>16.8</ele>
        <time>2020-04-09T14:23:16.000Z</time>
      </trkpt>
      <trkpt lat="47.28069" lon="-2.2043">
        <ele>16.8</ele>
        <time>2020-04-09T14:23:17.000Z</time>
      </trkpt>
      <trkpt lat="47.28075" lon="-2.20428">
        <ele>16.8</ele>
        <time>2020-04-09T14:23:18.000Z</time>
      </trkpt>
      <trkpt lat="47.28081" lon="-2.20426">
        <ele>16.6</ele>
        <time>2020-04-09T14:23:19.000Z</time>
      </trkpt>
      <trkpt lat="47.28088" lon="-2.20425">
        <ele>16.6</ele>
        <time>2020-04-09T14:23:20.000Z</time>
      </trkpt>
      <trkpt lat="47.28094" lon="-2.20424">
        <ele>16.4</ele>
        <time>2020-04-09T14:23:21.000Z</time>
      </trkpt>
      <trkpt lat="47.281" lon="-2.20422">
        <ele>16.4</ele>
        <time>2020-04-09T14:23:22.000Z</time>
      </trkpt>
      <trkpt lat="47.28105" lon="-2.2042">
        <ele>16.2</ele>
        <time>2020-04-09T14:23:23.000Z</time>
      </trkpt>
      <trkpt lat="47.28111" lon="-2.20419">
        <ele>16.2</ele>
        <time>2020-04-09T14:23:24.000Z</time>
      </trkpt>
      <trkpt lat="47.28118" lon="-2.20418">
        <ele>16.4</ele>
        <time>2020-04-09T14:23:25.000Z</time>
      </trkpt>
      <trkpt lat="47.28124" lon="-2.20416">
        <ele>16.4</ele>
        <time>2020-04-09T14:23:26.000Z</time>
      </trkpt>
      <trkpt lat="47.2813" lon="-2.20415">
        <ele>16.4</ele>
        <time>2020-04-09T14:23:27.000Z</time>
      </trkpt>
      <trkpt lat="47.28136" lon="-2.20413">
        <ele>16.4</ele>
        <time>2020-04-09T14:23:28.000Z</time>
      </trkpt>
      <trkpt lat="47.28142" lon="-2.20412">
        <ele>16</ele>
        <time>2020-04-09T14:23:29.000Z</time>
      </trkpt>
      <trkpt lat="47.28148" lon="-2.2041">
        <ele>16.2</ele>
        <time>2020-04-09T14:23:30.000Z</time>
      </trkpt>
      <trkpt lat="47.28154" lon="-2.20409">
        <ele>16</ele>
        <time>2020-04-09T14:23:31.000Z</time>
      </trkpt>
      <trkpt lat="47.28161" lon="-2.20407">
        <ele>16.2</ele>
        <time>2020-04-09T14:23:32.000Z</time>
      </trkpt>
      <trkpt lat="47.28167" lon="-2.20405">
        <ele>16</ele>
        <time>2020-04-09T14:23:33.000Z</time>
      </trkpt>
      <trkpt lat="47.28173" lon="-2.20404">
        <ele>15.8</ele>
        <time>2020-04-09T14:23:34.000Z</time>
      </trkpt>
      <trkpt lat="47.28179" lon="-2.20403">
        <ele>15.8</ele>
        <time>2020-04-09T14:23:35.000Z</time>
      </trkpt>
      <trkpt lat="47.28185" lon="-2.20401">
        <ele>15.6</ele>
        <time>2020-04-09T14:23:36.000Z</time>
      </trkpt>
      <trkpt lat="47.2819" lon="-2.20397">
        <ele>15.8</ele>
        <time>2020-04-09T14:23:37.000Z</time>
      </trkpt>
      <trkpt lat="47.28194" lon="-2.20392">
        <ele>15.8</ele>
        <time>2020-04-09T14:23:38.000Z</time>
      </trkpt>
      <trkpt lat="47.28199" lon="-2.20387">
        <ele>16</ele>
        <time>2020-04-09T14:23:39.000Z</time>
      </trkpt>
      <trkpt lat="47.28204" lon="-2.20384">
        <ele>16</ele>
        <time>2020-04-09T14:23:40.000Z</time>
      </trkpt>
      <trkpt lat="47.28209" lon="-2.20383">
        <ele>16.2</ele>
        <time>2020-04-09T14:23:41.000Z</time>
      </trkpt>
      <trkpt lat="47.28215" lon="-2.20384">
        <ele>16</ele>
        <time>2020-04-09T14:23:42.000Z</time>
      </trkpt>
      <trkpt lat="47.2822" lon="-2.20387">
        <ele>16</ele>
        <time>2020-04-09T14:23:43.000Z</time>
      </trkpt>
      <trkpt lat="47.28226" lon="-2.20388">
        <ele>15.8</ele>
        <time>2020-04-09T14:23:44.000Z</time>
      </trkpt>
      <trkpt lat="47.28231" lon="-2.20387">
        <ele>15.8</ele>
        <time>2020-04-09T14:23:45.000Z</time>
      </trkpt>
      <trkpt lat="47.28237" lon="-2.20386">
        <ele>15.8</ele>
        <time>2020-04-09T14:23:46.000Z</time>
      </trkpt>
      <trkpt lat="47.28243" lon="-2.20384">
        <ele>16</ele>
        <time>2020-04-09T14:23:47.000Z</time>
      </trkpt>
      <trkpt lat="47.28248" lon="-2.20382">
        <ele>16</ele>
        <time>2020-04-09T14:23:48.000Z</time>
      </trkpt>
      <trkpt lat="47.28254" lon="-2.20381">
        <ele>15.8</ele>
        <time>2020-04-09T14:23:49.000Z</time>
      </trkpt>
      <trkpt lat="47.2826" lon="-2.20379">
        <ele>16</ele>
        <time>2020-04-09T14:23:50.000Z</time>
      </trkpt>
      <trkpt lat="47.28265" lon="-2.20378">
        <ele>15.8</ele>
        <time>2020-04-09T14:23:51.000Z</time>
      </trkpt>
      <trkpt lat="47.28271" lon="-2.20376">
        <ele>15.8</ele>
        <time>2020-04-09T14:23:52.000Z</time>
      </trkpt>
      <trkpt lat="47.28276" lon="-2.20375">
        <ele>16</ele>
        <time>2020-04-09T14:23:53.000Z</time>
      </trkpt>
      <trkpt lat="47.28282" lon="-2.20373">
        <ele>16.2</ele>
        <time>2020-04-09T14:23:54.000Z</time>
      </trkpt>
      <trkpt lat="47.28287" lon="-2.20372">
        <ele>16.2</ele>
        <time>2020-04-09T14:23:55.000Z</time>
      </trkpt>
      <trkpt lat="47.28292" lon="-2.2037">
        <ele>16</ele>
        <time>2020-04-09T14:23:56.000Z</time>
      </trkpt>
      <trkpt lat="47.28298" lon="-2.20369">
        <ele>16</ele>
        <time>2020-04-09T14:23:57.000Z</time>
      </trkpt>
      <trkpt lat="47.28303" lon="-2.20368">
        <ele>15.8</ele>
        <time>2020-04-09T14:23:58.000Z</time>
      </trkpt>
      <trkpt lat="47.28309" lon="-2.20366">
        <ele>15.8</ele>
        <time>2020-04-09T14:23:59.000Z</time>
      </trkpt>
      <trkpt lat="47.28314" lon="-2.20365">
        <ele>15.8</ele>
        <time>2020-04-09T14:24:00.000Z</time>
      </trkpt>
      <trkpt lat="47.28319" lon="-2.20364">
        <ele>15.8</ele>
        <time>2020-04-09T14:24:01.000Z</time>
      </trkpt>
      <trkpt lat="47.28325" lon="-2.20362">
        <ele>15.8</ele>
        <time>2020-04-09T14:24:02.000Z</time>
      </trkpt>
      <trkpt lat="47.2833" lon="-2.20361">
        <ele>15.8</ele>
        <time>2020-04-09T14:24:03.000Z</time>
      </trkpt>
      <trkpt lat="47.28336" lon="-2.20359">
        <ele>15.8</ele>
        <time>2020-04-09T14:24:04.000Z</time>
      </trkpt>
      <trkpt lat="47.28341" lon="-2.20358">
        <ele>16</ele>
        <time>2020-04-09T14:24:05.000Z</time>
      </trkpt>
      <trkpt lat="47.28347" lon="-2.20357">
        <ele>16.2</ele>
        <time>2020-04-09T14:24:06.000Z</time>
      </trkpt>
      <trkpt lat="47.28352" lon="-2.20356">
        <ele>16.2</ele>
        <time>2020-04-09T14:24:07.000Z</time>
      </trkpt>
      <trkpt lat="47.28357" lon="-2.20355">
        <ele>16.2</ele>
        <time>2020-04-09T14:24:08.000Z</time>
      </trkpt>
      <trkpt lat="47.28362" lon="-2.20353">
        <ele>16</ele>
        <time>2020-04-09T14:24:09.000Z</time>
      </trkpt>
      <trkpt lat="47.28368" lon="-2.20352">
        <ele>15.8</ele>
        <time>2020-04-09T14:24:10.000Z</time>
      </trkpt>
      <trkpt lat="47.28373" lon="-2.20351">
        <ele>15.8</ele>
        <time>2020-04-09T14:24:11.000Z</time>
      </trkpt>
      <trkpt lat="47.28378" lon="-2.20349">
        <ele>15.8</ele>
        <time>2020-04-09T14:24:12.000Z</time>
      </trkpt>
      <trkpt lat="47.28384" lon="-2.20347">
        <ele>15.8</ele>
        <time>2020-04-09T14:24:13.000Z</time>
      </trkpt>
      <trkpt lat="47.28389" lon="-2.20346">
        <ele>16</ele>
        <time>2020-04-09T14:24:14.000Z</time>
      </trkpt>
      <trkpt lat="47.28394" lon="-2.20345">
        <ele>16</ele>
        <time>2020-04-09T14:24:15.000Z</time>
      </trkpt>
      <trkpt lat="47.284" lon="-2.20343">
        <ele>16</ele>
        <time>2020-04-09T14:24:16.000Z</time>
      </trkpt>
      <trkpt lat="47.28405" lon="-2.20341">
        <ele>16</ele>
        <time>2020-04-09T14:24:17.000Z</time>
      </trkpt>
      <trkpt lat="47.2841" lon="-2.2034">
        <ele>15.8</ele>
        <time>2020-04-09T14:24:18.000Z</time>
      </trkpt>
      <trkpt lat="47.28415" lon="-2.20339">
        <ele>15.8</ele>
        <time>2020-04-09T14:24:19.000Z</time>
      </trkpt>
      <trkpt lat="47.2842" lon="-2.20338">
        <ele>15.8</ele>
        <time>2020-04-09T14:24:20.000Z</time>
      </trkpt>
      <trkpt lat="47.28424" lon="-2.20336">
        <ele>15.8</ele>
        <time>2020-04-09T14:24:21.000Z</time>
      </trkpt>
      <trkpt lat="47.28429" lon="-2.20335">
        <ele>15.8</ele>
        <time>2020-04-09T14:24:22.000Z</time>
      </trkpt>
      <trkpt lat="47.28433" lon="-2.20334">
        <ele>16</ele>
        <time>2020-04-09T14:24:23.000Z</time>
      </trkpt>
      <trkpt lat="47.28438" lon="-2.20332">
        <ele>15.8</ele>
        <time>2020-04-09T14:24:24.000Z</time>
      </trkpt>
      <trkpt lat="47.28443" lon="-2.2033">
        <ele>15.8</ele>
        <time>2020-04-09T14:24:25.000Z</time>
      </trkpt>
      <trkpt lat="47.28448" lon="-2.20328">
        <ele>15.8</ele>
        <time>2020-04-09T14:24:26.000Z</time>
      </trkpt>
      <trkpt lat="47.28453" lon="-2.20328">
        <ele>15.6</ele>
        <time>2020-04-09T14:24:27.000Z</time>
      </trkpt>
      <trkpt lat="47.28458" lon="-2.20327">
        <ele>15.6</ele>
        <time>2020-04-09T14:24:28.000Z</time>
      </trkpt>
      <trkpt lat="47.28463" lon="-2.20325">
        <ele>15.8</ele>
        <time>2020-04-09T14:24:29.000Z</time>
      </trkpt>
      <trkpt lat="47.28468" lon="-2.20324">
        <ele>15.8</ele>
        <time>2020-04-09T14:24:30.000Z</time>
      </trkpt>
      <trkpt lat="47.28473" lon="-2.20322">
        <ele>15.8</ele>
        <time>2020-04-09T14:24:31.000Z</time>
      </trkpt>
      <trkpt lat="47.28479" lon="-2.2032">
        <ele>15.8</ele>
        <time>2020-04-09T14:24:32.000Z</time>
      </trkpt>
      <trkpt lat="47.28484" lon="-2.20319">
        <ele>15.6</ele>
        <time>2020-04-09T14:24:33.000Z</time>
      </trkpt>
      <trkpt lat="47.28489" lon="-2.20317">
        <ele>15.6</ele>
        <time>2020-04-09T14:24:34.000Z</time>
      </trkpt>
      <trkpt lat="47.28495" lon="-2.20316">
        <ele>15.6</ele>
        <time>2020-04-09T14:24:35.000Z</time>
      </trkpt>
      <trkpt lat="47.285" lon="-2.20314">
        <ele>15.6</ele>
        <time>2020-04-09T14:24:36.000Z</time>
      </trkpt>
      <trkpt lat="47.28506" lon="-2.20313">
        <ele>15.6</ele>
        <time>2020-04-09T14:24:37.000Z</time>
      </trkpt>
      <trkpt lat="47.28511" lon="-2.20311">
        <ele>15.6</ele>
        <time>2020-04-09T14:24:38.000Z</time>
      </trkpt>
      <trkpt lat="47.28517" lon="-2.2031">
        <ele>15.6</ele>
        <time>2020-04-09T14:24:39.000Z</time>
      </trkpt>
      <trkpt lat="47.28522" lon="-2.20309">
        <ele>15.6</ele>
        <time>2020-04-09T14:24:40.000Z</time>
      </trkpt>
      <trkpt lat="47.28528" lon="-2.20307">
        <ele>15.4</ele>
        <time>2020-04-09T14:24:41.000Z</time>
      </trkpt>
      <trkpt lat="47.28533" lon="-2.20305">
        <ele>15.4</ele>
        <time>2020-04-09T14:24:42.000Z</time>
      </trkpt>
      <trkpt lat="47.28539" lon="-2.20304">
        <ele>15.4</ele>
        <time>2020-04-09T14:24:43.000Z</time>
      </trkpt>
      <trkpt lat="47.28544" lon="-2.20302">
        <ele>15.2</ele>
        <time>2020-04-09T14:24:44.000Z</time>
      </trkpt>
      <trkpt lat="47.2855" lon="-2.203">
        <ele>15.4</ele>
        <time>2020-04-09T14:24:45.000Z</time>
      </trkpt>
      <trkpt lat="47.28555" lon="-2.20299">
        <ele>15.4</ele>
        <time>2020-04-09T14:24:46.000Z</time>
      </trkpt>
      <trkpt lat="47.28561" lon="-2.20297">
        <ele>15.6</ele>
        <time>2020-04-09T14:24:47.000Z</time>
      </trkpt>
      <trkpt lat="47.28567" lon="-2.20296">
        <ele>15.4</ele>
        <time>2020-04-09T14:24:48.000Z</time>
      </trkpt>
      <trkpt lat="47.28572" lon="-2.20295">
        <ele>15.4</ele>
        <time>2020-04-09T14:24:49.000Z</time>
      </trkpt>
      <trkpt lat="47.28578" lon="-2.20293">
        <ele>15.4</ele>
        <time>2020-04-09T14:24:50.000Z</time>
      </trkpt>
      <trkpt lat="47.28583" lon="-2.20292">
        <ele>15.4</ele>
        <time>2020-04-09T14:24:51.000Z</time>
      </trkpt>
      <trkpt lat="47.28589" lon="-2.2029">
        <ele>15.4</ele>
        <time>2020-04-09T14:24:52.000Z</time>
      </trkpt>
      <trkpt lat="47.28594" lon="-2.20288">
        <ele>15.4</ele>
        <time>2020-04-09T14:24:53.000Z</time>
      </trkpt>
      <trkpt lat="47.286" lon="-2.20287">
        <ele>15.4</ele>
        <time>2020-04-09T14:24:54.000Z</time>
      </trkpt>
      <trkpt lat="47.28605" lon="-2.20285">
        <ele>15.4</ele>
        <time>2020-04-09T14:24:55.000Z</time>
      </trkpt>
      <trkpt lat="47.28611" lon="-2.20284">
        <ele>15.4</ele>
        <time>2020-04-09T14:24:56.000Z</time>
      </trkpt>
      <trkpt lat="47.28616" lon="-2.20283">
        <ele>15.6</ele>
        <time>2020-04-09T14:24:57.000Z</time>
      </trkpt>
      <trkpt lat="47.28622" lon="-2.20281">
        <ele>15.6</ele>
        <time>2020-04-09T14:24:58.000Z</time>
      </trkpt>
      <trkpt lat="47.28627" lon="-2.2028">
        <ele>15.6</ele>
        <time>2020-04-09T14:24:59.000Z</time>
      </trkpt>
      <trkpt lat="47.28633" lon="-2.20279">
        <ele>15.6</ele>
        <time>2020-04-09T14:25:00.000Z</time>
      </trkpt>
      <trkpt lat="47.28638" lon="-2.20277">
        <ele>15.6</ele>
        <time>2020-04-09T14:25:01.000Z</time>
      </trkpt>
      <trkpt lat="47.28644" lon="-2.20276">
        <ele>15.6</ele>
        <time>2020-04-09T14:25:02.000Z</time>
      </trkpt>
      <trkpt lat="47.28649" lon="-2.20275">
        <ele>15.4</ele>
        <time>2020-04-09T14:25:03.000Z</time>
      </trkpt>
      <trkpt lat="47.28655" lon="-2.20273">
        <ele>15.4</ele>
        <time>2020-04-09T14:25:04.000Z</time>
      </trkpt>
      <trkpt lat="47.2866" lon="-2.20271">
        <ele>15.6</ele>
        <time>2020-04-09T14:25:05.000Z</time>
      </trkpt>
      <trkpt lat="47.28666" lon="-2.2027">
        <ele>15.4</ele>
        <time>2020-04-09T14:25:06.000Z</time>
      </trkpt>
      <trkpt lat="47.28671" lon="-2.20268">
        <ele>15.4</ele>
        <time>2020-04-09T14:25:07.000Z</time>
      </trkpt>
      <trkpt lat="47.28677" lon="-2.20267">
        <ele>15.2</ele>
        <time>2020-04-09T14:25:08.000Z</time>
      </trkpt>
      <trkpt lat="47.28682" lon="-2.20266">
        <ele>15.2</ele>
        <time>2020-04-09T14:25:09.000Z</time>
      </trkpt>
      <trkpt lat="47.28688" lon="-2.20264">
        <ele>15.4</ele>
        <time>2020-04-09T14:25:10.000Z</time>
      </trkpt>
      <trkpt lat="47.28693" lon="-2.20262">
        <ele>15.2</ele>
        <time>2020-04-09T14:25:11.000Z</time>
      </trkpt>
      <trkpt lat="47.28699" lon="-2.20261">
        <ele>15.2</ele>
        <time>2020-04-09T14:25:12.000Z</time>
      </trkpt>
      <trkpt lat="47.28704" lon="-2.2026">
        <ele>15.2</ele>
        <time>2020-04-09T14:25:13.000Z</time>
      </trkpt>
      <trkpt lat="47.2871" lon="-2.20258">
        <ele>15.2</ele>
        <time>2020-04-09T14:25:14.000Z</time>
      </trkpt>
      <trkpt lat="47.28715" lon="-2.20257">
        <ele>15.2</ele>
        <time>2020-04-09T14:25:15.000Z</time>
      </trkpt>
      <trkpt lat="47.2872" lon="-2.20256">
        <ele>15.4</ele>
        <time>2020-04-09T14:25:16.000Z</time>
      </trkpt>
      <trkpt lat="47.28726" lon="-2.20254">
        <ele>15.4</ele>
        <time>2020-04-09T14:25:17.000Z</time>
      </trkpt>
      <trkpt lat="47.28731" lon="-2.20253">
        <ele>15.6</ele>
        <time>2020-04-09T14:25:18.000Z</time>
      </trkpt>
      <trkpt lat="47.28736" lon="-2.20251">
        <ele>15.4</ele>
        <time>2020-04-09T14:25:19.000Z</time>
      </trkpt>
      <trkpt lat="47.28742" lon="-2.20249">
        <ele>15.6</ele>
        <time>2020-04-09T14:25:20.000Z</time>
      </trkpt>
      <trkpt lat="47.28747" lon="-2.20248">
        <ele>15.6</ele>
        <time>2020-04-09T14:25:21.000Z</time>
      </trkpt>
      <trkpt lat="47.28752" lon="-2.20247">
        <ele>15.6</ele>
        <time>2020-04-09T14:25:22.000Z</time>
      </trkpt>
      <trkpt lat="47.28758" lon="-2.20245">
        <ele>15.4</ele>
        <time>2020-04-09T14:25:23.000Z</time>
      </trkpt>
      <trkpt lat="47.28763" lon="-2.20244">
        <ele>15.6</ele>
        <time>2020-04-09T14:25:24.000Z</time>
      </trkpt>
      <trkpt lat="47.28768" lon="-2.20244">
        <ele>15.8</ele>
        <time>2020-04-09T14:25:25.000Z</time>
      </trkpt>
      <trkpt lat="47.28773" lon="-2.20245">
        <ele>15.8</ele>
        <time>2020-04-09T14:25:26.000Z</time>
      </trkpt>
      <trkpt lat="47.28778" lon="-2.20247">
        <ele>16</ele>
        <time>2020-04-09T14:25:27.000Z</time>
      </trkpt>
      <trkpt lat="47.28782" lon="-2.2025">
        <ele>16</ele>
        <time>2020-04-09T14:25:28.000Z</time>
      </trkpt>
      <trkpt lat="47.28786" lon="-2.20254">
        <ele>16</ele>
        <time>2020-04-09T14:25:29.000Z</time>
      </trkpt>
      <trkpt lat="47.2879" lon="-2.20257">
        <ele>16</ele>
        <time>2020-04-09T14:25:30.000Z</time>
      </trkpt>
      <trkpt lat="47.28793" lon="-2.20261">
        <ele>16</ele>
        <time>2020-04-09T14:25:31.000Z</time>
      </trkpt>
      <trkpt lat="47.28797" lon="-2.20265">
        <ele>16</ele>
        <time>2020-04-09T14:25:32.000Z</time>
      </trkpt>
      <trkpt lat="47.288" lon="-2.20268">
        <ele>16.4</ele>
        <time>2020-04-09T14:25:33.000Z</time>
      </trkpt>
      <trkpt lat="47.28804" lon="-2.20272">
        <ele>16</ele>
        <time>2020-04-09T14:25:34.000Z</time>
      </trkpt>
      <trkpt lat="47.28807" lon="-2.20276">
        <ele>16.2</ele>
        <time>2020-04-09T14:25:35.000Z</time>
      </trkpt>
      <trkpt lat="47.2881" lon="-2.20279">
        <ele>16.4</ele>
        <time>2020-04-09T14:25:36.000Z</time>
      </trkpt>
      <trkpt lat="47.28813" lon="-2.20283">
        <ele>16.4</ele>
        <time>2020-04-09T14:25:37.000Z</time>
      </trkpt>
      <trkpt lat="47.28816" lon="-2.20288">
        <ele>16.2</ele>
        <time>2020-04-09T14:25:38.000Z</time>
      </trkpt>
      <trkpt lat="47.2882" lon="-2.20291">
        <ele>16</ele>
        <time>2020-04-09T14:25:39.000Z</time>
      </trkpt>
      <trkpt lat="47.28826" lon="-2.20291">
        <ele>16</ele>
        <time>2020-04-09T14:25:40.000Z</time>
      </trkpt>
      <trkpt lat="47.28829" lon="-2.20288">
        <ele>16.2</ele>
        <time>2020-04-09T14:25:41.000Z</time>
      </trkpt>
      <trkpt lat="47.28831" lon="-2.20284">
        <ele>16</ele>
        <time>2020-04-09T14:25:42.000Z</time>
      </trkpt>
      <trkpt lat="47.28833" lon="-2.20281">
        <ele>16</ele>
        <time>2020-04-09T14:25:43.000Z</time>
      </trkpt>
      <trkpt lat="47.28835" lon="-2.20277">
        <ele>16</ele>
        <time>2020-04-09T14:25:44.000Z</time>
      </trkpt>
      <trkpt lat="47.28837" lon="-2.20273">
        <ele>16</ele>
        <time>2020-04-09T14:25:45.000Z</time>
      </trkpt>
      <trkpt lat="47.2884" lon="-2.20268">
        <ele>16</ele>
        <time>2020-04-09T14:25:46.000Z</time>
      </trkpt>
      <trkpt lat="47.28843" lon="-2.20263">
        <ele>16</ele>
        <time>2020-04-09T14:25:47.000Z</time>
      </trkpt>
      <trkpt lat="47.28846" lon="-2.20258">
        <ele>15.8</ele>
        <time>2020-04-09T14:25:48.000Z</time>
      </trkpt>
      <trkpt lat="47.2885" lon="-2.20253">
        <ele>15.8</ele>
        <time>2020-04-09T14:25:49.000Z</time>
      </trkpt>
      <trkpt lat="47.28853" lon="-2.20248">
        <ele>15.8</ele>
        <time>2020-04-09T14:25:50.000Z</time>
      </trkpt>
      <trkpt lat="47.28857" lon="-2.20242">
        <ele>15.8</ele>
        <time>2020-04-09T14:25:51.000Z</time>
      </trkpt>
      <trkpt lat="47.2886" lon="-2.20237">
        <ele>15.8</ele>
        <time>2020-04-09T14:25:53.000Z</time>
      </trkpt>
      <trkpt lat="47.28864" lon="-2.20233">
        <ele>15.8</ele>
        <time>2020-04-09T14:25:54.000Z</time>
      </trkpt>
      <trkpt lat="47.28868" lon="-2.20228">
        <ele>15.6</ele>
        <time>2020-04-09T14:25:55.000Z</time>
      </trkpt>
      <trkpt lat="47.28873" lon="-2.20225">
        <ele>15.4</ele>
        <time>2020-04-09T14:25:56.000Z</time>
      </trkpt>
      <trkpt lat="47.28883" lon="-2.2022">
        <ele>15.4</ele>
        <time>2020-04-09T14:25:57.000Z</time>
      </trkpt>
      <trkpt lat="47.28888" lon="-2.20217">
        <ele>15.6</ele>
        <time>2020-04-09T14:25:58.000Z</time>
      </trkpt>
      <trkpt lat="47.28888" lon="-2.20217">
        <ele>15.4</ele>
        <time>2020-04-09T14:25:59.000Z</time>
      </trkpt>
      <trkpt lat="47.28893" lon="-2.20215">
        <ele>15.6</ele>
        <time>2020-04-09T14:26:00.000Z</time>
      </trkpt>
      <trkpt lat="47.28897" lon="-2.20213">
        <ele>15.6</ele>
        <time>2020-04-09T14:26:01.000Z</time>
      </trkpt>
      <trkpt lat="47.28902" lon="-2.20212">
        <ele>15.4</ele>
        <time>2020-04-09T14:26:02.000Z</time>
      </trkpt>
      <trkpt lat="47.28907" lon="-2.20212">
        <ele>15.8</ele>
        <time>2020-04-09T14:26:03.000Z</time>
      </trkpt>
      <trkpt lat="47.28912" lon="-2.20212">
        <ele>15.8</ele>
        <time>2020-04-09T14:26:04.000Z</time>
      </trkpt>
      <trkpt lat="47.28917" lon="-2.20212">
        <ele>15.6</ele>
        <time>2020-04-09T14:26:05.000Z</time>
      </trkpt>
      <trkpt lat="47.28921" lon="-2.20211">
        <ele>15.6</ele>
        <time>2020-04-09T14:26:06.000Z</time>
      </trkpt>
      <trkpt lat="47.28925" lon="-2.20209">
        <ele>15.8</ele>
        <time>2020-04-09T14:26:07.000Z</time>
      </trkpt>
      <trkpt lat="47.28929" lon="-2.20207">
        <ele>15.8</ele>
        <time>2020-04-09T14:26:08.000Z</time>
      </trkpt>
      <trkpt lat="47.28933" lon="-2.20204">
        <ele>15.6</ele>
        <time>2020-04-09T14:26:09.000Z</time>
      </trkpt>
      <trkpt lat="47.28936" lon="-2.20202">
        <ele>15.8</ele>
        <time>2020-04-09T14:26:10.000Z</time>
      </trkpt>
      <trkpt lat="47.2894" lon="-2.202">
        <ele>15.6</ele>
        <time>2020-04-09T14:26:11.000Z</time>
      </trkpt>
      <trkpt lat="47.28944" lon="-2.20198">
        <ele>15.4</ele>
        <time>2020-04-09T14:26:13.000Z</time>
      </trkpt>
      <trkpt lat="47.28953" lon="-2.20194">
        <ele>15.4</ele>
        <time>2020-04-09T14:26:14.000Z</time>
      </trkpt>
      <trkpt lat="47.28957" lon="-2.20193">
        <ele>15.8</ele>
        <time>2020-04-09T14:26:15.000Z</time>
      </trkpt>
      <trkpt lat="47.28962" lon="-2.20192">
        <ele>15.6</ele>
        <time>2020-04-09T14:26:16.000Z</time>
      </trkpt>
      <trkpt lat="47.28967" lon="-2.20191">
        <ele>16</ele>
        <time>2020-04-09T14:26:17.000Z</time>
      </trkpt>
      <trkpt lat="47.28972" lon="-2.20189">
        <ele>16</ele>
        <time>2020-04-09T14:26:18.000Z</time>
      </trkpt>
      <trkpt lat="47.28977" lon="-2.20188">
        <ele>15.8</ele>
        <time>2020-04-09T14:26:19.000Z</time>
      </trkpt>
      <trkpt lat="47.28982" lon="-2.20187">
        <ele>15.8</ele>
        <time>2020-04-09T14:26:20.000Z</time>
      </trkpt>
      <trkpt lat="47.28988" lon="-2.20185">
        <ele>15.6</ele>
        <time>2020-04-09T14:26:21.000Z</time>
      </trkpt>
      <trkpt lat="47.28993" lon="-2.20184">
        <ele>15.6</ele>
        <time>2020-04-09T14:26:22.000Z</time>
      </trkpt>
      <trkpt lat="47.28998" lon="-2.20183">
        <ele>15.8</ele>
        <time>2020-04-09T14:26:23.000Z</time>
      </trkpt>
      <trkpt lat="47.29003" lon="-2.20181">
        <ele>15.8</ele>
        <time>2020-04-09T14:26:24.000Z</time>
      </trkpt>
      <trkpt lat="47.29009" lon="-2.2018">
        <ele>15.8</ele>
        <time>2020-04-09T14:26:25.000Z</time>
      </trkpt>
      <trkpt lat="47.29014" lon="-2.20179">
        <ele>15.8</ele>
        <time>2020-04-09T14:26:26.000Z</time>
      </trkpt>
      <trkpt lat="47.29019" lon="-2.20177">
        <ele>15.8</ele>
        <time>2020-04-09T14:26:27.000Z</time>
      </trkpt>
      <trkpt lat="47.29024" lon="-2.20175">
        <ele>15.8</ele>
        <time>2020-04-09T14:26:28.000Z</time>
      </trkpt>
      <trkpt lat="47.29029" lon="-2.20174">
        <ele>15.6</ele>
        <time>2020-04-09T14:26:29.000Z</time>
      </trkpt>
      <trkpt lat="47.29035" lon="-2.20172">
        <ele>15.8</ele>
        <time>2020-04-09T14:26:30.000Z</time>
      </trkpt>
      <trkpt lat="47.2904" lon="-2.20171">
        <ele>15.8</ele>
        <time>2020-04-09T14:26:31.000Z</time>
      </trkpt>
      <trkpt lat="47.29045" lon="-2.2017">
        <ele>15.8</ele>
        <time>2020-04-09T14:26:32.000Z</time>
      </trkpt>
      <trkpt lat="47.29051" lon="-2.20169">
        <ele>15.8</ele>
        <time>2020-04-09T14:26:33.000Z</time>
      </trkpt>
      <trkpt lat="47.29056" lon="-2.20167">
        <ele>15.8</ele>
        <time>2020-04-09T14:26:34.000Z</time>
      </trkpt>
      <trkpt lat="47.29062" lon="-2.20165">
        <ele>16</ele>
        <time>2020-04-09T14:26:35.000Z</time>
      </trkpt>
      <trkpt lat="47.29067" lon="-2.20164">
        <ele>15.6</ele>
        <time>2020-04-09T14:26:36.000Z</time>
      </trkpt>
      <trkpt lat="47.29073" lon="-2.20162">
        <ele>15.8</ele>
        <time>2020-04-09T14:26:37.000Z</time>
      </trkpt>
      <trkpt lat="47.29078" lon="-2.20161">
        <ele>15.8</ele>
        <time>2020-04-09T14:26:38.000Z</time>
      </trkpt>
      <trkpt lat="47.29084" lon="-2.2016">
        <ele>15.6</ele>
        <time>2020-04-09T14:26:39.000Z</time>
      </trkpt>
      <trkpt lat="47.29089" lon="-2.20158">
        <ele>15.6</ele>
        <time>2020-04-09T14:26:40.000Z</time>
      </trkpt>
      <trkpt lat="47.29095" lon="-2.20157">
        <ele>15.8</ele>
        <time>2020-04-09T14:26:41.000Z</time>
      </trkpt>
      <trkpt lat="47.291" lon="-2.20155">
        <ele>15.8</ele>
        <time>2020-04-09T14:26:42.000Z</time>
      </trkpt>
      <trkpt lat="47.29106" lon="-2.20154">
        <ele>15.8</ele>
        <time>2020-04-09T14:26:43.000Z</time>
      </trkpt>
      <trkpt lat="47.29111" lon="-2.20152">
        <ele>15.8</ele>
        <time>2020-04-09T14:26:44.000Z</time>
      </trkpt>
      <trkpt lat="47.29117" lon="-2.20151">
        <ele>15.6</ele>
        <time>2020-04-09T14:26:45.000Z</time>
      </trkpt>
      <trkpt lat="47.29122" lon="-2.2015">
        <ele>15.8</ele>
        <time>2020-04-09T14:26:46.000Z</time>
      </trkpt>
      <trkpt lat="47.29128" lon="-2.20148">
        <ele>15.8</ele>
        <time>2020-04-09T14:26:47.000Z</time>
      </trkpt>
      <trkpt lat="47.29133" lon="-2.20146">
        <ele>15.8</ele>
        <time>2020-04-09T14:26:48.000Z</time>
      </trkpt>
      <trkpt lat="47.29139" lon="-2.20144">
        <ele>15.6</ele>
        <time>2020-04-09T14:26:49.000Z</time>
      </trkpt>
      <trkpt lat="47.29145" lon="-2.20143">
        <ele>15.8</ele>
        <time>2020-04-09T14:26:50.000Z</time>
      </trkpt>
      <trkpt lat="47.2915" lon="-2.20142">
        <ele>15.6</ele>
        <time>2020-04-09T14:26:51.000Z</time>
      </trkpt>
      <trkpt lat="47.29156" lon="-2.20141">
        <ele>15.6</ele>
        <time>2020-04-09T14:26:52.000Z</time>
      </trkpt>
      <trkpt lat="47.29161" lon="-2.20139">
        <ele>15.8</ele>
        <time>2020-04-09T14:26:53.000Z</time>
      </trkpt>
      <trkpt lat="47.29167" lon="-2.20138">
        <ele>15.8</ele>
        <time>2020-04-09T14:26:54.000Z</time>
      </trkpt>
      <trkpt lat="47.29172" lon="-2.20136">
        <ele>16</ele>
        <time>2020-04-09T14:26:55.000Z</time>
      </trkpt>
      <trkpt lat="47.29177" lon="-2.20134">
        <ele>15.8</ele>
        <time>2020-04-09T14:26:56.000Z</time>
      </trkpt>
      <trkpt lat="47.29183" lon="-2.20133">
        <ele>15.6</ele>
        <time>2020-04-09T14:26:57.000Z</time>
      </trkpt>
      <trkpt lat="47.29188" lon="-2.20131">
        <ele>15.6</ele>
        <time>2020-04-09T14:26:58.000Z</time>
      </trkpt>
      <trkpt lat="47.29193" lon="-2.2013">
        <ele>15.6</ele>
        <time>2020-04-09T14:26:59.000Z</time>
      </trkpt>
      <trkpt lat="47.29199" lon="-2.20128">
        <ele>15.6</ele>
        <time>2020-04-09T14:27:00.000Z</time>
      </trkpt>
      <trkpt lat="47.29204" lon="-2.20127">
        <ele>15.6</ele>
        <time>2020-04-09T14:27:01.000Z</time>
      </trkpt>
      <trkpt lat="47.29209" lon="-2.20125">
        <ele>15.6</ele>
        <time>2020-04-09T14:27:02.000Z</time>
      </trkpt>
      <trkpt lat="47.29215" lon="-2.20124">
        <ele>15.6</ele>
        <time>2020-04-09T14:27:03.000Z</time>
      </trkpt>
      <trkpt lat="47.2922" lon="-2.20123">
        <ele>15.6</ele>
        <time>2020-04-09T14:27:04.000Z</time>
      </trkpt>
      <trkpt lat="47.29225" lon="-2.20123">
        <ele>15.8</ele>
        <time>2020-04-09T14:27:05.000Z</time>
      </trkpt>
      <trkpt lat="47.29231" lon="-2.20123">
        <ele>15.8</ele>
        <time>2020-04-09T14:27:06.000Z</time>
      </trkpt>
      <trkpt lat="47.29236" lon="-2.20123">
        <ele>16</ele>
        <time>2020-04-09T14:27:07.000Z</time>
      </trkpt>
      <trkpt lat="47.29241" lon="-2.20124">
        <ele>16</ele>
        <time>2020-04-09T14:27:08.000Z</time>
      </trkpt>
      <trkpt lat="47.29245" lon="-2.20126">
        <ele>16</ele>
        <time>2020-04-09T14:27:09.000Z</time>
      </trkpt>
      <trkpt lat="47.2925" lon="-2.20129">
        <ele>15.8</ele>
        <time>2020-04-09T14:27:10.000Z</time>
      </trkpt>
      <trkpt lat="47.29255" lon="-2.20131">
        <ele>15.8</ele>
        <time>2020-04-09T14:27:11.000Z</time>
      </trkpt>
      <trkpt lat="47.2926" lon="-2.20134">
        <ele>16</ele>
        <time>2020-04-09T14:27:12.000Z</time>
      </trkpt>
      <trkpt lat="47.29264" lon="-2.20137">
        <ele>15.8</ele>
        <time>2020-04-09T14:27:13.000Z</time>
      </trkpt>
      <trkpt lat="47.29269" lon="-2.20141">
        <ele>15.8</ele>
        <time>2020-04-09T14:27:14.000Z</time>
      </trkpt>
      <trkpt lat="47.29273" lon="-2.20145">
        <ele>15.6</ele>
        <time>2020-04-09T14:27:15.000Z</time>
      </trkpt>
      <trkpt lat="47.29277" lon="-2.20146">
        <ele>15.6</ele>
        <time>2020-04-09T14:27:16.000Z</time>
      </trkpt>
      <trkpt lat="47.29282" lon="-2.20144">
        <ele>15.6</ele>
        <time>2020-04-09T14:27:17.000Z</time>
      </trkpt>
      <trkpt lat="47.29285" lon="-2.2014">
        <ele>15.4</ele>
        <time>2020-04-09T14:27:18.000Z</time>
      </trkpt>
      <trkpt lat="47.29287" lon="-2.20133">
        <ele>15.6</ele>
        <time>2020-04-09T14:27:19.000Z</time>
      </trkpt>
      <trkpt lat="47.29289" lon="-2.20126">
        <ele>15.4</ele>
        <time>2020-04-09T14:27:20.000Z</time>
      </trkpt>
      <trkpt lat="47.2929" lon="-2.20119">
        <ele>15.4</ele>
        <time>2020-04-09T14:27:21.000Z</time>
      </trkpt>
      <trkpt lat="47.29292" lon="-2.20113">
        <ele>15.2</ele>
        <time>2020-04-09T14:27:22.000Z</time>
      </trkpt>
      <trkpt lat="47.29294" lon="-2.20106">
        <ele>15.4</ele>
        <time>2020-04-09T14:27:23.000Z</time>
      </trkpt>
      <trkpt lat="47.29296" lon="-2.20099">
        <ele>15.6</ele>
        <time>2020-04-09T14:27:24.000Z</time>
      </trkpt>
      <trkpt lat="47.29297" lon="-2.20093">
        <ele>15.4</ele>
        <time>2020-04-09T14:27:25.000Z</time>
      </trkpt>
      <trkpt lat="47.29299" lon="-2.20086">
        <ele>15.4</ele>
        <time>2020-04-09T14:27:26.000Z</time>
      </trkpt>
      <trkpt lat="47.29301" lon="-2.20079">
        <ele>15.2</ele>
        <time>2020-04-09T14:27:27.000Z</time>
      </trkpt>
      <trkpt lat="47.29302" lon="-2.20073">
        <ele>15.4</ele>
        <time>2020-04-09T14:27:28.000Z</time>
      </trkpt>
      <trkpt lat="47.29304" lon="-2.20067">
        <ele>15.4</ele>
        <time>2020-04-09T14:27:29.000Z</time>
      </trkpt>
      <trkpt lat="47.29306" lon="-2.2006">
        <ele>15.8</ele>
        <time>2020-04-09T14:27:30.000Z</time>
      </trkpt>
      <trkpt lat="47.29307" lon="-2.20054">
        <ele>15.8</ele>
        <time>2020-04-09T14:27:31.000Z</time>
      </trkpt>
      <trkpt lat="47.29309" lon="-2.20047">
        <ele>15.6</ele>
        <time>2020-04-09T14:27:32.000Z</time>
      </trkpt>
      <trkpt lat="47.2931" lon="-2.20041">
        <ele>15.6</ele>
        <time>2020-04-09T14:27:33.000Z</time>
      </trkpt>
      <trkpt lat="47.29312" lon="-2.20034">
        <ele>15.8</ele>
        <time>2020-04-09T14:27:34.000Z</time>
      </trkpt>
      <trkpt lat="47.29314" lon="-2.20028">
        <ele>15.8</ele>
        <time>2020-04-09T14:27:35.000Z</time>
      </trkpt>
      <trkpt lat="47.29316" lon="-2.20022">
        <ele>16.2</ele>
        <time>2020-04-09T14:27:36.000Z</time>
      </trkpt>
      <trkpt lat="47.29318" lon="-2.20016">
        <ele>16.2</ele>
        <time>2020-04-09T14:27:37.000Z</time>
      </trkpt>
      <trkpt lat="47.29321" lon="-2.20011">
        <ele>16</ele>
        <time>2020-04-09T14:27:38.000Z</time>
      </trkpt>
      <trkpt lat="47.29324" lon="-2.20006">
        <ele>16.2</ele>
        <time>2020-04-09T14:27:39.000Z</time>
      </trkpt>
      <trkpt lat="47.29327" lon="-2.20003">
        <ele>16.4</ele>
        <time>2020-04-09T14:27:40.000Z</time>
      </trkpt>
      <trkpt lat="47.29331" lon="-2.20001">
        <ele>16.4</ele>
        <time>2020-04-09T14:27:41.000Z</time>
      </trkpt>
      <trkpt lat="47.29335" lon="-2.19999">
        <ele>16.8</ele>
        <time>2020-04-09T14:27:42.000Z</time>
      </trkpt>
      <trkpt lat="47.29339" lon="-2.19997">
        <ele>16.6</ele>
        <time>2020-04-09T14:27:43.000Z</time>
      </trkpt>
      <trkpt lat="47.29344" lon="-2.19994">
        <ele>16.6</ele>
        <time>2020-04-09T14:27:44.000Z</time>
      </trkpt>
      <trkpt lat="47.29348" lon="-2.19992">
        <ele>16.8</ele>
        <time>2020-04-09T14:27:45.000Z</time>
      </trkpt>
      <trkpt lat="47.29353" lon="-2.1999">
        <ele>16.6</ele>
        <time>2020-04-09T14:27:46.000Z</time>
      </trkpt>
      <trkpt lat="47.29357" lon="-2.19988">
        <ele>16.8</ele>
        <time>2020-04-09T14:27:47.000Z</time>
      </trkpt>
      <trkpt lat="47.29362" lon="-2.19985">
        <ele>16.6</ele>
        <time>2020-04-09T14:27:48.000Z</time>
      </trkpt>
      <trkpt lat="47.29366" lon="-2.19983">
        <ele>16.8</ele>
        <time>2020-04-09T14:27:49.000Z</time>
      </trkpt>
      <trkpt lat="47.2937" lon="-2.19981">
        <ele>17</ele>
        <time>2020-04-09T14:27:50.000Z</time>
      </trkpt>
      <trkpt lat="47.29375" lon="-2.19979">
        <ele>17</ele>
        <time>2020-04-09T14:27:51.000Z</time>
      </trkpt>
      <trkpt lat="47.29379" lon="-2.19976">
        <ele>17</ele>
        <time>2020-04-09T14:27:52.000Z</time>
      </trkpt>
      <trkpt lat="47.29383" lon="-2.19974">
        <ele>17.2</ele>
        <time>2020-04-09T14:27:53.000Z</time>
      </trkpt>
      <trkpt lat="47.29388" lon="-2.19972">
        <ele>17.2</ele>
        <time>2020-04-09T14:27:54.000Z</time>
      </trkpt>
      <trkpt lat="47.29392" lon="-2.19969">
        <ele>17.2</ele>
        <time>2020-04-09T14:27:55.000Z</time>
      </trkpt>
      <trkpt lat="47.29396" lon="-2.19967">
        <ele>17.4</ele>
        <time>2020-04-09T14:27:56.000Z</time>
      </trkpt>
      <trkpt lat="47.29401" lon="-2.19965">
        <ele>17.6</ele>
        <time>2020-04-09T14:27:57.000Z</time>
      </trkpt>
      <trkpt lat="47.29405" lon="-2.19963">
        <ele>17.8</ele>
        <time>2020-04-09T14:27:58.000Z</time>
      </trkpt>
      <trkpt lat="47.29409" lon="-2.19961">
        <ele>17.8</ele>
        <time>2020-04-09T14:27:59.000Z</time>
      </trkpt>
      <trkpt lat="47.29413" lon="-2.19959">
        <ele>17.8</ele>
        <time>2020-04-09T14:28:00.000Z</time>
      </trkpt>
      <trkpt lat="47.29418" lon="-2.19956">
        <ele>17.8</ele>
        <time>2020-04-09T14:28:01.000Z</time>
      </trkpt>
      <trkpt lat="47.29422" lon="-2.19954">
        <ele>18</ele>
        <time>2020-04-09T14:28:02.000Z</time>
      </trkpt>
      <trkpt lat="47.29426" lon="-2.19952">
        <ele>18</ele>
        <time>2020-04-09T14:28:03.000Z</time>
      </trkpt>
      <trkpt lat="47.29431" lon="-2.19949">
        <ele>18.2</ele>
        <time>2020-04-09T14:28:04.000Z</time>
      </trkpt>
      <trkpt lat="47.29435" lon="-2.19947">
        <ele>18</ele>
        <time>2020-04-09T14:28:05.000Z</time>
      </trkpt>
      <trkpt lat="47.29439" lon="-2.19945">
        <ele>18.2</ele>
        <time>2020-04-09T14:28:06.000Z</time>
      </trkpt>
      <trkpt lat="47.29444" lon="-2.19944">
        <ele>18.6</ele>
        <time>2020-04-09T14:28:07.000Z</time>
      </trkpt>
      <trkpt lat="47.29448" lon="-2.19944">
        <ele>18.6</ele>
        <time>2020-04-09T14:28:08.000Z</time>
      </trkpt>
      <trkpt lat="47.29453" lon="-2.19944">
        <ele>18.8</ele>
        <time>2020-04-09T14:28:09.000Z</time>
      </trkpt>
      <trkpt lat="47.29458" lon="-2.19944">
        <ele>18.8</ele>
        <time>2020-04-09T14:28:10.000Z</time>
      </trkpt>
      <trkpt lat="47.29462" lon="-2.19943">
        <ele>19</ele>
        <time>2020-04-09T14:28:11.000Z</time>
      </trkpt>
      <trkpt lat="47.29467" lon="-2.19943">
        <ele>19</ele>
        <time>2020-04-09T14:28:12.000Z</time>
      </trkpt>
      <trkpt lat="47.29472" lon="-2.19943">
        <ele>19.2</ele>
        <time>2020-04-09T14:28:13.000Z</time>
      </trkpt>
      <trkpt lat="47.29476" lon="-2.19943">
        <ele>19.2</ele>
        <time>2020-04-09T14:28:14.000Z</time>
      </trkpt>
      <trkpt lat="47.29481" lon="-2.19943">
        <ele>19.2</ele>
        <time>2020-04-09T14:28:15.000Z</time>
      </trkpt>
      <trkpt lat="47.29486" lon="-2.19943">
        <ele>19.2</ele>
        <time>2020-04-09T14:28:16.000Z</time>
      </trkpt>
      <trkpt lat="47.2949" lon="-2.19944">
        <ele>19.2</ele>
        <time>2020-04-09T14:28:17.000Z</time>
      </trkpt>
      <trkpt lat="47.29495" lon="-2.19945">
        <ele>19.2</ele>
        <time>2020-04-09T14:28:18.000Z</time>
      </trkpt>
      <trkpt lat="47.295" lon="-2.19945">
        <ele>19</ele>
        <time>2020-04-09T14:28:19.000Z</time>
      </trkpt>
      <trkpt lat="47.29505" lon="-2.19946">
        <ele>19</ele>
        <time>2020-04-09T14:28:20.000Z</time>
      </trkpt>
      <trkpt lat="47.2951" lon="-2.19947">
        <ele>18.8</ele>
        <time>2020-04-09T14:28:21.000Z</time>
      </trkpt>
      <trkpt lat="47.29515" lon="-2.19948">
        <ele>18.8</ele>
        <time>2020-04-09T14:28:22.000Z</time>
      </trkpt>
      <trkpt lat="47.2952" lon="-2.19949">
        <ele>18.8</ele>
        <time>2020-04-09T14:28:23.000Z</time>
      </trkpt>
      <trkpt lat="47.29525" lon="-2.1995">
        <ele>18.8</ele>
        <time>2020-04-09T14:28:24.000Z</time>
      </trkpt>
      <trkpt lat="47.29529" lon="-2.1995">
        <ele>18.8</ele>
        <time>2020-04-09T14:28:25.000Z</time>
      </trkpt>
      <trkpt lat="47.29534" lon="-2.19951">
        <ele>18.6</ele>
        <time>2020-04-09T14:28:26.000Z</time>
      </trkpt>
      <trkpt lat="47.29539" lon="-2.19952">
        <ele>18.6</ele>
        <time>2020-04-09T14:28:27.000Z</time>
      </trkpt>
      <trkpt lat="47.29544" lon="-2.19954">
        <ele>18.4</ele>
        <time>2020-04-09T14:28:28.000Z</time>
      </trkpt>
      <trkpt lat="47.29549" lon="-2.19956">
        <ele>18.4</ele>
        <time>2020-04-09T14:28:29.000Z</time>
      </trkpt>
      <trkpt lat="47.29554" lon="-2.19958">
        <ele>18.4</ele>
        <time>2020-04-09T14:28:30.000Z</time>
      </trkpt>
      <trkpt lat="47.29559" lon="-2.1996">
        <ele>18.4</ele>
        <time>2020-04-09T14:28:31.000Z</time>
      </trkpt>
      <trkpt lat="47.29564" lon="-2.19961">
        <ele>18.2</ele>
        <time>2020-04-09T14:28:32.000Z</time>
      </trkpt>
      <trkpt lat="47.29569" lon="-2.19963">
        <ele>18.2</ele>
        <time>2020-04-09T14:28:33.000Z</time>
      </trkpt>
      <trkpt lat="47.29574" lon="-2.19965">
        <ele>18.4</ele>
        <time>2020-04-09T14:28:34.000Z</time>
      </trkpt>
      <trkpt lat="47.2958" lon="-2.19967">
        <ele>18.4</ele>
        <time>2020-04-09T14:28:35.000Z</time>
      </trkpt>
      <trkpt lat="47.29585" lon="-2.19969">
        <ele>18.4</ele>
        <time>2020-04-09T14:28:36.000Z</time>
      </trkpt>
      <trkpt lat="47.2959" lon="-2.19971">
        <ele>18.2</ele>
        <time>2020-04-09T14:28:37.000Z</time>
      </trkpt>
      <trkpt lat="47.29596" lon="-2.19973">
        <ele>18.2</ele>
        <time>2020-04-09T14:28:38.000Z</time>
      </trkpt>
      <trkpt lat="47.29601" lon="-2.19975">
        <ele>18</ele>
        <time>2020-04-09T14:28:39.000Z</time>
      </trkpt>
      <trkpt lat="47.29607" lon="-2.19978">
        <ele>17.8</ele>
        <time>2020-04-09T14:28:40.000Z</time>
      </trkpt>
      <trkpt lat="47.29612" lon="-2.19981">
        <ele>17.8</ele>
        <time>2020-04-09T14:28:41.000Z</time>
      </trkpt>
      <trkpt lat="47.29617" lon="-2.19983">
        <ele>18</ele>
        <time>2020-04-09T14:28:42.000Z</time>
      </trkpt>
      <trkpt lat="47.29622" lon="-2.19986">
        <ele>18</ele>
        <time>2020-04-09T14:28:43.000Z</time>
      </trkpt>
      <trkpt lat="47.29627" lon="-2.19989">
        <ele>18</ele>
        <time>2020-04-09T14:28:44.000Z</time>
      </trkpt>
      <trkpt lat="47.29632" lon="-2.19993">
        <ele>18</ele>
        <time>2020-04-09T14:28:45.000Z</time>
      </trkpt>
      <trkpt lat="47.29637" lon="-2.19996">
        <ele>18.2</ele>
        <time>2020-04-09T14:28:46.000Z</time>
      </trkpt>
      <trkpt lat="47.29642" lon="-2.19999">
        <ele>18.2</ele>
        <time>2020-04-09T14:28:47.000Z</time>
      </trkpt>
      <trkpt lat="47.29646" lon="-2.20001">
        <ele>18</ele>
        <time>2020-04-09T14:28:48.000Z</time>
      </trkpt>
      <trkpt lat="47.29651" lon="-2.20004">
        <ele>18.4</ele>
        <time>2020-04-09T14:28:49.000Z</time>
      </trkpt>
      <trkpt lat="47.29656" lon="-2.20006">
        <ele>18.4</ele>
        <time>2020-04-09T14:28:50.000Z</time>
      </trkpt>
      <trkpt lat="47.29661" lon="-2.20009">
        <ele>18.4</ele>
        <time>2020-04-09T14:28:51.000Z</time>
      </trkpt>
      <trkpt lat="47.29665" lon="-2.20012">
        <ele>18.6</ele>
        <time>2020-04-09T14:28:52.000Z</time>
      </trkpt>
      <trkpt lat="47.2967" lon="-2.20015">
        <ele>18.4</ele>
        <time>2020-04-09T14:28:53.000Z</time>
      </trkpt>
      <trkpt lat="47.29675" lon="-2.20018">
        <ele>18.4</ele>
        <time>2020-04-09T14:28:54.000Z</time>
      </trkpt>
      <trkpt lat="47.29679" lon="-2.20021">
        <ele>18.2</ele>
        <time>2020-04-09T14:28:55.000Z</time>
      </trkpt>
      <trkpt lat="47.29684" lon="-2.20024">
        <ele>18.2</ele>
        <time>2020-04-09T14:28:56.000Z</time>
      </trkpt>
      <trkpt lat="47.29688" lon="-2.20028">
        <ele>18.4</ele>
        <time>2020-04-09T14:28:57.000Z</time>
      </trkpt>
      <trkpt lat="47.29692" lon="-2.20033">
        <ele>18.4</ele>
        <time>2020-04-09T14:28:58.000Z</time>
      </trkpt>
      <trkpt lat="47.29697" lon="-2.20037">
        <ele>18.4</ele>
        <time>2020-04-09T14:28:59.000Z</time>
      </trkpt>
      <trkpt lat="47.29701" lon="-2.20041">
        <ele>18.6</ele>
        <time>2020-04-09T14:29:00.000Z</time>
      </trkpt>
      <trkpt lat="47.29705" lon="-2.20044">
        <ele>18.4</ele>
        <time>2020-04-09T14:29:01.000Z</time>
      </trkpt>
      <trkpt lat="47.29709" lon="-2.20048">
        <ele>18.4</ele>
        <time>2020-04-09T14:29:02.000Z</time>
      </trkpt>
      <trkpt lat="47.29713" lon="-2.20053">
        <ele>18.6</ele>
        <time>2020-04-09T14:29:03.000Z</time>
      </trkpt>
      <trkpt lat="47.29717" lon="-2.20058">
        <ele>18.4</ele>
        <time>2020-04-09T14:29:04.000Z</time>
      </trkpt>
      <trkpt lat="47.29721" lon="-2.20062">
        <ele>18.4</ele>
        <time>2020-04-09T14:29:05.000Z</time>
      </trkpt>
      <trkpt lat="47.29725" lon="-2.20066">
        <ele>18.6</ele>
        <time>2020-04-09T14:29:06.000Z</time>
      </trkpt>
      <trkpt lat="47.29729" lon="-2.2007">
        <ele>18.2</ele>
        <time>2020-04-09T14:29:07.000Z</time>
      </trkpt>
      <trkpt lat="47.29733" lon="-2.20075">
        <ele>18.4</ele>
        <time>2020-04-09T14:29:08.000Z</time>
      </trkpt>
      <trkpt lat="47.29737" lon="-2.20079">
        <ele>18.4</ele>
        <time>2020-04-09T14:29:09.000Z</time>
      </trkpt>
      <trkpt lat="47.29741" lon="-2.20083">
        <ele>18.2</ele>
        <time>2020-04-09T14:29:10.000Z</time>
      </trkpt>
      <trkpt lat="47.29745" lon="-2.20087">
        <ele>18.2</ele>
        <time>2020-04-09T14:29:11.000Z</time>
      </trkpt>
      <trkpt lat="47.29749" lon="-2.20092">
        <ele>17.8</ele>
        <time>2020-04-09T14:29:12.000Z</time>
      </trkpt>
      <trkpt lat="47.29753" lon="-2.20096">
        <ele>17.8</ele>
        <time>2020-04-09T14:29:13.000Z</time>
      </trkpt>
      <trkpt lat="47.29758" lon="-2.201">
        <ele>17.4</ele>
        <time>2020-04-09T14:29:14.000Z</time>
      </trkpt>
      <trkpt lat="47.29763" lon="-2.201">
        <ele>17.6</ele>
        <time>2020-04-09T14:29:15.000Z</time>
      </trkpt>
      <trkpt lat="47.29768" lon="-2.20101">
        <ele>17.8</ele>
        <time>2020-04-09T14:29:16.000Z</time>
      </trkpt>
      <trkpt lat="47.29773" lon="-2.201">
        <ele>17.6</ele>
        <time>2020-04-09T14:29:17.000Z</time>
      </trkpt>
      <trkpt lat="47.29777" lon="-2.20099">
        <ele>17.8</ele>
        <time>2020-04-09T14:29:18.000Z</time>
      </trkpt>
      <trkpt lat="47.29781" lon="-2.20097">
        <ele>17.8</ele>
        <time>2020-04-09T14:29:19.000Z</time>
      </trkpt>
      <trkpt lat="47.29784" lon="-2.20093">
        <ele>17.8</ele>
        <time>2020-04-09T14:29:20.000Z</time>
      </trkpt>
      <trkpt lat="47.29785" lon="-2.20087">
        <ele>18</ele>
        <time>2020-04-09T14:29:21.000Z</time>
      </trkpt>
      <trkpt lat="47.29785" lon="-2.20082">
        <ele>18.2</ele>
        <time>2020-04-09T14:29:22.000Z</time>
      </trkpt>
      <trkpt lat="47.29786" lon="-2.20077">
        <ele>18.4</ele>
        <time>2020-04-09T14:29:23.000Z</time>
      </trkpt>
      <trkpt lat="47.29786" lon="-2.20071">
        <ele>18.6</ele>
        <time>2020-04-09T14:29:24.000Z</time>
      </trkpt>
      <trkpt lat="47.29787" lon="-2.20065">
        <ele>18.6</ele>
        <time>2020-04-09T14:29:25.000Z</time>
      </trkpt>
      <trkpt lat="47.29787" lon="-2.20059">
        <ele>18.8</ele>
        <time>2020-04-09T14:29:26.000Z</time>
      </trkpt>
      <trkpt lat="47.29788" lon="-2.20054">
        <ele>19</ele>
        <time>2020-04-09T14:29:27.000Z</time>
      </trkpt>
      <trkpt lat="47.29788" lon="-2.20048">
        <ele>19</ele>
        <time>2020-04-09T14:29:28.000Z</time>
      </trkpt>
      <trkpt lat="47.29789" lon="-2.20042">
        <ele>19.2</ele>
        <time>2020-04-09T14:29:29.000Z</time>
      </trkpt>
      <trkpt lat="47.2979" lon="-2.20037">
        <ele>19.4</ele>
        <time>2020-04-09T14:29:30.000Z</time>
      </trkpt>
      <trkpt lat="47.2979" lon="-2.20031">
        <ele>19.4</ele>
        <time>2020-04-09T14:29:31.000Z</time>
      </trkpt>
      <trkpt lat="47.29792" lon="-2.20025">
        <ele>19.6</ele>
        <time>2020-04-09T14:29:32.000Z</time>
      </trkpt>
      <trkpt lat="47.29794" lon="-2.2002">
        <ele>19.6</ele>
        <time>2020-04-09T14:29:33.000Z</time>
      </trkpt>
      <trkpt lat="47.29796" lon="-2.20014">
        <ele>19.4</ele>
        <time>2020-04-09T14:29:34.000Z</time>
      </trkpt>
      <trkpt lat="47.29797" lon="-2.20008">
        <ele>19.4</ele>
        <time>2020-04-09T14:29:35.000Z</time>
      </trkpt>
      <trkpt lat="47.29799" lon="-2.20003">
        <ele>19.2</ele>
        <time>2020-04-09T14:29:36.000Z</time>
      </trkpt>
      <trkpt lat="47.29801" lon="-2.19997">
        <ele>19.4</ele>
        <time>2020-04-09T14:29:37.000Z</time>
      </trkpt>
      <trkpt lat="47.29805" lon="-2.19985">
        <ele>19.2</ele>
        <time>2020-04-09T14:29:38.000Z</time>
      </trkpt>
      <trkpt lat="47.29808" lon="-2.19979">
        <ele>19.2</ele>
        <time>2020-04-09T14:29:39.000Z</time>
      </trkpt>
      <trkpt lat="47.2981" lon="-2.19972">
        <ele>18.8</ele>
        <time>2020-04-09T14:29:40.000Z</time>
      </trkpt>
      <trkpt lat="47.29812" lon="-2.19966">
        <ele>19</ele>
        <time>2020-04-09T14:29:41.000Z</time>
      </trkpt>
      <trkpt lat="47.29813" lon="-2.19959">
        <ele>18.8</ele>
        <time>2020-04-09T14:29:42.000Z</time>
      </trkpt>
      <trkpt lat="47.29814" lon="-2.19953">
        <ele>19</ele>
        <time>2020-04-09T14:29:43.000Z</time>
      </trkpt>
      <trkpt lat="47.29814" lon="-2.19946">
        <ele>18.4</ele>
        <time>2020-04-09T14:29:44.000Z</time>
      </trkpt>
      <trkpt lat="47.29814" lon="-2.19939">
        <ele>18.2</ele>
        <time>2020-04-09T14:29:45.000Z</time>
      </trkpt>
      <trkpt lat="47.29815" lon="-2.19931">
        <ele>18</ele>
        <time>2020-04-09T14:29:46.000Z</time>
      </trkpt>
      <trkpt lat="47.29815" lon="-2.19924">
        <ele>18.2</ele>
        <time>2020-04-09T14:29:48.000Z</time>
      </trkpt>
      <trkpt lat="47.29816" lon="-2.19909">
        <ele>18.4</ele>
        <time>2020-04-09T14:29:49.000Z</time>
      </trkpt>
      <trkpt lat="47.29816" lon="-2.19902">
        <ele>18.6</ele>
        <time>2020-04-09T14:29:50.000Z</time>
      </trkpt>
      <trkpt lat="47.29816" lon="-2.19894">
        <ele>18.4</ele>
        <time>2020-04-09T14:29:51.000Z</time>
      </trkpt>
      <trkpt lat="47.29816" lon="-2.19887">
        <ele>18.4</ele>
        <time>2020-04-09T14:29:52.000Z</time>
      </trkpt>
      <trkpt lat="47.29816" lon="-2.19887">
        <ele>18.4</ele>
        <time>2020-04-09T14:29:53.000Z</time>
      </trkpt>
      <trkpt lat="47.29816" lon="-2.1988">
        <ele>18.2</ele>
        <time>2020-04-09T14:29:54.000Z</time>
      </trkpt>
      <trkpt lat="47.29816" lon="-2.19872">
        <ele>18.2</ele>
        <time>2020-04-09T14:29:55.000Z</time>
      </trkpt>
      <trkpt lat="47.29816" lon="-2.19865">
        <ele>18.2</ele>
        <time>2020-04-09T14:29:56.000Z</time>
      </trkpt>
      <trkpt lat="47.29817" lon="-2.19857">
        <ele>18</ele>
        <time>2020-04-09T14:29:57.000Z</time>
      </trkpt>
      <trkpt lat="47.29817" lon="-2.19849">
        <ele>18.2</ele>
        <time>2020-04-09T14:29:58.000Z</time>
      </trkpt>
      <trkpt lat="47.29817" lon="-2.19842">
        <ele>18.2</ele>
        <time>2020-04-09T14:29:59.000Z</time>
      </trkpt>
      <trkpt lat="47.29817" lon="-2.19834">
        <ele>18</ele>
        <time>2020-04-09T14:30:00.000Z</time>
      </trkpt>
      <trkpt lat="47.29817" lon="-2.19826">
        <ele>18</ele>
        <time>2020-04-09T14:30:01.000Z</time>
      </trkpt>
      <trkpt lat="47.29817" lon="-2.19818">
        <ele>18</ele>
        <time>2020-04-09T14:30:02.000Z</time>
      </trkpt>
      <trkpt lat="47.29817" lon="-2.19811">
        <ele>18</ele>
        <time>2020-04-09T14:30:03.000Z</time>
      </trkpt>
      <trkpt lat="47.29818" lon="-2.19803">
        <ele>18</ele>
        <time>2020-04-09T14:30:04.000Z</time>
      </trkpt>
      <trkpt lat="47.29818" lon="-2.19795">
        <ele>18.2</ele>
        <time>2020-04-09T14:30:05.000Z</time>
      </trkpt>
      <trkpt lat="47.29818" lon="-2.19788">
        <ele>18.4</ele>
        <time>2020-04-09T14:30:06.000Z</time>
      </trkpt>
      <trkpt lat="47.29818" lon="-2.19781">
        <ele>18.4</ele>
        <time>2020-04-09T14:30:08.000Z</time>
      </trkpt>
      <trkpt lat="47.29817" lon="-2.19766">
        <ele>18.4</ele>
        <time>2020-04-09T14:30:09.000Z</time>
      </trkpt>
      <trkpt lat="47.29816" lon="-2.19759">
        <ele>18.2</ele>
        <time>2020-04-09T14:30:10.000Z</time>
      </trkpt>
      <trkpt lat="47.29815" lon="-2.19752">
        <ele>18</ele>
        <time>2020-04-09T14:30:11.000Z</time>
      </trkpt>
      <trkpt lat="47.29813" lon="-2.19745">
        <ele>18</ele>
        <time>2020-04-09T14:30:12.000Z</time>
      </trkpt>
      <trkpt lat="47.29812" lon="-2.19738">
        <ele>17.8</ele>
        <time>2020-04-09T14:30:13.000Z</time>
      </trkpt>
      <trkpt lat="47.29811" lon="-2.19731">
        <ele>17.8</ele>
        <time>2020-04-09T14:30:14.000Z</time>
      </trkpt>
      <trkpt lat="47.29813" lon="-2.19725">
        <ele>17.8</ele>
        <time>2020-04-09T14:30:15.000Z</time>
      </trkpt>
      <trkpt lat="47.29816" lon="-2.1972">
        <ele>17.6</ele>
        <time>2020-04-09T14:30:16.000Z</time>
      </trkpt>
      <trkpt lat="47.29821" lon="-2.19717">
        <ele>17.8</ele>
        <time>2020-04-09T14:30:17.000Z</time>
      </trkpt>
      <trkpt lat="47.29826" lon="-2.19716">
        <ele>17.4</ele>
        <time>2020-04-09T14:30:18.000Z</time>
      </trkpt>
      <trkpt lat="47.2983" lon="-2.19715">
        <ele>17.4</ele>
        <time>2020-04-09T14:30:19.000Z</time>
      </trkpt>
      <trkpt lat="47.29836" lon="-2.19714">
        <ele>17.6</ele>
        <time>2020-04-09T14:30:20.000Z</time>
      </trkpt>
      <trkpt lat="47.29841" lon="-2.19713">
        <ele>17.6</ele>
        <time>2020-04-09T14:30:21.000Z</time>
      </trkpt>
      <trkpt lat="47.29845" lon="-2.19711">
        <ele>17.8</ele>
        <time>2020-04-09T14:30:22.000Z</time>
      </trkpt>
      <trkpt lat="47.2985" lon="-2.19711">
        <ele>17.8</ele>
        <time>2020-04-09T14:30:23.000Z</time>
      </trkpt>
      <trkpt lat="47.29855" lon="-2.19708">
        <ele>17.8</ele>
        <time>2020-04-09T14:30:24.000Z</time>
      </trkpt>
      <trkpt lat="47.29859" lon="-2.19705">
        <ele>18</ele>
        <time>2020-04-09T14:30:25.000Z</time>
      </trkpt>
      <trkpt lat="47.29864" lon="-2.19702">
        <ele>18</ele>
        <time>2020-04-09T14:30:26.000Z</time>
      </trkpt>
      <trkpt lat="47.29868" lon="-2.19697">
        <ele>17.8</ele>
        <time>2020-04-09T14:30:27.000Z</time>
      </trkpt>
      <trkpt lat="47.29873" lon="-2.19693">
        <ele>17.8</ele>
        <time>2020-04-09T14:30:28.000Z</time>
      </trkpt>
      <trkpt lat="47.29877" lon="-2.19688">
        <ele>17.8</ele>
        <time>2020-04-09T14:30:29.000Z</time>
      </trkpt>
      <trkpt lat="47.29881" lon="-2.19684">
        <ele>17.8</ele>
        <time>2020-04-09T14:30:30.000Z</time>
      </trkpt>
      <trkpt lat="47.29885" lon="-2.19679">
        <ele>17.8</ele>
        <time>2020-04-09T14:30:31.000Z</time>
      </trkpt>
      <trkpt lat="47.29889" lon="-2.19674">
        <ele>17.8</ele>
        <time>2020-04-09T14:30:32.000Z</time>
      </trkpt>
      <trkpt lat="47.29893" lon="-2.19669">
        <ele>17.8</ele>
        <time>2020-04-09T14:30:33.000Z</time>
      </trkpt>
      <trkpt lat="47.29897" lon="-2.19664">
        <ele>17.8</ele>
        <time>2020-04-09T14:30:34.000Z</time>
      </trkpt>
      <trkpt lat="47.29901" lon="-2.19659">
        <ele>17.8</ele>
        <time>2020-04-09T14:30:35.000Z</time>
      </trkpt>
      <trkpt lat="47.29905" lon="-2.19655">
        <ele>17.8</ele>
        <time>2020-04-09T14:30:36.000Z</time>
      </trkpt>
      <trkpt lat="47.29909" lon="-2.1965">
        <ele>18</ele>
        <time>2020-04-09T14:30:37.000Z</time>
      </trkpt>
      <trkpt lat="47.29913" lon="-2.19646">
        <ele>18</ele>
        <time>2020-04-09T14:30:38.000Z</time>
      </trkpt>
      <trkpt lat="47.29916" lon="-2.19641">
        <ele>18</ele>
        <time>2020-04-09T14:30:39.000Z</time>
      </trkpt>
      <trkpt lat="47.29919" lon="-2.19635">
        <ele>18</ele>
        <time>2020-04-09T14:30:40.000Z</time>
      </trkpt>
      <trkpt lat="47.29923" lon="-2.19629">
        <ele>18</ele>
        <time>2020-04-09T14:30:41.000Z</time>
      </trkpt>
      <trkpt lat="47.29927" lon="-2.19624">
        <ele>18</ele>
        <time>2020-04-09T14:30:42.000Z</time>
      </trkpt>
      <trkpt lat="47.29931" lon="-2.19619">
        <ele>18</ele>
        <time>2020-04-09T14:30:43.000Z</time>
      </trkpt>
      <trkpt lat="47.29935" lon="-2.19614">
        <ele>17.8</ele>
        <time>2020-04-09T14:30:44.000Z</time>
      </trkpt>
      <trkpt lat="47.29939" lon="-2.19608">
        <ele>18</ele>
        <time>2020-04-09T14:30:45.000Z</time>
      </trkpt>
      <trkpt lat="47.29943" lon="-2.19603">
        <ele>17.8</ele>
        <time>2020-04-09T14:30:46.000Z</time>
      </trkpt>
      <trkpt lat="47.29947" lon="-2.19597">
        <ele>17.6</ele>
        <time>2020-04-09T14:30:47.000Z</time>
      </trkpt>
      <trkpt lat="47.29951" lon="-2.19592">
        <ele>17.2</ele>
        <time>2020-04-09T14:30:48.000Z</time>
      </trkpt>
      <trkpt lat="47.29955" lon="-2.19586">
        <ele>17.2</ele>
        <time>2020-04-09T14:30:49.000Z</time>
      </trkpt>
      <trkpt lat="47.2996" lon="-2.1958">
        <ele>17.2</ele>
        <time>2020-04-09T14:30:50.000Z</time>
      </trkpt>
      <trkpt lat="47.29965" lon="-2.19575">
        <ele>17.4</ele>
        <time>2020-04-09T14:30:51.000Z</time>
      </trkpt>
      <trkpt lat="47.29969" lon="-2.1957">
        <ele>17.2</ele>
        <time>2020-04-09T14:30:52.000Z</time>
      </trkpt>
      <trkpt lat="47.29974" lon="-2.19565">
        <ele>17</ele>
        <time>2020-04-09T14:30:53.000Z</time>
      </trkpt>
      <trkpt lat="47.29979" lon="-2.1956">
        <ele>17</ele>
        <time>2020-04-09T14:30:54.000Z</time>
      </trkpt>
      <trkpt lat="47.29984" lon="-2.19555">
        <ele>16.8</ele>
        <time>2020-04-09T14:30:55.000Z</time>
      </trkpt>
      <trkpt lat="47.29989" lon="-2.1955">
        <ele>16.6</ele>
        <time>2020-04-09T14:30:56.000Z</time>
      </trkpt>
      <trkpt lat="47.29994" lon="-2.19545">
        <ele>16.8</ele>
        <time>2020-04-09T14:30:57.000Z</time>
      </trkpt>
      <trkpt lat="47.29999" lon="-2.19541">
        <ele>16.6</ele>
        <time>2020-04-09T14:30:58.000Z</time>
      </trkpt>
      <trkpt lat="47.30004" lon="-2.19537">
        <ele>16.8</ele>
        <time>2020-04-09T14:30:59.000Z</time>
      </trkpt>
      <trkpt lat="47.30009" lon="-2.19532">
        <ele>16.8</ele>
        <time>2020-04-09T14:31:00.000Z</time>
      </trkpt>
      <trkpt lat="47.30013" lon="-2.19528">
        <ele>16.8</ele>
        <time>2020-04-09T14:31:01.000Z</time>
      </trkpt>
      <trkpt lat="47.30018" lon="-2.19524">
        <ele>16.8</ele>
        <time>2020-04-09T14:31:02.000Z</time>
      </trkpt>
      <trkpt lat="47.30022" lon="-2.1952">
        <ele>16.8</ele>
        <time>2020-04-09T14:31:03.000Z</time>
      </trkpt>
      <trkpt lat="47.30027" lon="-2.19518">
        <ele>16.6</ele>
        <time>2020-04-09T14:31:04.000Z</time>
      </trkpt>
      <trkpt lat="47.30032" lon="-2.19516">
        <ele>16.6</ele>
        <time>2020-04-09T14:31:05.000Z</time>
      </trkpt>
      <trkpt lat="47.30036" lon="-2.19516">
        <ele>16.6</ele>
        <time>2020-04-09T14:31:06.000Z</time>
      </trkpt>
      <trkpt lat="47.30041" lon="-2.19516">
        <ele>16.6</ele>
        <time>2020-04-09T14:31:07.000Z</time>
      </trkpt>
      <trkpt lat="47.30044" lon="-2.19511">
        <ele>16.6</ele>
        <time>2020-04-09T14:31:08.000Z</time>
      </trkpt>
      <trkpt lat="47.30045" lon="-2.19505">
        <ele>16.8</ele>
        <time>2020-04-09T14:31:09.000Z</time>
      </trkpt>
      <trkpt lat="47.30044" lon="-2.19499">
        <ele>16.6</ele>
        <time>2020-04-09T14:31:10.000Z</time>
      </trkpt>
      <trkpt lat="47.30044" lon="-2.19492">
        <ele>16.8</ele>
        <time>2020-04-09T14:31:11.000Z</time>
      </trkpt>
      <trkpt lat="47.30043" lon="-2.19485">
        <ele>16.8</ele>
        <time>2020-04-09T14:31:12.000Z</time>
      </trkpt>
      <trkpt lat="47.30042" lon="-2.19478">
        <ele>16.8</ele>
        <time>2020-04-09T14:31:13.000Z</time>
      </trkpt>
      <trkpt lat="47.30041" lon="-2.1947">
        <ele>16.8</ele>
        <time>2020-04-09T14:31:14.000Z</time>
      </trkpt>
      <trkpt lat="47.30041" lon="-2.19462">
        <ele>16.8</ele>
        <time>2020-04-09T14:31:15.000Z</time>
      </trkpt>
      <trkpt lat="47.30041" lon="-2.19454">
        <ele>16.8</ele>
        <time>2020-04-09T14:31:16.000Z</time>
      </trkpt>
      <trkpt lat="47.30041" lon="-2.19446">
        <ele>16.8</ele>
        <time>2020-04-09T14:31:17.000Z</time>
      </trkpt>
      <trkpt lat="47.30042" lon="-2.19438">
        <ele>16.6</ele>
        <time>2020-04-09T14:31:18.000Z</time>
      </trkpt>
      <trkpt lat="47.30042" lon="-2.1943">
        <ele>16.6</ele>
        <time>2020-04-09T14:31:19.000Z</time>
      </trkpt>
      <trkpt lat="47.30043" lon="-2.19422">
        <ele>16.8</ele>
        <time>2020-04-09T14:31:20.000Z</time>
      </trkpt>
      <trkpt lat="47.30044" lon="-2.19414">
        <ele>16.8</ele>
        <time>2020-04-09T14:31:21.000Z</time>
      </trkpt>
      <trkpt lat="47.30045" lon="-2.19407">
        <ele>17</ele>
        <time>2020-04-09T14:31:22.000Z</time>
      </trkpt>
      <trkpt lat="47.30047" lon="-2.19399">
        <ele>16.8</ele>
        <time>2020-04-09T14:31:23.000Z</time>
      </trkpt>
      <trkpt lat="47.30048" lon="-2.19392">
        <ele>16.6</ele>
        <time>2020-04-09T14:31:24.000Z</time>
      </trkpt>
      <trkpt lat="47.3005" lon="-2.19385">
        <ele>16.6</ele>
        <time>2020-04-09T14:31:25.000Z</time>
      </trkpt>
      <trkpt lat="47.30052" lon="-2.19377">
        <ele>16.6</ele>
        <time>2020-04-09T14:31:26.000Z</time>
      </trkpt>
      <trkpt lat="47.30054" lon="-2.1937">
        <ele>16.6</ele>
        <time>2020-04-09T14:31:27.000Z</time>
      </trkpt>
      <trkpt lat="47.30056" lon="-2.19363">
        <ele>16.8</ele>
        <time>2020-04-09T14:31:28.000Z</time>
      </trkpt>
      <trkpt lat="47.30058" lon="-2.19357">
        <ele>17</ele>
        <time>2020-04-09T14:31:29.000Z</time>
      </trkpt>
      <trkpt lat="47.3006" lon="-2.1935">
        <ele>17.2</ele>
        <time>2020-04-09T14:31:30.000Z</time>
      </trkpt>
      <trkpt lat="47.30061" lon="-2.19344">
        <ele>17.2</ele>
        <time>2020-04-09T14:31:31.000Z</time>
      </trkpt>
      <trkpt lat="47.30063" lon="-2.19337">
        <ele>17.4</ele>
        <time>2020-04-09T14:31:32.000Z</time>
      </trkpt>
      <trkpt lat="47.30065" lon="-2.19331">
        <ele>17.6</ele>
        <time>2020-04-09T14:31:33.000Z</time>
      </trkpt>
      <trkpt lat="47.30067" lon="-2.19325">
        <ele>17.8</ele>
        <time>2020-04-09T14:31:34.000Z</time>
      </trkpt>
      <trkpt lat="47.30069" lon="-2.19319">
        <ele>17.8</ele>
        <time>2020-04-09T14:31:35.000Z</time>
      </trkpt>
      <trkpt lat="47.3007" lon="-2.19313">
        <ele>18</ele>
        <time>2020-04-09T14:31:36.000Z</time>
      </trkpt>
      <trkpt lat="47.30071" lon="-2.19307">
        <ele>18.4</ele>
        <time>2020-04-09T14:31:37.000Z</time>
      </trkpt>
      <trkpt lat="47.30072" lon="-2.19301">
        <ele>18.4</ele>
        <time>2020-04-09T14:31:38.000Z</time>
      </trkpt>
      <trkpt lat="47.30072" lon="-2.19296">
        <ele>18.6</ele>
        <time>2020-04-09T14:31:39.000Z</time>
      </trkpt>
      <trkpt lat="47.30073" lon="-2.1929">
        <ele>18.4</ele>
        <time>2020-04-09T14:31:40.000Z</time>
      </trkpt>
      <trkpt lat="47.30073" lon="-2.19284">
        <ele>18.2</ele>
        <time>2020-04-09T14:31:41.000Z</time>
      </trkpt>
      <trkpt lat="47.30073" lon="-2.19279">
        <ele>18.2</ele>
        <time>2020-04-09T14:31:42.000Z</time>
      </trkpt>
      <trkpt lat="47.30074" lon="-2.19273">
        <ele>18.2</ele>
        <time>2020-04-09T14:31:43.000Z</time>
      </trkpt>
      <trkpt lat="47.30076" lon="-2.19268">
        <ele>18.2</ele>
        <time>2020-04-09T14:31:44.000Z</time>
      </trkpt>
      <trkpt lat="47.30077" lon="-2.19262">
        <ele>18.2</ele>
        <time>2020-04-09T14:31:45.000Z</time>
      </trkpt>
      <trkpt lat="47.30079" lon="-2.19256">
        <ele>18.2</ele>
        <time>2020-04-09T14:31:46.000Z</time>
      </trkpt>
      <trkpt lat="47.3008" lon="-2.1925">
        <ele>18.4</ele>
        <time>2020-04-09T14:31:47.000Z</time>
      </trkpt>
      <trkpt lat="47.30082" lon="-2.19244">
        <ele>18.4</ele>
        <time>2020-04-09T14:31:48.000Z</time>
      </trkpt>
      <trkpt lat="47.30084" lon="-2.19238">
        <ele>18.6</ele>
        <time>2020-04-09T14:31:49.000Z</time>
      </trkpt>
      <trkpt lat="47.30085" lon="-2.19234">
        <ele>18.6</ele>
        <time>2020-04-09T14:31:50.000Z</time>
      </trkpt>
      <trkpt lat="47.30087" lon="-2.19229">
        <ele>18.6</ele>
        <time>2020-04-09T14:31:51.000Z</time>
      </trkpt>
      <trkpt lat="47.30088" lon="-2.19224">
        <ele>18.6</ele>
        <time>2020-04-09T14:31:52.000Z</time>
      </trkpt>
      <trkpt lat="47.30089" lon="-2.1922">
        <ele>18.8</ele>
        <time>2020-04-09T14:31:53.000Z</time>
      </trkpt>
      <trkpt lat="47.3009" lon="-2.19214">
        <ele>18.6</ele>
        <time>2020-04-09T14:31:54.000Z</time>
      </trkpt>
      <trkpt lat="47.30091" lon="-2.19209">
        <ele>18.8</ele>
        <time>2020-04-09T14:31:55.000Z</time>
      </trkpt>
      <trkpt lat="47.30092" lon="-2.19204">
        <ele>19</ele>
        <time>2020-04-09T14:31:56.000Z</time>
      </trkpt>
      <trkpt lat="47.30093" lon="-2.19199">
        <ele>18.8</ele>
        <time>2020-04-09T14:31:57.000Z</time>
      </trkpt>
      <trkpt lat="47.30094" lon="-2.19194">
        <ele>19</ele>
        <time>2020-04-09T14:31:58.000Z</time>
      </trkpt>
      <trkpt lat="47.30095" lon="-2.19189">
        <ele>19</ele>
        <time>2020-04-09T14:31:59.000Z</time>
      </trkpt>
      <trkpt lat="47.30097" lon="-2.19183">
        <ele>19</ele>
        <time>2020-04-09T14:32:00.000Z</time>
      </trkpt>
      <trkpt lat="47.30098" lon="-2.19177">
        <ele>19</ele>
        <time>2020-04-09T14:32:01.000Z</time>
      </trkpt>
      <trkpt lat="47.30099" lon="-2.19172">
        <ele>19</ele>
        <time>2020-04-09T14:32:02.000Z</time>
      </trkpt>
      <trkpt lat="47.301" lon="-2.19166">
        <ele>19.2</ele>
        <time>2020-04-09T14:32:03.000Z</time>
      </trkpt>
      <trkpt lat="47.30101" lon="-2.19161">
        <ele>19</ele>
        <time>2020-04-09T14:32:04.000Z</time>
      </trkpt>
      <trkpt lat="47.30101" lon="-2.19155">
        <ele>19</ele>
        <time>2020-04-09T14:32:05.000Z</time>
      </trkpt>
      <trkpt lat="47.30102" lon="-2.19151">
        <ele>19.2</ele>
        <time>2020-04-09T14:32:06.000Z</time>
      </trkpt>
      <trkpt lat="47.30103" lon="-2.19147">
        <ele>19</ele>
        <time>2020-04-09T14:32:07.000Z</time>
      </trkpt>
      <trkpt lat="47.30104" lon="-2.19143">
        <ele>19.4</ele>
        <time>2020-04-09T14:32:08.000Z</time>
      </trkpt>
      <trkpt lat="47.30105" lon="-2.19139">
        <ele>19.2</ele>
        <time>2020-04-09T14:32:09.000Z</time>
      </trkpt>
      <trkpt lat="47.30107" lon="-2.19135">
        <ele>19.2</ele>
        <time>2020-04-09T14:32:10.000Z</time>
      </trkpt>
      <trkpt lat="47.30108" lon="-2.1913">
        <ele>19</ele>
        <time>2020-04-09T14:32:11.000Z</time>
      </trkpt>
      <trkpt lat="47.30109" lon="-2.19124">
        <ele>19</ele>
        <time>2020-04-09T14:32:12.000Z</time>
      </trkpt>
      <trkpt lat="47.30111" lon="-2.19119">
        <ele>19</ele>
        <time>2020-04-09T14:32:13.000Z</time>
      </trkpt>
      <trkpt lat="47.30112" lon="-2.19114">
        <ele>18.8</ele>
        <time>2020-04-09T14:32:14.000Z</time>
      </trkpt>
      <trkpt lat="47.30113" lon="-2.19108">
        <ele>19</ele>
        <time>2020-04-09T14:32:15.000Z</time>
      </trkpt>
      <trkpt lat="47.30114" lon="-2.19102">
        <ele>19</ele>
        <time>2020-04-09T14:32:16.000Z</time>
      </trkpt>
      <trkpt lat="47.30116" lon="-2.19097">
        <ele>19</ele>
        <time>2020-04-09T14:32:17.000Z</time>
      </trkpt>
      <trkpt lat="47.30117" lon="-2.19091">
        <ele>19</ele>
        <time>2020-04-09T14:32:18.000Z</time>
      </trkpt>
      <trkpt lat="47.30119" lon="-2.19086">
        <ele>19.2</ele>
        <time>2020-04-09T14:32:19.000Z</time>
      </trkpt>
      <trkpt lat="47.3012" lon="-2.1908">
        <ele>19</ele>
        <time>2020-04-09T14:32:20.000Z</time>
      </trkpt>
      <trkpt lat="47.30122" lon="-2.19075">
        <ele>19</ele>
        <time>2020-04-09T14:32:21.000Z</time>
      </trkpt>
      <trkpt lat="47.30123" lon="-2.1907">
        <ele>19</ele>
        <time>2020-04-09T14:32:22.000Z</time>
      </trkpt>
      <trkpt lat="47.30125" lon="-2.19065">
        <ele>18.8</ele>
        <time>2020-04-09T14:32:23.000Z</time>
      </trkpt>
      <trkpt lat="47.30126" lon="-2.1906">
        <ele>18.6</ele>
        <time>2020-04-09T14:32:24.000Z</time>
      </trkpt>
      <trkpt lat="47.30127" lon="-2.19055">
        <ele>18.8</ele>
        <time>2020-04-09T14:32:25.000Z</time>
      </trkpt>
      <trkpt lat="47.30129" lon="-2.1905">
        <ele>18.8</ele>
        <time>2020-04-09T14:32:26.000Z</time>
      </trkpt>
      <trkpt lat="47.30129" lon="-2.19045">
        <ele>18.6</ele>
        <time>2020-04-09T14:32:27.000Z</time>
      </trkpt>
      <trkpt lat="47.30129" lon="-2.19041">
        <ele>18.6</ele>
        <time>2020-04-09T14:32:28.000Z</time>
      </trkpt>
      <trkpt lat="47.30129" lon="-2.19036">
        <ele>18.8</ele>
        <time>2020-04-09T14:32:29.000Z</time>
      </trkpt>
      <trkpt lat="47.30131" lon="-2.19031">
        <ele>18.8</ele>
        <time>2020-04-09T14:32:30.000Z</time>
      </trkpt>
      <trkpt lat="47.30132" lon="-2.19025">
        <ele>18.8</ele>
        <time>2020-04-09T14:32:31.000Z</time>
      </trkpt>
      <trkpt lat="47.30134" lon="-2.19019">
        <ele>19</ele>
        <time>2020-04-09T14:32:32.000Z</time>
      </trkpt>
      <trkpt lat="47.30137" lon="-2.19014">
        <ele>18.8</ele>
        <time>2020-04-09T14:32:33.000Z</time>
      </trkpt>
      <trkpt lat="47.30139" lon="-2.19008">
        <ele>18.8</ele>
        <time>2020-04-09T14:32:34.000Z</time>
      </trkpt>
      <trkpt lat="47.30141" lon="-2.19002">
        <ele>18.8</ele>
        <time>2020-04-09T14:32:35.000Z</time>
      </trkpt>
      <trkpt lat="47.30143" lon="-2.18995">
        <ele>18.8</ele>
        <time>2020-04-09T14:32:36.000Z</time>
      </trkpt>
      <trkpt lat="47.30145" lon="-2.18989">
        <ele>18.8</ele>
        <time>2020-04-09T14:32:37.000Z</time>
      </trkpt>
      <trkpt lat="47.30147" lon="-2.18982">
        <ele>18.6</ele>
        <time>2020-04-09T14:32:38.000Z</time>
      </trkpt>
      <trkpt lat="47.30149" lon="-2.18975">
        <ele>18.4</ele>
        <time>2020-04-09T14:32:39.000Z</time>
      </trkpt>
      <trkpt lat="47.30151" lon="-2.18968">
        <ele>18.4</ele>
        <time>2020-04-09T14:32:40.000Z</time>
      </trkpt>
      <trkpt lat="47.30153" lon="-2.18961">
        <ele>18.2</ele>
        <time>2020-04-09T14:32:41.000Z</time>
      </trkpt>
      <trkpt lat="47.30156" lon="-2.18953">
        <ele>18.2</ele>
        <time>2020-04-09T14:32:42.000Z</time>
      </trkpt>
      <trkpt lat="47.30158" lon="-2.18946">
        <ele>18.2</ele>
        <time>2020-04-09T14:32:43.000Z</time>
      </trkpt>
      <trkpt lat="47.3016" lon="-2.18939">
        <ele>18.2</ele>
        <time>2020-04-09T14:32:44.000Z</time>
      </trkpt>
      <trkpt lat="47.30161" lon="-2.18932">
        <ele>18.2</ele>
        <time>2020-04-09T14:32:45.000Z</time>
      </trkpt>
      <trkpt lat="47.30163" lon="-2.18924">
        <ele>18.2</ele>
        <time>2020-04-09T14:32:46.000Z</time>
      </trkpt>
      <trkpt lat="47.30165" lon="-2.18917">
        <ele>18.2</ele>
        <time>2020-04-09T14:32:47.000Z</time>
      </trkpt>
      <trkpt lat="47.30167" lon="-2.1891">
        <ele>18.2</ele>
        <time>2020-04-09T14:32:48.000Z</time>
      </trkpt>
      <trkpt lat="47.30169" lon="-2.18902">
        <ele>18.2</ele>
        <time>2020-04-09T14:32:49.000Z</time>
      </trkpt>
      <trkpt lat="47.30172" lon="-2.18895">
        <ele>18.2</ele>
        <time>2020-04-09T14:32:50.000Z</time>
      </trkpt>
      <trkpt lat="47.30174" lon="-2.18888">
        <ele>18</ele>
        <time>2020-04-09T14:32:51.000Z</time>
      </trkpt>
      <trkpt lat="47.30177" lon="-2.18881">
        <ele>18.2</ele>
        <time>2020-04-09T14:32:52.000Z</time>
      </trkpt>
      <trkpt lat="47.30179" lon="-2.18874">
        <ele>18.2</ele>
        <time>2020-04-09T14:32:53.000Z</time>
      </trkpt>
      <trkpt lat="47.30181" lon="-2.18866">
        <ele>18.2</ele>
        <time>2020-04-09T14:32:54.000Z</time>
      </trkpt>
      <trkpt lat="47.30183" lon="-2.18859">
        <ele>18</ele>
        <time>2020-04-09T14:32:55.000Z</time>
      </trkpt>
      <trkpt lat="47.30186" lon="-2.18851">
        <ele>17.8</ele>
        <time>2020-04-09T14:32:56.000Z</time>
      </trkpt>
      <trkpt lat="47.30187" lon="-2.18844">
        <ele>17.6</ele>
        <time>2020-04-09T14:32:57.000Z</time>
      </trkpt>
      <trkpt lat="47.30189" lon="-2.18836">
        <ele>17.6</ele>
        <time>2020-04-09T14:32:58.000Z</time>
      </trkpt>
      <trkpt lat="47.30191" lon="-2.18828">
        <ele>17.8</ele>
        <time>2020-04-09T14:32:59.000Z</time>
      </trkpt>
      <trkpt lat="47.30193" lon="-2.18821">
        <ele>17.8</ele>
        <time>2020-04-09T14:33:00.000Z</time>
      </trkpt>
      <trkpt lat="47.30195" lon="-2.18813">
        <ele>17.8</ele>
        <time>2020-04-09T14:33:01.000Z</time>
      </trkpt>
      <trkpt lat="47.30197" lon="-2.18806">
        <ele>17.8</ele>
        <time>2020-04-09T14:33:02.000Z</time>
      </trkpt>
      <trkpt lat="47.30199" lon="-2.18798">
        <ele>17.8</ele>
        <time>2020-04-09T14:33:03.000Z</time>
      </trkpt>
      <trkpt lat="47.30202" lon="-2.18791">
        <ele>17.8</ele>
        <time>2020-04-09T14:33:04.000Z</time>
      </trkpt>
      <trkpt lat="47.30205" lon="-2.18784">
        <ele>17.8</ele>
        <time>2020-04-09T14:33:05.000Z</time>
      </trkpt>
      <trkpt lat="47.30207" lon="-2.18778">
        <ele>17.8</ele>
        <time>2020-04-09T14:33:06.000Z</time>
      </trkpt>
      <trkpt lat="47.3021" lon="-2.1877">
        <ele>17.8</ele>
        <time>2020-04-09T14:33:07.000Z</time>
      </trkpt>
      <trkpt lat="47.30211" lon="-2.18763">
        <ele>17.8</ele>
        <time>2020-04-09T14:33:08.000Z</time>
      </trkpt>
      <trkpt lat="47.30213" lon="-2.18755">
        <ele>17.6</ele>
        <time>2020-04-09T14:33:09.000Z</time>
      </trkpt>
      <trkpt lat="47.30216" lon="-2.18748">
        <ele>17.4</ele>
        <time>2020-04-09T14:33:10.000Z</time>
      </trkpt>
      <trkpt lat="47.30219" lon="-2.18741">
        <ele>17.4</ele>
        <time>2020-04-09T14:33:11.000Z</time>
      </trkpt>
      <trkpt lat="47.30223" lon="-2.18734">
        <ele>17.4</ele>
        <time>2020-04-09T14:33:12.000Z</time>
      </trkpt>
      <trkpt lat="47.30226" lon="-2.18728">
        <ele>17.2</ele>
        <time>2020-04-09T14:33:13.000Z</time>
      </trkpt>
      <trkpt lat="47.3023" lon="-2.18721">
        <ele>17</ele>
        <time>2020-04-09T14:33:14.000Z</time>
      </trkpt>
      <trkpt lat="47.30233" lon="-2.18714">
        <ele>17</ele>
        <time>2020-04-09T14:33:15.000Z</time>
      </trkpt>
      <trkpt lat="47.30237" lon="-2.18708">
        <ele>17</ele>
        <time>2020-04-09T14:33:16.000Z</time>
      </trkpt>
      <trkpt lat="47.3024" lon="-2.18702">
        <ele>17.2</ele>
        <time>2020-04-09T14:33:17.000Z</time>
      </trkpt>
      <trkpt lat="47.30244" lon="-2.18696">
        <ele>17.2</ele>
        <time>2020-04-09T14:33:18.000Z</time>
      </trkpt>
      <trkpt lat="47.30247" lon="-2.18689">
        <ele>17.2</ele>
        <time>2020-04-09T14:33:19.000Z</time>
      </trkpt>
      <trkpt lat="47.3025" lon="-2.18683">
        <ele>17.2</ele>
        <time>2020-04-09T14:33:20.000Z</time>
      </trkpt>
      <trkpt lat="47.30254" lon="-2.18676">
        <ele>17</ele>
        <time>2020-04-09T14:33:21.000Z</time>
      </trkpt>
      <trkpt lat="47.30258" lon="-2.1867">
        <ele>17</ele>
        <time>2020-04-09T14:33:22.000Z</time>
      </trkpt>
      <trkpt lat="47.30261" lon="-2.18664">
        <ele>17.2</ele>
        <time>2020-04-09T14:33:23.000Z</time>
      </trkpt>
      <trkpt lat="47.30264" lon="-2.18658">
        <ele>16.8</ele>
        <time>2020-04-09T14:33:24.000Z</time>
      </trkpt>
      <trkpt lat="47.30267" lon="-2.18651">
        <ele>17</ele>
        <time>2020-04-09T14:33:25.000Z</time>
      </trkpt>
      <trkpt lat="47.30271" lon="-2.18645">
        <ele>17</ele>
        <time>2020-04-09T14:33:26.000Z</time>
      </trkpt>
      <trkpt lat="47.30275" lon="-2.18639">
        <ele>16.8</ele>
        <time>2020-04-09T14:33:27.000Z</time>
      </trkpt>
      <trkpt lat="47.30278" lon="-2.18632">
        <ele>17</ele>
        <time>2020-04-09T14:33:28.000Z</time>
      </trkpt>
      <trkpt lat="47.30281" lon="-2.18626">
        <ele>16.8</ele>
        <time>2020-04-09T14:33:29.000Z</time>
      </trkpt>
      <trkpt lat="47.30285" lon="-2.1862">
        <ele>16.8</ele>
        <time>2020-04-09T14:33:30.000Z</time>
      </trkpt>
      <trkpt lat="47.30288" lon="-2.18614">
        <ele>16.8</ele>
        <time>2020-04-09T14:33:31.000Z</time>
      </trkpt>
      <trkpt lat="47.30292" lon="-2.18608">
        <ele>16.8</ele>
        <time>2020-04-09T14:33:32.000Z</time>
      </trkpt>
      <trkpt lat="47.30296" lon="-2.18602">
        <ele>16.8</ele>
        <time>2020-04-09T14:33:33.000Z</time>
      </trkpt>
      <trkpt lat="47.30299" lon="-2.18596">
        <ele>16.8</ele>
        <time>2020-04-09T14:33:34.000Z</time>
      </trkpt>
      <trkpt lat="47.30303" lon="-2.1859">
        <ele>16.8</ele>
        <time>2020-04-09T14:33:35.000Z</time>
      </trkpt>
      <trkpt lat="47.30307" lon="-2.18584">
        <ele>17</ele>
        <time>2020-04-09T14:33:36.000Z</time>
      </trkpt>
      <trkpt lat="47.3031" lon="-2.18577">
        <ele>17</ele>
        <time>2020-04-09T14:33:37.000Z</time>
      </trkpt>
      <trkpt lat="47.30313" lon="-2.18571">
        <ele>16.8</ele>
        <time>2020-04-09T14:33:38.000Z</time>
      </trkpt>
      <trkpt lat="47.30316" lon="-2.18565">
        <ele>16.8</ele>
        <time>2020-04-09T14:33:39.000Z</time>
      </trkpt>
      <trkpt lat="47.3032" lon="-2.18559">
        <ele>16.6</ele>
        <time>2020-04-09T14:33:40.000Z</time>
      </trkpt>
      <trkpt lat="47.30324" lon="-2.18554">
        <ele>16.8</ele>
        <time>2020-04-09T14:33:41.000Z</time>
      </trkpt>
      <trkpt lat="47.30328" lon="-2.18549">
        <ele>16.8</ele>
        <time>2020-04-09T14:33:42.000Z</time>
      </trkpt>
      <trkpt lat="47.30332" lon="-2.18543">
        <ele>16.8</ele>
        <time>2020-04-09T14:33:43.000Z</time>
      </trkpt>
      <trkpt lat="47.30335" lon="-2.18537">
        <ele>17</ele>
        <time>2020-04-09T14:33:44.000Z</time>
      </trkpt>
      <trkpt lat="47.30342" lon="-2.18526">
        <ele>17</ele>
        <time>2020-04-09T14:33:45.000Z</time>
      </trkpt>
      <trkpt lat="47.30345" lon="-2.1852">
        <ele>17</ele>
        <time>2020-04-09T14:33:46.000Z</time>
      </trkpt>
      <trkpt lat="47.30348" lon="-2.18513">
        <ele>16.8</ele>
        <time>2020-04-09T14:33:47.000Z</time>
      </trkpt>
      <trkpt lat="47.30352" lon="-2.18507">
        <ele>16.8</ele>
        <time>2020-04-09T14:33:48.000Z</time>
      </trkpt>
      <trkpt lat="47.30356" lon="-2.18502">
        <ele>16.8</ele>
        <time>2020-04-09T14:33:49.000Z</time>
      </trkpt>
      <trkpt lat="47.30359" lon="-2.18496">
        <ele>16.6</ele>
        <time>2020-04-09T14:33:50.000Z</time>
      </trkpt>
      <trkpt lat="47.30363" lon="-2.18491">
        <ele>16.8</ele>
        <time>2020-04-09T14:33:51.000Z</time>
      </trkpt>
      <trkpt lat="47.30367" lon="-2.18485">
        <ele>16.8</ele>
        <time>2020-04-09T14:33:52.000Z</time>
      </trkpt>
      <trkpt lat="47.3037" lon="-2.1848">
        <ele>17</ele>
        <time>2020-04-09T14:33:53.000Z</time>
      </trkpt>
      <trkpt lat="47.30374" lon="-2.18474">
        <ele>16.8</ele>
        <time>2020-04-09T14:33:54.000Z</time>
      </trkpt>
      <trkpt lat="47.30377" lon="-2.18469">
        <ele>17</ele>
        <time>2020-04-09T14:33:55.000Z</time>
      </trkpt>
      <trkpt lat="47.30381" lon="-2.18464">
        <ele>17</ele>
        <time>2020-04-09T14:33:56.000Z</time>
      </trkpt>
      <trkpt lat="47.30384" lon="-2.18458">
        <ele>17</ele>
        <time>2020-04-09T14:33:57.000Z</time>
      </trkpt>
      <trkpt lat="47.30387" lon="-2.18453">
        <ele>17</ele>
        <time>2020-04-09T14:33:58.000Z</time>
      </trkpt>
      <trkpt lat="47.30388" lon="-2.18447">
        <ele>17.2</ele>
        <time>2020-04-09T14:33:59.000Z</time>
      </trkpt>
      <trkpt lat="47.30386" lon="-2.18441">
        <ele>17.2</ele>
        <time>2020-04-09T14:34:00.000Z</time>
      </trkpt>
      <trkpt lat="47.30385" lon="-2.18436">
        <ele>17.4</ele>
        <time>2020-04-09T14:34:01.000Z</time>
      </trkpt>
      <trkpt lat="47.30382" lon="-2.18432">
        <ele>17.6</ele>
        <time>2020-04-09T14:34:03.000Z</time>
      </trkpt>
      <trkpt lat="47.30376" lon="-2.18427">
        <ele>18</ele>
        <time>2020-04-09T14:34:04.000Z</time>
      </trkpt>
      <trkpt lat="47.30373" lon="-2.18425">
        <ele>18.2</ele>
        <time>2020-04-09T14:34:05.000Z</time>
      </trkpt>
      <trkpt lat="47.3037" lon="-2.18424">
        <ele>18.4</ele>
        <time>2020-04-09T14:34:06.000Z</time>
      </trkpt>
      <trkpt lat="47.3037" lon="-2.18424">
        <ele>18.4</ele>
        <time>2020-04-09T14:34:07.000Z</time>
      </trkpt>
      <trkpt lat="47.30368" lon="-2.18423">
        <ele>18.6</ele>
        <time>2020-04-09T14:34:08.000Z</time>
      </trkpt>
      <trkpt lat="47.30366" lon="-2.18422">
        <ele>18.4</ele>
        <time>2020-04-09T14:34:09.000Z</time>
      </trkpt>
      <trkpt lat="47.30364" lon="-2.18422">
        <ele>18.6</ele>
        <time>2020-04-09T14:34:10.000Z</time>
      </trkpt>
      <trkpt lat="47.30364" lon="-2.18422">
        <ele>18.6</ele>
        <time>2020-04-09T14:34:11.000Z</time>
      </trkpt>
      <trkpt lat="47.30363" lon="-2.18421">
        <ele>18.8</ele>
        <time>2020-04-09T14:34:12.000Z</time>
      </trkpt>
      <trkpt lat="47.30363" lon="-2.1842">
        <ele>18.6</ele>
        <time>2020-04-09T14:34:13.000Z</time>
      </trkpt>
      <trkpt lat="47.30362" lon="-2.18419">
        <ele>18.8</ele>
        <time>2020-04-09T14:34:14.000Z</time>
      </trkpt>
      <trkpt lat="47.3036" lon="-2.18419">
        <ele>18.8</ele>
        <time>2020-04-09T14:34:15.000Z</time>
      </trkpt>
      <trkpt lat="47.30358" lon="-2.18419">
        <ele>18.8</ele>
        <time>2020-04-09T14:34:16.000Z</time>
      </trkpt>
      <trkpt lat="47.30355" lon="-2.18419">
        <ele>18.8</ele>
        <time>2020-04-09T14:34:17.000Z</time>
      </trkpt>
      <trkpt lat="47.30352" lon="-2.18419">
        <ele>19</ele>
        <time>2020-04-09T14:34:18.000Z</time>
      </trkpt>
      <trkpt lat="47.30349" lon="-2.18419">
        <ele>19</ele>
        <time>2020-04-09T14:34:19.000Z</time>
      </trkpt>
      <trkpt lat="47.30346" lon="-2.18419">
        <ele>19</ele>
        <time>2020-04-09T14:34:20.000Z</time>
      </trkpt>
      <trkpt lat="47.30343" lon="-2.18418">
        <ele>19</ele>
        <time>2020-04-09T14:34:21.000Z</time>
      </trkpt>
      <trkpt lat="47.30339" lon="-2.18417">
        <ele>19</ele>
        <time>2020-04-09T14:34:22.000Z</time>
      </trkpt>
      <trkpt lat="47.30335" lon="-2.18416">
        <ele>19</ele>
        <time>2020-04-09T14:34:23.000Z</time>
      </trkpt>
      <trkpt lat="47.30331" lon="-2.18415">
        <ele>18.8</ele>
        <time>2020-04-09T14:34:24.000Z</time>
      </trkpt>
      <trkpt lat="47.30327" lon="-2.18414">
        <ele>18.4</ele>
        <time>2020-04-09T14:34:25.000Z</time>
      </trkpt>
      <trkpt lat="47.30322" lon="-2.18414">
        <ele>18.2</ele>
        <time>2020-04-09T14:34:26.000Z</time>
      </trkpt>
      <trkpt lat="47.30318" lon="-2.18413">
        <ele>18</ele>
        <time>2020-04-09T14:34:27.000Z</time>
      </trkpt>
      <trkpt lat="47.30313" lon="-2.18412">
        <ele>18</ele>
        <time>2020-04-09T14:34:28.000Z</time>
      </trkpt>
      <trkpt lat="47.30308" lon="-2.1841">
        <ele>17.8</ele>
        <time>2020-04-09T14:34:29.000Z</time>
      </trkpt>
      <trkpt lat="47.30304" lon="-2.18408">
        <ele>17.8</ele>
        <time>2020-04-09T14:34:30.000Z</time>
      </trkpt>
      <trkpt lat="47.30299" lon="-2.18406">
        <ele>17.6</ele>
        <time>2020-04-09T14:34:31.000Z</time>
      </trkpt>
      <trkpt lat="47.30295" lon="-2.18405">
        <ele>17.6</ele>
        <time>2020-04-09T14:34:32.000Z</time>
      </trkpt>
      <trkpt lat="47.3029" lon="-2.18403">
        <ele>17.4</ele>
        <time>2020-04-09T14:34:33.000Z</time>
      </trkpt>
      <trkpt lat="47.30286" lon="-2.184">
        <ele>17.2</ele>
        <time>2020-04-09T14:34:34.000Z</time>
      </trkpt>
      <trkpt lat="47.30284" lon="-2.18395">
        <ele>17.4</ele>
        <time>2020-04-09T14:34:35.000Z</time>
      </trkpt>
      <trkpt lat="47.30284" lon="-2.1839">
        <ele>17.4</ele>
        <time>2020-04-09T14:34:36.000Z</time>
      </trkpt>
      <trkpt lat="47.30285" lon="-2.18384">
        <ele>17.4</ele>
        <time>2020-04-09T14:34:37.000Z</time>
      </trkpt>
      <trkpt lat="47.30286" lon="-2.18377">
        <ele>17.8</ele>
        <time>2020-04-09T14:34:38.000Z</time>
      </trkpt>
      <trkpt lat="47.30286" lon="-2.18371">
        <ele>18</ele>
        <time>2020-04-09T14:34:39.000Z</time>
      </trkpt>
      <trkpt lat="47.30285" lon="-2.18366">
        <ele>18.4</ele>
        <time>2020-04-09T14:34:40.000Z</time>
      </trkpt>
      <trkpt lat="47.30283" lon="-2.18361">
        <ele>18.6</ele>
        <time>2020-04-09T14:34:41.000Z</time>
      </trkpt>
      <trkpt lat="47.3028" lon="-2.18356">
        <ele>18.6</ele>
        <time>2020-04-09T14:34:42.000Z</time>
      </trkpt>
      <trkpt lat="47.30277" lon="-2.18353">
        <ele>18.4</ele>
        <time>2020-04-09T14:34:43.000Z</time>
      </trkpt>
      <trkpt lat="47.30273" lon="-2.18351">
        <ele>18.2</ele>
        <time>2020-04-09T14:34:44.000Z</time>
      </trkpt>
      <trkpt lat="47.30269" lon="-2.18349">
        <ele>18.4</ele>
        <time>2020-04-09T14:34:45.000Z</time>
      </trkpt>
      <trkpt lat="47.30264" lon="-2.18348">
        <ele>17.8</ele>
        <time>2020-04-09T14:34:46.000Z</time>
      </trkpt>
      <trkpt lat="47.30259" lon="-2.18347">
        <ele>18</ele>
        <time>2020-04-09T14:34:47.000Z</time>
      </trkpt>
      <trkpt lat="47.30254" lon="-2.18345">
        <ele>17.6</ele>
        <time>2020-04-09T14:34:48.000Z</time>
      </trkpt>
      <trkpt lat="47.30248" lon="-2.18344">
        <ele>17.2</ele>
        <time>2020-04-09T14:34:49.000Z</time>
      </trkpt>
      <trkpt lat="47.30243" lon="-2.18342">
        <ele>17</ele>
        <time>2020-04-09T14:34:50.000Z</time>
      </trkpt>
      <trkpt lat="47.30238" lon="-2.18341">
        <ele>17.2</ele>
        <time>2020-04-09T14:34:51.000Z</time>
      </trkpt>
      <trkpt lat="47.30232" lon="-2.18339">
        <ele>17.2</ele>
        <time>2020-04-09T14:34:52.000Z</time>
      </trkpt>
      <trkpt lat="47.30227" lon="-2.18338">
        <ele>17.4</ele>
        <time>2020-04-09T14:34:53.000Z</time>
      </trkpt>
      <trkpt lat="47.30222" lon="-2.18336">
        <ele>17.4</ele>
        <time>2020-04-09T14:34:54.000Z</time>
      </trkpt>
      <trkpt lat="47.30217" lon="-2.18335">
        <ele>17.4</ele>
        <time>2020-04-09T14:34:55.000Z</time>
      </trkpt>
      <trkpt lat="47.30212" lon="-2.18333">
        <ele>17.2</ele>
        <time>2020-04-09T14:34:56.000Z</time>
      </trkpt>
      <trkpt lat="47.30208" lon="-2.18331">
        <ele>17.4</ele>
        <time>2020-04-09T14:34:57.000Z</time>
      </trkpt>
      <trkpt lat="47.30204" lon="-2.18329">
        <ele>17.2</ele>
        <time>2020-04-09T14:34:58.000Z</time>
      </trkpt>
      <trkpt lat="47.302" lon="-2.18325">
        <ele>17.2</ele>
        <time>2020-04-09T14:34:59.000Z</time>
      </trkpt>
      <trkpt lat="47.30198" lon="-2.1832">
        <ele>17.2</ele>
        <time>2020-04-09T14:35:00.000Z</time>
      </trkpt>
      <trkpt lat="47.30195" lon="-2.18315">
        <ele>17.2</ele>
        <time>2020-04-09T14:35:01.000Z</time>
      </trkpt>
      <trkpt lat="47.30193" lon="-2.18309">
        <ele>17.2</ele>
        <time>2020-04-09T14:35:02.000Z</time>
      </trkpt>
      <trkpt lat="47.3019" lon="-2.18304">
        <ele>17.2</ele>
        <time>2020-04-09T14:35:03.000Z</time>
      </trkpt>
      <trkpt lat="47.30188" lon="-2.18298">
        <ele>17.2</ele>
        <time>2020-04-09T14:35:04.000Z</time>
      </trkpt>
      <trkpt lat="47.30185" lon="-2.18293">
        <ele>17.2</ele>
        <time>2020-04-09T14:35:05.000Z</time>
      </trkpt>
      <trkpt lat="47.30182" lon="-2.18288">
        <ele>17.2</ele>
        <time>2020-04-09T14:35:06.000Z</time>
      </trkpt>
      <trkpt lat="47.30179" lon="-2.18283">
        <ele>17.6</ele>
        <time>2020-04-09T14:35:07.000Z</time>
      </trkpt>
      <trkpt lat="47.30176" lon="-2.18279">
        <ele>17.8</ele>
        <time>2020-04-09T14:35:08.000Z</time>
      </trkpt>
      <trkpt lat="47.30173" lon="-2.18277">
        <ele>17.6</ele>
        <time>2020-04-09T14:35:09.000Z</time>
      </trkpt>
      <trkpt lat="47.30169" lon="-2.18275">
        <ele>17.6</ele>
        <time>2020-04-09T14:35:10.000Z</time>
      </trkpt>
      <trkpt lat="47.30165" lon="-2.18274">
        <ele>17.6</ele>
        <time>2020-04-09T14:35:11.000Z</time>
      </trkpt>
      <trkpt lat="47.30161" lon="-2.1827">
        <ele>17.8</ele>
        <time>2020-04-09T14:35:12.000Z</time>
      </trkpt>
      <trkpt lat="47.30158" lon="-2.18264">
        <ele>17.8</ele>
        <time>2020-04-09T14:35:13.000Z</time>
      </trkpt>
      <trkpt lat="47.30155" lon="-2.1826">
        <ele>18</ele>
        <time>2020-04-09T14:35:14.000Z</time>
      </trkpt>
      <trkpt lat="47.30152" lon="-2.18255">
        <ele>18.2</ele>
        <time>2020-04-09T14:35:15.000Z</time>
      </trkpt>
      <trkpt lat="47.30149" lon="-2.1825">
        <ele>18.4</ele>
        <time>2020-04-09T14:35:16.000Z</time>
      </trkpt>
      <trkpt lat="47.30146" lon="-2.18245">
        <ele>18.4</ele>
        <time>2020-04-09T14:35:17.000Z</time>
      </trkpt>
      <trkpt lat="47.30144" lon="-2.1824">
        <ele>18.4</ele>
        <time>2020-04-09T14:35:18.000Z</time>
      </trkpt>
      <trkpt lat="47.30141" lon="-2.18234">
        <ele>18.4</ele>
        <time>2020-04-09T14:35:19.000Z</time>
      </trkpt>
      <trkpt lat="47.30137" lon="-2.18229">
        <ele>18.4</ele>
        <time>2020-04-09T14:35:20.000Z</time>
      </trkpt>
      <trkpt lat="47.30134" lon="-2.18225">
        <ele>18.4</ele>
        <time>2020-04-09T14:35:21.000Z</time>
      </trkpt>
      <trkpt lat="47.30131" lon="-2.1822">
        <ele>18.4</ele>
        <time>2020-04-09T14:35:22.000Z</time>
      </trkpt>
      <trkpt lat="47.30127" lon="-2.18216">
        <ele>18.4</ele>
        <time>2020-04-09T14:35:23.000Z</time>
      </trkpt>
      <trkpt lat="47.30124" lon="-2.18213">
        <ele>18.2</ele>
        <time>2020-04-09T14:35:24.000Z</time>
      </trkpt>
      <trkpt lat="47.3012" lon="-2.1821">
        <ele>18.6</ele>
        <time>2020-04-09T14:35:25.000Z</time>
      </trkpt>
      <trkpt lat="47.30116" lon="-2.1821">
        <ele>18.6</ele>
        <time>2020-04-09T14:35:26.000Z</time>
      </trkpt>
      <trkpt lat="47.30112" lon="-2.18209">
        <ele>18.6</ele>
        <time>2020-04-09T14:35:27.000Z</time>
      </trkpt>
      <trkpt lat="47.30108" lon="-2.18209">
        <ele>18.8</ele>
        <time>2020-04-09T14:35:28.000Z</time>
      </trkpt>
      <trkpt lat="47.30104" lon="-2.1821">
        <ele>18.6</ele>
        <time>2020-04-09T14:35:29.000Z</time>
      </trkpt>
      <trkpt lat="47.301" lon="-2.18211">
        <ele>18.4</ele>
        <time>2020-04-09T14:35:30.000Z</time>
      </trkpt>
      <trkpt lat="47.30096" lon="-2.18213">
        <ele>18.6</ele>
        <time>2020-04-09T14:35:31.000Z</time>
      </trkpt>
      <trkpt lat="47.30092" lon="-2.18214">
        <ele>18.6</ele>
        <time>2020-04-09T14:35:32.000Z</time>
      </trkpt>
      <trkpt lat="47.30088" lon="-2.18216">
        <ele>18.6</ele>
        <time>2020-04-09T14:35:33.000Z</time>
      </trkpt>
      <trkpt lat="47.30084" lon="-2.18217">
        <ele>18.6</ele>
        <time>2020-04-09T14:35:34.000Z</time>
      </trkpt>
      <trkpt lat="47.3008" lon="-2.1822">
        <ele>18.6</ele>
        <time>2020-04-09T14:35:35.000Z</time>
      </trkpt>
      <trkpt lat="47.30076" lon="-2.18222">
        <ele>18.6</ele>
        <time>2020-04-09T14:35:36.000Z</time>
      </trkpt>
      <trkpt lat="47.30072" lon="-2.18225">
        <ele>18.6</ele>
        <time>2020-04-09T14:35:37.000Z</time>
      </trkpt>
      <trkpt lat="47.30068" lon="-2.18229">
        <ele>18.6</ele>
        <time>2020-04-09T14:35:38.000Z</time>
      </trkpt>
      <trkpt lat="47.30065" lon="-2.18233">
        <ele>18.6</ele>
        <time>2020-04-09T14:35:39.000Z</time>
      </trkpt>
      <trkpt lat="47.30062" lon="-2.18237">
        <ele>18.6</ele>
        <time>2020-04-09T14:35:40.000Z</time>
      </trkpt>
      <trkpt lat="47.30059" lon="-2.18242">
        <ele>18.4</ele>
        <time>2020-04-09T14:35:41.000Z</time>
      </trkpt>
      <trkpt lat="47.30056" lon="-2.18247">
        <ele>18.6</ele>
        <time>2020-04-09T14:35:42.000Z</time>
      </trkpt>
      <trkpt lat="47.30053" lon="-2.18253">
        <ele>18.4</ele>
        <time>2020-04-09T14:35:43.000Z</time>
      </trkpt>
      <trkpt lat="47.30051" lon="-2.18259">
        <ele>18.2</ele>
        <time>2020-04-09T14:35:44.000Z</time>
      </trkpt>
      <trkpt lat="47.30047" lon="-2.18265">
        <ele>18</ele>
        <time>2020-04-09T14:35:45.000Z</time>
      </trkpt>
      <trkpt lat="47.30044" lon="-2.18272">
        <ele>17.6</ele>
        <time>2020-04-09T14:35:46.000Z</time>
      </trkpt>
      <trkpt lat="47.3004" lon="-2.18277">
        <ele>17.6</ele>
        <time>2020-04-09T14:35:47.000Z</time>
      </trkpt>
      <trkpt lat="47.30036" lon="-2.18282">
        <ele>17.6</ele>
        <time>2020-04-09T14:35:48.000Z</time>
      </trkpt>
      <trkpt lat="47.30031" lon="-2.18286">
        <ele>17.4</ele>
        <time>2020-04-09T14:35:49.000Z</time>
      </trkpt>
      <trkpt lat="47.30027" lon="-2.1829">
        <ele>17.4</ele>
        <time>2020-04-09T14:35:50.000Z</time>
      </trkpt>
      <trkpt lat="47.30022" lon="-2.18293">
        <ele>17.4</ele>
        <time>2020-04-09T14:35:51.000Z</time>
      </trkpt>
      <trkpt lat="47.30018" lon="-2.18297">
        <ele>17.2</ele>
        <time>2020-04-09T14:35:52.000Z</time>
      </trkpt>
      <trkpt lat="47.30014" lon="-2.183">
        <ele>17.4</ele>
        <time>2020-04-09T14:35:53.000Z</time>
      </trkpt>
      <trkpt lat="47.3001" lon="-2.18303">
        <ele>17</ele>
        <time>2020-04-09T14:35:54.000Z</time>
      </trkpt>
      <trkpt lat="47.30006" lon="-2.18306">
        <ele>17.4</ele>
        <time>2020-04-09T14:35:55.000Z</time>
      </trkpt>
      <trkpt lat="47.30003" lon="-2.1831">
        <ele>17.6</ele>
        <time>2020-04-09T14:35:56.000Z</time>
      </trkpt>
      <trkpt lat="47.29999" lon="-2.18312">
        <ele>17.4</ele>
        <time>2020-04-09T14:35:57.000Z</time>
      </trkpt>
      <trkpt lat="47.29995" lon="-2.18312">
        <ele>17.4</ele>
        <time>2020-04-09T14:35:58.000Z</time>
      </trkpt>
      <trkpt lat="47.2999" lon="-2.18311">
        <ele>17</ele>
        <time>2020-04-09T14:35:59.000Z</time>
      </trkpt>
      <trkpt lat="47.29986" lon="-2.1831">
        <ele>17.2</ele>
        <time>2020-04-09T14:36:00.000Z</time>
      </trkpt>
      <trkpt lat="47.29981" lon="-2.18309">
        <ele>17</ele>
        <time>2020-04-09T14:36:01.000Z</time>
      </trkpt>
      <trkpt lat="47.29977" lon="-2.18309">
        <ele>17</ele>
        <time>2020-04-09T14:36:02.000Z</time>
      </trkpt>
      <trkpt lat="47.29972" lon="-2.18309">
        <ele>17.2</ele>
        <time>2020-04-09T14:36:03.000Z</time>
      </trkpt>
      <trkpt lat="47.29968" lon="-2.18309">
        <ele>17</ele>
        <time>2020-04-09T14:36:04.000Z</time>
      </trkpt>
      <trkpt lat="47.29963" lon="-2.18309">
        <ele>17</ele>
        <time>2020-04-09T14:36:05.000Z</time>
      </trkpt>
      <trkpt lat="47.29958" lon="-2.18308">
        <ele>17</ele>
        <time>2020-04-09T14:36:06.000Z</time>
      </trkpt>
      <trkpt lat="47.29954" lon="-2.18307">
        <ele>17.2</ele>
        <time>2020-04-09T14:36:07.000Z</time>
      </trkpt>
      <trkpt lat="47.29949" lon="-2.18306">
        <ele>17.2</ele>
        <time>2020-04-09T14:36:08.000Z</time>
      </trkpt>
      <trkpt lat="47.29944" lon="-2.18306">
        <ele>17.2</ele>
        <time>2020-04-09T14:36:09.000Z</time>
      </trkpt>
      <trkpt lat="47.2994" lon="-2.18307">
        <ele>17.2</ele>
        <time>2020-04-09T14:36:10.000Z</time>
      </trkpt>
      <trkpt lat="47.29936" lon="-2.18311">
        <ele>17.6</ele>
        <time>2020-04-09T14:36:11.000Z</time>
      </trkpt>
      <trkpt lat="47.29934" lon="-2.18316">
        <ele>18</ele>
        <time>2020-04-09T14:36:12.000Z</time>
      </trkpt>
      <trkpt lat="47.29933" lon="-2.18321">
        <ele>17.8</ele>
        <time>2020-04-09T14:36:13.000Z</time>
      </trkpt>
      <trkpt lat="47.29931" lon="-2.18326">
        <ele>17.8</ele>
        <time>2020-04-09T14:36:14.000Z</time>
      </trkpt>
      <trkpt lat="47.2993" lon="-2.1833">
        <ele>17.8</ele>
        <time>2020-04-09T14:36:15.000Z</time>
      </trkpt>
      <trkpt lat="47.29928" lon="-2.18334">
        <ele>17.8</ele>
        <time>2020-04-09T14:36:16.000Z</time>
      </trkpt>
      <trkpt lat="47.29925" lon="-2.18335">
        <ele>17.8</ele>
        <time>2020-04-09T14:36:17.000Z</time>
      </trkpt>
      <trkpt lat="47.29922" lon="-2.18334">
        <ele>17.6</ele>
        <time>2020-04-09T14:36:18.000Z</time>
      </trkpt>
      <trkpt lat="47.29919" lon="-2.18332">
        <ele>17.6</ele>
        <time>2020-04-09T14:36:19.000Z</time>
      </trkpt>
      <trkpt lat="47.29916" lon="-2.18329">
        <ele>17.4</ele>
        <time>2020-04-09T14:36:20.000Z</time>
      </trkpt>
      <trkpt lat="47.29913" lon="-2.18325">
        <ele>17.6</ele>
        <time>2020-04-09T14:36:21.000Z</time>
      </trkpt>
      <trkpt lat="47.29909" lon="-2.18323">
        <ele>17.6</ele>
        <time>2020-04-09T14:36:22.000Z</time>
      </trkpt>
      <trkpt lat="47.29905" lon="-2.18323">
        <ele>17.4</ele>
        <time>2020-04-09T14:36:23.000Z</time>
      </trkpt>
      <trkpt lat="47.29902" lon="-2.18325">
        <ele>17.6</ele>
        <time>2020-04-09T14:36:24.000Z</time>
      </trkpt>
      <trkpt lat="47.29899" lon="-2.18328">
        <ele>17.6</ele>
        <time>2020-04-09T14:36:25.000Z</time>
      </trkpt>
      <trkpt lat="47.29896" lon="-2.18333">
        <ele>17.8</ele>
        <time>2020-04-09T14:36:26.000Z</time>
      </trkpt>
      <trkpt lat="47.29893" lon="-2.18337">
        <ele>17.8</ele>
        <time>2020-04-09T14:36:27.000Z</time>
      </trkpt>
      <trkpt lat="47.29889" lon="-2.18341">
        <ele>18.2</ele>
        <time>2020-04-09T14:36:28.000Z</time>
      </trkpt>
      <trkpt lat="47.29886" lon="-2.18344">
        <ele>18.2</ele>
        <time>2020-04-09T14:36:29.000Z</time>
      </trkpt>
      <trkpt lat="47.29882" lon="-2.18348">
        <ele>17.8</ele>
        <time>2020-04-09T14:36:30.000Z</time>
      </trkpt>
      <trkpt lat="47.29879" lon="-2.18352">
        <ele>17.6</ele>
        <time>2020-04-09T14:36:31.000Z</time>
      </trkpt>
      <trkpt lat="47.29875" lon="-2.18357">
        <ele>17.6</ele>
        <time>2020-04-09T14:36:32.000Z</time>
      </trkpt>
      <trkpt lat="47.29871" lon="-2.1836">
        <ele>17.4</ele>
        <time>2020-04-09T14:36:33.000Z</time>
      </trkpt>
      <trkpt lat="47.29867" lon="-2.18364">
        <ele>17.6</ele>
        <time>2020-04-09T14:36:34.000Z</time>
      </trkpt>
      <trkpt lat="47.29863" lon="-2.18367">
        <ele>17.4</ele>
        <time>2020-04-09T14:36:35.000Z</time>
      </trkpt>
      <trkpt lat="47.2986" lon="-2.1837">
        <ele>17.8</ele>
        <time>2020-04-09T14:36:36.000Z</time>
      </trkpt>
      <trkpt lat="47.29856" lon="-2.18373">
        <ele>17.6</ele>
        <time>2020-04-09T14:36:37.000Z</time>
      </trkpt>
      <trkpt lat="47.29852" lon="-2.18376">
        <ele>17.6</ele>
        <time>2020-04-09T14:36:38.000Z</time>
      </trkpt>
      <trkpt lat="47.29848" lon="-2.18378">
        <ele>17.6</ele>
        <time>2020-04-09T14:36:39.000Z</time>
      </trkpt>
      <trkpt lat="47.29845" lon="-2.1838">
        <ele>17.6</ele>
        <time>2020-04-09T14:36:40.000Z</time>
      </trkpt>
      <trkpt lat="47.29842" lon="-2.18382">
        <ele>17.8</ele>
        <time>2020-04-09T14:36:41.000Z</time>
      </trkpt>
      <trkpt lat="47.29839" lon="-2.18386">
        <ele>17.8</ele>
        <time>2020-04-09T14:36:42.000Z</time>
      </trkpt>
      <trkpt lat="47.29837" lon="-2.1839">
        <ele>18</ele>
        <time>2020-04-09T14:36:43.000Z</time>
      </trkpt>
      <trkpt lat="47.29835" lon="-2.18395">
        <ele>18.2</ele>
        <time>2020-04-09T14:36:44.000Z</time>
      </trkpt>
      <trkpt lat="47.29834" lon="-2.18399">
        <ele>18</ele>
        <time>2020-04-09T14:36:45.000Z</time>
      </trkpt>
      <trkpt lat="47.29832" lon="-2.18403">
        <ele>18</ele>
        <time>2020-04-09T14:36:46.000Z</time>
      </trkpt>
      <trkpt lat="47.29831" lon="-2.18406">
        <ele>18</ele>
        <time>2020-04-09T14:36:47.000Z</time>
      </trkpt>
      <trkpt lat="47.29829" lon="-2.1841">
        <ele>18.2</ele>
        <time>2020-04-09T14:36:48.000Z</time>
      </trkpt>
      <trkpt lat="47.29826" lon="-2.18412">
        <ele>18.2</ele>
        <time>2020-04-09T14:36:49.000Z</time>
      </trkpt>
      <trkpt lat="47.29822" lon="-2.18412">
        <ele>18.2</ele>
        <time>2020-04-09T14:36:50.000Z</time>
      </trkpt>
      <trkpt lat="47.2982" lon="-2.18409">
        <ele>18.4</ele>
        <time>2020-04-09T14:36:51.000Z</time>
      </trkpt>
      <trkpt lat="47.29817" lon="-2.18405">
        <ele>18.4</ele>
        <time>2020-04-09T14:36:52.000Z</time>
      </trkpt>
      <trkpt lat="47.29814" lon="-2.184">
        <ele>18.4</ele>
        <time>2020-04-09T14:36:53.000Z</time>
      </trkpt>
      <trkpt lat="47.29811" lon="-2.18396">
        <ele>18.4</ele>
        <time>2020-04-09T14:36:54.000Z</time>
      </trkpt>
      <trkpt lat="47.29809" lon="-2.18391">
        <ele>18.6</ele>
        <time>2020-04-09T14:36:55.000Z</time>
      </trkpt>
      <trkpt lat="47.29806" lon="-2.18387">
        <ele>19</ele>
        <time>2020-04-09T14:36:56.000Z</time>
      </trkpt>
      <trkpt lat="47.29803" lon="-2.18384">
        <ele>19.2</ele>
        <time>2020-04-09T14:36:57.000Z</time>
      </trkpt>
      <trkpt lat="47.298" lon="-2.18385">
        <ele>19.4</ele>
        <time>2020-04-09T14:36:58.000Z</time>
      </trkpt>
      <trkpt lat="47.29798" lon="-2.18387">
        <ele>19.6</ele>
        <time>2020-04-09T14:36:59.000Z</time>
      </trkpt>
      <trkpt lat="47.29794" lon="-2.18388">
        <ele>19.8</ele>
        <time>2020-04-09T14:37:00.000Z</time>
      </trkpt>
      <trkpt lat="47.29791" lon="-2.1839">
        <ele>19.6</ele>
        <time>2020-04-09T14:37:01.000Z</time>
      </trkpt>
      <trkpt lat="47.29787" lon="-2.18392">
        <ele>19.8</ele>
        <time>2020-04-09T14:37:02.000Z</time>
      </trkpt>
      <trkpt lat="47.29784" lon="-2.18395">
        <ele>19.8</ele>
        <time>2020-04-09T14:37:03.000Z</time>
      </trkpt>
      <trkpt lat="47.2978" lon="-2.18397">
        <ele>19.8</ele>
        <time>2020-04-09T14:37:04.000Z</time>
      </trkpt>
      <trkpt lat="47.29776" lon="-2.18399">
        <ele>19.6</ele>
        <time>2020-04-09T14:37:05.000Z</time>
      </trkpt>
      <trkpt lat="47.29772" lon="-2.18402">
        <ele>19.6</ele>
        <time>2020-04-09T14:37:06.000Z</time>
      </trkpt>
      <trkpt lat="47.29768" lon="-2.18404">
        <ele>19.6</ele>
        <time>2020-04-09T14:37:07.000Z</time>
      </trkpt>
      <trkpt lat="47.29764" lon="-2.18407">
        <ele>19.6</ele>
        <time>2020-04-09T14:37:08.000Z</time>
      </trkpt>
      <trkpt lat="47.2976" lon="-2.1841">
        <ele>19.6</ele>
        <time>2020-04-09T14:37:09.000Z</time>
      </trkpt>
      <trkpt lat="47.29757" lon="-2.18412">
        <ele>19.6</ele>
        <time>2020-04-09T14:37:10.000Z</time>
      </trkpt>
      <trkpt lat="47.29753" lon="-2.18414">
        <ele>19.6</ele>
        <time>2020-04-09T14:37:11.000Z</time>
      </trkpt>
      <trkpt lat="47.29748" lon="-2.18416">
        <ele>19.6</ele>
        <time>2020-04-09T14:37:12.000Z</time>
      </trkpt>
      <trkpt lat="47.29745" lon="-2.18418">
        <ele>19.4</ele>
        <time>2020-04-09T14:37:13.000Z</time>
      </trkpt>
      <trkpt lat="47.29741" lon="-2.18421">
        <ele>19.4</ele>
        <time>2020-04-09T14:37:14.000Z</time>
      </trkpt>
      <trkpt lat="47.29737" lon="-2.18423">
        <ele>19.6</ele>
        <time>2020-04-09T14:37:15.000Z</time>
      </trkpt>
      <trkpt lat="47.29733" lon="-2.18426">
        <ele>19.6</ele>
        <time>2020-04-09T14:37:16.000Z</time>
      </trkpt>
      <trkpt lat="47.29729" lon="-2.18429">
        <ele>19.6</ele>
        <time>2020-04-09T14:37:17.000Z</time>
      </trkpt>
      <trkpt lat="47.29725" lon="-2.18431">
        <ele>19.6</ele>
        <time>2020-04-09T14:37:18.000Z</time>
      </trkpt>
      <trkpt lat="47.29722" lon="-2.18433">
        <ele>19.4</ele>
        <time>2020-04-09T14:37:19.000Z</time>
      </trkpt>
      <trkpt lat="47.29718" lon="-2.18436">
        <ele>19.4</ele>
        <time>2020-04-09T14:37:20.000Z</time>
      </trkpt>
      <trkpt lat="47.29714" lon="-2.18438">
        <ele>19.4</ele>
        <time>2020-04-09T14:37:21.000Z</time>
      </trkpt>
      <trkpt lat="47.2971" lon="-2.18441">
        <ele>19.4</ele>
        <time>2020-04-09T14:37:22.000Z</time>
      </trkpt>
      <trkpt lat="47.29706" lon="-2.18444">
        <ele>19.4</ele>
        <time>2020-04-09T14:37:23.000Z</time>
      </trkpt>
      <trkpt lat="47.29703" lon="-2.18446">
        <ele>19.4</ele>
        <time>2020-04-09T14:37:24.000Z</time>
      </trkpt>
      <trkpt lat="47.29699" lon="-2.18448">
        <ele>19.6</ele>
        <time>2020-04-09T14:37:25.000Z</time>
      </trkpt>
      <trkpt lat="47.29695" lon="-2.18451">
        <ele>19.6</ele>
        <time>2020-04-09T14:37:26.000Z</time>
      </trkpt>
      <trkpt lat="47.29691" lon="-2.18453">
        <ele>19.8</ele>
        <time>2020-04-09T14:37:27.000Z</time>
      </trkpt>
      <trkpt lat="47.29688" lon="-2.18456">
        <ele>19.6</ele>
        <time>2020-04-09T14:37:28.000Z</time>
      </trkpt>
      <trkpt lat="47.29684" lon="-2.18459">
        <ele>19.8</ele>
        <time>2020-04-09T14:37:29.000Z</time>
      </trkpt>
      <trkpt lat="47.2968" lon="-2.18461">
        <ele>19.8</ele>
        <time>2020-04-09T14:37:30.000Z</time>
      </trkpt>
      <trkpt lat="47.29676" lon="-2.18464">
        <ele>19.6</ele>
        <time>2020-04-09T14:37:31.000Z</time>
      </trkpt>
      <trkpt lat="47.29672" lon="-2.18466">
        <ele>19.6</ele>
        <time>2020-04-09T14:37:32.000Z</time>
      </trkpt>
      <trkpt lat="47.29668" lon="-2.18469">
        <ele>19.6</ele>
        <time>2020-04-09T14:37:33.000Z</time>
      </trkpt>
      <trkpt lat="47.29664" lon="-2.18471">
        <ele>19.8</ele>
        <time>2020-04-09T14:37:34.000Z</time>
      </trkpt>
      <trkpt lat="47.29659" lon="-2.18474">
        <ele>19.8</ele>
        <time>2020-04-09T14:37:35.000Z</time>
      </trkpt>
      <trkpt lat="47.29655" lon="-2.18476">
        <ele>19.8</ele>
        <time>2020-04-09T14:37:36.000Z</time>
      </trkpt>
      <trkpt lat="47.29651" lon="-2.18479">
        <ele>19.8</ele>
        <time>2020-04-09T14:37:37.000Z</time>
      </trkpt>
      <trkpt lat="47.29647" lon="-2.18481">
        <ele>20</ele>
        <time>2020-04-09T14:37:38.000Z</time>
      </trkpt>
      <trkpt lat="47.29642" lon="-2.18484">
        <ele>19.8</ele>
        <time>2020-04-09T14:37:39.000Z</time>
      </trkpt>
      <trkpt lat="47.29638" lon="-2.18487">
        <ele>20</ele>
        <time>2020-04-09T14:37:40.000Z</time>
      </trkpt>
      <trkpt lat="47.29635" lon="-2.18489">
        <ele>20</ele>
        <time>2020-04-09T14:37:41.000Z</time>
      </trkpt>
      <trkpt lat="47.29631" lon="-2.18492">
        <ele>20</ele>
        <time>2020-04-09T14:37:42.000Z</time>
      </trkpt>
      <trkpt lat="47.29627" lon="-2.18494">
        <ele>20</ele>
        <time>2020-04-09T14:37:43.000Z</time>
      </trkpt>
      <trkpt lat="47.29624" lon="-2.18496">
        <ele>20</ele>
        <time>2020-04-09T14:37:44.000Z</time>
      </trkpt>
      <trkpt lat="47.2962" lon="-2.18499">
        <ele>20.2</ele>
        <time>2020-04-09T14:37:45.000Z</time>
      </trkpt>
      <trkpt lat="47.29616" lon="-2.18501">
        <ele>20</ele>
        <time>2020-04-09T14:37:46.000Z</time>
      </trkpt>
      <trkpt lat="47.29611" lon="-2.18503">
        <ele>20</ele>
        <time>2020-04-09T14:37:47.000Z</time>
      </trkpt>
      <trkpt lat="47.29607" lon="-2.18505">
        <ele>19.8</ele>
        <time>2020-04-09T14:37:48.000Z</time>
      </trkpt>
      <trkpt lat="47.29603" lon="-2.18508">
        <ele>19.8</ele>
        <time>2020-04-09T14:37:49.000Z</time>
      </trkpt>
      <trkpt lat="47.29599" lon="-2.18511">
        <ele>19.8</ele>
        <time>2020-04-09T14:37:50.000Z</time>
      </trkpt>
      <trkpt lat="47.29595" lon="-2.18513">
        <ele>20</ele>
        <time>2020-04-09T14:37:51.000Z</time>
      </trkpt>
      <trkpt lat="47.2959" lon="-2.18516">
        <ele>20</ele>
        <time>2020-04-09T14:37:52.000Z</time>
      </trkpt>
      <trkpt lat="47.29586" lon="-2.18519">
        <ele>20.2</ele>
        <time>2020-04-09T14:37:53.000Z</time>
      </trkpt>
      <trkpt lat="47.29582" lon="-2.18521">
        <ele>20</ele>
        <time>2020-04-09T14:37:54.000Z</time>
      </trkpt>
      <trkpt lat="47.29578" lon="-2.18524">
        <ele>20.2</ele>
        <time>2020-04-09T14:37:55.000Z</time>
      </trkpt>
      <trkpt lat="47.29574" lon="-2.18527">
        <ele>20</ele>
        <time>2020-04-09T14:37:56.000Z</time>
      </trkpt>
      <trkpt lat="47.2957" lon="-2.18529">
        <ele>20</ele>
        <time>2020-04-09T14:37:57.000Z</time>
      </trkpt>
      <trkpt lat="47.29566" lon="-2.18532">
        <ele>20.2</ele>
        <time>2020-04-09T14:37:58.000Z</time>
      </trkpt>
      <trkpt lat="47.29562" lon="-2.18534">
        <ele>20.2</ele>
        <time>2020-04-09T14:37:59.000Z</time>
      </trkpt>
      <trkpt lat="47.29553" lon="-2.18539">
        <ele>20</ele>
        <time>2020-04-09T14:38:01.000Z</time>
      </trkpt>
      <trkpt lat="47.29549" lon="-2.18541">
        <ele>20</ele>
        <time>2020-04-09T14:38:02.000Z</time>
      </trkpt>
      <trkpt lat="47.29545" lon="-2.18544">
        <ele>20</ele>
        <time>2020-04-09T14:38:03.000Z</time>
      </trkpt>
      <trkpt lat="47.29541" lon="-2.18546">
        <ele>20</ele>
        <time>2020-04-09T14:38:04.000Z</time>
      </trkpt>
      <trkpt lat="47.29537" lon="-2.18549">
        <ele>19.8</ele>
        <time>2020-04-09T14:38:05.000Z</time>
      </trkpt>
      <trkpt lat="47.29533" lon="-2.18552">
        <ele>20</ele>
        <time>2020-04-09T14:38:06.000Z</time>
      </trkpt>
      <trkpt lat="47.29529" lon="-2.18555">
        <ele>20</ele>
        <time>2020-04-09T14:38:07.000Z</time>
      </trkpt>
      <trkpt lat="47.29521" lon="-2.18562">
        <ele>20</ele>
        <time>2020-04-09T14:38:08.000Z</time>
      </trkpt>
      <trkpt lat="47.29517" lon="-2.18565">
        <ele>20</ele>
        <time>2020-04-09T14:38:09.000Z</time>
      </trkpt>
      <trkpt lat="47.29513" lon="-2.1857">
        <ele>20</ele>
        <time>2020-04-09T14:38:10.000Z</time>
      </trkpt>
      <trkpt lat="47.2951" lon="-2.18574">
        <ele>20.2</ele>
        <time>2020-04-09T14:38:11.000Z</time>
      </trkpt>
      <trkpt lat="47.29506" lon="-2.18579">
        <ele>20.2</ele>
        <time>2020-04-09T14:38:12.000Z</time>
      </trkpt>
      <trkpt lat="47.29502" lon="-2.18584">
        <ele>20.2</ele>
        <time>2020-04-09T14:38:13.000Z</time>
      </trkpt>
      <trkpt lat="47.29499" lon="-2.18589">
        <ele>20</ele>
        <time>2020-04-09T14:38:14.000Z</time>
      </trkpt>
      <trkpt lat="47.29495" lon="-2.18594">
        <ele>20</ele>
        <time>2020-04-09T14:38:15.000Z</time>
      </trkpt>
      <trkpt lat="47.29492" lon="-2.186">
        <ele>20</ele>
        <time>2020-04-09T14:38:16.000Z</time>
      </trkpt>
      <trkpt lat="47.29489" lon="-2.18605">
        <ele>19.6</ele>
        <time>2020-04-09T14:38:18.000Z</time>
      </trkpt>
      <trkpt lat="47.29483" lon="-2.18616">
        <ele>19.4</ele>
        <time>2020-04-09T14:38:19.000Z</time>
      </trkpt>
      <trkpt lat="47.29481" lon="-2.18622">
        <ele>19.6</ele>
        <time>2020-04-09T14:38:20.000Z</time>
      </trkpt>
      <trkpt lat="47.29479" lon="-2.18628">
        <ele>19.6</ele>
        <time>2020-04-09T14:38:21.000Z</time>
      </trkpt>
      <trkpt lat="47.29476" lon="-2.18634">
        <ele>19.6</ele>
        <time>2020-04-09T14:38:22.000Z</time>
      </trkpt>
      <trkpt lat="47.29474" lon="-2.18641">
        <ele>19.6</ele>
        <time>2020-04-09T14:38:23.000Z</time>
      </trkpt>
      <trkpt lat="47.29472" lon="-2.18647">
        <ele>19.4</ele>
        <time>2020-04-09T14:38:24.000Z</time>
      </trkpt>
      <trkpt lat="47.29469" lon="-2.18653">
        <ele>19.4</ele>
        <time>2020-04-09T14:38:25.000Z</time>
      </trkpt>
      <trkpt lat="47.29467" lon="-2.18659">
        <ele>19.4</ele>
        <time>2020-04-09T14:38:26.000Z</time>
      </trkpt>
      <trkpt lat="47.29465" lon="-2.18665">
        <ele>19.4</ele>
        <time>2020-04-09T14:38:27.000Z</time>
      </trkpt>
      <trkpt lat="47.29462" lon="-2.18672">
        <ele>19.4</ele>
        <time>2020-04-09T14:38:28.000Z</time>
      </trkpt>
      <trkpt lat="47.2946" lon="-2.18678">
        <ele>19.4</ele>
        <time>2020-04-09T14:38:29.000Z</time>
      </trkpt>
      <trkpt lat="47.29458" lon="-2.18684">
        <ele>19.2</ele>
        <time>2020-04-09T14:38:30.000Z</time>
      </trkpt>
      <trkpt lat="47.29458" lon="-2.18684">
        <ele>19.4</ele>
        <time>2020-04-09T14:38:31.000Z</time>
      </trkpt>
      <trkpt lat="47.29456" lon="-2.18691">
        <ele>19.2</ele>
        <time>2020-04-09T14:38:32.000Z</time>
      </trkpt>
      <trkpt lat="47.29453" lon="-2.18697">
        <ele>19.4</ele>
        <time>2020-04-09T14:38:33.000Z</time>
      </trkpt>
      <trkpt lat="47.29451" lon="-2.18703">
        <ele>19.4</ele>
        <time>2020-04-09T14:38:34.000Z</time>
      </trkpt>
      <trkpt lat="47.29449" lon="-2.1871">
        <ele>19.4</ele>
        <time>2020-04-09T14:38:35.000Z</time>
      </trkpt>
      <trkpt lat="47.29447" lon="-2.18717">
        <ele>19.2</ele>
        <time>2020-04-09T14:38:36.000Z</time>
      </trkpt>
      <trkpt lat="47.29445" lon="-2.18723">
        <ele>19.2</ele>
        <time>2020-04-09T14:38:38.000Z</time>
      </trkpt>
      <trkpt lat="47.29441" lon="-2.18737">
        <ele>19.2</ele>
        <time>2020-04-09T14:38:39.000Z</time>
      </trkpt>
      <trkpt lat="47.29439" lon="-2.18743">
        <ele>19.2</ele>
        <time>2020-04-09T14:38:40.000Z</time>
      </trkpt>
      <trkpt lat="47.29437" lon="-2.1875">
        <ele>19</ele>
        <time>2020-04-09T14:38:41.000Z</time>
      </trkpt>
      <trkpt lat="47.29435" lon="-2.18756">
        <ele>19</ele>
        <time>2020-04-09T14:38:42.000Z</time>
      </trkpt>
      <trkpt lat="47.29434" lon="-2.18763">
        <ele>18.8</ele>
        <time>2020-04-09T14:38:43.000Z</time>
      </trkpt>
      <trkpt lat="47.29432" lon="-2.1877">
        <ele>18.6</ele>
        <time>2020-04-09T14:38:44.000Z</time>
      </trkpt>
      <trkpt lat="47.2943" lon="-2.18776">
        <ele>18.6</ele>
        <time>2020-04-09T14:38:45.000Z</time>
      </trkpt>
      <trkpt lat="47.29428" lon="-2.18783">
        <ele>18.6</ele>
        <time>2020-04-09T14:38:46.000Z</time>
      </trkpt>
      <trkpt lat="47.29426" lon="-2.18789">
        <ele>18.8</ele>
        <time>2020-04-09T14:38:47.000Z</time>
      </trkpt>
      <trkpt lat="47.29424" lon="-2.18795">
        <ele>18.6</ele>
        <time>2020-04-09T14:38:48.000Z</time>
      </trkpt>
      <trkpt lat="47.29422" lon="-2.18802">
        <ele>18.8</ele>
        <time>2020-04-09T14:38:49.000Z</time>
      </trkpt>
      <trkpt lat="47.2942" lon="-2.18808">
        <ele>18.6</ele>
        <time>2020-04-09T14:38:50.000Z</time>
      </trkpt>
      <trkpt lat="47.29418" lon="-2.18814">
        <ele>18.6</ele>
        <time>2020-04-09T14:38:51.000Z</time>
      </trkpt>
      <trkpt lat="47.29416" lon="-2.1882">
        <ele>18.6</ele>
        <time>2020-04-09T14:38:52.000Z</time>
      </trkpt>
      <trkpt lat="47.29414" lon="-2.18826">
        <ele>18.8</ele>
        <time>2020-04-09T14:38:53.000Z</time>
      </trkpt>
      <trkpt lat="47.29412" lon="-2.18832">
        <ele>18.8</ele>
        <time>2020-04-09T14:38:54.000Z</time>
      </trkpt>
      <trkpt lat="47.29411" lon="-2.18838">
        <ele>18.8</ele>
        <time>2020-04-09T14:38:55.000Z</time>
      </trkpt>
      <trkpt lat="47.29409" lon="-2.18843">
        <ele>19</ele>
        <time>2020-04-09T14:38:56.000Z</time>
      </trkpt>
      <trkpt lat="47.29408" lon="-2.18849">
        <ele>19</ele>
        <time>2020-04-09T14:38:57.000Z</time>
      </trkpt>
      <trkpt lat="47.29407" lon="-2.18855">
        <ele>18.8</ele>
        <time>2020-04-09T14:38:58.000Z</time>
      </trkpt>
      <trkpt lat="47.29406" lon="-2.18861">
        <ele>19</ele>
        <time>2020-04-09T14:38:59.000Z</time>
      </trkpt>
      <trkpt lat="47.29405" lon="-2.18867">
        <ele>19</ele>
        <time>2020-04-09T14:39:00.000Z</time>
      </trkpt>
      <trkpt lat="47.29403" lon="-2.18873">
        <ele>19</ele>
        <time>2020-04-09T14:39:01.000Z</time>
      </trkpt>
      <trkpt lat="47.29401" lon="-2.18877">
        <ele>19</ele>
        <time>2020-04-09T14:39:02.000Z</time>
      </trkpt>
      <trkpt lat="47.29398" lon="-2.18881">
        <ele>19.4</ele>
        <time>2020-04-09T14:39:03.000Z</time>
      </trkpt>
      <trkpt lat="47.29395" lon="-2.18885">
        <ele>19.4</ele>
        <time>2020-04-09T14:39:04.000Z</time>
      </trkpt>
      <trkpt lat="47.29392" lon="-2.18889">
        <ele>19.4</ele>
        <time>2020-04-09T14:39:05.000Z</time>
      </trkpt>
      <trkpt lat="47.29389" lon="-2.18893">
        <ele>19.2</ele>
        <time>2020-04-09T14:39:06.000Z</time>
      </trkpt>
      <trkpt lat="47.29386" lon="-2.18898">
        <ele>19</ele>
        <time>2020-04-09T14:39:07.000Z</time>
      </trkpt>
      <trkpt lat="47.29384" lon="-2.18903">
        <ele>19</ele>
        <time>2020-04-09T14:39:08.000Z</time>
      </trkpt>
      <trkpt lat="47.29381" lon="-2.18909">
        <ele>19.2</ele>
        <time>2020-04-09T14:39:09.000Z</time>
      </trkpt>
      <trkpt lat="47.29379" lon="-2.18914">
        <ele>19.2</ele>
        <time>2020-04-09T14:39:10.000Z</time>
      </trkpt>
      <trkpt lat="47.29376" lon="-2.18919">
        <ele>19.4</ele>
        <time>2020-04-09T14:39:11.000Z</time>
      </trkpt>
      <trkpt lat="47.29373" lon="-2.18924">
        <ele>19.4</ele>
        <time>2020-04-09T14:39:12.000Z</time>
      </trkpt>
      <trkpt lat="47.2937" lon="-2.18929">
        <ele>19.4</ele>
        <time>2020-04-09T14:39:13.000Z</time>
      </trkpt>
      <trkpt lat="47.29367" lon="-2.18934">
        <ele>19.6</ele>
        <time>2020-04-09T14:39:14.000Z</time>
      </trkpt>
      <trkpt lat="47.29364" lon="-2.18939">
        <ele>19.4</ele>
        <time>2020-04-09T14:39:15.000Z</time>
      </trkpt>
      <trkpt lat="47.29361" lon="-2.18944">
        <ele>19.2</ele>
        <time>2020-04-09T14:39:16.000Z</time>
      </trkpt>
      <trkpt lat="47.29359" lon="-2.18949">
        <ele>19.2</ele>
        <time>2020-04-09T14:39:17.000Z</time>
      </trkpt>
      <trkpt lat="47.29356" lon="-2.18954">
        <ele>19.2</ele>
        <time>2020-04-09T14:39:18.000Z</time>
      </trkpt>
      <trkpt lat="47.29353" lon="-2.18959">
        <ele>19.2</ele>
        <time>2020-04-09T14:39:19.000Z</time>
      </trkpt>
      <trkpt lat="47.2935" lon="-2.18964">
        <ele>19.4</ele>
        <time>2020-04-09T14:39:20.000Z</time>
      </trkpt>
      <trkpt lat="47.29347" lon="-2.18969">
        <ele>19.4</ele>
        <time>2020-04-09T14:39:21.000Z</time>
      </trkpt>
      <trkpt lat="47.29344" lon="-2.18974">
        <ele>19.4</ele>
        <time>2020-04-09T14:39:22.000Z</time>
      </trkpt>
      <trkpt lat="47.29342" lon="-2.18979">
        <ele>19.6</ele>
        <time>2020-04-09T14:39:23.000Z</time>
      </trkpt>
      <trkpt lat="47.29338" lon="-2.18984">
        <ele>19.4</ele>
        <time>2020-04-09T14:39:24.000Z</time>
      </trkpt>
      <trkpt lat="47.29335" lon="-2.18988">
        <ele>19.4</ele>
        <time>2020-04-09T14:39:25.000Z</time>
      </trkpt>
      <trkpt lat="47.29332" lon="-2.18993">
        <ele>19.6</ele>
        <time>2020-04-09T14:39:26.000Z</time>
      </trkpt>
      <trkpt lat="47.29329" lon="-2.18997">
        <ele>19.6</ele>
        <time>2020-04-09T14:39:27.000Z</time>
      </trkpt>
      <trkpt lat="47.29326" lon="-2.19001">
        <ele>19.6</ele>
        <time>2020-04-09T14:39:28.000Z</time>
      </trkpt>
      <trkpt lat="47.29322" lon="-2.19005">
        <ele>19.6</ele>
        <time>2020-04-09T14:39:29.000Z</time>
      </trkpt>
      <trkpt lat="47.29319" lon="-2.1901">
        <ele>19.6</ele>
        <time>2020-04-09T14:39:30.000Z</time>
      </trkpt>
      <trkpt lat="47.29316" lon="-2.19014">
        <ele>19.6</ele>
        <time>2020-04-09T14:39:31.000Z</time>
      </trkpt>
      <trkpt lat="47.29313" lon="-2.19019">
        <ele>19.6</ele>
        <time>2020-04-09T14:39:32.000Z</time>
      </trkpt>
      <trkpt lat="47.29311" lon="-2.19023">
        <ele>19.6</ele>
        <time>2020-04-09T14:39:33.000Z</time>
      </trkpt>
      <trkpt lat="47.29308" lon="-2.19028">
        <ele>19.6</ele>
        <time>2020-04-09T14:39:34.000Z</time>
      </trkpt>
      <trkpt lat="47.29305" lon="-2.19033">
        <ele>19.4</ele>
        <time>2020-04-09T14:39:35.000Z</time>
      </trkpt>
      <trkpt lat="47.29302" lon="-2.19038">
        <ele>19.4</ele>
        <time>2020-04-09T14:39:36.000Z</time>
      </trkpt>
      <trkpt lat="47.29299" lon="-2.19042">
        <ele>19.6</ele>
        <time>2020-04-09T14:39:37.000Z</time>
      </trkpt>
      <trkpt lat="47.29296" lon="-2.19047">
        <ele>19.8</ele>
        <time>2020-04-09T14:39:38.000Z</time>
      </trkpt>
      <trkpt lat="47.29293" lon="-2.19052">
        <ele>19.6</ele>
        <time>2020-04-09T14:39:39.000Z</time>
      </trkpt>
      <trkpt lat="47.2929" lon="-2.19056">
        <ele>19.8</ele>
        <time>2020-04-09T14:39:40.000Z</time>
      </trkpt>
      <trkpt lat="47.29287" lon="-2.19061">
        <ele>19.8</ele>
        <time>2020-04-09T14:39:41.000Z</time>
      </trkpt>
      <trkpt lat="47.29285" lon="-2.19066">
        <ele>19.8</ele>
        <time>2020-04-09T14:39:42.000Z</time>
      </trkpt>
      <trkpt lat="47.29282" lon="-2.19071">
        <ele>19.8</ele>
        <time>2020-04-09T14:39:43.000Z</time>
      </trkpt>
      <trkpt lat="47.29279" lon="-2.19076">
        <ele>19.8</ele>
        <time>2020-04-09T14:39:44.000Z</time>
      </trkpt>
      <trkpt lat="47.29276" lon="-2.19081">
        <ele>19.8</ele>
        <time>2020-04-09T14:39:45.000Z</time>
      </trkpt>
      <trkpt lat="47.29273" lon="-2.19085">
        <ele>20</ele>
        <time>2020-04-09T14:39:46.000Z</time>
      </trkpt>
      <trkpt lat="47.2927" lon="-2.1909">
        <ele>19.8</ele>
        <time>2020-04-09T14:39:47.000Z</time>
      </trkpt>
      <trkpt lat="47.29267" lon="-2.19095">
        <ele>19.8</ele>
        <time>2020-04-09T14:39:48.000Z</time>
      </trkpt>
      <trkpt lat="47.29264" lon="-2.19099">
        <ele>19.8</ele>
        <time>2020-04-09T14:39:49.000Z</time>
      </trkpt>
      <trkpt lat="47.29261" lon="-2.19104">
        <ele>19.8</ele>
        <time>2020-04-09T14:39:50.000Z</time>
      </trkpt>
      <trkpt lat="47.29258" lon="-2.19109">
        <ele>19.6</ele>
        <time>2020-04-09T14:39:51.000Z</time>
      </trkpt>
      <trkpt lat="47.29255" lon="-2.19114">
        <ele>19.8</ele>
        <time>2020-04-09T14:39:52.000Z</time>
      </trkpt>
      <trkpt lat="47.29252" lon="-2.19118">
        <ele>19.8</ele>
        <time>2020-04-09T14:39:53.000Z</time>
      </trkpt>
      <trkpt lat="47.29249" lon="-2.19123">
        <ele>19.8</ele>
        <time>2020-04-09T14:39:54.000Z</time>
      </trkpt>
      <trkpt lat="47.29246" lon="-2.19128">
        <ele>20</ele>
        <time>2020-04-09T14:39:55.000Z</time>
      </trkpt>
      <trkpt lat="47.29243" lon="-2.19133">
        <ele>20</ele>
        <time>2020-04-09T14:39:56.000Z</time>
      </trkpt>
      <trkpt lat="47.2924" lon="-2.19138">
        <ele>20</ele>
        <time>2020-04-09T14:39:57.000Z</time>
      </trkpt>
      <trkpt lat="47.29237" lon="-2.19143">
        <ele>20</ele>
        <time>2020-04-09T14:39:58.000Z</time>
      </trkpt>
      <trkpt lat="47.29234" lon="-2.19147">
        <ele>20</ele>
        <time>2020-04-09T14:39:59.000Z</time>
      </trkpt>
      <trkpt lat="47.2923" lon="-2.19152">
        <ele>19.6</ele>
        <time>2020-04-09T14:40:00.000Z</time>
      </trkpt>
      <trkpt lat="47.29227" lon="-2.19156">
        <ele>19.4</ele>
        <time>2020-04-09T14:40:01.000Z</time>
      </trkpt>
      <trkpt lat="47.29224" lon="-2.1916">
        <ele>19.2</ele>
        <time>2020-04-09T14:40:02.000Z</time>
      </trkpt>
      <trkpt lat="47.29222" lon="-2.19165">
        <ele>19.6</ele>
        <time>2020-04-09T14:40:03.000Z</time>
      </trkpt>
      <trkpt lat="47.29219" lon="-2.19168">
        <ele>19.8</ele>
        <time>2020-04-09T14:40:04.000Z</time>
      </trkpt>
      <trkpt lat="47.29216" lon="-2.19171">
        <ele>20</ele>
        <time>2020-04-09T14:40:05.000Z</time>
      </trkpt>
      <trkpt lat="47.29213" lon="-2.19174">
        <ele>20</ele>
        <time>2020-04-09T14:40:06.000Z</time>
      </trkpt>
      <trkpt lat="47.2921" lon="-2.19177">
        <ele>20.2</ele>
        <time>2020-04-09T14:40:07.000Z</time>
      </trkpt>
      <trkpt lat="47.29207" lon="-2.19181">
        <ele>20</ele>
        <time>2020-04-09T14:40:08.000Z</time>
      </trkpt>
      <trkpt lat="47.29204" lon="-2.19184">
        <ele>20</ele>
        <time>2020-04-09T14:40:09.000Z</time>
      </trkpt>
      <trkpt lat="47.29201" lon="-2.19187">
        <ele>20</ele>
        <time>2020-04-09T14:40:10.000Z</time>
      </trkpt>
      <trkpt lat="47.29197" lon="-2.1919">
        <ele>19.8</ele>
        <time>2020-04-09T14:40:11.000Z</time>
      </trkpt>
      <trkpt lat="47.29194" lon="-2.19193">
        <ele>20</ele>
        <time>2020-04-09T14:40:12.000Z</time>
      </trkpt>
      <trkpt lat="47.2919" lon="-2.19196">
        <ele>20</ele>
        <time>2020-04-09T14:40:13.000Z</time>
      </trkpt>
      <trkpt lat="47.29187" lon="-2.19199">
        <ele>20</ele>
        <time>2020-04-09T14:40:14.000Z</time>
      </trkpt>
      <trkpt lat="47.29183" lon="-2.19202">
        <ele>20</ele>
        <time>2020-04-09T14:40:15.000Z</time>
      </trkpt>
      <trkpt lat="47.29179" lon="-2.19205">
        <ele>20</ele>
        <time>2020-04-09T14:40:16.000Z</time>
      </trkpt>
      <trkpt lat="47.29175" lon="-2.19208">
        <ele>20</ele>
        <time>2020-04-09T14:40:17.000Z</time>
      </trkpt>
      <trkpt lat="47.29171" lon="-2.1921">
        <ele>20</ele>
        <time>2020-04-09T14:40:18.000Z</time>
      </trkpt>
      <trkpt lat="47.29167" lon="-2.19213">
        <ele>20</ele>
        <time>2020-04-09T14:40:19.000Z</time>
      </trkpt>
      <trkpt lat="47.29163" lon="-2.19215">
        <ele>20</ele>
        <time>2020-04-09T14:40:20.000Z</time>
      </trkpt>
      <trkpt lat="47.29159" lon="-2.19217">
        <ele>19.8</ele>
        <time>2020-04-09T14:40:21.000Z</time>
      </trkpt>
      <trkpt lat="47.29155" lon="-2.1922">
        <ele>19.8</ele>
        <time>2020-04-09T14:40:22.000Z</time>
      </trkpt>
      <trkpt lat="47.29151" lon="-2.19222">
        <ele>19.8</ele>
        <time>2020-04-09T14:40:23.000Z</time>
      </trkpt>
      <trkpt lat="47.29147" lon="-2.19224">
        <ele>19.6</ele>
        <time>2020-04-09T14:40:24.000Z</time>
      </trkpt>
      <trkpt lat="47.29143" lon="-2.19225">
        <ele>19.4</ele>
        <time>2020-04-09T14:40:25.000Z</time>
      </trkpt>
      <trkpt lat="47.29139" lon="-2.19227">
        <ele>19.6</ele>
        <time>2020-04-09T14:40:26.000Z</time>
      </trkpt>
      <trkpt lat="47.29134" lon="-2.19228">
        <ele>19.6</ele>
        <time>2020-04-09T14:40:27.000Z</time>
      </trkpt>
      <trkpt lat="47.2913" lon="-2.1923">
        <ele>19.8</ele>
        <time>2020-04-09T14:40:28.000Z</time>
      </trkpt>
      <trkpt lat="47.29125" lon="-2.19231">
        <ele>19.8</ele>
        <time>2020-04-09T14:40:29.000Z</time>
      </trkpt>
      <trkpt lat="47.29121" lon="-2.19233">
        <ele>19.6</ele>
        <time>2020-04-09T14:40:30.000Z</time>
      </trkpt>
      <trkpt lat="47.29116" lon="-2.19234">
        <ele>19.6</ele>
        <time>2020-04-09T14:40:31.000Z</time>
      </trkpt>
      <trkpt lat="47.29112" lon="-2.19235">
        <ele>19.6</ele>
        <time>2020-04-09T14:40:32.000Z</time>
      </trkpt>
      <trkpt lat="47.29107" lon="-2.19236">
        <ele>19.4</ele>
        <time>2020-04-09T14:40:33.000Z</time>
      </trkpt>
      <trkpt lat="47.29103" lon="-2.19236">
        <ele>19.4</ele>
        <time>2020-04-09T14:40:34.000Z</time>
      </trkpt>
      <trkpt lat="47.29098" lon="-2.19237">
        <ele>19.4</ele>
        <time>2020-04-09T14:40:35.000Z</time>
      </trkpt>
      <trkpt lat="47.29093" lon="-2.19238">
        <ele>19.4</ele>
        <time>2020-04-09T14:40:36.000Z</time>
      </trkpt>
      <trkpt lat="47.29088" lon="-2.19238">
        <ele>19.6</ele>
        <time>2020-04-09T14:40:37.000Z</time>
      </trkpt>
      <trkpt lat="47.29084" lon="-2.19238">
        <ele>19.6</ele>
        <time>2020-04-09T14:40:38.000Z</time>
      </trkpt>
      <trkpt lat="47.29079" lon="-2.19238">
        <ele>19.6</ele>
        <time>2020-04-09T14:40:39.000Z</time>
      </trkpt>
      <trkpt lat="47.29074" lon="-2.19237">
        <ele>19.6</ele>
        <time>2020-04-09T14:40:40.000Z</time>
      </trkpt>
      <trkpt lat="47.29069" lon="-2.19237">
        <ele>19.6</ele>
        <time>2020-04-09T14:40:41.000Z</time>
      </trkpt>
      <trkpt lat="47.29064" lon="-2.19237">
        <ele>19.6</ele>
        <time>2020-04-09T14:40:42.000Z</time>
      </trkpt>
      <trkpt lat="47.29059" lon="-2.19237">
        <ele>19.6</ele>
        <time>2020-04-09T14:40:43.000Z</time>
      </trkpt>
      <trkpt lat="47.29054" lon="-2.19237">
        <ele>19.6</ele>
        <time>2020-04-09T14:40:44.000Z</time>
      </trkpt>
      <trkpt lat="47.2905" lon="-2.19237">
        <ele>19.4</ele>
        <time>2020-04-09T14:40:45.000Z</time>
      </trkpt>
      <trkpt lat="47.29045" lon="-2.19237">
        <ele>19.6</ele>
        <time>2020-04-09T14:40:46.000Z</time>
      </trkpt>
      <trkpt lat="47.2904" lon="-2.19237">
        <ele>19.4</ele>
        <time>2020-04-09T14:40:47.000Z</time>
      </trkpt>
      <trkpt lat="47.29034" lon="-2.19238">
        <ele>19.2</ele>
        <time>2020-04-09T14:40:48.000Z</time>
      </trkpt>
      <trkpt lat="47.2903" lon="-2.19238">
        <ele>19.2</ele>
        <time>2020-04-09T14:40:49.000Z</time>
      </trkpt>
      <trkpt lat="47.29025" lon="-2.19239">
        <ele>19.2</ele>
        <time>2020-04-09T14:40:50.000Z</time>
      </trkpt>
      <trkpt lat="47.2902" lon="-2.1924">
        <ele>19.2</ele>
        <time>2020-04-09T14:40:51.000Z</time>
      </trkpt>
      <trkpt lat="47.29015" lon="-2.1924">
        <ele>19.2</ele>
        <time>2020-04-09T14:40:52.000Z</time>
      </trkpt>
      <trkpt lat="47.2901" lon="-2.19242">
        <ele>19.2</ele>
        <time>2020-04-09T14:40:53.000Z</time>
      </trkpt>
      <trkpt lat="47.29006" lon="-2.19243">
        <ele>19.2</ele>
        <time>2020-04-09T14:40:54.000Z</time>
      </trkpt>
      <trkpt lat="47.29001" lon="-2.19244">
        <ele>19</ele>
        <time>2020-04-09T14:40:55.000Z</time>
      </trkpt>
      <trkpt lat="47.28997" lon="-2.19247">
        <ele>19</ele>
        <time>2020-04-09T14:40:56.000Z</time>
      </trkpt>
      <trkpt lat="47.28993" lon="-2.1925">
        <ele>18.8</ele>
        <time>2020-04-09T14:40:57.000Z</time>
      </trkpt>
      <trkpt lat="47.28989" lon="-2.19254">
        <ele>18.6</ele>
        <time>2020-04-09T14:40:58.000Z</time>
      </trkpt>
      <trkpt lat="47.28986" lon="-2.19258">
        <ele>18.8</ele>
        <time>2020-04-09T14:40:59.000Z</time>
      </trkpt>
      <trkpt lat="47.28982" lon="-2.19263">
        <ele>18.8</ele>
        <time>2020-04-09T14:41:00.000Z</time>
      </trkpt>
      <trkpt lat="47.28978" lon="-2.19266">
        <ele>19</ele>
        <time>2020-04-09T14:41:01.000Z</time>
      </trkpt>
      <trkpt lat="47.28974" lon="-2.19268">
        <ele>19</ele>
        <time>2020-04-09T14:41:02.000Z</time>
      </trkpt>
      <trkpt lat="47.28969" lon="-2.19269">
        <ele>19</ele>
        <time>2020-04-09T14:41:03.000Z</time>
      </trkpt>
      <trkpt lat="47.28965" lon="-2.19268">
        <ele>19</ele>
        <time>2020-04-09T14:41:04.000Z</time>
      </trkpt>
      <trkpt lat="47.28961" lon="-2.19265">
        <ele>19</ele>
        <time>2020-04-09T14:41:05.000Z</time>
      </trkpt>
      <trkpt lat="47.28957" lon="-2.19261">
        <ele>19</ele>
        <time>2020-04-09T14:41:06.000Z</time>
      </trkpt>
      <trkpt lat="47.28954" lon="-2.19257">
        <ele>19</ele>
        <time>2020-04-09T14:41:07.000Z</time>
      </trkpt>
      <trkpt lat="47.2895" lon="-2.19253">
        <ele>19</ele>
        <time>2020-04-09T14:41:08.000Z</time>
      </trkpt>
      <trkpt lat="47.28946" lon="-2.1925">
        <ele>19</ele>
        <time>2020-04-09T14:41:09.000Z</time>
      </trkpt>
      <trkpt lat="47.28942" lon="-2.19247">
        <ele>18.8</ele>
        <time>2020-04-09T14:41:10.000Z</time>
      </trkpt>
      <trkpt lat="47.28938" lon="-2.19244">
        <ele>18.8</ele>
        <time>2020-04-09T14:41:11.000Z</time>
      </trkpt>
      <trkpt lat="47.28934" lon="-2.19241">
        <ele>18.8</ele>
        <time>2020-04-09T14:41:12.000Z</time>
      </trkpt>
      <trkpt lat="47.2893" lon="-2.19237">
        <ele>18.8</ele>
        <time>2020-04-09T14:41:13.000Z</time>
      </trkpt>
      <trkpt lat="47.28925" lon="-2.19233">
        <ele>18.8</ele>
        <time>2020-04-09T14:41:14.000Z</time>
      </trkpt>
      <trkpt lat="47.28921" lon="-2.1923">
        <ele>18.8</ele>
        <time>2020-04-09T14:41:15.000Z</time>
      </trkpt>
      <trkpt lat="47.28917" lon="-2.19227">
        <ele>18.8</ele>
        <time>2020-04-09T14:41:16.000Z</time>
      </trkpt>
      <trkpt lat="47.28912" lon="-2.19224">
        <ele>19</ele>
        <time>2020-04-09T14:41:17.000Z</time>
      </trkpt>
      <trkpt lat="47.28907" lon="-2.19221">
        <ele>18.8</ele>
        <time>2020-04-09T14:41:18.000Z</time>
      </trkpt>
      <trkpt lat="47.28903" lon="-2.19219">
        <ele>19</ele>
        <time>2020-04-09T14:41:19.000Z</time>
      </trkpt>
      <trkpt lat="47.28898" lon="-2.19217">
        <ele>19.2</ele>
        <time>2020-04-09T14:41:20.000Z</time>
      </trkpt>
      <trkpt lat="47.28893" lon="-2.19215">
        <ele>19</ele>
        <time>2020-04-09T14:41:21.000Z</time>
      </trkpt>
      <trkpt lat="47.28888" lon="-2.19214">
        <ele>19.2</ele>
        <time>2020-04-09T14:41:22.000Z</time>
      </trkpt>
      <trkpt lat="47.28883" lon="-2.19213">
        <ele>19.4</ele>
        <time>2020-04-09T14:41:23.000Z</time>
      </trkpt>
      <trkpt lat="47.28878" lon="-2.19213">
        <ele>19.2</ele>
        <time>2020-04-09T14:41:24.000Z</time>
      </trkpt>
      <trkpt lat="47.28873" lon="-2.19213">
        <ele>19.2</ele>
        <time>2020-04-09T14:41:25.000Z</time>
      </trkpt>
      <trkpt lat="47.28869" lon="-2.19213">
        <ele>19.2</ele>
        <time>2020-04-09T14:41:26.000Z</time>
      </trkpt>
      <trkpt lat="47.28864" lon="-2.19213">
        <ele>19</ele>
        <time>2020-04-09T14:41:27.000Z</time>
      </trkpt>
      <trkpt lat="47.2886" lon="-2.19213">
        <ele>19</ele>
        <time>2020-04-09T14:41:28.000Z</time>
      </trkpt>
      <trkpt lat="47.28855" lon="-2.19213">
        <ele>19</ele>
        <time>2020-04-09T14:41:29.000Z</time>
      </trkpt>
      <trkpt lat="47.28851" lon="-2.19216">
        <ele>18.8</ele>
        <time>2020-04-09T14:41:30.000Z</time>
      </trkpt>
      <trkpt lat="47.28846" lon="-2.19218">
        <ele>18.8</ele>
        <time>2020-04-09T14:41:31.000Z</time>
      </trkpt>
      <trkpt lat="47.2884" lon="-2.19221">
        <ele>18.8</ele>
        <time>2020-04-09T14:41:32.000Z</time>
      </trkpt>
      <trkpt lat="47.28834" lon="-2.19223">
        <ele>18.6</ele>
        <time>2020-04-09T14:41:33.000Z</time>
      </trkpt>
      <trkpt lat="47.28827" lon="-2.19226">
        <ele>18.8</ele>
        <time>2020-04-09T14:41:34.000Z</time>
      </trkpt>
      <trkpt lat="47.28823" lon="-2.19229">
        <ele>18.8</ele>
        <time>2020-04-09T14:41:35.000Z</time>
      </trkpt>
      <trkpt lat="47.28819" lon="-2.19233">
        <ele>19</ele>
        <time>2020-04-09T14:41:36.000Z</time>
      </trkpt>
      <trkpt lat="47.28815" lon="-2.19237">
        <ele>19</ele>
        <time>2020-04-09T14:41:37.000Z</time>
      </trkpt>
      <trkpt lat="47.28811" lon="-2.1924">
        <ele>18.8</ele>
        <time>2020-04-09T14:41:38.000Z</time>
      </trkpt>
      <trkpt lat="47.28808" lon="-2.19243">
        <ele>18.6</ele>
        <time>2020-04-09T14:41:39.000Z</time>
      </trkpt>
      <trkpt lat="47.28804" lon="-2.19247">
        <ele>18.8</ele>
        <time>2020-04-09T14:41:40.000Z</time>
      </trkpt>
      <trkpt lat="47.288" lon="-2.19251">
        <ele>18.8</ele>
        <time>2020-04-09T14:41:41.000Z</time>
      </trkpt>
      <trkpt lat="47.28797" lon="-2.19254">
        <ele>19</ele>
        <time>2020-04-09T14:41:42.000Z</time>
      </trkpt>
      <trkpt lat="47.28793" lon="-2.19259">
        <ele>19</ele>
        <time>2020-04-09T14:41:43.000Z</time>
      </trkpt>
      <trkpt lat="47.2879" lon="-2.19264">
        <ele>18.8</ele>
        <time>2020-04-09T14:41:44.000Z</time>
      </trkpt>
      <trkpt lat="47.28787" lon="-2.19269">
        <ele>18.8</ele>
        <time>2020-04-09T14:41:45.000Z</time>
      </trkpt>
      <trkpt lat="47.28784" lon="-2.19274">
        <ele>19</ele>
        <time>2020-04-09T14:41:46.000Z</time>
      </trkpt>
      <trkpt lat="47.28781" lon="-2.19279">
        <ele>19</ele>
        <time>2020-04-09T14:41:47.000Z</time>
      </trkpt>
      <trkpt lat="47.28779" lon="-2.19285">
        <ele>19</ele>
        <time>2020-04-09T14:41:48.000Z</time>
      </trkpt>
      <trkpt lat="47.28776" lon="-2.19291">
        <ele>18.8</ele>
        <time>2020-04-09T14:41:49.000Z</time>
      </trkpt>
      <trkpt lat="47.28773" lon="-2.19297">
        <ele>19</ele>
        <time>2020-04-09T14:41:50.000Z</time>
      </trkpt>
      <trkpt lat="47.2877" lon="-2.19303">
        <ele>19</ele>
        <time>2020-04-09T14:41:51.000Z</time>
      </trkpt>
      <trkpt lat="47.28767" lon="-2.19308">
        <ele>19</ele>
        <time>2020-04-09T14:41:52.000Z</time>
      </trkpt>
      <trkpt lat="47.28764" lon="-2.19314">
        <ele>19</ele>
        <time>2020-04-09T14:41:53.000Z</time>
      </trkpt>
      <trkpt lat="47.28761" lon="-2.1932">
        <ele>18.8</ele>
        <time>2020-04-09T14:41:54.000Z</time>
      </trkpt>
      <trkpt lat="47.28759" lon="-2.19326">
        <ele>18.8</ele>
        <time>2020-04-09T14:41:55.000Z</time>
      </trkpt>
      <trkpt lat="47.28757" lon="-2.19331">
        <ele>18.8</ele>
        <time>2020-04-09T14:41:56.000Z</time>
      </trkpt>
      <trkpt lat="47.28754" lon="-2.19336">
        <ele>19</ele>
        <time>2020-04-09T14:41:57.000Z</time>
      </trkpt>
      <trkpt lat="47.28751" lon="-2.19341">
        <ele>19.2</ele>
        <time>2020-04-09T14:41:58.000Z</time>
      </trkpt>
      <trkpt lat="47.28749" lon="-2.19347">
        <ele>19.2</ele>
        <time>2020-04-09T14:41:59.000Z</time>
      </trkpt>
      <trkpt lat="47.28746" lon="-2.19352">
        <ele>19.2</ele>
        <time>2020-04-09T14:42:00.000Z</time>
      </trkpt>
      <trkpt lat="47.28744" lon="-2.19357">
        <ele>19.2</ele>
        <time>2020-04-09T14:42:01.000Z</time>
      </trkpt>
      <trkpt lat="47.28741" lon="-2.19363">
        <ele>19.2</ele>
        <time>2020-04-09T14:42:02.000Z</time>
      </trkpt>
      <trkpt lat="47.28739" lon="-2.19368">
        <ele>19</ele>
        <time>2020-04-09T14:42:03.000Z</time>
      </trkpt>
      <trkpt lat="47.28737" lon="-2.19373">
        <ele>19</ele>
        <time>2020-04-09T14:42:04.000Z</time>
      </trkpt>
      <trkpt lat="47.28735" lon="-2.19379">
        <ele>19</ele>
        <time>2020-04-09T14:42:05.000Z</time>
      </trkpt>
      <trkpt lat="47.28732" lon="-2.19385">
        <ele>19</ele>
        <time>2020-04-09T14:42:06.000Z</time>
      </trkpt>
      <trkpt lat="47.2873" lon="-2.19391">
        <ele>19</ele>
        <time>2020-04-09T14:42:07.000Z</time>
      </trkpt>
      <trkpt lat="47.28728" lon="-2.19397">
        <ele>19</ele>
        <time>2020-04-09T14:42:08.000Z</time>
      </trkpt>
      <trkpt lat="47.28727" lon="-2.19404">
        <ele>19</ele>
        <time>2020-04-09T14:42:09.000Z</time>
      </trkpt>
      <trkpt lat="47.28725" lon="-2.1941">
        <ele>19.2</ele>
        <time>2020-04-09T14:42:10.000Z</time>
      </trkpt>
      <trkpt lat="47.28723" lon="-2.19416">
        <ele>19</ele>
        <time>2020-04-09T14:42:11.000Z</time>
      </trkpt>
      <trkpt lat="47.28721" lon="-2.19422">
        <ele>19</ele>
        <time>2020-04-09T14:42:12.000Z</time>
      </trkpt>
      <trkpt lat="47.2872" lon="-2.19429">
        <ele>18.8</ele>
        <time>2020-04-09T14:42:13.000Z</time>
      </trkpt>
      <trkpt lat="47.28718" lon="-2.19435">
        <ele>18.8</ele>
        <time>2020-04-09T14:42:14.000Z</time>
      </trkpt>
      <trkpt lat="47.28716" lon="-2.19441">
        <ele>18.8</ele>
        <time>2020-04-09T14:42:15.000Z</time>
      </trkpt>
      <trkpt lat="47.28715" lon="-2.19447">
        <ele>19</ele>
        <time>2020-04-09T14:42:16.000Z</time>
      </trkpt>
      <trkpt lat="47.28713" lon="-2.19453">
        <ele>18.8</ele>
        <time>2020-04-09T14:42:17.000Z</time>
      </trkpt>
      <trkpt lat="47.28712" lon="-2.1946">
        <ele>18.8</ele>
        <time>2020-04-09T14:42:18.000Z</time>
      </trkpt>
      <trkpt lat="47.2871" lon="-2.19466">
        <ele>18.8</ele>
        <time>2020-04-09T14:42:19.000Z</time>
      </trkpt>
      <trkpt lat="47.28708" lon="-2.19472">
        <ele>18.8</ele>
        <time>2020-04-09T14:42:20.000Z</time>
      </trkpt>
      <trkpt lat="47.28707" lon="-2.19478">
        <ele>19</ele>
        <time>2020-04-09T14:42:21.000Z</time>
      </trkpt>
      <trkpt lat="47.28705" lon="-2.19484">
        <ele>19</ele>
        <time>2020-04-09T14:42:22.000Z</time>
      </trkpt>
      <trkpt lat="47.28703" lon="-2.1949">
        <ele>19</ele>
        <time>2020-04-09T14:42:23.000Z</time>
      </trkpt>
      <trkpt lat="47.287" lon="-2.19496">
        <ele>19</ele>
        <time>2020-04-09T14:42:24.000Z</time>
      </trkpt>
      <trkpt lat="47.28698" lon="-2.19502">
        <ele>18.8</ele>
        <time>2020-04-09T14:42:25.000Z</time>
      </trkpt>
      <trkpt lat="47.28696" lon="-2.19507">
        <ele>19</ele>
        <time>2020-04-09T14:42:26.000Z</time>
      </trkpt>
      <trkpt lat="47.28693" lon="-2.19513">
        <ele>18.8</ele>
        <time>2020-04-09T14:42:27.000Z</time>
      </trkpt>
      <trkpt lat="47.2869" lon="-2.19518">
        <ele>18.8</ele>
        <time>2020-04-09T14:42:28.000Z</time>
      </trkpt>
      <trkpt lat="47.28687" lon="-2.19523">
        <ele>18.8</ele>
        <time>2020-04-09T14:42:29.000Z</time>
      </trkpt>
      <trkpt lat="47.28684" lon="-2.19528">
        <ele>18.6</ele>
        <time>2020-04-09T14:42:30.000Z</time>
      </trkpt>
      <trkpt lat="47.28681" lon="-2.19532">
        <ele>18.6</ele>
        <time>2020-04-09T14:42:31.000Z</time>
      </trkpt>
      <trkpt lat="47.28679" lon="-2.19536">
        <ele>18.6</ele>
        <time>2020-04-09T14:42:32.000Z</time>
      </trkpt>
      <trkpt lat="47.28676" lon="-2.1954">
        <ele>18.8</ele>
        <time>2020-04-09T14:42:33.000Z</time>
      </trkpt>
      <trkpt lat="47.28674" lon="-2.19543">
        <ele>18.8</ele>
        <time>2020-04-09T14:42:34.000Z</time>
      </trkpt>
      <trkpt lat="47.28673" lon="-2.19544">
        <ele>18.8</ele>
        <time>2020-04-09T14:42:35.000Z</time>
      </trkpt>
      <trkpt lat="47.28673" lon="-2.19544">
        <ele>18.8</ele>
        <time>2020-04-09T14:42:36.000Z</time>
      </trkpt>
      <trkpt lat="47.28673" lon="-2.19544">
        <ele>18.8</ele>
        <time>2020-04-09T14:42:48.000Z</time>
      </trkpt>
      <trkpt lat="47.28673" lon="-2.19544">
        <ele>18.8</ele>
        <time>2020-04-09T14:42:49.000Z</time>
      </trkpt>
      <trkpt lat="47.28673" lon="-2.19545">
        <ele>19</ele>
        <time>2020-04-09T14:44:12.000Z</time>
      </trkpt>
      <trkpt lat="47.28673" lon="-2.19545">
        <ele>19</ele>
        <time>2020-04-09T14:44:13.000Z</time>
      </trkpt>
      <trkpt lat="47.28673" lon="-2.19545">
        <ele>18.8</ele>
        <time>2020-04-09T14:44:14.000Z</time>
      </trkpt>
      <trkpt lat="47.28673" lon="-2.19544">
        <ele>19</ele>
        <time>2020-04-09T14:44:18.000Z</time>
      </trkpt>
      <trkpt lat="47.28673" lon="-2.19544">
        <ele>19</ele>
        <time>2020-04-09T14:44:19.000Z</time>
      </trkpt>
      <trkpt lat="47.28673" lon="-2.19544">
        <ele>19.2</ele>
        <time>2020-04-09T14:44:20.000Z</time>
      </trkpt>
      <trkpt lat="47.28674" lon="-2.19545">
        <ele>19</ele>
        <time>2020-04-09T14:44:33.000Z</time>
      </trkpt>
      <trkpt lat="47.28674" lon="-2.19545">
        <ele>19</ele>
        <time>2020-04-09T14:44:34.000Z</time>
      </trkpt>
      <trkpt lat="47.28674" lon="-2.19545">
        <ele>19</ele>
        <time>2020-04-09T14:44:35.000Z</time>
      </trkpt>
      <trkpt lat="47.28674" lon="-2.19546">
        <ele>18.8</ele>
        <time>2020-04-09T14:44:49.000Z</time>
      </trkpt>
      <trkpt lat="47.28673" lon="-2.19548">
        <ele>19</ele>
        <time>2020-04-09T14:44:50.000Z</time>
      </trkpt>
      <trkpt lat="47.28672" lon="-2.1955">
        <ele>19</ele>
        <time>2020-04-09T14:44:51.000Z</time>
      </trkpt>
      <trkpt lat="47.28671" lon="-2.19551">
        <ele>18.8</ele>
        <time>2020-04-09T14:44:52.000Z</time>
      </trkpt>
      <trkpt lat="47.28669" lon="-2.19552">
        <ele>18.8</ele>
        <time>2020-04-09T14:44:53.000Z</time>
      </trkpt>
      <trkpt lat="47.28667" lon="-2.19554">
        <ele>18.8</ele>
        <time>2020-04-09T14:44:54.000Z</time>
      </trkpt>
      <trkpt lat="47.28665" lon="-2.19557">
        <ele>19</ele>
        <time>2020-04-09T14:44:55.000Z</time>
      </trkpt>
      <trkpt lat="47.28662" lon="-2.19558">
        <ele>18.8</ele>
        <time>2020-04-09T14:44:56.000Z</time>
      </trkpt>
      <trkpt lat="47.28658" lon="-2.1956">
        <ele>18.8</ele>
        <time>2020-04-09T14:44:57.000Z</time>
      </trkpt>
      <trkpt lat="47.28655" lon="-2.19563">
        <ele>18.8</ele>
        <time>2020-04-09T14:44:58.000Z</time>
      </trkpt>
      <trkpt lat="47.28652" lon="-2.19565">
        <ele>19</ele>
        <time>2020-04-09T14:44:59.000Z</time>
      </trkpt>
      <trkpt lat="47.28648" lon="-2.19567">
        <ele>19</ele>
        <time>2020-04-09T14:45:00.000Z</time>
      </trkpt>
      <trkpt lat="47.28644" lon="-2.19569">
        <ele>19</ele>
        <time>2020-04-09T14:45:01.000Z</time>
      </trkpt>
      <trkpt lat="47.2864" lon="-2.19571">
        <ele>19.2</ele>
        <time>2020-04-09T14:45:02.000Z</time>
      </trkpt>
      <trkpt lat="47.28636" lon="-2.19573">
        <ele>19</ele>
        <time>2020-04-09T14:45:03.000Z</time>
      </trkpt>
      <trkpt lat="47.28632" lon="-2.19575">
        <ele>19</ele>
        <time>2020-04-09T14:45:04.000Z</time>
      </trkpt>
      <trkpt lat="47.28628" lon="-2.19577">
        <ele>19.2</ele>
        <time>2020-04-09T14:45:05.000Z</time>
      </trkpt>
      <trkpt lat="47.28624" lon="-2.19579">
        <ele>19</ele>
        <time>2020-04-09T14:45:06.000Z</time>
      </trkpt>
      <trkpt lat="47.2862" lon="-2.19581">
        <ele>19</ele>
        <time>2020-04-09T14:45:07.000Z</time>
      </trkpt>
      <trkpt lat="47.28615" lon="-2.19582">
        <ele>19</ele>
        <time>2020-04-09T14:45:08.000Z</time>
      </trkpt>
      <trkpt lat="47.28611" lon="-2.19584">
        <ele>19</ele>
        <time>2020-04-09T14:45:09.000Z</time>
      </trkpt>
      <trkpt lat="47.28607" lon="-2.19586">
        <ele>19</ele>
        <time>2020-04-09T14:45:10.000Z</time>
      </trkpt>
      <trkpt lat="47.28603" lon="-2.19588">
        <ele>18.8</ele>
        <time>2020-04-09T14:45:11.000Z</time>
      </trkpt>
      <trkpt lat="47.28598" lon="-2.1959">
        <ele>18.8</ele>
        <time>2020-04-09T14:45:12.000Z</time>
      </trkpt>
      <trkpt lat="47.28594" lon="-2.19588">
        <ele>18.8</ele>
        <time>2020-04-09T14:45:13.000Z</time>
      </trkpt>
      <trkpt lat="47.2859" lon="-2.19586">
        <ele>18.8</ele>
        <time>2020-04-09T14:45:14.000Z</time>
      </trkpt>
      <trkpt lat="47.28586" lon="-2.19586">
        <ele>19</ele>
        <time>2020-04-09T14:45:15.000Z</time>
      </trkpt>
      <trkpt lat="47.28582" lon="-2.19587">
        <ele>19</ele>
        <time>2020-04-09T14:45:16.000Z</time>
      </trkpt>
      <trkpt lat="47.28578" lon="-2.19589">
        <ele>18.8</ele>
        <time>2020-04-09T14:45:17.000Z</time>
      </trkpt>
      <trkpt lat="47.28573" lon="-2.19589">
        <ele>18.8</ele>
        <time>2020-04-09T14:45:18.000Z</time>
      </trkpt>
      <trkpt lat="47.28568" lon="-2.1959">
        <ele>18.8</ele>
        <time>2020-04-09T14:45:19.000Z</time>
      </trkpt>
      <trkpt lat="47.28564" lon="-2.1959">
        <ele>18.8</ele>
        <time>2020-04-09T14:45:20.000Z</time>
      </trkpt>
      <trkpt lat="47.28559" lon="-2.19591">
        <ele>19</ele>
        <time>2020-04-09T14:45:21.000Z</time>
      </trkpt>
      <trkpt lat="47.28554" lon="-2.19592">
        <ele>19</ele>
        <time>2020-04-09T14:45:22.000Z</time>
      </trkpt>
      <trkpt lat="47.28549" lon="-2.19592">
        <ele>19</ele>
        <time>2020-04-09T14:45:23.000Z</time>
      </trkpt>
      <trkpt lat="47.28544" lon="-2.19593">
        <ele>18.8</ele>
        <time>2020-04-09T14:45:24.000Z</time>
      </trkpt>
      <trkpt lat="47.28539" lon="-2.19593">
        <ele>19</ele>
        <time>2020-04-09T14:45:25.000Z</time>
      </trkpt>
      <trkpt lat="47.28535" lon="-2.19591">
        <ele>19.2</ele>
        <time>2020-04-09T14:45:26.000Z</time>
      </trkpt>
      <trkpt lat="47.2853" lon="-2.19589">
        <ele>19.2</ele>
        <time>2020-04-09T14:45:27.000Z</time>
      </trkpt>
      <trkpt lat="47.28526" lon="-2.19585">
        <ele>19.4</ele>
        <time>2020-04-09T14:45:28.000Z</time>
      </trkpt>
      <trkpt lat="47.28522" lon="-2.19582">
        <ele>19.4</ele>
        <time>2020-04-09T14:45:29.000Z</time>
      </trkpt>
      <trkpt lat="47.28519" lon="-2.19577">
        <ele>19.6</ele>
        <time>2020-04-09T14:45:30.000Z</time>
      </trkpt>
      <trkpt lat="47.28515" lon="-2.19572">
        <ele>19.4</ele>
        <time>2020-04-09T14:45:31.000Z</time>
      </trkpt>
      <trkpt lat="47.28512" lon="-2.19567">
        <ele>19.6</ele>
        <time>2020-04-09T14:45:32.000Z</time>
      </trkpt>
      <trkpt lat="47.28509" lon="-2.19561">
        <ele>19.6</ele>
        <time>2020-04-09T14:45:33.000Z</time>
      </trkpt>
      <trkpt lat="47.28506" lon="-2.19556">
        <ele>19.4</ele>
        <time>2020-04-09T14:45:34.000Z</time>
      </trkpt>
      <trkpt lat="47.28503" lon="-2.19551">
        <ele>19.4</ele>
        <time>2020-04-09T14:45:35.000Z</time>
      </trkpt>
      <trkpt lat="47.285" lon="-2.19545">
        <ele>19.6</ele>
        <time>2020-04-09T14:45:36.000Z</time>
      </trkpt>
      <trkpt lat="47.28497" lon="-2.1954">
        <ele>19.6</ele>
        <time>2020-04-09T14:45:37.000Z</time>
      </trkpt>
      <trkpt lat="47.28494" lon="-2.19534">
        <ele>19.6</ele>
        <time>2020-04-09T14:45:38.000Z</time>
      </trkpt>
      <trkpt lat="47.2849" lon="-2.1953">
        <ele>19.6</ele>
        <time>2020-04-09T14:45:39.000Z</time>
      </trkpt>
      <trkpt lat="47.28486" lon="-2.19526">
        <ele>19.6</ele>
        <time>2020-04-09T14:45:40.000Z</time>
      </trkpt>
      <trkpt lat="47.28481" lon="-2.19524">
        <ele>19.4</ele>
        <time>2020-04-09T14:45:41.000Z</time>
      </trkpt>
      <trkpt lat="47.28476" lon="-2.19521">
        <ele>19.6</ele>
        <time>2020-04-09T14:45:42.000Z</time>
      </trkpt>
      <trkpt lat="47.28471" lon="-2.19521">
        <ele>19.4</ele>
        <time>2020-04-09T14:45:43.000Z</time>
      </trkpt>
      <trkpt lat="47.28466" lon="-2.19521">
        <ele>19.6</ele>
        <time>2020-04-09T14:45:44.000Z</time>
      </trkpt>
      <trkpt lat="47.28461" lon="-2.19522">
        <ele>19.6</ele>
        <time>2020-04-09T14:45:45.000Z</time>
      </trkpt>
      <trkpt lat="47.28455" lon="-2.19523">
        <ele>19.4</ele>
        <time>2020-04-09T14:45:46.000Z</time>
      </trkpt>
      <trkpt lat="47.2845" lon="-2.19525">
        <ele>19.6</ele>
        <time>2020-04-09T14:45:47.000Z</time>
      </trkpt>
      <trkpt lat="47.28445" lon="-2.19525">
        <ele>19.6</ele>
        <time>2020-04-09T14:45:48.000Z</time>
      </trkpt>
      <trkpt lat="47.28439" lon="-2.19526">
        <ele>19.8</ele>
        <time>2020-04-09T14:45:49.000Z</time>
      </trkpt>
      <trkpt lat="47.28434" lon="-2.19527">
        <ele>19.8</ele>
        <time>2020-04-09T14:45:50.000Z</time>
      </trkpt>
      <trkpt lat="47.28429" lon="-2.19527">
        <ele>19.6</ele>
        <time>2020-04-09T14:45:51.000Z</time>
      </trkpt>
      <trkpt lat="47.28424" lon="-2.19527">
        <ele>19.6</ele>
        <time>2020-04-09T14:45:52.000Z</time>
      </trkpt>
      <trkpt lat="47.28418" lon="-2.19528">
        <ele>19.6</ele>
        <time>2020-04-09T14:45:53.000Z</time>
      </trkpt>
      <trkpt lat="47.28414" lon="-2.19528">
        <ele>19.4</ele>
        <time>2020-04-09T14:45:54.000Z</time>
      </trkpt>
      <trkpt lat="47.28409" lon="-2.19529">
        <ele>19.4</ele>
        <time>2020-04-09T14:45:55.000Z</time>
      </trkpt>
      <trkpt lat="47.28403" lon="-2.1953">
        <ele>19.4</ele>
        <time>2020-04-09T14:45:56.000Z</time>
      </trkpt>
      <trkpt lat="47.28399" lon="-2.19531">
        <ele>19.4</ele>
        <time>2020-04-09T14:45:57.000Z</time>
      </trkpt>
      <trkpt lat="47.28394" lon="-2.19531">
        <ele>19.2</ele>
        <time>2020-04-09T14:45:58.000Z</time>
      </trkpt>
      <trkpt lat="47.28389" lon="-2.19532">
        <ele>19.4</ele>
        <time>2020-04-09T14:45:59.000Z</time>
      </trkpt>
      <trkpt lat="47.28383" lon="-2.19532">
        <ele>19.2</ele>
        <time>2020-04-09T14:46:00.000Z</time>
      </trkpt>
      <trkpt lat="47.28378" lon="-2.19533">
        <ele>19.2</ele>
        <time>2020-04-09T14:46:01.000Z</time>
      </trkpt>
      <trkpt lat="47.28373" lon="-2.19532">
        <ele>19.2</ele>
        <time>2020-04-09T14:46:02.000Z</time>
      </trkpt>
      <trkpt lat="47.28367" lon="-2.1953">
        <ele>19.2</ele>
        <time>2020-04-09T14:46:03.000Z</time>
      </trkpt>
      <trkpt lat="47.28362" lon="-2.1953">
        <ele>19</ele>
        <time>2020-04-09T14:46:04.000Z</time>
      </trkpt>
      <trkpt lat="47.28357" lon="-2.1953">
        <ele>19.2</ele>
        <time>2020-04-09T14:46:05.000Z</time>
      </trkpt>
      <trkpt lat="47.28352" lon="-2.1953">
        <ele>19.2</ele>
        <time>2020-04-09T14:46:06.000Z</time>
      </trkpt>
      <trkpt lat="47.28348" lon="-2.19529">
        <ele>19.4</ele>
        <time>2020-04-09T14:46:07.000Z</time>
      </trkpt>
      <trkpt lat="47.28343" lon="-2.19528">
        <ele>19.2</ele>
        <time>2020-04-09T14:46:08.000Z</time>
      </trkpt>
      <trkpt lat="47.2834" lon="-2.1953">
        <ele>19</ele>
        <time>2020-04-09T14:46:09.000Z</time>
      </trkpt>
      <trkpt lat="47.28336" lon="-2.19531">
        <ele>19</ele>
        <time>2020-04-09T14:46:10.000Z</time>
      </trkpt>
      <trkpt lat="47.28332" lon="-2.1953">
        <ele>19.2</ele>
        <time>2020-04-09T14:46:11.000Z</time>
      </trkpt>
      <trkpt lat="47.28327" lon="-2.19529">
        <ele>19.2</ele>
        <time>2020-04-09T14:46:12.000Z</time>
      </trkpt>
      <trkpt lat="47.28322" lon="-2.19528">
        <ele>19.4</ele>
        <time>2020-04-09T14:46:13.000Z</time>
      </trkpt>
      <trkpt lat="47.28317" lon="-2.19526">
        <ele>19.4</ele>
        <time>2020-04-09T14:46:14.000Z</time>
      </trkpt>
      <trkpt lat="47.28313" lon="-2.19524">
        <ele>19.4</ele>
        <time>2020-04-09T14:46:15.000Z</time>
      </trkpt>
      <trkpt lat="47.28309" lon="-2.19522">
        <ele>19.4</ele>
        <time>2020-04-09T14:46:16.000Z</time>
      </trkpt>
      <trkpt lat="47.28304" lon="-2.1952">
        <ele>19.6</ele>
        <time>2020-04-09T14:46:17.000Z</time>
      </trkpt>
      <trkpt lat="47.283" lon="-2.19521">
        <ele>19.8</ele>
        <time>2020-04-09T14:46:18.000Z</time>
      </trkpt>
      <trkpt lat="47.28295" lon="-2.19522">
        <ele>19.6</ele>
        <time>2020-04-09T14:46:19.000Z</time>
      </trkpt>
      <trkpt lat="47.2829" lon="-2.19523">
        <ele>19.6</ele>
        <time>2020-04-09T14:46:20.000Z</time>
      </trkpt>
      <trkpt lat="47.28285" lon="-2.19524">
        <ele>19.4</ele>
        <time>2020-04-09T14:46:21.000Z</time>
      </trkpt>
      <trkpt lat="47.2828" lon="-2.19525">
        <ele>19.4</ele>
        <time>2020-04-09T14:46:22.000Z</time>
      </trkpt>
      <trkpt lat="47.28275" lon="-2.19527">
        <ele>19.2</ele>
        <time>2020-04-09T14:46:23.000Z</time>
      </trkpt>
      <trkpt lat="47.2827" lon="-2.19529">
        <ele>19.4</ele>
        <time>2020-04-09T14:46:24.000Z</time>
      </trkpt>
      <trkpt lat="47.28265" lon="-2.19531">
        <ele>19.2</ele>
        <time>2020-04-09T14:46:25.000Z</time>
      </trkpt>
      <trkpt lat="47.2826" lon="-2.19534">
        <ele>19.2</ele>
        <time>2020-04-09T14:46:26.000Z</time>
      </trkpt>
      <trkpt lat="47.28256" lon="-2.19537">
        <ele>19.2</ele>
        <time>2020-04-09T14:46:27.000Z</time>
      </trkpt>
      <trkpt lat="47.28251" lon="-2.19539">
        <ele>19</ele>
        <time>2020-04-09T14:46:28.000Z</time>
      </trkpt>
      <trkpt lat="47.28247" lon="-2.19542">
        <ele>19.2</ele>
        <time>2020-04-09T14:46:29.000Z</time>
      </trkpt>
      <trkpt lat="47.28242" lon="-2.19544">
        <ele>19.2</ele>
        <time>2020-04-09T14:46:30.000Z</time>
      </trkpt>
      <trkpt lat="47.28238" lon="-2.19547">
        <ele>19.2</ele>
        <time>2020-04-09T14:46:31.000Z</time>
      </trkpt>
      <trkpt lat="47.28233" lon="-2.1955">
        <ele>19.4</ele>
        <time>2020-04-09T14:46:32.000Z</time>
      </trkpt>
      <trkpt lat="47.28229" lon="-2.19552">
        <ele>19.6</ele>
        <time>2020-04-09T14:46:33.000Z</time>
      </trkpt>
      <trkpt lat="47.28225" lon="-2.19555">
        <ele>19.6</ele>
        <time>2020-04-09T14:46:34.000Z</time>
      </trkpt>
      <trkpt lat="47.28221" lon="-2.19557">
        <ele>19.6</ele>
        <time>2020-04-09T14:46:35.000Z</time>
      </trkpt>
      <trkpt lat="47.28217" lon="-2.1956">
        <ele>19.8</ele>
        <time>2020-04-09T14:46:36.000Z</time>
      </trkpt>
      <trkpt lat="47.28213" lon="-2.19562">
        <ele>19.8</ele>
        <time>2020-04-09T14:46:37.000Z</time>
      </trkpt>
      <trkpt lat="47.28208" lon="-2.19564">
        <ele>19.8</ele>
        <time>2020-04-09T14:46:38.000Z</time>
      </trkpt>
      <trkpt lat="47.28204" lon="-2.19567">
        <ele>19.6</ele>
        <time>2020-04-09T14:46:39.000Z</time>
      </trkpt>
      <trkpt lat="47.28199" lon="-2.19569">
        <ele>19.6</ele>
        <time>2020-04-09T14:46:40.000Z</time>
      </trkpt>
      <trkpt lat="47.28195" lon="-2.19572">
        <ele>19.8</ele>
        <time>2020-04-09T14:46:41.000Z</time>
      </trkpt>
      <trkpt lat="47.28191" lon="-2.19575">
        <ele>20</ele>
        <time>2020-04-09T14:46:42.000Z</time>
      </trkpt>
      <trkpt lat="47.28186" lon="-2.19577">
        <ele>20</ele>
        <time>2020-04-09T14:46:43.000Z</time>
      </trkpt>
      <trkpt lat="47.28182" lon="-2.1958">
        <ele>19.8</ele>
        <time>2020-04-09T14:46:44.000Z</time>
      </trkpt>
      <trkpt lat="47.28178" lon="-2.19582">
        <ele>20</ele>
        <time>2020-04-09T14:46:45.000Z</time>
      </trkpt>
      <trkpt lat="47.28174" lon="-2.19585">
        <ele>19.8</ele>
        <time>2020-04-09T14:46:46.000Z</time>
      </trkpt>
      <trkpt lat="47.2817" lon="-2.19588">
        <ele>19.6</ele>
        <time>2020-04-09T14:46:47.000Z</time>
      </trkpt>
      <trkpt lat="47.28167" lon="-2.19591">
        <ele>19.8</ele>
        <time>2020-04-09T14:46:48.000Z</time>
      </trkpt>
      <trkpt lat="47.28163" lon="-2.19594">
        <ele>19.6</ele>
        <time>2020-04-09T14:46:49.000Z</time>
      </trkpt>
      <trkpt lat="47.28158" lon="-2.19597">
        <ele>19.8</ele>
        <time>2020-04-09T14:46:50.000Z</time>
      </trkpt>
      <trkpt lat="47.28154" lon="-2.196">
        <ele>19.6</ele>
        <time>2020-04-09T14:46:51.000Z</time>
      </trkpt>
      <trkpt lat="47.28149" lon="-2.19602">
        <ele>19.8</ele>
        <time>2020-04-09T14:46:52.000Z</time>
      </trkpt>
      <trkpt lat="47.28145" lon="-2.19604">
        <ele>19.6</ele>
        <time>2020-04-09T14:46:53.000Z</time>
      </trkpt>
      <trkpt lat="47.28141" lon="-2.19607">
        <ele>19.2</ele>
        <time>2020-04-09T14:46:54.000Z</time>
      </trkpt>
      <trkpt lat="47.28136" lon="-2.1961">
        <ele>19.4</ele>
        <time>2020-04-09T14:46:55.000Z</time>
      </trkpt>
      <trkpt lat="47.28132" lon="-2.19612">
        <ele>19</ele>
        <time>2020-04-09T14:46:56.000Z</time>
      </trkpt>
      <trkpt lat="47.28127" lon="-2.19615">
        <ele>19.2</ele>
        <time>2020-04-09T14:46:57.000Z</time>
      </trkpt>
      <trkpt lat="47.28122" lon="-2.19618">
        <ele>19.2</ele>
        <time>2020-04-09T14:46:58.000Z</time>
      </trkpt>
      <trkpt lat="47.28118" lon="-2.19621">
        <ele>19.2</ele>
        <time>2020-04-09T14:46:59.000Z</time>
      </trkpt>
      <trkpt lat="47.28108" lon="-2.19626">
        <ele>19</ele>
        <time>2020-04-09T14:47:00.000Z</time>
      </trkpt>
      <trkpt lat="47.28104" lon="-2.19628">
        <ele>19</ele>
        <time>2020-04-09T14:47:01.000Z</time>
      </trkpt>
      <trkpt lat="47.28099" lon="-2.1963">
        <ele>19.2</ele>
        <time>2020-04-09T14:47:02.000Z</time>
      </trkpt>
      <trkpt lat="47.28094" lon="-2.19631">
        <ele>19.2</ele>
        <time>2020-04-09T14:47:03.000Z</time>
      </trkpt>
      <trkpt lat="47.28089" lon="-2.19633">
        <ele>19.2</ele>
        <time>2020-04-09T14:47:04.000Z</time>
      </trkpt>
      <trkpt lat="47.28084" lon="-2.19635">
        <ele>19.2</ele>
        <time>2020-04-09T14:47:05.000Z</time>
      </trkpt>
      <trkpt lat="47.28079" lon="-2.19636">
        <ele>19</ele>
        <time>2020-04-09T14:47:06.000Z</time>
      </trkpt>
      <trkpt lat="47.28073" lon="-2.19637">
        <ele>19</ele>
        <time>2020-04-09T14:47:07.000Z</time>
      </trkpt>
      <trkpt lat="47.28069" lon="-2.19638">
        <ele>19</ele>
        <time>2020-04-09T14:47:08.000Z</time>
      </trkpt>
      <trkpt lat="47.28063" lon="-2.1964">
        <ele>18.8</ele>
        <time>2020-04-09T14:47:10.000Z</time>
      </trkpt>
      <trkpt lat="47.28053" lon="-2.19643">
        <ele>19</ele>
        <time>2020-04-09T14:47:11.000Z</time>
      </trkpt>
      <trkpt lat="47.28049" lon="-2.19644">
        <ele>19</ele>
        <time>2020-04-09T14:47:12.000Z</time>
      </trkpt>
      <trkpt lat="47.28044" lon="-2.19645">
        <ele>19.2</ele>
        <time>2020-04-09T14:47:13.000Z</time>
      </trkpt>
      <trkpt lat="47.28038" lon="-2.19646">
        <ele>19</ele>
        <time>2020-04-09T14:47:14.000Z</time>
      </trkpt>
      <trkpt lat="47.28033" lon="-2.19648">
        <ele>19</ele>
        <time>2020-04-09T14:47:15.000Z</time>
      </trkpt>
      <trkpt lat="47.28028" lon="-2.19649">
        <ele>19</ele>
        <time>2020-04-09T14:47:16.000Z</time>
      </trkpt>
      <trkpt lat="47.28028" lon="-2.19649">
        <ele>19</ele>
        <time>2020-04-09T14:47:17.000Z</time>
      </trkpt>
      <trkpt lat="47.28024" lon="-2.1965">
        <ele>19</ele>
        <time>2020-04-09T14:47:18.000Z</time>
      </trkpt>
      <trkpt lat="47.28018" lon="-2.19651">
        <ele>19</ele>
        <time>2020-04-09T14:47:19.000Z</time>
      </trkpt>
      <trkpt lat="47.28013" lon="-2.19652">
        <ele>18.8</ele>
        <time>2020-04-09T14:47:20.000Z</time>
      </trkpt>
      <trkpt lat="47.28008" lon="-2.19654">
        <ele>18.8</ele>
        <time>2020-04-09T14:47:21.000Z</time>
      </trkpt>
      <trkpt lat="47.27999" lon="-2.19657">
        <ele>18.8</ele>
        <time>2020-04-09T14:47:22.000Z</time>
      </trkpt>
      <trkpt lat="47.27999" lon="-2.19657">
        <ele>18.8</ele>
        <time>2020-04-09T14:47:23.000Z</time>
      </trkpt>
      <trkpt lat="47.27994" lon="-2.19658">
        <ele>18.8</ele>
        <time>2020-04-09T14:47:24.000Z</time>
      </trkpt>
      <trkpt lat="47.27989" lon="-2.19659">
        <ele>19</ele>
        <time>2020-04-09T14:47:25.000Z</time>
      </trkpt>
      <trkpt lat="47.27985" lon="-2.1966">
        <ele>18.8</ele>
        <time>2020-04-09T14:47:26.000Z</time>
      </trkpt>
      <trkpt lat="47.2798" lon="-2.19662">
        <ele>18.8</ele>
        <time>2020-04-09T14:47:27.000Z</time>
      </trkpt>
      <trkpt lat="47.27975" lon="-2.19663">
        <ele>18.8</ele>
        <time>2020-04-09T14:47:28.000Z</time>
      </trkpt>
      <trkpt lat="47.2797" lon="-2.19664">
        <ele>18.8</ele>
        <time>2020-04-09T14:47:30.000Z</time>
      </trkpt>
      <trkpt lat="47.2796" lon="-2.19668">
        <ele>19.2</ele>
        <time>2020-04-09T14:47:31.000Z</time>
      </trkpt>
      <trkpt lat="47.27955" lon="-2.19669">
        <ele>19</ele>
        <time>2020-04-09T14:47:32.000Z</time>
      </trkpt>
      <trkpt lat="47.2795" lon="-2.19671">
        <ele>19</ele>
        <time>2020-04-09T14:47:33.000Z</time>
      </trkpt>
      <trkpt lat="47.27946" lon="-2.19672">
        <ele>19</ele>
        <time>2020-04-09T14:47:34.000Z</time>
      </trkpt>
      <trkpt lat="47.27941" lon="-2.19674">
        <ele>18.8</ele>
        <time>2020-04-09T14:47:35.000Z</time>
      </trkpt>
      <trkpt lat="47.27937" lon="-2.19676">
        <ele>19</ele>
        <time>2020-04-09T14:47:36.000Z</time>
      </trkpt>
      <trkpt lat="47.27932" lon="-2.19678">
        <ele>18.8</ele>
        <time>2020-04-09T14:47:37.000Z</time>
      </trkpt>
      <trkpt lat="47.27928" lon="-2.1968">
        <ele>19</ele>
        <time>2020-04-09T14:47:38.000Z</time>
      </trkpt>
      <trkpt lat="47.27924" lon="-2.19682">
        <ele>19.2</ele>
        <time>2020-04-09T14:47:39.000Z</time>
      </trkpt>
      <trkpt lat="47.2792" lon="-2.19684">
        <ele>19.2</ele>
        <time>2020-04-09T14:47:40.000Z</time>
      </trkpt>
      <trkpt lat="47.27916" lon="-2.19688">
        <ele>19.2</ele>
        <time>2020-04-09T14:47:41.000Z</time>
      </trkpt>
      <trkpt lat="47.27913" lon="-2.19692">
        <ele>19.2</ele>
        <time>2020-04-09T14:47:42.000Z</time>
      </trkpt>
      <trkpt lat="47.2791" lon="-2.19697">
        <ele>19.4</ele>
        <time>2020-04-09T14:47:43.000Z</time>
      </trkpt>
      <trkpt lat="47.27908" lon="-2.19704">
        <ele>19.4</ele>
        <time>2020-04-09T14:47:44.000Z</time>
      </trkpt>
      <trkpt lat="47.27906" lon="-2.1971">
        <ele>19.2</ele>
        <time>2020-04-09T14:47:45.000Z</time>
      </trkpt>
      <trkpt lat="47.27905" lon="-2.19717">
        <ele>19.2</ele>
        <time>2020-04-09T14:47:46.000Z</time>
      </trkpt>
      <trkpt lat="47.27903" lon="-2.19724">
        <ele>19.2</ele>
        <time>2020-04-09T14:47:47.000Z</time>
      </trkpt>
      <trkpt lat="47.27902" lon="-2.1973">
        <ele>19.2</ele>
        <time>2020-04-09T14:47:48.000Z</time>
      </trkpt>
      <trkpt lat="47.27901" lon="-2.19738">
        <ele>19.2</ele>
        <time>2020-04-09T14:47:49.000Z</time>
      </trkpt>
      <trkpt lat="47.27899" lon="-2.19745">
        <ele>19.4</ele>
        <time>2020-04-09T14:47:50.000Z</time>
      </trkpt>
      <trkpt lat="47.27898" lon="-2.19752">
        <ele>19.2</ele>
        <time>2020-04-09T14:47:51.000Z</time>
      </trkpt>
      <trkpt lat="47.27896" lon="-2.19758">
        <ele>19</ele>
        <time>2020-04-09T14:47:52.000Z</time>
      </trkpt>
      <trkpt lat="47.27895" lon="-2.19765">
        <ele>19.6</ele>
        <time>2020-04-09T14:47:53.000Z</time>
      </trkpt>
      <trkpt lat="47.27894" lon="-2.19772">
        <ele>19.6</ele>
        <time>2020-04-09T14:47:54.000Z</time>
      </trkpt>
      <trkpt lat="47.27893" lon="-2.19779">
        <ele>19.6</ele>
        <time>2020-04-09T14:47:55.000Z</time>
      </trkpt>
      <trkpt lat="47.27892" lon="-2.19785">
        <ele>19.6</ele>
        <time>2020-04-09T14:47:56.000Z</time>
      </trkpt>
      <trkpt lat="47.27891" lon="-2.19791">
        <ele>19.4</ele>
        <time>2020-04-09T14:47:57.000Z</time>
      </trkpt>
      <trkpt lat="47.27889" lon="-2.19797">
        <ele>19.8</ele>
        <time>2020-04-09T14:47:58.000Z</time>
      </trkpt>
      <trkpt lat="47.27888" lon="-2.19804">
        <ele>19.8</ele>
        <time>2020-04-09T14:47:59.000Z</time>
      </trkpt>
      <trkpt lat="47.27887" lon="-2.19811">
        <ele>19.8</ele>
        <time>2020-04-09T14:48:00.000Z</time>
      </trkpt>
      <trkpt lat="47.27886" lon="-2.19817">
        <ele>19.6</ele>
        <time>2020-04-09T14:48:01.000Z</time>
      </trkpt>
      <trkpt lat="47.27885" lon="-2.19824">
        <ele>19.4</ele>
        <time>2020-04-09T14:48:02.000Z</time>
      </trkpt>
      <trkpt lat="47.27884" lon="-2.1983">
        <ele>19.2</ele>
        <time>2020-04-09T14:48:03.000Z</time>
      </trkpt>
      <trkpt lat="47.27882" lon="-2.19836">
        <ele>19.2</ele>
        <time>2020-04-09T14:48:04.000Z</time>
      </trkpt>
      <trkpt lat="47.27882" lon="-2.19843">
        <ele>19.2</ele>
        <time>2020-04-09T14:48:05.000Z</time>
      </trkpt>
      <trkpt lat="47.27882" lon="-2.19848">
        <ele>19.4</ele>
        <time>2020-04-09T14:48:06.000Z</time>
      </trkpt>
      <trkpt lat="47.27881" lon="-2.19854">
        <ele>19.4</ele>
        <time>2020-04-09T14:48:07.000Z</time>
      </trkpt>
      <trkpt lat="47.27879" lon="-2.19858">
        <ele>19.4</ele>
        <time>2020-04-09T14:48:08.000Z</time>
      </trkpt>
      <trkpt lat="47.27875" lon="-2.1986">
        <ele>19.4</ele>
        <time>2020-04-09T14:48:09.000Z</time>
      </trkpt>
      <trkpt lat="47.27872" lon="-2.19861">
        <ele>19.4</ele>
        <time>2020-04-09T14:48:10.000Z</time>
      </trkpt>
      <trkpt lat="47.27867" lon="-2.19862">
        <ele>19.4</ele>
        <time>2020-04-09T14:48:11.000Z</time>
      </trkpt>
      <trkpt lat="47.27864" lon="-2.19861">
        <ele>19.4</ele>
        <time>2020-04-09T14:48:12.000Z</time>
      </trkpt>
      <trkpt lat="47.27859" lon="-2.19861">
        <ele>19.4</ele>
        <time>2020-04-09T14:48:13.000Z</time>
      </trkpt>
      <trkpt lat="47.27855" lon="-2.19862">
        <ele>19.4</ele>
        <time>2020-04-09T14:48:14.000Z</time>
      </trkpt>
      <trkpt lat="47.27851" lon="-2.19862">
        <ele>19.4</ele>
        <time>2020-04-09T14:48:15.000Z</time>
      </trkpt>
      <trkpt lat="47.27847" lon="-2.19863">
        <ele>19.6</ele>
        <time>2020-04-09T14:48:16.000Z</time>
      </trkpt>
      <trkpt lat="47.27843" lon="-2.19863">
        <ele>19.4</ele>
        <time>2020-04-09T14:48:17.000Z</time>
      </trkpt>
      <trkpt lat="47.27838" lon="-2.19863">
        <ele>19.2</ele>
        <time>2020-04-09T14:48:18.000Z</time>
      </trkpt>
      <trkpt lat="47.27834" lon="-2.19863">
        <ele>19.2</ele>
        <time>2020-04-09T14:48:19.000Z</time>
      </trkpt>
      <trkpt lat="47.27829" lon="-2.19863">
        <ele>19.4</ele>
        <time>2020-04-09T14:48:20.000Z</time>
      </trkpt>
      <trkpt lat="47.27825" lon="-2.19863">
        <ele>19.4</ele>
        <time>2020-04-09T14:48:21.000Z</time>
      </trkpt>
      <trkpt lat="47.2782" lon="-2.19864">
        <ele>19.2</ele>
        <time>2020-04-09T14:48:22.000Z</time>
      </trkpt>
      <trkpt lat="47.27815" lon="-2.19866">
        <ele>19.4</ele>
        <time>2020-04-09T14:48:23.000Z</time>
      </trkpt>
      <trkpt lat="47.2781" lon="-2.19867">
        <ele>19.4</ele>
        <time>2020-04-09T14:48:24.000Z</time>
      </trkpt>
      <trkpt lat="47.27806" lon="-2.19868">
        <ele>19.6</ele>
        <time>2020-04-09T14:48:25.000Z</time>
      </trkpt>
      <trkpt lat="47.27801" lon="-2.19869">
        <ele>19.8</ele>
        <time>2020-04-09T14:48:26.000Z</time>
      </trkpt>
      <trkpt lat="47.27796" lon="-2.1987">
        <ele>19.6</ele>
        <time>2020-04-09T14:48:27.000Z</time>
      </trkpt>
      <trkpt lat="47.27791" lon="-2.19871">
        <ele>19.6</ele>
        <time>2020-04-09T14:48:28.000Z</time>
      </trkpt>
      <trkpt lat="47.27787" lon="-2.19872">
        <ele>19.6</ele>
        <time>2020-04-09T14:48:29.000Z</time>
      </trkpt>
      <trkpt lat="47.27783" lon="-2.19874">
        <ele>19.6</ele>
        <time>2020-04-09T14:48:30.000Z</time>
      </trkpt>
      <trkpt lat="47.27778" lon="-2.19875">
        <ele>20</ele>
        <time>2020-04-09T14:48:31.000Z</time>
      </trkpt>
      <trkpt lat="47.27774" lon="-2.19876">
        <ele>19.8</ele>
        <time>2020-04-09T14:48:32.000Z</time>
      </trkpt>
      <trkpt lat="47.27769" lon="-2.19878">
        <ele>19.8</ele>
        <time>2020-04-09T14:48:33.000Z</time>
      </trkpt>
      <trkpt lat="47.27765" lon="-2.19879">
        <ele>19.8</ele>
        <time>2020-04-09T14:48:34.000Z</time>
      </trkpt>
      <trkpt lat="47.27761" lon="-2.19881">
        <ele>19.6</ele>
        <time>2020-04-09T14:48:35.000Z</time>
      </trkpt>
      <trkpt lat="47.27756" lon="-2.19882">
        <ele>19.6</ele>
        <time>2020-04-09T14:48:36.000Z</time>
      </trkpt>
      <trkpt lat="47.27752" lon="-2.19883">
        <ele>19.6</ele>
        <time>2020-04-09T14:48:37.000Z</time>
      </trkpt>
      <trkpt lat="47.27747" lon="-2.19885">
        <ele>19.6</ele>
        <time>2020-04-09T14:48:38.000Z</time>
      </trkpt>
      <trkpt lat="47.27743" lon="-2.19886">
        <ele>19.4</ele>
        <time>2020-04-09T14:48:39.000Z</time>
      </trkpt>
      <trkpt lat="47.27739" lon="-2.19887">
        <ele>19.4</ele>
        <time>2020-04-09T14:48:40.000Z</time>
      </trkpt>
      <trkpt lat="47.27734" lon="-2.19889">
        <ele>19.6</ele>
        <time>2020-04-09T14:48:41.000Z</time>
      </trkpt>
      <trkpt lat="47.27729" lon="-2.1989">
        <ele>19.6</ele>
        <time>2020-04-09T14:48:42.000Z</time>
      </trkpt>
      <trkpt lat="47.27725" lon="-2.19891">
        <ele>19.6</ele>
        <time>2020-04-09T14:48:43.000Z</time>
      </trkpt>
      <trkpt lat="47.2772" lon="-2.19892">
        <ele>19.6</ele>
        <time>2020-04-09T14:48:44.000Z</time>
      </trkpt>
      <trkpt lat="47.27715" lon="-2.19894">
        <ele>19.6</ele>
        <time>2020-04-09T14:48:45.000Z</time>
      </trkpt>
      <trkpt lat="47.27711" lon="-2.19895">
        <ele>19.6</ele>
        <time>2020-04-09T14:48:46.000Z</time>
      </trkpt>
      <trkpt lat="47.27706" lon="-2.19896">
        <ele>19.8</ele>
        <time>2020-04-09T14:48:47.000Z</time>
      </trkpt>
      <trkpt lat="47.27702" lon="-2.19898">
        <ele>19.6</ele>
        <time>2020-04-09T14:48:48.000Z</time>
      </trkpt>
      <trkpt lat="47.27697" lon="-2.19899">
        <ele>19.6</ele>
        <time>2020-04-09T14:48:49.000Z</time>
      </trkpt>
      <trkpt lat="47.27693" lon="-2.199">
        <ele>19.6</ele>
        <time>2020-04-09T14:48:50.000Z</time>
      </trkpt>
      <trkpt lat="47.27688" lon="-2.19902">
        <ele>19.8</ele>
        <time>2020-04-09T14:48:51.000Z</time>
      </trkpt>
      <trkpt lat="47.27684" lon="-2.19903">
        <ele>20</ele>
        <time>2020-04-09T14:48:52.000Z</time>
      </trkpt>
      <trkpt lat="47.27679" lon="-2.19904">
        <ele>19.8</ele>
        <time>2020-04-09T14:48:53.000Z</time>
      </trkpt>
      <trkpt lat="47.27674" lon="-2.19905">
        <ele>19.8</ele>
        <time>2020-04-09T14:48:54.000Z</time>
      </trkpt>
      <trkpt lat="47.2767" lon="-2.19906">
        <ele>19.8</ele>
        <time>2020-04-09T14:48:55.000Z</time>
      </trkpt>
      <trkpt lat="47.27665" lon="-2.19907">
        <ele>19.8</ele>
        <time>2020-04-09T14:48:56.000Z</time>
      </trkpt>
      <trkpt lat="47.2766" lon="-2.19909">
        <ele>19.6</ele>
        <time>2020-04-09T14:48:57.000Z</time>
      </trkpt>
      <trkpt lat="47.27655" lon="-2.1991">
        <ele>19.4</ele>
        <time>2020-04-09T14:48:58.000Z</time>
      </trkpt>
      <trkpt lat="47.27651" lon="-2.19911">
        <ele>19.4</ele>
        <time>2020-04-09T14:48:59.000Z</time>
      </trkpt>
      <trkpt lat="47.27646" lon="-2.19912">
        <ele>19.4</ele>
        <time>2020-04-09T14:49:00.000Z</time>
      </trkpt>
      <trkpt lat="47.27641" lon="-2.19914">
        <ele>19.4</ele>
        <time>2020-04-09T14:49:01.000Z</time>
      </trkpt>
      <trkpt lat="47.27637" lon="-2.19915">
        <ele>19.6</ele>
        <time>2020-04-09T14:49:02.000Z</time>
      </trkpt>
      <trkpt lat="47.27632" lon="-2.19916">
        <ele>19.4</ele>
        <time>2020-04-09T14:49:03.000Z</time>
      </trkpt>
      <trkpt lat="47.27627" lon="-2.19917">
        <ele>19.6</ele>
        <time>2020-04-09T14:49:04.000Z</time>
      </trkpt>
      <trkpt lat="47.27623" lon="-2.19918">
        <ele>19.6</ele>
        <time>2020-04-09T14:49:05.000Z</time>
      </trkpt>
      <trkpt lat="47.27618" lon="-2.19919">
        <ele>19.6</ele>
        <time>2020-04-09T14:49:06.000Z</time>
      </trkpt>
      <trkpt lat="47.27613" lon="-2.19921">
        <ele>19.8</ele>
        <time>2020-04-09T14:49:07.000Z</time>
      </trkpt>
      <trkpt lat="47.27609" lon="-2.19921">
        <ele>19.8</ele>
        <time>2020-04-09T14:49:08.000Z</time>
      </trkpt>
      <trkpt lat="47.27604" lon="-2.19923">
        <ele>19.6</ele>
        <time>2020-04-09T14:49:09.000Z</time>
      </trkpt>
      <trkpt lat="47.276" lon="-2.19924">
        <ele>19.4</ele>
        <time>2020-04-09T14:49:10.000Z</time>
      </trkpt>
      <trkpt lat="47.27595" lon="-2.19926">
        <ele>19.6</ele>
        <time>2020-04-09T14:49:11.000Z</time>
      </trkpt>
      <trkpt lat="47.2759" lon="-2.19927">
        <ele>19.6</ele>
        <time>2020-04-09T14:49:12.000Z</time>
      </trkpt>
      <trkpt lat="47.27586" lon="-2.19928">
        <ele>19.8</ele>
        <time>2020-04-09T14:49:13.000Z</time>
      </trkpt>
      <trkpt lat="47.27581" lon="-2.1993">
        <ele>19.8</ele>
        <time>2020-04-09T14:49:14.000Z</time>
      </trkpt>
      <trkpt lat="47.27576" lon="-2.19931">
        <ele>19.8</ele>
        <time>2020-04-09T14:49:15.000Z</time>
      </trkpt>
      <trkpt lat="47.27571" lon="-2.19933">
        <ele>19.6</ele>
        <time>2020-04-09T14:49:16.000Z</time>
      </trkpt>
      <trkpt lat="47.27567" lon="-2.19934">
        <ele>19.6</ele>
        <time>2020-04-09T14:49:17.000Z</time>
      </trkpt>
      <trkpt lat="47.27563" lon="-2.19935">
        <ele>19.6</ele>
        <time>2020-04-09T14:49:18.000Z</time>
      </trkpt>
      <trkpt lat="47.27559" lon="-2.19936">
        <ele>19.6</ele>
        <time>2020-04-09T14:49:19.000Z</time>
      </trkpt>
      <trkpt lat="47.27555" lon="-2.19937">
        <ele>19.6</ele>
        <time>2020-04-09T14:49:20.000Z</time>
      </trkpt>
      <trkpt lat="47.27552" lon="-2.19938">
        <ele>19.6</ele>
        <time>2020-04-09T14:49:21.000Z</time>
      </trkpt>
      <trkpt lat="47.27548" lon="-2.1994">
        <ele>19.6</ele>
        <time>2020-04-09T14:49:22.000Z</time>
      </trkpt>
      <trkpt lat="47.27545" lon="-2.19941">
        <ele>19.6</ele>
        <time>2020-04-09T14:49:23.000Z</time>
      </trkpt>
      <trkpt lat="47.27541" lon="-2.19943">
        <ele>19.6</ele>
        <time>2020-04-09T14:49:24.000Z</time>
      </trkpt>
      <trkpt lat="47.27536" lon="-2.19946">
        <ele>19.2</ele>
        <time>2020-04-09T14:49:25.000Z</time>
      </trkpt>
      <trkpt lat="47.2753" lon="-2.19946">
        <ele>19.2</ele>
        <time>2020-04-09T14:49:26.000Z</time>
      </trkpt>
      <trkpt lat="47.27525" lon="-2.19946">
        <ele>19</ele>
        <time>2020-04-09T14:49:27.000Z</time>
      </trkpt>
      <trkpt lat="47.27521" lon="-2.19947">
        <ele>19.4</ele>
        <time>2020-04-09T14:49:28.000Z</time>
      </trkpt>
      <trkpt lat="47.27515" lon="-2.19949">
        <ele>19.4</ele>
        <time>2020-04-09T14:49:29.000Z</time>
      </trkpt>
      <trkpt lat="47.2751" lon="-2.1995">
        <ele>19.4</ele>
        <time>2020-04-09T14:49:30.000Z</time>
      </trkpt>
      <trkpt lat="47.27506" lon="-2.19951">
        <ele>19.4</ele>
        <time>2020-04-09T14:49:31.000Z</time>
      </trkpt>
      <trkpt lat="47.27502" lon="-2.19952">
        <ele>19.4</ele>
        <time>2020-04-09T14:49:32.000Z</time>
      </trkpt>
      <trkpt lat="47.27497" lon="-2.19954">
        <ele>19.4</ele>
        <time>2020-04-09T14:49:33.000Z</time>
      </trkpt>
      <trkpt lat="47.27493" lon="-2.19955">
        <ele>19.6</ele>
        <time>2020-04-09T14:49:34.000Z</time>
      </trkpt>
      <trkpt lat="47.2749" lon="-2.19956">
        <ele>19.6</ele>
        <time>2020-04-09T14:49:35.000Z</time>
      </trkpt>
      <trkpt lat="47.27486" lon="-2.19957">
        <ele>19.4</ele>
        <time>2020-04-09T14:49:36.000Z</time>
      </trkpt>
      <trkpt lat="47.27482" lon="-2.19958">
        <ele>19.4</ele>
        <time>2020-04-09T14:49:37.000Z</time>
      </trkpt>
      <trkpt lat="47.27479" lon="-2.19958">
        <ele>19.4</ele>
        <time>2020-04-09T14:49:38.000Z</time>
      </trkpt>
      <trkpt lat="47.27476" lon="-2.19954">
        <ele>19.4</ele>
        <time>2020-04-09T14:49:39.000Z</time>
      </trkpt>
      <trkpt lat="47.27476" lon="-2.19949">
        <ele>19.4</ele>
        <time>2020-04-09T14:49:40.000Z</time>
      </trkpt>
      <trkpt lat="47.27476" lon="-2.19945">
        <ele>19.4</ele>
        <time>2020-04-09T14:49:41.000Z</time>
      </trkpt>
      <trkpt lat="47.27477" lon="-2.19941">
        <ele>19.4</ele>
        <time>2020-04-09T14:49:42.000Z</time>
      </trkpt>
      <trkpt lat="47.27476" lon="-2.19936">
        <ele>19.6</ele>
        <time>2020-04-09T14:49:43.000Z</time>
      </trkpt>
      <trkpt lat="47.27476" lon="-2.19931">
        <ele>19.8</ele>
        <time>2020-04-09T14:49:44.000Z</time>
      </trkpt>
      <trkpt lat="47.27476" lon="-2.19926">
        <ele>19.8</ele>
        <time>2020-04-09T14:49:45.000Z</time>
      </trkpt>
      <trkpt lat="47.27475" lon="-2.1992">
        <ele>19.6</ele>
        <time>2020-04-09T14:49:46.000Z</time>
      </trkpt>
      <trkpt lat="47.27475" lon="-2.19915">
        <ele>19.6</ele>
        <time>2020-04-09T14:49:47.000Z</time>
      </trkpt>
      <trkpt lat="47.27475" lon="-2.19909">
        <ele>19.6</ele>
        <time>2020-04-09T14:49:48.000Z</time>
      </trkpt>
      <trkpt lat="47.27474" lon="-2.19903">
        <ele>20</ele>
        <time>2020-04-09T14:49:49.000Z</time>
      </trkpt>
      <trkpt lat="47.27473" lon="-2.19898">
        <ele>19.8</ele>
        <time>2020-04-09T14:49:50.000Z</time>
      </trkpt>
      <trkpt lat="47.27472" lon="-2.19892">
        <ele>19.8</ele>
        <time>2020-04-09T14:49:51.000Z</time>
      </trkpt>
      <trkpt lat="47.27471" lon="-2.19887">
        <ele>19.8</ele>
        <time>2020-04-09T14:49:52.000Z</time>
      </trkpt>
      <trkpt lat="47.2747" lon="-2.19881">
        <ele>19.8</ele>
        <time>2020-04-09T14:49:53.000Z</time>
      </trkpt>
      <trkpt lat="47.27468" lon="-2.19876">
        <ele>19.8</ele>
        <time>2020-04-09T14:49:54.000Z</time>
      </trkpt>
      <trkpt lat="47.27467" lon="-2.19871">
        <ele>19.8</ele>
        <time>2020-04-09T14:49:55.000Z</time>
      </trkpt>
      <trkpt lat="47.27465" lon="-2.19866">
        <ele>19.6</ele>
        <time>2020-04-09T14:49:56.000Z</time>
      </trkpt>
      <trkpt lat="47.27464" lon="-2.19861">
        <ele>19.6</ele>
        <time>2020-04-09T14:49:57.000Z</time>
      </trkpt>
      <trkpt lat="47.27462" lon="-2.19856">
        <ele>19.6</ele>
        <time>2020-04-09T14:49:58.000Z</time>
      </trkpt>
      <trkpt lat="47.27461" lon="-2.19851">
        <ele>19.8</ele>
        <time>2020-04-09T14:49:59.000Z</time>
      </trkpt>
      <trkpt lat="47.2746" lon="-2.19846">
        <ele>19.8</ele>
        <time>2020-04-09T14:50:00.000Z</time>
      </trkpt>
      <trkpt lat="47.27458" lon="-2.19842">
        <ele>19.8</ele>
        <time>2020-04-09T14:50:01.000Z</time>
      </trkpt>
      <trkpt lat="47.27456" lon="-2.19838">
        <ele>19.6</ele>
        <time>2020-04-09T14:50:02.000Z</time>
      </trkpt>
      <trkpt lat="47.27454" lon="-2.19834">
        <ele>19.8</ele>
        <time>2020-04-09T14:50:03.000Z</time>
      </trkpt>
      <trkpt lat="47.27452" lon="-2.1983">
        <ele>19.6</ele>
        <time>2020-04-09T14:50:04.000Z</time>
      </trkpt>
      <trkpt lat="47.27448" lon="-2.19828">
        <ele>19.4</ele>
        <time>2020-04-09T14:50:05.000Z</time>
      </trkpt>
      <trkpt lat="47.27445" lon="-2.19826">
        <ele>19.4</ele>
        <time>2020-04-09T14:50:06.000Z</time>
      </trkpt>
      <trkpt lat="47.27442" lon="-2.19825">
        <ele>19.4</ele>
        <time>2020-04-09T14:50:07.000Z</time>
      </trkpt>
      <trkpt lat="47.27438" lon="-2.19824">
        <ele>19.6</ele>
        <time>2020-04-09T14:50:08.000Z</time>
      </trkpt>
      <trkpt lat="47.27433" lon="-2.19824">
        <ele>19.6</ele>
        <time>2020-04-09T14:50:09.000Z</time>
      </trkpt>
      <trkpt lat="47.27429" lon="-2.19824">
        <ele>19.6</ele>
        <time>2020-04-09T14:50:10.000Z</time>
      </trkpt>
      <trkpt lat="47.27425" lon="-2.19824">
        <ele>19.4</ele>
        <time>2020-04-09T14:50:11.000Z</time>
      </trkpt>
      <trkpt lat="47.2742" lon="-2.19823">
        <ele>19.6</ele>
        <time>2020-04-09T14:50:12.000Z</time>
      </trkpt>
      <trkpt lat="47.27415" lon="-2.19823">
        <ele>19.6</ele>
        <time>2020-04-09T14:50:13.000Z</time>
      </trkpt>
      <trkpt lat="47.2741" lon="-2.19823">
        <ele>19.8</ele>
        <time>2020-04-09T14:50:14.000Z</time>
      </trkpt>
      <trkpt lat="47.27406" lon="-2.19823">
        <ele>19.8</ele>
        <time>2020-04-09T14:50:15.000Z</time>
      </trkpt>
      <trkpt lat="47.27401" lon="-2.19824">
        <ele>19.6</ele>
        <time>2020-04-09T14:50:16.000Z</time>
      </trkpt>
      <trkpt lat="47.27397" lon="-2.19825">
        <ele>19.4</ele>
        <time>2020-04-09T14:50:17.000Z</time>
      </trkpt>
      <trkpt lat="47.27392" lon="-2.19826">
        <ele>19.6</ele>
        <time>2020-04-09T14:50:18.000Z</time>
      </trkpt>
      <trkpt lat="47.27388" lon="-2.19827">
        <ele>19.6</ele>
        <time>2020-04-09T14:50:19.000Z</time>
      </trkpt>
      <trkpt lat="47.27383" lon="-2.19828">
        <ele>19.8</ele>
        <time>2020-04-09T14:50:20.000Z</time>
      </trkpt>
      <trkpt lat="47.27379" lon="-2.19829">
        <ele>19.8</ele>
        <time>2020-04-09T14:50:21.000Z</time>
      </trkpt>
      <trkpt lat="47.27374" lon="-2.19831">
        <ele>19.8</ele>
        <time>2020-04-09T14:50:22.000Z</time>
      </trkpt>
      <trkpt lat="47.2737" lon="-2.19832">
        <ele>20</ele>
        <time>2020-04-09T14:50:23.000Z</time>
      </trkpt>
      <trkpt lat="47.27365" lon="-2.19834">
        <ele>19.6</ele>
        <time>2020-04-09T14:50:24.000Z</time>
      </trkpt>
      <trkpt lat="47.2736" lon="-2.19835">
        <ele>19.6</ele>
        <time>2020-04-09T14:50:25.000Z</time>
      </trkpt>
      <trkpt lat="47.27356" lon="-2.19836">
        <ele>19.6</ele>
        <time>2020-04-09T14:50:26.000Z</time>
      </trkpt>
      <trkpt lat="47.27351" lon="-2.19836">
        <ele>19.6</ele>
        <time>2020-04-09T14:50:27.000Z</time>
      </trkpt>
      <trkpt lat="47.27347" lon="-2.19837">
        <ele>19.8</ele>
        <time>2020-04-09T14:50:28.000Z</time>
      </trkpt>
      <trkpt lat="47.27342" lon="-2.19838">
        <ele>19.8</ele>
        <time>2020-04-09T14:50:29.000Z</time>
      </trkpt>
      <trkpt lat="47.27337" lon="-2.1984">
        <ele>19.8</ele>
        <time>2020-04-09T14:50:30.000Z</time>
      </trkpt>
      <trkpt lat="47.27333" lon="-2.19842">
        <ele>19.8</ele>
        <time>2020-04-09T14:50:31.000Z</time>
      </trkpt>
      <trkpt lat="47.27328" lon="-2.19843">
        <ele>20</ele>
        <time>2020-04-09T14:50:32.000Z</time>
      </trkpt>
      <trkpt lat="47.27324" lon="-2.19844">
        <ele>20</ele>
        <time>2020-04-09T14:50:33.000Z</time>
      </trkpt>
      <trkpt lat="47.27319" lon="-2.19845">
        <ele>20</ele>
        <time>2020-04-09T14:50:34.000Z</time>
      </trkpt>
      <trkpt lat="47.27314" lon="-2.19846">
        <ele>20</ele>
        <time>2020-04-09T14:50:35.000Z</time>
      </trkpt>
      <trkpt lat="47.2731" lon="-2.19847">
        <ele>20</ele>
        <time>2020-04-09T14:50:36.000Z</time>
      </trkpt>
      <trkpt lat="47.27305" lon="-2.19848">
        <ele>20</ele>
        <time>2020-04-09T14:50:37.000Z</time>
      </trkpt>
      <trkpt lat="47.27301" lon="-2.19849">
        <ele>20</ele>
        <time>2020-04-09T14:50:38.000Z</time>
      </trkpt>
      <trkpt lat="47.27296" lon="-2.1985">
        <ele>20</ele>
        <time>2020-04-09T14:50:39.000Z</time>
      </trkpt>
      <trkpt lat="47.27291" lon="-2.19852">
        <ele>20</ele>
        <time>2020-04-09T14:50:40.000Z</time>
      </trkpt>
      <trkpt lat="47.27287" lon="-2.19853">
        <ele>20</ele>
        <time>2020-04-09T14:50:41.000Z</time>
      </trkpt>
      <trkpt lat="47.27282" lon="-2.19854">
        <ele>20</ele>
        <time>2020-04-09T14:50:42.000Z</time>
      </trkpt>
      <trkpt lat="47.27278" lon="-2.19856">
        <ele>20</ele>
        <time>2020-04-09T14:50:43.000Z</time>
      </trkpt>
      <trkpt lat="47.27273" lon="-2.19857">
        <ele>19.8</ele>
        <time>2020-04-09T14:50:44.000Z</time>
      </trkpt>
      <trkpt lat="47.27268" lon="-2.19858">
        <ele>19.6</ele>
        <time>2020-04-09T14:50:45.000Z</time>
      </trkpt>
      <trkpt lat="47.27264" lon="-2.19859">
        <ele>19.4</ele>
        <time>2020-04-09T14:50:46.000Z</time>
      </trkpt>
      <trkpt lat="47.2726" lon="-2.19861">
        <ele>19.4</ele>
        <time>2020-04-09T14:50:47.000Z</time>
      </trkpt>
      <trkpt lat="47.27256" lon="-2.19864">
        <ele>19.6</ele>
        <time>2020-04-09T14:50:48.000Z</time>
      </trkpt>
      <trkpt lat="47.27252" lon="-2.19867">
        <ele>19.8</ele>
        <time>2020-04-09T14:50:49.000Z</time>
      </trkpt>
      <trkpt lat="47.27248" lon="-2.19872">
        <ele>19.6</ele>
        <time>2020-04-09T14:50:50.000Z</time>
      </trkpt>
      <trkpt lat="47.27246" lon="-2.19877">
        <ele>19.8</ele>
        <time>2020-04-09T14:50:51.000Z</time>
      </trkpt>
      <trkpt lat="47.27243" lon="-2.19882">
        <ele>20</ele>
        <time>2020-04-09T14:50:52.000Z</time>
      </trkpt>
      <trkpt lat="47.27241" lon="-2.19888">
        <ele>20</ele>
        <time>2020-04-09T14:50:53.000Z</time>
      </trkpt>
      <trkpt lat="47.27239" lon="-2.19894">
        <ele>19.8</ele>
        <time>2020-04-09T14:50:54.000Z</time>
      </trkpt>
      <trkpt lat="47.27238" lon="-2.19901">
        <ele>19.8</ele>
        <time>2020-04-09T14:50:55.000Z</time>
      </trkpt>
      <trkpt lat="47.27238" lon="-2.19908">
        <ele>19.6</ele>
        <time>2020-04-09T14:50:56.000Z</time>
      </trkpt>
      <trkpt lat="47.27238" lon="-2.19915">
        <ele>19.6</ele>
        <time>2020-04-09T14:50:57.000Z</time>
      </trkpt>
      <trkpt lat="47.27239" lon="-2.19921">
        <ele>19.8</ele>
        <time>2020-04-09T14:50:58.000Z</time>
      </trkpt>
      <trkpt lat="47.2724" lon="-2.19928">
        <ele>20</ele>
        <time>2020-04-09T14:50:59.000Z</time>
      </trkpt>
      <trkpt lat="47.27242" lon="-2.19942">
        <ele>20</ele>
        <time>2020-04-09T14:51:01.000Z</time>
      </trkpt>
      <trkpt lat="47.27242" lon="-2.19949">
        <ele>20</ele>
        <time>2020-04-09T14:51:02.000Z</time>
      </trkpt>
      <trkpt lat="47.27243" lon="-2.19956">
        <ele>20</ele>
        <time>2020-04-09T14:51:03.000Z</time>
      </trkpt>
      <trkpt lat="47.27244" lon="-2.19963">
        <ele>20</ele>
        <time>2020-04-09T14:51:04.000Z</time>
      </trkpt>
      <trkpt lat="47.27245" lon="-2.1997">
        <ele>20</ele>
        <time>2020-04-09T14:51:05.000Z</time>
      </trkpt>
      <trkpt lat="47.27246" lon="-2.19977">
        <ele>20</ele>
        <time>2020-04-09T14:51:06.000Z</time>
      </trkpt>
      <trkpt lat="47.27247" lon="-2.19983">
        <ele>20</ele>
        <time>2020-04-09T14:51:07.000Z</time>
      </trkpt>
      <trkpt lat="47.27248" lon="-2.1999">
        <ele>20.2</ele>
        <time>2020-04-09T14:51:08.000Z</time>
      </trkpt>
      <trkpt lat="47.27249" lon="-2.19997">
        <ele>20.2</ele>
        <time>2020-04-09T14:51:09.000Z</time>
      </trkpt>
      <trkpt lat="47.27249" lon="-2.20004">
        <ele>20.2</ele>
        <time>2020-04-09T14:51:10.000Z</time>
      </trkpt>
      <trkpt lat="47.2725" lon="-2.20011">
        <ele>20.2</ele>
        <time>2020-04-09T14:51:11.000Z</time>
      </trkpt>
      <trkpt lat="47.27251" lon="-2.20018">
        <ele>20.4</ele>
        <time>2020-04-09T14:51:12.000Z</time>
      </trkpt>
      <trkpt lat="47.27252" lon="-2.20025">
        <ele>20.4</ele>
        <time>2020-04-09T14:51:13.000Z</time>
      </trkpt>
      <trkpt lat="47.27252" lon="-2.20032">
        <ele>20.2</ele>
        <time>2020-04-09T14:51:14.000Z</time>
      </trkpt>
      <trkpt lat="47.27253" lon="-2.20039">
        <ele>20.2</ele>
        <time>2020-04-09T14:51:15.000Z</time>
      </trkpt>
      <trkpt lat="47.27255" lon="-2.20054">
        <ele>20</ele>
        <time>2020-04-09T14:51:16.000Z</time>
      </trkpt>
      <trkpt lat="47.27256" lon="-2.20061">
        <ele>20.2</ele>
        <time>2020-04-09T14:51:17.000Z</time>
      </trkpt>
      <trkpt lat="47.27257" lon="-2.20068">
        <ele>20.2</ele>
        <time>2020-04-09T14:51:18.000Z</time>
      </trkpt>
      <trkpt lat="47.27258" lon="-2.20075">
        <ele>20</ele>
        <time>2020-04-09T14:51:19.000Z</time>
      </trkpt>
      <trkpt lat="47.27259" lon="-2.20083">
        <ele>20.2</ele>
        <time>2020-04-09T14:51:20.000Z</time>
      </trkpt>
      <trkpt lat="47.2726" lon="-2.2009">
        <ele>20</ele>
        <time>2020-04-09T14:51:21.000Z</time>
      </trkpt>
      <trkpt lat="47.2726" lon="-2.20097">
        <ele>19.8</ele>
        <time>2020-04-09T14:51:22.000Z</time>
      </trkpt>
      <trkpt lat="47.27261" lon="-2.20105">
        <ele>19.8</ele>
        <time>2020-04-09T14:51:23.000Z</time>
      </trkpt>
      <trkpt lat="47.27262" lon="-2.20112">
        <ele>19.8</ele>
        <time>2020-04-09T14:51:25.000Z</time>
      </trkpt>
      <trkpt lat="47.27264" lon="-2.20127">
        <ele>19.8</ele>
        <time>2020-04-09T14:51:26.000Z</time>
      </trkpt>
      <trkpt lat="47.27264" lon="-2.20134">
        <ele>19.8</ele>
        <time>2020-04-09T14:51:27.000Z</time>
      </trkpt>
      <trkpt lat="47.27265" lon="-2.20141">
        <ele>19.8</ele>
        <time>2020-04-09T14:51:28.000Z</time>
      </trkpt>
      <trkpt lat="47.27266" lon="-2.20148">
        <ele>19.4</ele>
        <time>2020-04-09T14:51:29.000Z</time>
      </trkpt>
      <trkpt lat="47.27267" lon="-2.20155">
        <ele>19.4</ele>
        <time>2020-04-09T14:51:30.000Z</time>
      </trkpt>
      <trkpt lat="47.27268" lon="-2.20162">
        <ele>19.4</ele>
        <time>2020-04-09T14:51:31.000Z</time>
      </trkpt>
      <trkpt lat="47.27269" lon="-2.20168">
        <ele>19.2</ele>
        <time>2020-04-09T14:51:32.000Z</time>
      </trkpt>
      <trkpt lat="47.2727" lon="-2.20174">
        <ele>19.4</ele>
        <time>2020-04-09T14:51:33.000Z</time>
      </trkpt>
      <trkpt lat="47.2727" lon="-2.20178">
        <ele>19.6</ele>
        <time>2020-04-09T14:51:34.000Z</time>
      </trkpt>
      <trkpt lat="47.27271" lon="-2.20183">
        <ele>19.4</ele>
        <time>2020-04-09T14:51:35.000Z</time>
      </trkpt>
      <trkpt lat="47.27271" lon="-2.20183">
        <ele>19.6</ele>
        <time>2020-04-09T14:51:36.000Z</time>
      </trkpt>
      <trkpt lat="47.27271" lon="-2.20188">
        <ele>19.8</ele>
        <time>2020-04-09T14:51:37.000Z</time>
      </trkpt>
      <trkpt lat="47.27273" lon="-2.20194">
        <ele>19.6</ele>
        <time>2020-04-09T14:51:38.000Z</time>
      </trkpt>
      <trkpt lat="47.27274" lon="-2.20202">
        <ele>19.8</ele>
        <time>2020-04-09T14:51:39.000Z</time>
      </trkpt>
      <trkpt lat="47.27275" lon="-2.20209">
        <ele>19.8</ele>
        <time>2020-04-09T14:51:40.000Z</time>
      </trkpt>
      <trkpt lat="47.27277" lon="-2.20216">
        <ele>19.8</ele>
        <time>2020-04-09T14:51:41.000Z</time>
      </trkpt>
      <trkpt lat="47.2728" lon="-2.20221">
        <ele>19.8</ele>
        <time>2020-04-09T14:51:42.000Z</time>
      </trkpt>
      <trkpt lat="47.27283" lon="-2.20227">
        <ele>19.8</ele>
        <time>2020-04-09T14:51:43.000Z</time>
      </trkpt>
      <trkpt lat="47.27285" lon="-2.20232">
        <ele>19.6</ele>
        <time>2020-04-09T14:51:45.000Z</time>
      </trkpt>
      <trkpt lat="47.2729" lon="-2.20243">
        <ele>19.8</ele>
        <time>2020-04-09T14:51:46.000Z</time>
      </trkpt>
      <trkpt lat="47.27292" lon="-2.2025">
        <ele>19.6</ele>
        <time>2020-04-09T14:51:47.000Z</time>
      </trkpt>
      <trkpt lat="47.27294" lon="-2.20256">
        <ele>19.8</ele>
        <time>2020-04-09T14:51:48.000Z</time>
      </trkpt>
      <trkpt lat="47.27295" lon="-2.20262">
        <ele>19.6</ele>
        <time>2020-04-09T14:51:49.000Z</time>
      </trkpt>
      <trkpt lat="47.27296" lon="-2.20269">
        <ele>19.8</ele>
        <time>2020-04-09T14:51:50.000Z</time>
      </trkpt>
      <trkpt lat="47.27297" lon="-2.20276">
        <ele>19.8</ele>
        <time>2020-04-09T14:51:51.000Z</time>
      </trkpt>
      <trkpt lat="47.27299" lon="-2.20281">
        <ele>19.8</ele>
        <time>2020-04-09T14:51:52.000Z</time>
      </trkpt>
      <trkpt lat="47.27302" lon="-2.20286">
        <ele>20</ele>
        <time>2020-04-09T14:51:53.000Z</time>
      </trkpt>
      <trkpt lat="47.27305" lon="-2.20291">
        <ele>20</ele>
        <time>2020-04-09T14:51:54.000Z</time>
      </trkpt>
      <trkpt lat="47.27307" lon="-2.20296">
        <ele>20</ele>
        <time>2020-04-09T14:51:55.000Z</time>
      </trkpt>
      <trkpt lat="47.27309" lon="-2.20301">
        <ele>19.8</ele>
        <time>2020-04-09T14:51:56.000Z</time>
      </trkpt>
      <trkpt lat="47.27312" lon="-2.20306">
        <ele>19.6</ele>
        <time>2020-04-09T14:51:57.000Z</time>
      </trkpt>
      <trkpt lat="47.27313" lon="-2.20312">
        <ele>20</ele>
        <time>2020-04-09T14:51:58.000Z</time>
      </trkpt>
      <trkpt lat="47.27314" lon="-2.20318">
        <ele>20</ele>
        <time>2020-04-09T14:51:59.000Z</time>
      </trkpt>
      <trkpt lat="47.27315" lon="-2.20324">
        <ele>19.8</ele>
        <time>2020-04-09T14:52:00.000Z</time>
      </trkpt>
      <trkpt lat="47.27316" lon="-2.2033">
        <ele>20</ele>
        <time>2020-04-09T14:52:01.000Z</time>
      </trkpt>
      <trkpt lat="47.27317" lon="-2.20336">
        <ele>19.8</ele>
        <time>2020-04-09T14:52:02.000Z</time>
      </trkpt>
      <trkpt lat="47.27317" lon="-2.20342">
        <ele>20.2</ele>
        <time>2020-04-09T14:52:03.000Z</time>
      </trkpt>
      <trkpt lat="47.27318" lon="-2.20348">
        <ele>20.4</ele>
        <time>2020-04-09T14:52:04.000Z</time>
      </trkpt>
      <trkpt lat="47.27318" lon="-2.20353">
        <ele>20.4</ele>
        <time>2020-04-09T14:52:05.000Z</time>
      </trkpt>
      <trkpt lat="47.27319" lon="-2.20359">
        <ele>20.4</ele>
        <time>2020-04-09T14:52:06.000Z</time>
      </trkpt>
      <trkpt lat="47.27319" lon="-2.20365">
        <ele>20.6</ele>
        <time>2020-04-09T14:52:07.000Z</time>
      </trkpt>
      <trkpt lat="47.2732" lon="-2.20371">
        <ele>20.6</ele>
        <time>2020-04-09T14:52:08.000Z</time>
      </trkpt>
      <trkpt lat="47.27321" lon="-2.20376">
        <ele>20.6</ele>
        <time>2020-04-09T14:52:09.000Z</time>
      </trkpt>
      <trkpt lat="47.27322" lon="-2.20382">
        <ele>20.6</ele>
        <time>2020-04-09T14:52:10.000Z</time>
      </trkpt>
      <trkpt lat="47.27323" lon="-2.20388">
        <ele>20.6</ele>
        <time>2020-04-09T14:52:11.000Z</time>
      </trkpt>
      <trkpt lat="47.27324" lon="-2.20393">
        <ele>20.8</ele>
        <time>2020-04-09T14:52:12.000Z</time>
      </trkpt>
      <trkpt lat="47.27324" lon="-2.20399">
        <ele>21.2</ele>
        <time>2020-04-09T14:52:13.000Z</time>
      </trkpt>
      <trkpt lat="47.27325" lon="-2.20404">
        <ele>21.4</ele>
        <time>2020-04-09T14:52:14.000Z</time>
      </trkpt>
      <trkpt lat="47.27325" lon="-2.20409">
        <ele>21.6</ele>
        <time>2020-04-09T14:52:15.000Z</time>
      </trkpt>
      <trkpt lat="47.27326" lon="-2.20414">
        <ele>21.6</ele>
        <time>2020-04-09T14:52:16.000Z</time>
      </trkpt>
      <trkpt lat="47.27326" lon="-2.20418">
        <ele>21.8</ele>
        <time>2020-04-09T14:52:17.000Z</time>
      </trkpt>
      <trkpt lat="47.27327" lon="-2.20422">
        <ele>21.8</ele>
        <time>2020-04-09T14:52:18.000Z</time>
      </trkpt>
      <trkpt lat="47.2733" lon="-2.20424">
        <ele>22</ele>
        <time>2020-04-09T14:52:19.000Z</time>
      </trkpt>
      <trkpt lat="47.27332" lon="-2.20425">
        <ele>22</ele>
        <time>2020-04-09T14:52:20.000Z</time>
      </trkpt>
      <trkpt lat="47.27335" lon="-2.20426">
        <ele>22</ele>
        <time>2020-04-09T14:52:21.000Z</time>
      </trkpt>
      <trkpt lat="47.27338" lon="-2.20425">
        <ele>22</ele>
        <time>2020-04-09T14:52:22.000Z</time>
      </trkpt>
      <trkpt lat="47.27342" lon="-2.20423">
        <ele>22.2</ele>
        <time>2020-04-09T14:52:23.000Z</time>
      </trkpt>
      <trkpt lat="47.27345" lon="-2.20423">
        <ele>22</ele>
        <time>2020-04-09T14:52:24.000Z</time>
      </trkpt>
      <trkpt lat="47.27349" lon="-2.20424">
        <ele>22</ele>
        <time>2020-04-09T14:52:25.000Z</time>
      </trkpt>
      <trkpt lat="47.27353" lon="-2.20423">
        <ele>21.8</ele>
        <time>2020-04-09T14:52:26.000Z</time>
      </trkpt>
      <trkpt lat="47.27357" lon="-2.20422">
        <ele>21.6</ele>
        <time>2020-04-09T14:52:27.000Z</time>
      </trkpt>
      <trkpt lat="47.27361" lon="-2.20421">
        <ele>21.6</ele>
        <time>2020-04-09T14:52:28.000Z</time>
      </trkpt>
      <trkpt lat="47.27366" lon="-2.20419">
        <ele>21.6</ele>
        <time>2020-04-09T14:52:29.000Z</time>
      </trkpt>
      <trkpt lat="47.27371" lon="-2.20418">
        <ele>21.2</ele>
        <time>2020-04-09T14:52:30.000Z</time>
      </trkpt>
      <trkpt lat="47.27376" lon="-2.20417">
        <ele>21.4</ele>
        <time>2020-04-09T14:52:31.000Z</time>
      </trkpt>
      <trkpt lat="47.27381" lon="-2.20416">
        <ele>21.2</ele>
        <time>2020-04-09T14:52:32.000Z</time>
      </trkpt>
      <trkpt lat="47.27386" lon="-2.20415">
        <ele>21.2</ele>
        <time>2020-04-09T14:52:33.000Z</time>
      </trkpt>
      <trkpt lat="47.27392" lon="-2.20413">
        <ele>21.2</ele>
        <time>2020-04-09T14:52:34.000Z</time>
      </trkpt>
      <trkpt lat="47.27397" lon="-2.20412">
        <ele>21.2</ele>
        <time>2020-04-09T14:52:35.000Z</time>
      </trkpt>
      <trkpt lat="47.27403" lon="-2.2041">
        <ele>21</ele>
        <time>2020-04-09T14:52:36.000Z</time>
      </trkpt>
      <trkpt lat="47.27409" lon="-2.20408">
        <ele>20.8</ele>
        <time>2020-04-09T14:52:37.000Z</time>
      </trkpt>
      <trkpt lat="47.27415" lon="-2.20407">
        <ele>20.4</ele>
        <time>2020-04-09T14:52:38.000Z</time>
      </trkpt>
      <trkpt lat="47.27421" lon="-2.20405">
        <ele>20.6</ele>
        <time>2020-04-09T14:52:39.000Z</time>
      </trkpt>
      <trkpt lat="47.27428" lon="-2.20403">
        <ele>20.4</ele>
        <time>2020-04-09T14:52:40.000Z</time>
      </trkpt>
      <trkpt lat="47.27434" lon="-2.20402">
        <ele>20</ele>
        <time>2020-04-09T14:52:41.000Z</time>
      </trkpt>
      <trkpt lat="47.2744" lon="-2.204">
        <ele>20</ele>
        <time>2020-04-09T14:52:42.000Z</time>
      </trkpt>
      <trkpt lat="47.27447" lon="-2.20398">
        <ele>19.6</ele>
        <time>2020-04-09T14:52:43.000Z</time>
      </trkpt>
      <trkpt lat="47.27454" lon="-2.20397">
        <ele>19.6</ele>
        <time>2020-04-09T14:52:44.000Z</time>
      </trkpt>
      <trkpt lat="47.27461" lon="-2.20395">
        <ele>19.6</ele>
        <time>2020-04-09T14:52:45.000Z</time>
      </trkpt>
      <trkpt lat="47.27468" lon="-2.20394">
        <ele>19.4</ele>
        <time>2020-04-09T14:52:46.000Z</time>
      </trkpt>
      <trkpt lat="47.27475" lon="-2.20392">
        <ele>19.4</ele>
        <time>2020-04-09T14:52:47.000Z</time>
      </trkpt>
      <trkpt lat="47.27482" lon="-2.2039">
        <ele>19.2</ele>
        <time>2020-04-09T14:52:48.000Z</time>
      </trkpt>
      <trkpt lat="47.27488" lon="-2.20388">
        <ele>19.4</ele>
        <time>2020-04-09T14:52:49.000Z</time>
      </trkpt>
      <trkpt lat="47.27495" lon="-2.20386">
        <ele>19.4</ele>
        <time>2020-04-09T14:52:50.000Z</time>
      </trkpt>
      <trkpt lat="47.27502" lon="-2.20384">
        <ele>19.4</ele>
        <time>2020-04-09T14:52:51.000Z</time>
      </trkpt>
      <trkpt lat="47.27508" lon="-2.20383">
        <ele>19.4</ele>
        <time>2020-04-09T14:52:52.000Z</time>
      </trkpt>
      <trkpt lat="47.27514" lon="-2.20381">
        <ele>19.2</ele>
        <time>2020-04-09T14:52:53.000Z</time>
      </trkpt>
      <trkpt lat="47.2752" lon="-2.20381">
        <ele>19.4</ele>
        <time>2020-04-09T14:52:54.000Z</time>
      </trkpt>
      <trkpt lat="47.27527" lon="-2.20381">
        <ele>19.4</ele>
        <time>2020-04-09T14:52:55.000Z</time>
      </trkpt>
      <trkpt lat="47.27532" lon="-2.20383">
        <ele>19.6</ele>
        <time>2020-04-09T14:52:56.000Z</time>
      </trkpt>
      <trkpt lat="47.27538" lon="-2.20384">
        <ele>19.4</ele>
        <time>2020-04-09T14:52:57.000Z</time>
      </trkpt>
      <trkpt lat="47.27544" lon="-2.20384">
        <ele>19.4</ele>
        <time>2020-04-09T14:52:58.000Z</time>
      </trkpt>
      <trkpt lat="47.2755" lon="-2.20383">
        <ele>19.2</ele>
        <time>2020-04-09T14:52:59.000Z</time>
      </trkpt>
      <trkpt lat="47.27557" lon="-2.20382">
        <ele>19.4</ele>
        <time>2020-04-09T14:53:00.000Z</time>
      </trkpt>
      <trkpt lat="47.27563" lon="-2.20379">
        <ele>19.4</ele>
        <time>2020-04-09T14:53:01.000Z</time>
      </trkpt>
      <trkpt lat="47.27569" lon="-2.20377">
        <ele>19.4</ele>
        <time>2020-04-09T14:53:02.000Z</time>
      </trkpt>
      <trkpt lat="47.27575" lon="-2.20375">
        <ele>19.4</ele>
        <time>2020-04-09T14:53:03.000Z</time>
      </trkpt>
      <trkpt lat="47.27581" lon="-2.20375">
        <ele>19.2</ele>
        <time>2020-04-09T14:53:04.000Z</time>
      </trkpt>
      <trkpt lat="47.27588" lon="-2.20372">
        <ele>19.2</ele>
        <time>2020-04-09T14:53:05.000Z</time>
      </trkpt>
      <trkpt lat="47.27594" lon="-2.20369">
        <ele>19</ele>
        <time>2020-04-09T14:53:06.000Z</time>
      </trkpt>
      <trkpt lat="47.276" lon="-2.20367">
        <ele>19</ele>
        <time>2020-04-09T14:53:07.000Z</time>
      </trkpt>
      <trkpt lat="47.27606" lon="-2.20364">
        <ele>19</ele>
        <time>2020-04-09T14:53:08.000Z</time>
      </trkpt>
      <trkpt lat="47.27612" lon="-2.20361">
        <ele>19.2</ele>
        <time>2020-04-09T14:53:09.000Z</time>
      </trkpt>
      <trkpt lat="47.27618" lon="-2.20359">
        <ele>19.2</ele>
        <time>2020-04-09T14:53:10.000Z</time>
      </trkpt>
      <trkpt lat="47.27624" lon="-2.20355">
        <ele>19.4</ele>
        <time>2020-04-09T14:53:11.000Z</time>
      </trkpt>
      <trkpt lat="47.2763" lon="-2.20351">
        <ele>19.2</ele>
        <time>2020-04-09T14:53:12.000Z</time>
      </trkpt>
      <trkpt lat="47.27636" lon="-2.2035">
        <ele>19.4</ele>
        <time>2020-04-09T14:53:13.000Z</time>
      </trkpt>
      <trkpt lat="47.27642" lon="-2.20349">
        <ele>19.4</ele>
        <time>2020-04-09T14:53:14.000Z</time>
      </trkpt>
      <trkpt lat="47.27647" lon="-2.20351">
        <ele>19.6</ele>
        <time>2020-04-09T14:53:15.000Z</time>
      </trkpt>
      <trkpt lat="47.27653" lon="-2.20351">
        <ele>19.6</ele>
        <time>2020-04-09T14:53:16.000Z</time>
      </trkpt>
      <trkpt lat="47.27659" lon="-2.20352">
        <ele>19.6</ele>
        <time>2020-04-09T14:53:17.000Z</time>
      </trkpt>
      <trkpt lat="47.27664" lon="-2.20355">
        <ele>19.6</ele>
        <time>2020-04-09T14:53:18.000Z</time>
      </trkpt>
      <trkpt lat="47.2767" lon="-2.20355">
        <ele>19.6</ele>
        <time>2020-04-09T14:53:19.000Z</time>
      </trkpt>
      <trkpt lat="47.27676" lon="-2.20354">
        <ele>19.6</ele>
        <time>2020-04-09T14:53:20.000Z</time>
      </trkpt>
      <trkpt lat="47.27682" lon="-2.20353">
        <ele>19.6</ele>
        <time>2020-04-09T14:53:21.000Z</time>
      </trkpt>
      <trkpt lat="47.27688" lon="-2.20353">
        <ele>19.4</ele>
        <time>2020-04-09T14:53:22.000Z</time>
      </trkpt>
      <trkpt lat="47.27694" lon="-2.20352">
        <ele>19.6</ele>
        <time>2020-04-09T14:53:23.000Z</time>
      </trkpt>
      <trkpt lat="47.277" lon="-2.2035">
        <ele>19.4</ele>
        <time>2020-04-09T14:53:24.000Z</time>
      </trkpt>
      <trkpt lat="47.27707" lon="-2.20348">
        <ele>19.4</ele>
        <time>2020-04-09T14:53:25.000Z</time>
      </trkpt>
      <trkpt lat="47.27713" lon="-2.20347">
        <ele>19.6</ele>
        <time>2020-04-09T14:53:26.000Z</time>
      </trkpt>
      <trkpt lat="47.27719" lon="-2.20344">
        <ele>19.4</ele>
        <time>2020-04-09T14:53:27.000Z</time>
      </trkpt>
      <trkpt lat="47.27725" lon="-2.20345">
        <ele>19.4</ele>
        <time>2020-04-09T14:53:28.000Z</time>
      </trkpt>
      <trkpt lat="47.27732" lon="-2.2034">
        <ele>19.2</ele>
        <time>2020-04-09T14:53:29.000Z</time>
      </trkpt>
      <trkpt lat="47.27739" lon="-2.20332">
        <ele>19.2</ele>
        <time>2020-04-09T14:53:30.000Z</time>
      </trkpt>
      <trkpt lat="47.27746" lon="-2.20326">
        <ele>19.2</ele>
        <time>2020-04-09T14:53:31.000Z</time>
      </trkpt>
      <trkpt lat="47.27753" lon="-2.20323">
        <ele>19.2</ele>
        <time>2020-04-09T14:53:32.000Z</time>
      </trkpt>
      <trkpt lat="47.27759" lon="-2.2032">
        <ele>19.2</ele>
        <time>2020-04-09T14:53:33.000Z</time>
      </trkpt>
      <trkpt lat="47.27766" lon="-2.20317">
        <ele>19.4</ele>
        <time>2020-04-09T14:53:34.000Z</time>
      </trkpt>
      <trkpt lat="47.27772" lon="-2.20316">
        <ele>19.6</ele>
        <time>2020-04-09T14:53:35.000Z</time>
      </trkpt>
      <trkpt lat="47.27778" lon="-2.20314">
        <ele>19.4</ele>
        <time>2020-04-09T14:53:36.000Z</time>
      </trkpt>
      <trkpt lat="47.27784" lon="-2.20312">
        <ele>19.6</ele>
        <time>2020-04-09T14:53:37.000Z</time>
      </trkpt>
      <trkpt lat="47.2779" lon="-2.2031">
        <ele>19.4</ele>
        <time>2020-04-09T14:53:38.000Z</time>
      </trkpt>
      <trkpt lat="47.27796" lon="-2.20309">
        <ele>19.4</ele>
        <time>2020-04-09T14:53:39.000Z</time>
      </trkpt>
      <trkpt lat="47.27802" lon="-2.20306">
        <ele>19.4</ele>
        <time>2020-04-09T14:53:40.000Z</time>
      </trkpt>
      <trkpt lat="47.27808" lon="-2.20304">
        <ele>19.2</ele>
        <time>2020-04-09T14:53:41.000Z</time>
      </trkpt>
      <trkpt lat="47.27814" lon="-2.20302">
        <ele>19.2</ele>
        <time>2020-04-09T14:53:42.000Z</time>
      </trkpt>
      <trkpt lat="47.2782" lon="-2.203">
        <ele>19.4</ele>
        <time>2020-04-09T14:53:43.000Z</time>
      </trkpt>
      <trkpt lat="47.27826" lon="-2.20298">
        <ele>19.4</ele>
        <time>2020-04-09T14:53:44.000Z</time>
      </trkpt>
      <trkpt lat="47.27831" lon="-2.20297">
        <ele>19.4</ele>
        <time>2020-04-09T14:53:45.000Z</time>
      </trkpt>
      <trkpt lat="47.27837" lon="-2.20295">
        <ele>19.4</ele>
        <time>2020-04-09T14:53:46.000Z</time>
      </trkpt>
      <trkpt lat="47.27843" lon="-2.20293">
        <ele>19.4</ele>
        <time>2020-04-09T14:53:47.000Z</time>
      </trkpt>
      <trkpt lat="47.27849" lon="-2.20292">
        <ele>19.4</ele>
        <time>2020-04-09T14:53:48.000Z</time>
      </trkpt>
      <trkpt lat="47.27855" lon="-2.2029">
        <ele>19.6</ele>
        <time>2020-04-09T14:53:49.000Z</time>
      </trkpt>
      <trkpt lat="47.2786" lon="-2.20288">
        <ele>19.4</ele>
        <time>2020-04-09T14:53:50.000Z</time>
      </trkpt>
      <trkpt lat="47.27866" lon="-2.20286">
        <ele>19.4</ele>
        <time>2020-04-09T14:53:51.000Z</time>
      </trkpt>
      <trkpt lat="47.27872" lon="-2.20285">
        <ele>19.4</ele>
        <time>2020-04-09T14:53:52.000Z</time>
      </trkpt>
      <trkpt lat="47.27877" lon="-2.20283">
        <ele>19.4</ele>
        <time>2020-04-09T14:53:53.000Z</time>
      </trkpt>
      <trkpt lat="47.27883" lon="-2.20281">
        <ele>19.4</ele>
        <time>2020-04-09T14:53:54.000Z</time>
      </trkpt>
      <trkpt lat="47.27889" lon="-2.2028">
        <ele>19.4</ele>
        <time>2020-04-09T14:53:55.000Z</time>
      </trkpt>
      <trkpt lat="47.27894" lon="-2.20278">
        <ele>19.4</ele>
        <time>2020-04-09T14:53:56.000Z</time>
      </trkpt>
      <trkpt lat="47.279" lon="-2.20277">
        <ele>19.6</ele>
        <time>2020-04-09T14:53:57.000Z</time>
      </trkpt>
      <trkpt lat="47.27905" lon="-2.20275">
        <ele>19.6</ele>
        <time>2020-04-09T14:53:58.000Z</time>
      </trkpt>
      <trkpt lat="47.27911" lon="-2.20274">
        <ele>19.4</ele>
        <time>2020-04-09T14:53:59.000Z</time>
      </trkpt>
      <trkpt lat="47.27917" lon="-2.20272">
        <ele>19.4</ele>
        <time>2020-04-09T14:54:00.000Z</time>
      </trkpt>
      <trkpt lat="47.27922" lon="-2.20271">
        <ele>19.4</ele>
        <time>2020-04-09T14:54:01.000Z</time>
      </trkpt>
      <trkpt lat="47.27928" lon="-2.20269">
        <ele>19.6</ele>
        <time>2020-04-09T14:54:02.000Z</time>
      </trkpt>
      <trkpt lat="47.27933" lon="-2.20268">
        <ele>19.4</ele>
        <time>2020-04-09T14:54:03.000Z</time>
      </trkpt>
      <trkpt lat="47.27938" lon="-2.20266">
        <ele>19.4</ele>
        <time>2020-04-09T14:54:04.000Z</time>
      </trkpt>
      <trkpt lat="47.27944" lon="-2.20265">
        <ele>19.4</ele>
        <time>2020-04-09T14:54:05.000Z</time>
      </trkpt>
      <trkpt lat="47.27949" lon="-2.20264">
        <ele>19.2</ele>
        <time>2020-04-09T14:54:06.000Z</time>
      </trkpt>
      <trkpt lat="47.27954" lon="-2.20262">
        <ele>19.8</ele>
        <time>2020-04-09T14:54:07.000Z</time>
      </trkpt>
      <trkpt lat="47.2796" lon="-2.2026">
        <ele>19.6</ele>
        <time>2020-04-09T14:54:08.000Z</time>
      </trkpt>
      <trkpt lat="47.27965" lon="-2.20259">
        <ele>19.6</ele>
        <time>2020-04-09T14:54:09.000Z</time>
      </trkpt>
      <trkpt lat="47.2797" lon="-2.20257">
        <ele>19.6</ele>
        <time>2020-04-09T14:54:10.000Z</time>
      </trkpt>
      <trkpt lat="47.27976" lon="-2.20256">
        <ele>19.8</ele>
        <time>2020-04-09T14:54:11.000Z</time>
      </trkpt>
      <trkpt lat="47.27981" lon="-2.20254">
        <ele>19.4</ele>
        <time>2020-04-09T14:54:12.000Z</time>
      </trkpt>
      <trkpt lat="47.27986" lon="-2.20253">
        <ele>19.8</ele>
        <time>2020-04-09T14:54:13.000Z</time>
      </trkpt>
      <trkpt lat="47.27992" lon="-2.20252">
        <ele>19.6</ele>
        <time>2020-04-09T14:54:14.000Z</time>
      </trkpt>
      <trkpt lat="47.27997" lon="-2.2025">
        <ele>19.6</ele>
        <time>2020-04-09T14:54:15.000Z</time>
      </trkpt>
      <trkpt lat="47.28003" lon="-2.20249">
        <ele>19.6</ele>
        <time>2020-04-09T14:54:16.000Z</time>
      </trkpt>
      <trkpt lat="47.28008" lon="-2.20247">
        <ele>19.8</ele>
        <time>2020-04-09T14:54:17.000Z</time>
      </trkpt>
      <trkpt lat="47.28013" lon="-2.20245">
        <ele>19.8</ele>
        <time>2020-04-09T14:54:18.000Z</time>
      </trkpt>
      <trkpt lat="47.28019" lon="-2.20244">
        <ele>19.8</ele>
        <time>2020-04-09T14:54:19.000Z</time>
      </trkpt>
      <trkpt lat="47.28025" lon="-2.20243">
        <ele>19.6</ele>
        <time>2020-04-09T14:54:20.000Z</time>
      </trkpt>
      <trkpt lat="47.2803" lon="-2.20241">
        <ele>19.6</ele>
        <time>2020-04-09T14:54:21.000Z</time>
      </trkpt>
      <trkpt lat="47.28036" lon="-2.2024">
        <ele>19.6</ele>
        <time>2020-04-09T14:54:22.000Z</time>
      </trkpt>
      <trkpt lat="47.28041" lon="-2.20238">
        <ele>19.2</ele>
        <time>2020-04-09T14:54:23.000Z</time>
      </trkpt>
      <trkpt lat="47.28047" lon="-2.20237">
        <ele>19.6</ele>
        <time>2020-04-09T14:54:24.000Z</time>
      </trkpt>
      <trkpt lat="47.28052" lon="-2.20235">
        <ele>19.6</ele>
        <time>2020-04-09T14:54:25.000Z</time>
      </trkpt>
      <trkpt lat="47.28058" lon="-2.20234">
        <ele>19.8</ele>
        <time>2020-04-09T14:54:26.000Z</time>
      </trkpt>
      <trkpt lat="47.28063" lon="-2.20232">
        <ele>19.8</ele>
        <time>2020-04-09T14:54:27.000Z</time>
      </trkpt>
      <trkpt lat="47.28069" lon="-2.20231">
        <ele>19.6</ele>
        <time>2020-04-09T14:54:28.000Z</time>
      </trkpt>
      <trkpt lat="47.28075" lon="-2.2023">
        <ele>19.6</ele>
        <time>2020-04-09T14:54:29.000Z</time>
      </trkpt>
      <trkpt lat="47.2808" lon="-2.20228">
        <ele>19.8</ele>
        <time>2020-04-09T14:54:30.000Z</time>
      </trkpt>
      <trkpt lat="47.28085" lon="-2.20227">
        <ele>19.8</ele>
        <time>2020-04-09T14:54:31.000Z</time>
      </trkpt>
      <trkpt lat="47.28091" lon="-2.20226">
        <ele>19.4</ele>
        <time>2020-04-09T14:54:32.000Z</time>
      </trkpt>
      <trkpt lat="47.28096" lon="-2.20224">
        <ele>19.4</ele>
        <time>2020-04-09T14:54:33.000Z</time>
      </trkpt>
      <trkpt lat="47.28102" lon="-2.20223">
        <ele>19.4</ele>
        <time>2020-04-09T14:54:34.000Z</time>
      </trkpt>
      <trkpt lat="47.28107" lon="-2.20221">
        <ele>19.4</ele>
        <time>2020-04-09T14:54:35.000Z</time>
      </trkpt>
      <trkpt lat="47.28113" lon="-2.2022">
        <ele>19.6</ele>
        <time>2020-04-09T14:54:36.000Z</time>
      </trkpt>
      <trkpt lat="47.28118" lon="-2.20218">
        <ele>19.4</ele>
        <time>2020-04-09T14:54:37.000Z</time>
      </trkpt>
      <trkpt lat="47.28123" lon="-2.20217">
        <ele>19.6</ele>
        <time>2020-04-09T14:54:38.000Z</time>
      </trkpt>
      <trkpt lat="47.28129" lon="-2.20216">
        <ele>19.6</ele>
        <time>2020-04-09T14:54:39.000Z</time>
      </trkpt>
      <trkpt lat="47.28134" lon="-2.20214">
        <ele>19.6</ele>
        <time>2020-04-09T14:54:40.000Z</time>
      </trkpt>
      <trkpt lat="47.28139" lon="-2.20213">
        <ele>19.8</ele>
        <time>2020-04-09T14:54:41.000Z</time>
      </trkpt>
      <trkpt lat="47.28144" lon="-2.20211">
        <ele>19.6</ele>
        <time>2020-04-09T14:54:42.000Z</time>
      </trkpt>
      <trkpt lat="47.2815" lon="-2.2021">
        <ele>19.4</ele>
        <time>2020-04-09T14:54:43.000Z</time>
      </trkpt>
      <trkpt lat="47.28155" lon="-2.20208">
        <ele>19.4</ele>
        <time>2020-04-09T14:54:44.000Z</time>
      </trkpt>
      <trkpt lat="47.2816" lon="-2.20207">
        <ele>19.4</ele>
        <time>2020-04-09T14:54:45.000Z</time>
      </trkpt>
      <trkpt lat="47.28166" lon="-2.20205">
        <ele>19.4</ele>
        <time>2020-04-09T14:54:46.000Z</time>
      </trkpt>
      <trkpt lat="47.28171" lon="-2.20204">
        <ele>19.2</ele>
        <time>2020-04-09T14:54:47.000Z</time>
      </trkpt>
      <trkpt lat="47.28176" lon="-2.20202">
        <ele>19.4</ele>
        <time>2020-04-09T14:54:48.000Z</time>
      </trkpt>
      <trkpt lat="47.28181" lon="-2.20201">
        <ele>19.4</ele>
        <time>2020-04-09T14:54:49.000Z</time>
      </trkpt>
      <trkpt lat="47.28187" lon="-2.20199">
        <ele>19.2</ele>
        <time>2020-04-09T14:54:50.000Z</time>
      </trkpt>
      <trkpt lat="47.28193" lon="-2.20197">
        <ele>19.4</ele>
        <time>2020-04-09T14:54:51.000Z</time>
      </trkpt>
      <trkpt lat="47.28199" lon="-2.20196">
        <ele>19.4</ele>
        <time>2020-04-09T14:54:52.000Z</time>
      </trkpt>
      <trkpt lat="47.28205" lon="-2.20194">
        <ele>19.4</ele>
        <time>2020-04-09T14:54:53.000Z</time>
      </trkpt>
      <trkpt lat="47.28211" lon="-2.20192">
        <ele>19.6</ele>
        <time>2020-04-09T14:54:54.000Z</time>
      </trkpt>
      <trkpt lat="47.28217" lon="-2.20191">
        <ele>19.6</ele>
        <time>2020-04-09T14:54:55.000Z</time>
      </trkpt>
      <trkpt lat="47.28223" lon="-2.20189">
        <ele>19.2</ele>
        <time>2020-04-09T14:54:56.000Z</time>
      </trkpt>
      <trkpt lat="47.2823" lon="-2.20187">
        <ele>19.2</ele>
        <time>2020-04-09T14:54:57.000Z</time>
      </trkpt>
      <trkpt lat="47.28236" lon="-2.20186">
        <ele>19.4</ele>
        <time>2020-04-09T14:54:58.000Z</time>
      </trkpt>
      <trkpt lat="47.28242" lon="-2.20184">
        <ele>19.4</ele>
        <time>2020-04-09T14:54:59.000Z</time>
      </trkpt>
      <trkpt lat="47.28249" lon="-2.20183">
        <ele>19.4</ele>
        <time>2020-04-09T14:55:00.000Z</time>
      </trkpt>
      <trkpt lat="47.28255" lon="-2.20181">
        <ele>19.4</ele>
        <time>2020-04-09T14:55:01.000Z</time>
      </trkpt>
      <trkpt lat="47.28261" lon="-2.20179">
        <ele>19.6</ele>
        <time>2020-04-09T14:55:02.000Z</time>
      </trkpt>
      <trkpt lat="47.28267" lon="-2.20177">
        <ele>19.6</ele>
        <time>2020-04-09T14:55:03.000Z</time>
      </trkpt>
      <trkpt lat="47.28274" lon="-2.20175">
        <ele>19.4</ele>
        <time>2020-04-09T14:55:04.000Z</time>
      </trkpt>
      <trkpt lat="47.2828" lon="-2.20174">
        <ele>19.6</ele>
        <time>2020-04-09T14:55:05.000Z</time>
      </trkpt>
      <trkpt lat="47.28286" lon="-2.20172">
        <ele>19.4</ele>
        <time>2020-04-09T14:55:06.000Z</time>
      </trkpt>
      <trkpt lat="47.28293" lon="-2.20171">
        <ele>19.4</ele>
        <time>2020-04-09T14:55:07.000Z</time>
      </trkpt>
      <trkpt lat="47.28299" lon="-2.20169">
        <ele>19.4</ele>
        <time>2020-04-09T14:55:08.000Z</time>
      </trkpt>
      <trkpt lat="47.28305" lon="-2.20167">
        <ele>19.6</ele>
        <time>2020-04-09T14:55:09.000Z</time>
      </trkpt>
      <trkpt lat="47.28312" lon="-2.20166">
        <ele>19.6</ele>
        <time>2020-04-09T14:55:10.000Z</time>
      </trkpt>
      <trkpt lat="47.28318" lon="-2.20164">
        <ele>19.6</ele>
        <time>2020-04-09T14:55:11.000Z</time>
      </trkpt>
      <trkpt lat="47.28325" lon="-2.20163">
        <ele>19.6</ele>
        <time>2020-04-09T14:55:12.000Z</time>
      </trkpt>
      <trkpt lat="47.28331" lon="-2.20161">
        <ele>19.4</ele>
        <time>2020-04-09T14:55:13.000Z</time>
      </trkpt>
      <trkpt lat="47.28337" lon="-2.2016">
        <ele>19.2</ele>
        <time>2020-04-09T14:55:14.000Z</time>
      </trkpt>
      <trkpt lat="47.28344" lon="-2.20158">
        <ele>19.4</ele>
        <time>2020-04-09T14:55:15.000Z</time>
      </trkpt>
      <trkpt lat="47.2835" lon="-2.20156">
        <ele>19.4</ele>
        <time>2020-04-09T14:55:16.000Z</time>
      </trkpt>
      <trkpt lat="47.28356" lon="-2.20155">
        <ele>19.4</ele>
        <time>2020-04-09T14:55:17.000Z</time>
      </trkpt>
      <trkpt lat="47.28362" lon="-2.20153">
        <ele>19.4</ele>
        <time>2020-04-09T14:55:18.000Z</time>
      </trkpt>
      <trkpt lat="47.28369" lon="-2.20151">
        <ele>19.4</ele>
        <time>2020-04-09T14:55:19.000Z</time>
      </trkpt>
      <trkpt lat="47.28375" lon="-2.20149">
        <ele>19.2</ele>
        <time>2020-04-09T14:55:20.000Z</time>
      </trkpt>
      <trkpt lat="47.28381" lon="-2.20148">
        <ele>19.4</ele>
        <time>2020-04-09T14:55:21.000Z</time>
      </trkpt>
      <trkpt lat="47.28388" lon="-2.20146">
        <ele>19.4</ele>
        <time>2020-04-09T14:55:22.000Z</time>
      </trkpt>
      <trkpt lat="47.28394" lon="-2.20144">
        <ele>19.4</ele>
        <time>2020-04-09T14:55:23.000Z</time>
      </trkpt>
      <trkpt lat="47.284" lon="-2.20143">
        <ele>19.2</ele>
        <time>2020-04-09T14:55:24.000Z</time>
      </trkpt>
      <trkpt lat="47.28406" lon="-2.20141">
        <ele>18.8</ele>
        <time>2020-04-09T14:55:25.000Z</time>
      </trkpt>
      <trkpt lat="47.28412" lon="-2.20139">
        <ele>19</ele>
        <time>2020-04-09T14:55:26.000Z</time>
      </trkpt>
      <trkpt lat="47.28418" lon="-2.20137">
        <ele>19</ele>
        <time>2020-04-09T14:55:27.000Z</time>
      </trkpt>
      <trkpt lat="47.28425" lon="-2.20136">
        <ele>19</ele>
        <time>2020-04-09T14:55:28.000Z</time>
      </trkpt>
      <trkpt lat="47.28431" lon="-2.20134">
        <ele>19</ele>
        <time>2020-04-09T14:55:29.000Z</time>
      </trkpt>
      <trkpt lat="47.28437" lon="-2.20132">
        <ele>19</ele>
        <time>2020-04-09T14:55:30.000Z</time>
      </trkpt>
      <trkpt lat="47.28443" lon="-2.20131">
        <ele>19</ele>
        <time>2020-04-09T14:55:31.000Z</time>
      </trkpt>
      <trkpt lat="47.28449" lon="-2.20129">
        <ele>18.8</ele>
        <time>2020-04-09T14:55:32.000Z</time>
      </trkpt>
      <trkpt lat="47.28455" lon="-2.20127">
        <ele>18.8</ele>
        <time>2020-04-09T14:55:33.000Z</time>
      </trkpt>
      <trkpt lat="47.28461" lon="-2.20125">
        <ele>18.8</ele>
        <time>2020-04-09T14:55:34.000Z</time>
      </trkpt>
      <trkpt lat="47.28467" lon="-2.20124">
        <ele>18.8</ele>
        <time>2020-04-09T14:55:35.000Z</time>
      </trkpt>
      <trkpt lat="47.28474" lon="-2.20122">
        <ele>18.8</ele>
        <time>2020-04-09T14:55:36.000Z</time>
      </trkpt>
      <trkpt lat="47.2848" lon="-2.2012">
        <ele>19</ele>
        <time>2020-04-09T14:55:37.000Z</time>
      </trkpt>
      <trkpt lat="47.28486" lon="-2.20119">
        <ele>19</ele>
        <time>2020-04-09T14:55:38.000Z</time>
      </trkpt>
      <trkpt lat="47.28492" lon="-2.20117">
        <ele>18.8</ele>
        <time>2020-04-09T14:55:39.000Z</time>
      </trkpt>
      <trkpt lat="47.28498" lon="-2.20115">
        <ele>18.8</ele>
        <time>2020-04-09T14:55:40.000Z</time>
      </trkpt>
      <trkpt lat="47.28511" lon="-2.20112">
        <ele>18.8</ele>
        <time>2020-04-09T14:55:41.000Z</time>
      </trkpt>
      <trkpt lat="47.28517" lon="-2.2011">
        <ele>18.6</ele>
        <time>2020-04-09T14:55:42.000Z</time>
      </trkpt>
      <trkpt lat="47.28523" lon="-2.20109">
        <ele>18.8</ele>
        <time>2020-04-09T14:55:43.000Z</time>
      </trkpt>
      <trkpt lat="47.2853" lon="-2.20107">
        <ele>18.6</ele>
        <time>2020-04-09T14:55:44.000Z</time>
      </trkpt>
      <trkpt lat="47.28536" lon="-2.20105">
        <ele>18.4</ele>
        <time>2020-04-09T14:55:45.000Z</time>
      </trkpt>
      <trkpt lat="47.28542" lon="-2.20103">
        <ele>18.8</ele>
        <time>2020-04-09T14:55:46.000Z</time>
      </trkpt>
      <trkpt lat="47.28548" lon="-2.20102">
        <ele>18.4</ele>
        <time>2020-04-09T14:55:47.000Z</time>
      </trkpt>
      <trkpt lat="47.28555" lon="-2.201">
        <ele>18.4</ele>
        <time>2020-04-09T14:55:48.000Z</time>
      </trkpt>
      <trkpt lat="47.28561" lon="-2.20098">
        <ele>18.6</ele>
        <time>2020-04-09T14:55:49.000Z</time>
      </trkpt>
      <trkpt lat="47.28567" lon="-2.20097">
        <ele>18.6</ele>
        <time>2020-04-09T14:55:50.000Z</time>
      </trkpt>
      <trkpt lat="47.28573" lon="-2.20095">
        <ele>18.6</ele>
        <time>2020-04-09T14:55:51.000Z</time>
      </trkpt>
      <trkpt lat="47.28579" lon="-2.20093">
        <ele>18.8</ele>
        <time>2020-04-09T14:55:52.000Z</time>
      </trkpt>
      <trkpt lat="47.28585" lon="-2.20092">
        <ele>18.6</ele>
        <time>2020-04-09T14:55:53.000Z</time>
      </trkpt>
      <trkpt lat="47.28592" lon="-2.2009">
        <ele>18.6</ele>
        <time>2020-04-09T14:55:54.000Z</time>
      </trkpt>
      <trkpt lat="47.28598" lon="-2.20089">
        <ele>18.4</ele>
        <time>2020-04-09T14:55:55.000Z</time>
      </trkpt>
      <trkpt lat="47.28604" lon="-2.20087">
        <ele>18.4</ele>
        <time>2020-04-09T14:55:56.000Z</time>
      </trkpt>
      <trkpt lat="47.2861" lon="-2.20085">
        <ele>18.4</ele>
        <time>2020-04-09T14:55:57.000Z</time>
      </trkpt>
      <trkpt lat="47.28616" lon="-2.20084">
        <ele>18.8</ele>
        <time>2020-04-09T14:55:58.000Z</time>
      </trkpt>
      <trkpt lat="47.28622" lon="-2.20083">
        <ele>18.8</ele>
        <time>2020-04-09T14:55:59.000Z</time>
      </trkpt>
      <trkpt lat="47.28627" lon="-2.20081">
        <ele>18.8</ele>
        <time>2020-04-09T14:56:00.000Z</time>
      </trkpt>
      <trkpt lat="47.28633" lon="-2.20079">
        <ele>19</ele>
        <time>2020-04-09T14:56:01.000Z</time>
      </trkpt>
      <trkpt lat="47.28639" lon="-2.20077">
        <ele>19</ele>
        <time>2020-04-09T14:56:02.000Z</time>
      </trkpt>
      <trkpt lat="47.28645" lon="-2.20076">
        <ele>19</ele>
        <time>2020-04-09T14:56:03.000Z</time>
      </trkpt>
      <trkpt lat="47.28645" lon="-2.20076">
        <ele>18.8</ele>
        <time>2020-04-09T14:56:04.000Z</time>
      </trkpt>
      <trkpt lat="47.28651" lon="-2.20074">
        <ele>18.8</ele>
        <time>2020-04-09T14:56:05.000Z</time>
      </trkpt>
      <trkpt lat="47.28662" lon="-2.20071">
        <ele>18.8</ele>
        <time>2020-04-09T14:56:06.000Z</time>
      </trkpt>
      <trkpt lat="47.28668" lon="-2.20069">
        <ele>19</ele>
        <time>2020-04-09T14:56:07.000Z</time>
      </trkpt>
      <trkpt lat="47.28668" lon="-2.20069">
        <ele>18.8</ele>
        <time>2020-04-09T14:56:08.000Z</time>
      </trkpt>
      <trkpt lat="47.28674" lon="-2.20068">
        <ele>19</ele>
        <time>2020-04-09T14:56:09.000Z</time>
      </trkpt>
      <trkpt lat="47.2868" lon="-2.20066">
        <ele>19</ele>
        <time>2020-04-09T14:56:10.000Z</time>
      </trkpt>
      <trkpt lat="47.28685" lon="-2.20065">
        <ele>18.8</ele>
        <time>2020-04-09T14:56:11.000Z</time>
      </trkpt>
      <trkpt lat="47.28691" lon="-2.20063">
        <ele>18.8</ele>
        <time>2020-04-09T14:56:12.000Z</time>
      </trkpt>
      <trkpt lat="47.28697" lon="-2.20062">
        <ele>19</ele>
        <time>2020-04-09T14:56:13.000Z</time>
      </trkpt>
      <trkpt lat="47.28702" lon="-2.2006">
        <ele>18.8</ele>
        <time>2020-04-09T14:56:14.000Z</time>
      </trkpt>
      <trkpt lat="47.28708" lon="-2.20059">
        <ele>19</ele>
        <time>2020-04-09T14:56:15.000Z</time>
      </trkpt>
      <trkpt lat="47.28714" lon="-2.20057">
        <ele>19</ele>
        <time>2020-04-09T14:56:16.000Z</time>
      </trkpt>
      <trkpt lat="47.28719" lon="-2.20056">
        <ele>19</ele>
        <time>2020-04-09T14:56:17.000Z</time>
      </trkpt>
      <trkpt lat="47.28725" lon="-2.20054">
        <ele>19</ele>
        <time>2020-04-09T14:56:18.000Z</time>
      </trkpt>
      <trkpt lat="47.2873" lon="-2.20053">
        <ele>18.8</ele>
        <time>2020-04-09T14:56:19.000Z</time>
      </trkpt>
      <trkpt lat="47.28736" lon="-2.20051">
        <ele>18.8</ele>
        <time>2020-04-09T14:56:20.000Z</time>
      </trkpt>
      <trkpt lat="47.28742" lon="-2.2005">
        <ele>19</ele>
        <time>2020-04-09T14:56:21.000Z</time>
      </trkpt>
      <trkpt lat="47.28747" lon="-2.20048">
        <ele>18.8</ele>
        <time>2020-04-09T14:56:22.000Z</time>
      </trkpt>
      <trkpt lat="47.28753" lon="-2.20046">
        <ele>18.8</ele>
        <time>2020-04-09T14:56:23.000Z</time>
      </trkpt>
      <trkpt lat="47.28759" lon="-2.20045">
        <ele>18.8</ele>
        <time>2020-04-09T14:56:24.000Z</time>
      </trkpt>
      <trkpt lat="47.28765" lon="-2.20043">
        <ele>18.8</ele>
        <time>2020-04-09T14:56:25.000Z</time>
      </trkpt>
      <trkpt lat="47.28771" lon="-2.20042">
        <ele>18.8</ele>
        <time>2020-04-09T14:56:26.000Z</time>
      </trkpt>
      <trkpt lat="47.28776" lon="-2.2004">
        <ele>19</ele>
        <time>2020-04-09T14:56:27.000Z</time>
      </trkpt>
      <trkpt lat="47.28782" lon="-2.20039">
        <ele>18.8</ele>
        <time>2020-04-09T14:56:28.000Z</time>
      </trkpt>
      <trkpt lat="47.28788" lon="-2.20037">
        <ele>19.2</ele>
        <time>2020-04-09T14:56:29.000Z</time>
      </trkpt>
      <trkpt lat="47.28794" lon="-2.20036">
        <ele>19.2</ele>
        <time>2020-04-09T14:56:30.000Z</time>
      </trkpt>
      <trkpt lat="47.288" lon="-2.20034">
        <ele>19.2</ele>
        <time>2020-04-09T14:56:31.000Z</time>
      </trkpt>
      <trkpt lat="47.28806" lon="-2.20032">
        <ele>19.2</ele>
        <time>2020-04-09T14:56:32.000Z</time>
      </trkpt>
      <trkpt lat="47.28811" lon="-2.2003">
        <ele>19.2</ele>
        <time>2020-04-09T14:56:33.000Z</time>
      </trkpt>
      <trkpt lat="47.28817" lon="-2.20029">
        <ele>19.2</ele>
        <time>2020-04-09T14:56:34.000Z</time>
      </trkpt>
      <trkpt lat="47.28823" lon="-2.20027">
        <ele>19.2</ele>
        <time>2020-04-09T14:56:35.000Z</time>
      </trkpt>
      <trkpt lat="47.28829" lon="-2.20025">
        <ele>19.4</ele>
        <time>2020-04-09T14:56:36.000Z</time>
      </trkpt>
      <trkpt lat="47.28835" lon="-2.20023">
        <ele>19.2</ele>
        <time>2020-04-09T14:56:37.000Z</time>
      </trkpt>
      <trkpt lat="47.28841" lon="-2.20022">
        <ele>19.4</ele>
        <time>2020-04-09T14:56:38.000Z</time>
      </trkpt>
      <trkpt lat="47.28847" lon="-2.2002">
        <ele>19.4</ele>
        <time>2020-04-09T14:56:39.000Z</time>
      </trkpt>
      <trkpt lat="47.28853" lon="-2.20018">
        <ele>19.4</ele>
        <time>2020-04-09T14:56:40.000Z</time>
      </trkpt>
      <trkpt lat="47.28859" lon="-2.20016">
        <ele>19.2</ele>
        <time>2020-04-09T14:56:41.000Z</time>
      </trkpt>
      <trkpt lat="47.28865" lon="-2.20014">
        <ele>19.2</ele>
        <time>2020-04-09T14:56:42.000Z</time>
      </trkpt>
      <trkpt lat="47.28872" lon="-2.20012">
        <ele>19.2</ele>
        <time>2020-04-09T14:56:43.000Z</time>
      </trkpt>
      <trkpt lat="47.28878" lon="-2.2001">
        <ele>19</ele>
        <time>2020-04-09T14:56:44.000Z</time>
      </trkpt>
      <trkpt lat="47.28884" lon="-2.20008">
        <ele>19</ele>
        <time>2020-04-09T14:56:45.000Z</time>
      </trkpt>
      <trkpt lat="47.2889" lon="-2.20006">
        <ele>19</ele>
        <time>2020-04-09T14:56:46.000Z</time>
      </trkpt>
      <trkpt lat="47.28896" lon="-2.20004">
        <ele>18.8</ele>
        <time>2020-04-09T14:56:47.000Z</time>
      </trkpt>
      <trkpt lat="47.28902" lon="-2.20002">
        <ele>18.8</ele>
        <time>2020-04-09T14:56:48.000Z</time>
      </trkpt>
      <trkpt lat="47.28908" lon="-2.2">
        <ele>18.8</ele>
        <time>2020-04-09T14:56:49.000Z</time>
      </trkpt>
      <trkpt lat="47.28914" lon="-2.19998">
        <ele>19</ele>
        <time>2020-04-09T14:56:50.000Z</time>
      </trkpt>
      <trkpt lat="47.2892" lon="-2.19997">
        <ele>19</ele>
        <time>2020-04-09T14:56:51.000Z</time>
      </trkpt>
      <trkpt lat="47.28926" lon="-2.19994">
        <ele>19.2</ele>
        <time>2020-04-09T14:56:52.000Z</time>
      </trkpt>
      <trkpt lat="47.28931" lon="-2.19993">
        <ele>18.8</ele>
        <time>2020-04-09T14:56:53.000Z</time>
      </trkpt>
      <trkpt lat="47.28937" lon="-2.19991">
        <ele>18.8</ele>
        <time>2020-04-09T14:56:54.000Z</time>
      </trkpt>
      <trkpt lat="47.28943" lon="-2.19989">
        <ele>18.8</ele>
        <time>2020-04-09T14:56:55.000Z</time>
      </trkpt>
      <trkpt lat="47.28948" lon="-2.19987">
        <ele>19</ele>
        <time>2020-04-09T14:56:56.000Z</time>
      </trkpt>
      <trkpt lat="47.28954" lon="-2.19985">
        <ele>19</ele>
        <time>2020-04-09T14:56:57.000Z</time>
      </trkpt>
      <trkpt lat="47.28959" lon="-2.19983">
        <ele>19.2</ele>
        <time>2020-04-09T14:56:58.000Z</time>
      </trkpt>
      <trkpt lat="47.28965" lon="-2.19981">
        <ele>19.2</ele>
        <time>2020-04-09T14:56:59.000Z</time>
      </trkpt>
      <trkpt lat="47.2897" lon="-2.1998">
        <ele>19</ele>
        <time>2020-04-09T14:57:00.000Z</time>
      </trkpt>
      <trkpt lat="47.28975" lon="-2.19978">
        <ele>19</ele>
        <time>2020-04-09T14:57:01.000Z</time>
      </trkpt>
      <trkpt lat="47.28981" lon="-2.19976">
        <ele>18.8</ele>
        <time>2020-04-09T14:57:02.000Z</time>
      </trkpt>
      <trkpt lat="47.28986" lon="-2.19975">
        <ele>19</ele>
        <time>2020-04-09T14:57:03.000Z</time>
      </trkpt>
      <trkpt lat="47.28991" lon="-2.19974">
        <ele>19</ele>
        <time>2020-04-09T14:57:04.000Z</time>
      </trkpt>
      <trkpt lat="47.28996" lon="-2.19973">
        <ele>19.2</ele>
        <time>2020-04-09T14:57:05.000Z</time>
      </trkpt>
      <trkpt lat="47.29002" lon="-2.19972">
        <ele>19.2</ele>
        <time>2020-04-09T14:57:06.000Z</time>
      </trkpt>
      <trkpt lat="47.29007" lon="-2.1997">
        <ele>19</ele>
        <time>2020-04-09T14:57:07.000Z</time>
      </trkpt>
      <trkpt lat="47.29012" lon="-2.19968">
        <ele>19.4</ele>
        <time>2020-04-09T14:57:08.000Z</time>
      </trkpt>
      <trkpt lat="47.29017" lon="-2.19966">
        <ele>19.4</ele>
        <time>2020-04-09T14:57:09.000Z</time>
      </trkpt>
      <trkpt lat="47.29022" lon="-2.19965">
        <ele>19.6</ele>
        <time>2020-04-09T14:57:10.000Z</time>
      </trkpt>
      <trkpt lat="47.29027" lon="-2.19963">
        <ele>19.6</ele>
        <time>2020-04-09T14:57:11.000Z</time>
      </trkpt>
      <trkpt lat="47.29032" lon="-2.19962">
        <ele>19.4</ele>
        <time>2020-04-09T14:57:12.000Z</time>
      </trkpt>
      <trkpt lat="47.29037" lon="-2.1996">
        <ele>19.6</ele>
        <time>2020-04-09T14:57:13.000Z</time>
      </trkpt>
      <trkpt lat="47.29042" lon="-2.19959">
        <ele>19.8</ele>
        <time>2020-04-09T14:57:14.000Z</time>
      </trkpt>
      <trkpt lat="47.29047" lon="-2.19958">
        <ele>19.6</ele>
        <time>2020-04-09T14:57:15.000Z</time>
      </trkpt>
      <trkpt lat="47.29051" lon="-2.19955">
        <ele>19.6</ele>
        <time>2020-04-09T14:57:16.000Z</time>
      </trkpt>
      <trkpt lat="47.29054" lon="-2.19952">
        <ele>19.6</ele>
        <time>2020-04-09T14:57:17.000Z</time>
      </trkpt>
      <trkpt lat="47.29057" lon="-2.19948">
        <ele>19.6</ele>
        <time>2020-04-09T14:57:18.000Z</time>
      </trkpt>
      <trkpt lat="47.29062" lon="-2.19947">
        <ele>19.4</ele>
        <time>2020-04-09T14:57:19.000Z</time>
      </trkpt>
      <trkpt lat="47.29066" lon="-2.19946">
        <ele>19.6</ele>
        <time>2020-04-09T14:57:20.000Z</time>
      </trkpt>
      <trkpt lat="47.29071" lon="-2.19945">
        <ele>19.6</ele>
        <time>2020-04-09T14:57:21.000Z</time>
      </trkpt>
      <trkpt lat="47.29075" lon="-2.19944">
        <ele>19.6</ele>
        <time>2020-04-09T14:57:22.000Z</time>
      </trkpt>
      <trkpt lat="47.2908" lon="-2.19942">
        <ele>19.8</ele>
        <time>2020-04-09T14:57:23.000Z</time>
      </trkpt>
      <trkpt lat="47.29085" lon="-2.19941">
        <ele>19.8</ele>
        <time>2020-04-09T14:57:24.000Z</time>
      </trkpt>
      <trkpt lat="47.2909" lon="-2.1994">
        <ele>19.8</ele>
        <time>2020-04-09T14:57:25.000Z</time>
      </trkpt>
      <trkpt lat="47.29095" lon="-2.19939">
        <ele>19.8</ele>
        <time>2020-04-09T14:57:26.000Z</time>
      </trkpt>
      <trkpt lat="47.291" lon="-2.19937">
        <ele>19.4</ele>
        <time>2020-04-09T14:57:27.000Z</time>
      </trkpt>
      <trkpt lat="47.29105" lon="-2.19936">
        <ele>19.6</ele>
        <time>2020-04-09T14:57:28.000Z</time>
      </trkpt>
      <trkpt lat="47.2911" lon="-2.19933">
        <ele>19.6</ele>
        <time>2020-04-09T14:57:29.000Z</time>
      </trkpt>
      <trkpt lat="47.29116" lon="-2.19932">
        <ele>19.6</ele>
        <time>2020-04-09T14:57:30.000Z</time>
      </trkpt>
      <trkpt lat="47.29121" lon="-2.1993">
        <ele>19.8</ele>
        <time>2020-04-09T14:57:31.000Z</time>
      </trkpt>
      <trkpt lat="47.29126" lon="-2.19928">
        <ele>20</ele>
        <time>2020-04-09T14:57:32.000Z</time>
      </trkpt>
      <trkpt lat="47.29131" lon="-2.19926">
        <ele>20</ele>
        <time>2020-04-09T14:57:33.000Z</time>
      </trkpt>
      <trkpt lat="47.29136" lon="-2.19924">
        <ele>20</ele>
        <time>2020-04-09T14:57:34.000Z</time>
      </trkpt>
      <trkpt lat="47.29141" lon="-2.19922">
        <ele>19.8</ele>
        <time>2020-04-09T14:57:35.000Z</time>
      </trkpt>
      <trkpt lat="47.29146" lon="-2.19921">
        <ele>19.6</ele>
        <time>2020-04-09T14:57:36.000Z</time>
      </trkpt>
      <trkpt lat="47.29151" lon="-2.19918">
        <ele>19.6</ele>
        <time>2020-04-09T14:57:37.000Z</time>
      </trkpt>
      <trkpt lat="47.29157" lon="-2.19917">
        <ele>19.6</ele>
        <time>2020-04-09T14:57:38.000Z</time>
      </trkpt>
      <trkpt lat="47.29162" lon="-2.19915">
        <ele>19.6</ele>
        <time>2020-04-09T14:57:39.000Z</time>
      </trkpt>
      <trkpt lat="47.29167" lon="-2.19913">
        <ele>20</ele>
        <time>2020-04-09T14:57:40.000Z</time>
      </trkpt>
      <trkpt lat="47.29172" lon="-2.19911">
        <ele>20</ele>
        <time>2020-04-09T14:57:41.000Z</time>
      </trkpt>
      <trkpt lat="47.29178" lon="-2.19909">
        <ele>20</ele>
        <time>2020-04-09T14:57:42.000Z</time>
      </trkpt>
      <trkpt lat="47.29183" lon="-2.19908">
        <ele>20.2</ele>
        <time>2020-04-09T14:57:43.000Z</time>
      </trkpt>
      <trkpt lat="47.29188" lon="-2.19906">
        <ele>20</ele>
        <time>2020-04-09T14:57:44.000Z</time>
      </trkpt>
      <trkpt lat="47.29194" lon="-2.19905">
        <ele>20.2</ele>
        <time>2020-04-09T14:57:45.000Z</time>
      </trkpt>
      <trkpt lat="47.29199" lon="-2.19903">
        <ele>20.4</ele>
        <time>2020-04-09T14:57:46.000Z</time>
      </trkpt>
      <trkpt lat="47.29205" lon="-2.19901">
        <ele>20.4</ele>
        <time>2020-04-09T14:57:47.000Z</time>
      </trkpt>
      <trkpt lat="47.2921" lon="-2.19898">
        <ele>20.4</ele>
        <time>2020-04-09T14:57:48.000Z</time>
      </trkpt>
      <trkpt lat="47.29216" lon="-2.19896">
        <ele>20.2</ele>
        <time>2020-04-09T14:57:49.000Z</time>
      </trkpt>
      <trkpt lat="47.29221" lon="-2.19895">
        <ele>20.2</ele>
        <time>2020-04-09T14:57:50.000Z</time>
      </trkpt>
      <trkpt lat="47.29227" lon="-2.19893">
        <ele>20</ele>
        <time>2020-04-09T14:57:51.000Z</time>
      </trkpt>
      <trkpt lat="47.29232" lon="-2.19891">
        <ele>20</ele>
        <time>2020-04-09T14:57:52.000Z</time>
      </trkpt>
      <trkpt lat="47.29237" lon="-2.19889">
        <ele>20.2</ele>
        <time>2020-04-09T14:57:53.000Z</time>
      </trkpt>
      <trkpt lat="47.29243" lon="-2.19887">
        <ele>20.4</ele>
        <time>2020-04-09T14:57:54.000Z</time>
      </trkpt>
      <trkpt lat="47.29248" lon="-2.19886">
        <ele>20</ele>
        <time>2020-04-09T14:57:55.000Z</time>
      </trkpt>
      <trkpt lat="47.29254" lon="-2.19884">
        <ele>20.2</ele>
        <time>2020-04-09T14:57:56.000Z</time>
      </trkpt>
      <trkpt lat="47.29259" lon="-2.19882">
        <ele>20.2</ele>
        <time>2020-04-09T14:57:57.000Z</time>
      </trkpt>
      <trkpt lat="47.29265" lon="-2.1988">
        <ele>20.4</ele>
        <time>2020-04-09T14:57:58.000Z</time>
      </trkpt>
      <trkpt lat="47.2927" lon="-2.19878">
        <ele>20</ele>
        <time>2020-04-09T14:57:59.000Z</time>
      </trkpt>
      <trkpt lat="47.29275" lon="-2.19875">
        <ele>20</ele>
        <time>2020-04-09T14:58:00.000Z</time>
      </trkpt>
      <trkpt lat="47.2928" lon="-2.19873">
        <ele>20</ele>
        <time>2020-04-09T14:58:01.000Z</time>
      </trkpt>
      <trkpt lat="47.29285" lon="-2.19871">
        <ele>20</ele>
        <time>2020-04-09T14:58:02.000Z</time>
      </trkpt>
      <trkpt lat="47.2929" lon="-2.19868">
        <ele>20.4</ele>
        <time>2020-04-09T14:58:03.000Z</time>
      </trkpt>
      <trkpt lat="47.29295" lon="-2.19866">
        <ele>20</ele>
        <time>2020-04-09T14:58:04.000Z</time>
      </trkpt>
      <trkpt lat="47.293" lon="-2.19863">
        <ele>20.2</ele>
        <time>2020-04-09T14:58:05.000Z</time>
      </trkpt>
      <trkpt lat="47.29305" lon="-2.1986">
        <ele>20</ele>
        <time>2020-04-09T14:58:06.000Z</time>
      </trkpt>
      <trkpt lat="47.2931" lon="-2.19857">
        <ele>20.2</ele>
        <time>2020-04-09T14:58:07.000Z</time>
      </trkpt>
      <trkpt lat="47.29315" lon="-2.19854">
        <ele>20</ele>
        <time>2020-04-09T14:58:08.000Z</time>
      </trkpt>
      <trkpt lat="47.2932" lon="-2.1985">
        <ele>19.8</ele>
        <time>2020-04-09T14:58:09.000Z</time>
      </trkpt>
      <trkpt lat="47.29325" lon="-2.19847">
        <ele>19.8</ele>
        <time>2020-04-09T14:58:10.000Z</time>
      </trkpt>
      <trkpt lat="47.2933" lon="-2.19843">
        <ele>19.6</ele>
        <time>2020-04-09T14:58:11.000Z</time>
      </trkpt>
      <trkpt lat="47.29335" lon="-2.1984">
        <ele>19.6</ele>
        <time>2020-04-09T14:58:12.000Z</time>
      </trkpt>
      <trkpt lat="47.2934" lon="-2.19837">
        <ele>19.6</ele>
        <time>2020-04-09T14:58:13.000Z</time>
      </trkpt>
      <trkpt lat="47.29344" lon="-2.19834">
        <ele>19.6</ele>
        <time>2020-04-09T14:58:14.000Z</time>
      </trkpt>
      <trkpt lat="47.29349" lon="-2.1983">
        <ele>19.6</ele>
        <time>2020-04-09T14:58:15.000Z</time>
      </trkpt>
      <trkpt lat="47.29353" lon="-2.19826">
        <ele>19.6</ele>
        <time>2020-04-09T14:58:16.000Z</time>
      </trkpt>
      <trkpt lat="47.29357" lon="-2.19822">
        <ele>19.6</ele>
        <time>2020-04-09T14:58:17.000Z</time>
      </trkpt>
      <trkpt lat="47.29362" lon="-2.19819">
        <ele>19.8</ele>
        <time>2020-04-09T14:58:18.000Z</time>
      </trkpt>
      <trkpt lat="47.29366" lon="-2.19815">
        <ele>19.4</ele>
        <time>2020-04-09T14:58:19.000Z</time>
      </trkpt>
      <trkpt lat="47.29371" lon="-2.19811">
        <ele>19.8</ele>
        <time>2020-04-09T14:58:20.000Z</time>
      </trkpt>
      <trkpt lat="47.29375" lon="-2.19807">
        <ele>19.8</ele>
        <time>2020-04-09T14:58:21.000Z</time>
      </trkpt>
      <trkpt lat="47.2938" lon="-2.19803">
        <ele>19.6</ele>
        <time>2020-04-09T14:58:22.000Z</time>
      </trkpt>
      <trkpt lat="47.29384" lon="-2.19799">
        <ele>19.6</ele>
        <time>2020-04-09T14:58:23.000Z</time>
      </trkpt>
      <trkpt lat="47.29389" lon="-2.19795">
        <ele>19.4</ele>
        <time>2020-04-09T14:58:24.000Z</time>
      </trkpt>
      <trkpt lat="47.29394" lon="-2.19792">
        <ele>19.4</ele>
        <time>2020-04-09T14:58:25.000Z</time>
      </trkpt>
      <trkpt lat="47.29398" lon="-2.19787">
        <ele>19.4</ele>
        <time>2020-04-09T14:58:26.000Z</time>
      </trkpt>
      <trkpt lat="47.29403" lon="-2.19783">
        <ele>19.6</ele>
        <time>2020-04-09T14:58:27.000Z</time>
      </trkpt>
      <trkpt lat="47.29408" lon="-2.1978">
        <ele>19.4</ele>
        <time>2020-04-09T14:58:28.000Z</time>
      </trkpt>
      <trkpt lat="47.29412" lon="-2.19775">
        <ele>19.4</ele>
        <time>2020-04-09T14:58:29.000Z</time>
      </trkpt>
      <trkpt lat="47.29417" lon="-2.19771">
        <ele>19.4</ele>
        <time>2020-04-09T14:58:30.000Z</time>
      </trkpt>
      <trkpt lat="47.29421" lon="-2.19768">
        <ele>19.4</ele>
        <time>2020-04-09T14:58:31.000Z</time>
      </trkpt>
      <trkpt lat="47.29426" lon="-2.19764">
        <ele>19.2</ele>
        <time>2020-04-09T14:58:32.000Z</time>
      </trkpt>
      <trkpt lat="47.29431" lon="-2.19759">
        <ele>19.2</ele>
        <time>2020-04-09T14:58:33.000Z</time>
      </trkpt>
      <trkpt lat="47.29435" lon="-2.19755">
        <ele>19.2</ele>
        <time>2020-04-09T14:58:34.000Z</time>
      </trkpt>
      <trkpt lat="47.2944" lon="-2.1975">
        <ele>19.2</ele>
        <time>2020-04-09T14:58:35.000Z</time>
      </trkpt>
      <trkpt lat="47.29444" lon="-2.19746">
        <ele>19.4</ele>
        <time>2020-04-09T14:58:36.000Z</time>
      </trkpt>
      <trkpt lat="47.29449" lon="-2.19741">
        <ele>19.4</ele>
        <time>2020-04-09T14:58:37.000Z</time>
      </trkpt>
      <trkpt lat="47.29454" lon="-2.19738">
        <ele>19.2</ele>
        <time>2020-04-09T14:58:38.000Z</time>
      </trkpt>
      <trkpt lat="47.29459" lon="-2.19734">
        <ele>19.2</ele>
        <time>2020-04-09T14:58:39.000Z</time>
      </trkpt>
      <trkpt lat="47.29465" lon="-2.1973">
        <ele>19.2</ele>
        <time>2020-04-09T14:58:40.000Z</time>
      </trkpt>
      <trkpt lat="47.29469" lon="-2.19726">
        <ele>19.2</ele>
        <time>2020-04-09T14:58:41.000Z</time>
      </trkpt>
      <trkpt lat="47.29474" lon="-2.19721">
        <ele>19</ele>
        <time>2020-04-09T14:58:42.000Z</time>
      </trkpt>
      <trkpt lat="47.29479" lon="-2.19717">
        <ele>19.2</ele>
        <time>2020-04-09T14:58:43.000Z</time>
      </trkpt>
      <trkpt lat="47.29484" lon="-2.19713">
        <ele>19.2</ele>
        <time>2020-04-09T14:58:44.000Z</time>
      </trkpt>
      <trkpt lat="47.29489" lon="-2.19708">
        <ele>19</ele>
        <time>2020-04-09T14:58:45.000Z</time>
      </trkpt>
      <trkpt lat="47.29494" lon="-2.19704">
        <ele>19.2</ele>
        <time>2020-04-09T14:58:46.000Z</time>
      </trkpt>
      <trkpt lat="47.29499" lon="-2.19699">
        <ele>19</ele>
        <time>2020-04-09T14:58:47.000Z</time>
      </trkpt>
      <trkpt lat="47.29505" lon="-2.19695">
        <ele>19.2</ele>
        <time>2020-04-09T14:58:48.000Z</time>
      </trkpt>
      <trkpt lat="47.2951" lon="-2.1969">
        <ele>19</ele>
        <time>2020-04-09T14:58:49.000Z</time>
      </trkpt>
      <trkpt lat="47.29515" lon="-2.19686">
        <ele>18.8</ele>
        <time>2020-04-09T14:58:50.000Z</time>
      </trkpt>
      <trkpt lat="47.2952" lon="-2.19681">
        <ele>18.8</ele>
        <time>2020-04-09T14:58:51.000Z</time>
      </trkpt>
      <trkpt lat="47.29525" lon="-2.19677">
        <ele>18.8</ele>
        <time>2020-04-09T14:58:52.000Z</time>
      </trkpt>
      <trkpt lat="47.2953" lon="-2.19672">
        <ele>18.8</ele>
        <time>2020-04-09T14:58:53.000Z</time>
      </trkpt>
      <trkpt lat="47.29535" lon="-2.19667">
        <ele>19</ele>
        <time>2020-04-09T14:58:54.000Z</time>
      </trkpt>
      <trkpt lat="47.2954" lon="-2.19663">
        <ele>19.4</ele>
        <time>2020-04-09T14:58:55.000Z</time>
      </trkpt>
      <trkpt lat="47.29546" lon="-2.19659">
        <ele>19.4</ele>
        <time>2020-04-09T14:58:56.000Z</time>
      </trkpt>
      <trkpt lat="47.29551" lon="-2.19655">
        <ele>19.4</ele>
        <time>2020-04-09T14:58:57.000Z</time>
      </trkpt>
      <trkpt lat="47.29556" lon="-2.1965">
        <ele>19.6</ele>
        <time>2020-04-09T14:58:58.000Z</time>
      </trkpt>
      <trkpt lat="47.29561" lon="-2.19646">
        <ele>19.4</ele>
        <time>2020-04-09T14:58:59.000Z</time>
      </trkpt>
      <trkpt lat="47.29565" lon="-2.19642">
        <ele>19.4</ele>
        <time>2020-04-09T14:59:00.000Z</time>
      </trkpt>
      <trkpt lat="47.2957" lon="-2.19637">
        <ele>19.2</ele>
        <time>2020-04-09T14:59:01.000Z</time>
      </trkpt>
      <trkpt lat="47.29575" lon="-2.19633">
        <ele>19.4</ele>
        <time>2020-04-09T14:59:02.000Z</time>
      </trkpt>
      <trkpt lat="47.2958" lon="-2.19629">
        <ele>19.4</ele>
        <time>2020-04-09T14:59:03.000Z</time>
      </trkpt>
      <trkpt lat="47.29585" lon="-2.19624">
        <ele>19.6</ele>
        <time>2020-04-09T14:59:04.000Z</time>
      </trkpt>
      <trkpt lat="47.2959" lon="-2.1962">
        <ele>19.6</ele>
        <time>2020-04-09T14:59:05.000Z</time>
      </trkpt>
      <trkpt lat="47.29595" lon="-2.19616">
        <ele>19.4</ele>
        <time>2020-04-09T14:59:06.000Z</time>
      </trkpt>
      <trkpt lat="47.296" lon="-2.19612">
        <ele>19.4</ele>
        <time>2020-04-09T14:59:07.000Z</time>
      </trkpt>
      <trkpt lat="47.29604" lon="-2.19608">
        <ele>19.2</ele>
        <time>2020-04-09T14:59:08.000Z</time>
      </trkpt>
      <trkpt lat="47.29609" lon="-2.19604">
        <ele>19.4</ele>
        <time>2020-04-09T14:59:09.000Z</time>
      </trkpt>
      <trkpt lat="47.29614" lon="-2.19599">
        <ele>19.6</ele>
        <time>2020-04-09T14:59:10.000Z</time>
      </trkpt>
      <trkpt lat="47.29619" lon="-2.19595">
        <ele>19.8</ele>
        <time>2020-04-09T14:59:11.000Z</time>
      </trkpt>
      <trkpt lat="47.29624" lon="-2.19591">
        <ele>20</ele>
        <time>2020-04-09T14:59:12.000Z</time>
      </trkpt>
      <trkpt lat="47.29628" lon="-2.19587">
        <ele>19.8</ele>
        <time>2020-04-09T14:59:13.000Z</time>
      </trkpt>
      <trkpt lat="47.29633" lon="-2.19583">
        <ele>20</ele>
        <time>2020-04-09T14:59:14.000Z</time>
      </trkpt>
      <trkpt lat="47.29638" lon="-2.19578">
        <ele>19.8</ele>
        <time>2020-04-09T14:59:15.000Z</time>
      </trkpt>
      <trkpt lat="47.29642" lon="-2.19574">
        <ele>19.8</ele>
        <time>2020-04-09T14:59:16.000Z</time>
      </trkpt>
      <trkpt lat="47.29647" lon="-2.1957">
        <ele>19.8</ele>
        <time>2020-04-09T14:59:17.000Z</time>
      </trkpt>
      <trkpt lat="47.29652" lon="-2.19566">
        <ele>20</ele>
        <time>2020-04-09T14:59:18.000Z</time>
      </trkpt>
      <trkpt lat="47.29657" lon="-2.19562">
        <ele>19.8</ele>
        <time>2020-04-09T14:59:19.000Z</time>
      </trkpt>
      <trkpt lat="47.29661" lon="-2.19558">
        <ele>20</ele>
        <time>2020-04-09T14:59:20.000Z</time>
      </trkpt>
      <trkpt lat="47.29666" lon="-2.19553">
        <ele>19.8</ele>
        <time>2020-04-09T14:59:21.000Z</time>
      </trkpt>
      <trkpt lat="47.29671" lon="-2.19549">
        <ele>19.8</ele>
        <time>2020-04-09T14:59:22.000Z</time>
      </trkpt>
      <trkpt lat="47.29676" lon="-2.19545">
        <ele>19.8</ele>
        <time>2020-04-09T14:59:23.000Z</time>
      </trkpt>
      <trkpt lat="47.2968" lon="-2.1954">
        <ele>19.6</ele>
        <time>2020-04-09T14:59:24.000Z</time>
      </trkpt>
      <trkpt lat="47.29685" lon="-2.19536">
        <ele>19.6</ele>
        <time>2020-04-09T14:59:25.000Z</time>
      </trkpt>
      <trkpt lat="47.2969" lon="-2.19531">
        <ele>19.4</ele>
        <time>2020-04-09T14:59:26.000Z</time>
      </trkpt>
      <trkpt lat="47.29695" lon="-2.19526">
        <ele>19.4</ele>
        <time>2020-04-09T14:59:27.000Z</time>
      </trkpt>
      <trkpt lat="47.29699" lon="-2.19522">
        <ele>19.4</ele>
        <time>2020-04-09T14:59:28.000Z</time>
      </trkpt>
      <trkpt lat="47.29704" lon="-2.19517">
        <ele>19.4</ele>
        <time>2020-04-09T14:59:29.000Z</time>
      </trkpt>
      <trkpt lat="47.29709" lon="-2.19512">
        <ele>19.4</ele>
        <time>2020-04-09T14:59:30.000Z</time>
      </trkpt>
      <trkpt lat="47.29713" lon="-2.19507">
        <ele>19.2</ele>
        <time>2020-04-09T14:59:31.000Z</time>
      </trkpt>
      <trkpt lat="47.29718" lon="-2.19502">
        <ele>19.2</ele>
        <time>2020-04-09T14:59:32.000Z</time>
      </trkpt>
      <trkpt lat="47.29722" lon="-2.19496">
        <ele>19.2</ele>
        <time>2020-04-09T14:59:33.000Z</time>
      </trkpt>
      <trkpt lat="47.29727" lon="-2.19491">
        <ele>19.4</ele>
        <time>2020-04-09T14:59:34.000Z</time>
      </trkpt>
      <trkpt lat="47.29731" lon="-2.19486">
        <ele>19.4</ele>
        <time>2020-04-09T14:59:35.000Z</time>
      </trkpt>
      <trkpt lat="47.29736" lon="-2.1948">
        <ele>19.2</ele>
        <time>2020-04-09T14:59:36.000Z</time>
      </trkpt>
      <trkpt lat="47.2974" lon="-2.19475">
        <ele>19.2</ele>
        <time>2020-04-09T14:59:37.000Z</time>
      </trkpt>
      <trkpt lat="47.29745" lon="-2.19469">
        <ele>19.4</ele>
        <time>2020-04-09T14:59:38.000Z</time>
      </trkpt>
      <trkpt lat="47.29749" lon="-2.19464">
        <ele>19.4</ele>
        <time>2020-04-09T14:59:39.000Z</time>
      </trkpt>
      <trkpt lat="47.29754" lon="-2.19458">
        <ele>19.2</ele>
        <time>2020-04-09T14:59:40.000Z</time>
      </trkpt>
      <trkpt lat="47.29758" lon="-2.19451">
        <ele>19.4</ele>
        <time>2020-04-09T14:59:41.000Z</time>
      </trkpt>
      <trkpt lat="47.29763" lon="-2.19445">
        <ele>19.2</ele>
        <time>2020-04-09T14:59:42.000Z</time>
      </trkpt>
      <trkpt lat="47.29767" lon="-2.19439">
        <ele>19.4</ele>
        <time>2020-04-09T14:59:43.000Z</time>
      </trkpt>
      <trkpt lat="47.29771" lon="-2.19433">
        <ele>19.4</ele>
        <time>2020-04-09T14:59:44.000Z</time>
      </trkpt>
      <trkpt lat="47.29776" lon="-2.19427">
        <ele>19.4</ele>
        <time>2020-04-09T14:59:45.000Z</time>
      </trkpt>
      <trkpt lat="47.2978" lon="-2.1942">
        <ele>19.6</ele>
        <time>2020-04-09T14:59:46.000Z</time>
      </trkpt>
      <trkpt lat="47.29784" lon="-2.19414">
        <ele>19.4</ele>
        <time>2020-04-09T14:59:47.000Z</time>
      </trkpt>
      <trkpt lat="47.29788" lon="-2.19408">
        <ele>19.4</ele>
        <time>2020-04-09T14:59:48.000Z</time>
      </trkpt>
      <trkpt lat="47.29792" lon="-2.19402">
        <ele>19.2</ele>
        <time>2020-04-09T14:59:49.000Z</time>
      </trkpt>
      <trkpt lat="47.29796" lon="-2.19395">
        <ele>19.2</ele>
        <time>2020-04-09T14:59:50.000Z</time>
      </trkpt>
      <trkpt lat="47.298" lon="-2.19389">
        <ele>19.2</ele>
        <time>2020-04-09T14:59:51.000Z</time>
      </trkpt>
      <trkpt lat="47.29804" lon="-2.19383">
        <ele>19.2</ele>
        <time>2020-04-09T14:59:52.000Z</time>
      </trkpt>
      <trkpt lat="47.29808" lon="-2.19376">
        <ele>19.6</ele>
        <time>2020-04-09T14:59:53.000Z</time>
      </trkpt>
      <trkpt lat="47.29812" lon="-2.1937">
        <ele>19.6</ele>
        <time>2020-04-09T14:59:54.000Z</time>
      </trkpt>
      <trkpt lat="47.29815" lon="-2.19364">
        <ele>19.8</ele>
        <time>2020-04-09T14:59:55.000Z</time>
      </trkpt>
      <trkpt lat="47.29819" lon="-2.19358">
        <ele>19.8</ele>
        <time>2020-04-09T14:59:56.000Z</time>
      </trkpt>
      <trkpt lat="47.29823" lon="-2.19352">
        <ele>19.8</ele>
        <time>2020-04-09T14:59:57.000Z</time>
      </trkpt>
      <trkpt lat="47.29826" lon="-2.19346">
        <ele>19.6</ele>
        <time>2020-04-09T14:59:58.000Z</time>
      </trkpt>
      <trkpt lat="47.2983" lon="-2.1934">
        <ele>19.6</ele>
        <time>2020-04-09T14:59:59.000Z</time>
      </trkpt>
      <trkpt lat="47.29838" lon="-2.19329">
        <ele>19.8</ele>
        <time>2020-04-09T15:00:01.000Z</time>
      </trkpt>
      <trkpt lat="47.29841" lon="-2.19323">
        <ele>20</ele>
        <time>2020-04-09T15:00:02.000Z</time>
      </trkpt>
      <trkpt lat="47.29849" lon="-2.19311">
        <ele>20.2</ele>
        <time>2020-04-09T15:00:03.000Z</time>
      </trkpt>
      <trkpt lat="47.29852" lon="-2.19306">
        <ele>20.2</ele>
        <time>2020-04-09T15:00:04.000Z</time>
      </trkpt>
      <trkpt lat="47.29856" lon="-2.193">
        <ele>20.4</ele>
        <time>2020-04-09T15:00:05.000Z</time>
      </trkpt>
      <trkpt lat="47.29859" lon="-2.19294">
        <ele>20.4</ele>
        <time>2020-04-09T15:00:06.000Z</time>
      </trkpt>
      <trkpt lat="47.29862" lon="-2.19288">
        <ele>20.8</ele>
        <time>2020-04-09T15:00:07.000Z</time>
      </trkpt>
      <trkpt lat="47.29866" lon="-2.19283">
        <ele>20.8</ele>
        <time>2020-04-09T15:00:08.000Z</time>
      </trkpt>
      <trkpt lat="47.2987" lon="-2.19277">
        <ele>20.8</ele>
        <time>2020-04-09T15:00:09.000Z</time>
      </trkpt>
      <trkpt lat="47.29873" lon="-2.19272">
        <ele>20.8</ele>
        <time>2020-04-09T15:00:10.000Z</time>
      </trkpt>
      <trkpt lat="47.29877" lon="-2.19266">
        <ele>20.8</ele>
        <time>2020-04-09T15:00:11.000Z</time>
      </trkpt>
      <trkpt lat="47.2988" lon="-2.1926">
        <ele>20.8</ele>
        <time>2020-04-09T15:00:12.000Z</time>
      </trkpt>
      <trkpt lat="47.29883" lon="-2.19254">
        <ele>20.4</ele>
        <time>2020-04-09T15:00:13.000Z</time>
      </trkpt>
      <trkpt lat="47.29887" lon="-2.19249">
        <ele>20.6</ele>
        <time>2020-04-09T15:00:15.000Z</time>
      </trkpt>
      <trkpt lat="47.29893" lon="-2.19238">
        <ele>20.8</ele>
        <time>2020-04-09T15:00:16.000Z</time>
      </trkpt>
      <trkpt lat="47.29896" lon="-2.19232">
        <ele>21</ele>
        <time>2020-04-09T15:00:17.000Z</time>
      </trkpt>
      <trkpt lat="47.299" lon="-2.19226">
        <ele>21.2</ele>
        <time>2020-04-09T15:00:18.000Z</time>
      </trkpt>
      <trkpt lat="47.299" lon="-2.19226">
        <ele>21</ele>
        <time>2020-04-09T15:00:19.000Z</time>
      </trkpt>
      <trkpt lat="47.29903" lon="-2.19221">
        <ele>21.2</ele>
        <time>2020-04-09T15:00:20.000Z</time>
      </trkpt>
      <trkpt lat="47.2991" lon="-2.1921">
        <ele>21.4</ele>
        <time>2020-04-09T15:00:21.000Z</time>
      </trkpt>
      <trkpt lat="47.29913" lon="-2.19204">
        <ele>21.6</ele>
        <time>2020-04-09T15:00:22.000Z</time>
      </trkpt>
      <trkpt lat="47.29917" lon="-2.19199">
        <ele>21.6</ele>
        <time>2020-04-09T15:00:23.000Z</time>
      </trkpt>
      <trkpt lat="47.29917" lon="-2.19199">
        <ele>21.6</ele>
        <time>2020-04-09T15:00:24.000Z</time>
      </trkpt>
      <trkpt lat="47.2992" lon="-2.19193">
        <ele>21.8</ele>
        <time>2020-04-09T15:00:25.000Z</time>
      </trkpt>
      <trkpt lat="47.29923" lon="-2.19187">
        <ele>21.6</ele>
        <time>2020-04-09T15:00:26.000Z</time>
      </trkpt>
      <trkpt lat="47.29927" lon="-2.19182">
        <ele>21.4</ele>
        <time>2020-04-09T15:00:27.000Z</time>
      </trkpt>
      <trkpt lat="47.2993" lon="-2.19176">
        <ele>21.8</ele>
        <time>2020-04-09T15:00:28.000Z</time>
      </trkpt>
      <trkpt lat="47.29933" lon="-2.19171">
        <ele>21.6</ele>
        <time>2020-04-09T15:00:29.000Z</time>
      </trkpt>
      <trkpt lat="47.29937" lon="-2.19165">
        <ele>21.6</ele>
        <time>2020-04-09T15:00:30.000Z</time>
      </trkpt>
      <trkpt lat="47.2994" lon="-2.1916">
        <ele>21.6</ele>
        <time>2020-04-09T15:00:31.000Z</time>
      </trkpt>
      <trkpt lat="47.29944" lon="-2.19154">
        <ele>21.8</ele>
        <time>2020-04-09T15:00:32.000Z</time>
      </trkpt>
      <trkpt lat="47.29947" lon="-2.19149">
        <ele>22</ele>
        <time>2020-04-09T15:00:34.000Z</time>
      </trkpt>
      <trkpt lat="47.29954" lon="-2.19138">
        <ele>22.2</ele>
        <time>2020-04-09T15:00:35.000Z</time>
      </trkpt>
      <trkpt lat="47.29957" lon="-2.19133">
        <ele>22.2</ele>
        <time>2020-04-09T15:00:36.000Z</time>
      </trkpt>
      <trkpt lat="47.29961" lon="-2.19127">
        <ele>22.4</ele>
        <time>2020-04-09T15:00:37.000Z</time>
      </trkpt>
      <trkpt lat="47.29964" lon="-2.19122">
        <ele>22.4</ele>
        <time>2020-04-09T15:00:38.000Z</time>
      </trkpt>
      <trkpt lat="47.29968" lon="-2.19116">
        <ele>22.4</ele>
        <time>2020-04-09T15:00:39.000Z</time>
      </trkpt>
      <trkpt lat="47.29971" lon="-2.19111">
        <ele>22.4</ele>
        <time>2020-04-09T15:00:40.000Z</time>
      </trkpt>
      <trkpt lat="47.29974" lon="-2.19105">
        <ele>22.6</ele>
        <time>2020-04-09T15:00:41.000Z</time>
      </trkpt>
      <trkpt lat="47.29978" lon="-2.191">
        <ele>22.6</ele>
        <time>2020-04-09T15:00:42.000Z</time>
      </trkpt>
      <trkpt lat="47.29981" lon="-2.19094">
        <ele>22.6</ele>
        <time>2020-04-09T15:00:43.000Z</time>
      </trkpt>
      <trkpt lat="47.29984" lon="-2.19088">
        <ele>22.6</ele>
        <time>2020-04-09T15:00:44.000Z</time>
      </trkpt>
      <trkpt lat="47.29988" lon="-2.19083">
        <ele>22.8</ele>
        <time>2020-04-09T15:00:45.000Z</time>
      </trkpt>
      <trkpt lat="47.29991" lon="-2.19077">
        <ele>22.6</ele>
        <time>2020-04-09T15:00:46.000Z</time>
      </trkpt>
      <trkpt lat="47.29995" lon="-2.19072">
        <ele>22.8</ele>
        <time>2020-04-09T15:00:47.000Z</time>
      </trkpt>
      <trkpt lat="47.29998" lon="-2.19066">
        <ele>22.8</ele>
        <time>2020-04-09T15:00:48.000Z</time>
      </trkpt>
      <trkpt lat="47.30001" lon="-2.19061">
        <ele>22.6</ele>
        <time>2020-04-09T15:00:49.000Z</time>
      </trkpt>
      <trkpt lat="47.30005" lon="-2.19055">
        <ele>22.6</ele>
        <time>2020-04-09T15:00:50.000Z</time>
      </trkpt>
      <trkpt lat="47.30008" lon="-2.1905">
        <ele>22.8</ele>
        <time>2020-04-09T15:00:51.000Z</time>
      </trkpt>
      <trkpt lat="47.30012" lon="-2.19045">
        <ele>22.6</ele>
        <time>2020-04-09T15:00:52.000Z</time>
      </trkpt>
      <trkpt lat="47.30015" lon="-2.19039">
        <ele>22.6</ele>
        <time>2020-04-09T15:00:53.000Z</time>
      </trkpt>
      <trkpt lat="47.30019" lon="-2.19034">
        <ele>22.6</ele>
        <time>2020-04-09T15:00:54.000Z</time>
      </trkpt>
      <trkpt lat="47.30022" lon="-2.19029">
        <ele>22.8</ele>
        <time>2020-04-09T15:00:55.000Z</time>
      </trkpt>
      <trkpt lat="47.30025" lon="-2.19023">
        <ele>23</ele>
        <time>2020-04-09T15:00:56.000Z</time>
      </trkpt>
      <trkpt lat="47.30028" lon="-2.19017">
        <ele>23</ele>
        <time>2020-04-09T15:00:57.000Z</time>
      </trkpt>
      <trkpt lat="47.30031" lon="-2.19012">
        <ele>22.8</ele>
        <time>2020-04-09T15:00:58.000Z</time>
      </trkpt>
      <trkpt lat="47.30034" lon="-2.19006">
        <ele>22.8</ele>
        <time>2020-04-09T15:00:59.000Z</time>
      </trkpt>
      <trkpt lat="47.30038" lon="-2.19001">
        <ele>22.8</ele>
        <time>2020-04-09T15:01:00.000Z</time>
      </trkpt>
      <trkpt lat="47.30041" lon="-2.18995">
        <ele>22.8</ele>
        <time>2020-04-09T15:01:01.000Z</time>
      </trkpt>
      <trkpt lat="47.30045" lon="-2.18989">
        <ele>22.6</ele>
        <time>2020-04-09T15:01:02.000Z</time>
      </trkpt>
      <trkpt lat="47.30048" lon="-2.18983">
        <ele>22.8</ele>
        <time>2020-04-09T15:01:03.000Z</time>
      </trkpt>
      <trkpt lat="47.30052" lon="-2.18977">
        <ele>22.6</ele>
        <time>2020-04-09T15:01:04.000Z</time>
      </trkpt>
      <trkpt lat="47.30056" lon="-2.18971">
        <ele>22.6</ele>
        <time>2020-04-09T15:01:05.000Z</time>
      </trkpt>
      <trkpt lat="47.3006" lon="-2.18965">
        <ele>22.6</ele>
        <time>2020-04-09T15:01:06.000Z</time>
      </trkpt>
      <trkpt lat="47.30064" lon="-2.18959">
        <ele>22.6</ele>
        <time>2020-04-09T15:01:07.000Z</time>
      </trkpt>
      <trkpt lat="47.30067" lon="-2.18952">
        <ele>22.6</ele>
        <time>2020-04-09T15:01:08.000Z</time>
      </trkpt>
      <trkpt lat="47.30071" lon="-2.18946">
        <ele>22.4</ele>
        <time>2020-04-09T15:01:09.000Z</time>
      </trkpt>
      <trkpt lat="47.30075" lon="-2.1894">
        <ele>22.2</ele>
        <time>2020-04-09T15:01:10.000Z</time>
      </trkpt>
      <trkpt lat="47.30078" lon="-2.18934">
        <ele>22.4</ele>
        <time>2020-04-09T15:01:11.000Z</time>
      </trkpt>
      <trkpt lat="47.30082" lon="-2.18928">
        <ele>22.6</ele>
        <time>2020-04-09T15:01:12.000Z</time>
      </trkpt>
      <trkpt lat="47.30086" lon="-2.18921">
        <ele>22.6</ele>
        <time>2020-04-09T15:01:13.000Z</time>
      </trkpt>
      <trkpt lat="47.30089" lon="-2.18915">
        <ele>22.4</ele>
        <time>2020-04-09T15:01:14.000Z</time>
      </trkpt>
      <trkpt lat="47.30093" lon="-2.18909">
        <ele>22.4</ele>
        <time>2020-04-09T15:01:15.000Z</time>
      </trkpt>
      <trkpt lat="47.30096" lon="-2.18902">
        <ele>22.2</ele>
        <time>2020-04-09T15:01:16.000Z</time>
      </trkpt>
      <trkpt lat="47.301" lon="-2.18895">
        <ele>22</ele>
        <time>2020-04-09T15:01:17.000Z</time>
      </trkpt>
      <trkpt lat="47.30103" lon="-2.18889">
        <ele>21.8</ele>
        <time>2020-04-09T15:01:18.000Z</time>
      </trkpt>
      <trkpt lat="47.30107" lon="-2.18882">
        <ele>22</ele>
        <time>2020-04-09T15:01:19.000Z</time>
      </trkpt>
      <trkpt lat="47.3011" lon="-2.18875">
        <ele>22</ele>
        <time>2020-04-09T15:01:20.000Z</time>
      </trkpt>
      <trkpt lat="47.30114" lon="-2.18869">
        <ele>22</ele>
        <time>2020-04-09T15:01:21.000Z</time>
      </trkpt>
      <trkpt lat="47.30117" lon="-2.18862">
        <ele>22.2</ele>
        <time>2020-04-09T15:01:22.000Z</time>
      </trkpt>
      <trkpt lat="47.3012" lon="-2.18855">
        <ele>22.2</ele>
        <time>2020-04-09T15:01:23.000Z</time>
      </trkpt>
      <trkpt lat="47.30124" lon="-2.18849">
        <ele>22</ele>
        <time>2020-04-09T15:01:24.000Z</time>
      </trkpt>
      <trkpt lat="47.30127" lon="-2.18842">
        <ele>22</ele>
        <time>2020-04-09T15:01:25.000Z</time>
      </trkpt>
      <trkpt lat="47.30131" lon="-2.18835">
        <ele>21.8</ele>
        <time>2020-04-09T15:01:26.000Z</time>
      </trkpt>
      <trkpt lat="47.30134" lon="-2.18828">
        <ele>21.6</ele>
        <time>2020-04-09T15:01:27.000Z</time>
      </trkpt>
      <trkpt lat="47.30136" lon="-2.1882">
        <ele>21.6</ele>
        <time>2020-04-09T15:01:28.000Z</time>
      </trkpt>
      <trkpt lat="47.30137" lon="-2.18811">
        <ele>21.4</ele>
        <time>2020-04-09T15:01:29.000Z</time>
      </trkpt>
      <trkpt lat="47.30137" lon="-2.18803">
        <ele>21.4</ele>
        <time>2020-04-09T15:01:30.000Z</time>
      </trkpt>
      <trkpt lat="47.30137" lon="-2.18793">
        <ele>21.4</ele>
        <time>2020-04-09T15:01:31.000Z</time>
      </trkpt>
      <trkpt lat="47.30137" lon="-2.18784">
        <ele>21.2</ele>
        <time>2020-04-09T15:01:32.000Z</time>
      </trkpt>
      <trkpt lat="47.30137" lon="-2.18775">
        <ele>21</ele>
        <time>2020-04-09T15:01:33.000Z</time>
      </trkpt>
      <trkpt lat="47.30137" lon="-2.18766">
        <ele>20.8</ele>
        <time>2020-04-09T15:01:34.000Z</time>
      </trkpt>
      <trkpt lat="47.30137" lon="-2.18758">
        <ele>20.6</ele>
        <time>2020-04-09T15:01:35.000Z</time>
      </trkpt>
      <trkpt lat="47.30136" lon="-2.18749">
        <ele>20.6</ele>
        <time>2020-04-09T15:01:36.000Z</time>
      </trkpt>
      <trkpt lat="47.30136" lon="-2.1874">
        <ele>20.8</ele>
        <time>2020-04-09T15:01:37.000Z</time>
      </trkpt>
      <trkpt lat="47.30135" lon="-2.18732">
        <ele>20.6</ele>
        <time>2020-04-09T15:01:38.000Z</time>
      </trkpt>
      <trkpt lat="47.30136" lon="-2.18723">
        <ele>20.6</ele>
        <time>2020-04-09T15:01:39.000Z</time>
      </trkpt>
      <trkpt lat="47.30135" lon="-2.18714">
        <ele>20.6</ele>
        <time>2020-04-09T15:01:40.000Z</time>
      </trkpt>
      <trkpt lat="47.30135" lon="-2.18705">
        <ele>20.6</ele>
        <time>2020-04-09T15:01:41.000Z</time>
      </trkpt>
      <trkpt lat="47.30135" lon="-2.18697">
        <ele>20.8</ele>
        <time>2020-04-09T15:01:42.000Z</time>
      </trkpt>
      <trkpt lat="47.30134" lon="-2.18688">
        <ele>20.8</ele>
        <time>2020-04-09T15:01:43.000Z</time>
      </trkpt>
      <trkpt lat="47.30133" lon="-2.1868">
        <ele>20.8</ele>
        <time>2020-04-09T15:01:44.000Z</time>
      </trkpt>
      <trkpt lat="47.30132" lon="-2.18671">
        <ele>20.6</ele>
        <time>2020-04-09T15:01:45.000Z</time>
      </trkpt>
      <trkpt lat="47.3013" lon="-2.18663">
        <ele>20.6</ele>
        <time>2020-04-09T15:01:46.000Z</time>
      </trkpt>
      <trkpt lat="47.30128" lon="-2.18655">
        <ele>20.4</ele>
        <time>2020-04-09T15:01:47.000Z</time>
      </trkpt>
      <trkpt lat="47.30126" lon="-2.18648">
        <ele>20.2</ele>
        <time>2020-04-09T15:01:48.000Z</time>
      </trkpt>
      <trkpt lat="47.30124" lon="-2.1864">
        <ele>20.2</ele>
        <time>2020-04-09T15:01:49.000Z</time>
      </trkpt>
      <trkpt lat="47.30121" lon="-2.18632">
        <ele>20.2</ele>
        <time>2020-04-09T15:01:50.000Z</time>
      </trkpt>
      <trkpt lat="47.30119" lon="-2.18625">
        <ele>19.8</ele>
        <time>2020-04-09T15:01:51.000Z</time>
      </trkpt>
      <trkpt lat="47.30116" lon="-2.18618">
        <ele>20.2</ele>
        <time>2020-04-09T15:01:52.000Z</time>
      </trkpt>
      <trkpt lat="47.30114" lon="-2.1861">
        <ele>20.2</ele>
        <time>2020-04-09T15:01:53.000Z</time>
      </trkpt>
      <trkpt lat="47.30112" lon="-2.18603">
        <ele>20</ele>
        <time>2020-04-09T15:01:54.000Z</time>
      </trkpt>
      <trkpt lat="47.3011" lon="-2.18595">
        <ele>20.2</ele>
        <time>2020-04-09T15:01:55.000Z</time>
      </trkpt>
      <trkpt lat="47.30108" lon="-2.18588">
        <ele>20.2</ele>
        <time>2020-04-09T15:01:56.000Z</time>
      </trkpt>
      <trkpt lat="47.30105" lon="-2.1858">
        <ele>20.2</ele>
        <time>2020-04-09T15:01:57.000Z</time>
      </trkpt>
      <trkpt lat="47.30103" lon="-2.18573">
        <ele>20.2</ele>
        <time>2020-04-09T15:01:58.000Z</time>
      </trkpt>
      <trkpt lat="47.30101" lon="-2.18565">
        <ele>20.2</ele>
        <time>2020-04-09T15:01:59.000Z</time>
      </trkpt>
      <trkpt lat="47.30099" lon="-2.18558">
        <ele>20.2</ele>
        <time>2020-04-09T15:02:00.000Z</time>
      </trkpt>
      <trkpt lat="47.30098" lon="-2.1855">
        <ele>20.4</ele>
        <time>2020-04-09T15:02:01.000Z</time>
      </trkpt>
      <trkpt lat="47.30096" lon="-2.18542">
        <ele>20.4</ele>
        <time>2020-04-09T15:02:02.000Z</time>
      </trkpt>
      <trkpt lat="47.30095" lon="-2.18535">
        <ele>20.2</ele>
        <time>2020-04-09T15:02:03.000Z</time>
      </trkpt>
      <trkpt lat="47.30093" lon="-2.18527">
        <ele>20.2</ele>
        <time>2020-04-09T15:02:04.000Z</time>
      </trkpt>
      <trkpt lat="47.30092" lon="-2.18519">
        <ele>20.2</ele>
        <time>2020-04-09T15:02:05.000Z</time>
      </trkpt>
      <trkpt lat="47.30091" lon="-2.18511">
        <ele>20.4</ele>
        <time>2020-04-09T15:02:06.000Z</time>
      </trkpt>
      <trkpt lat="47.3009" lon="-2.18503">
        <ele>20.4</ele>
        <time>2020-04-09T15:02:07.000Z</time>
      </trkpt>
      <trkpt lat="47.30089" lon="-2.18496">
        <ele>20.4</ele>
        <time>2020-04-09T15:02:08.000Z</time>
      </trkpt>
      <trkpt lat="47.30088" lon="-2.18488">
        <ele>20.4</ele>
        <time>2020-04-09T15:02:09.000Z</time>
      </trkpt>
      <trkpt lat="47.30087" lon="-2.18481">
        <ele>20.4</ele>
        <time>2020-04-09T15:02:10.000Z</time>
      </trkpt>
      <trkpt lat="47.30086" lon="-2.18474">
        <ele>20.4</ele>
        <time>2020-04-09T15:02:11.000Z</time>
      </trkpt>
      <trkpt lat="47.30085" lon="-2.18466">
        <ele>20.2</ele>
        <time>2020-04-09T15:02:12.000Z</time>
      </trkpt>
      <trkpt lat="47.30085" lon="-2.18459">
        <ele>20</ele>
        <time>2020-04-09T15:02:13.000Z</time>
      </trkpt>
      <trkpt lat="47.30084" lon="-2.18452">
        <ele>20</ele>
        <time>2020-04-09T15:02:14.000Z</time>
      </trkpt>
      <trkpt lat="47.30082" lon="-2.18445">
        <ele>19.6</ele>
        <time>2020-04-09T15:02:15.000Z</time>
      </trkpt>
      <trkpt lat="47.30079" lon="-2.18439">
        <ele>19.8</ele>
        <time>2020-04-09T15:02:16.000Z</time>
      </trkpt>
      <trkpt lat="47.30074" lon="-2.18438">
        <ele>19.8</ele>
        <time>2020-04-09T15:02:17.000Z</time>
      </trkpt>
      <trkpt lat="47.30069" lon="-2.18439">
        <ele>19.8</ele>
        <time>2020-04-09T15:02:18.000Z</time>
      </trkpt>
      <trkpt lat="47.30064" lon="-2.18441">
        <ele>19.8</ele>
        <time>2020-04-09T15:02:19.000Z</time>
      </trkpt>
      <trkpt lat="47.30059" lon="-2.18442">
        <ele>19.8</ele>
        <time>2020-04-09T15:02:20.000Z</time>
      </trkpt>
      <trkpt lat="47.30054" lon="-2.18443">
        <ele>19.8</ele>
        <time>2020-04-09T15:02:21.000Z</time>
      </trkpt>
      <trkpt lat="47.30049" lon="-2.18445">
        <ele>19.6</ele>
        <time>2020-04-09T15:02:22.000Z</time>
      </trkpt>
      <trkpt lat="47.30044" lon="-2.18446">
        <ele>19.8</ele>
        <time>2020-04-09T15:02:23.000Z</time>
      </trkpt>
      <trkpt lat="47.30039" lon="-2.18449">
        <ele>19.8</ele>
        <time>2020-04-09T15:02:24.000Z</time>
      </trkpt>
      <trkpt lat="47.30034" lon="-2.18452">
        <ele>20</ele>
        <time>2020-04-09T15:02:25.000Z</time>
      </trkpt>
      <trkpt lat="47.3003" lon="-2.18456">
        <ele>19.8</ele>
        <time>2020-04-09T15:02:26.000Z</time>
      </trkpt>
      <trkpt lat="47.30026" lon="-2.1846">
        <ele>20</ele>
        <time>2020-04-09T15:02:27.000Z</time>
      </trkpt>
      <trkpt lat="47.30021" lon="-2.18463">
        <ele>20</ele>
        <time>2020-04-09T15:02:28.000Z</time>
      </trkpt>
      <trkpt lat="47.30017" lon="-2.18467">
        <ele>20</ele>
        <time>2020-04-09T15:02:29.000Z</time>
      </trkpt>
      <trkpt lat="47.30013" lon="-2.1847">
        <ele>20</ele>
        <time>2020-04-09T15:02:30.000Z</time>
      </trkpt>
      <trkpt lat="47.30008" lon="-2.18474">
        <ele>20</ele>
        <time>2020-04-09T15:02:31.000Z</time>
      </trkpt>
      <trkpt lat="47.30004" lon="-2.18478">
        <ele>19.8</ele>
        <time>2020-04-09T15:02:32.000Z</time>
      </trkpt>
      <trkpt lat="47.29999" lon="-2.18481">
        <ele>19.8</ele>
        <time>2020-04-09T15:02:33.000Z</time>
      </trkpt>
      <trkpt lat="47.29995" lon="-2.18484">
        <ele>19.6</ele>
        <time>2020-04-09T15:02:34.000Z</time>
      </trkpt>
      <trkpt lat="47.2999" lon="-2.18488">
        <ele>19.6</ele>
        <time>2020-04-09T15:02:35.000Z</time>
      </trkpt>
      <trkpt lat="47.29986" lon="-2.18491">
        <ele>19.8</ele>
        <time>2020-04-09T15:02:36.000Z</time>
      </trkpt>
      <trkpt lat="47.29981" lon="-2.18495">
        <ele>20.2</ele>
        <time>2020-04-09T15:02:37.000Z</time>
      </trkpt>
      <trkpt lat="47.29976" lon="-2.18498">
        <ele>20.2</ele>
        <time>2020-04-09T15:02:38.000Z</time>
      </trkpt>
      <trkpt lat="47.29972" lon="-2.18502">
        <ele>20.4</ele>
        <time>2020-04-09T15:02:39.000Z</time>
      </trkpt>
      <trkpt lat="47.29968" lon="-2.18506">
        <ele>20</ele>
        <time>2020-04-09T15:02:40.000Z</time>
      </trkpt>
      <trkpt lat="47.29963" lon="-2.1851">
        <ele>19.8</ele>
        <time>2020-04-09T15:02:41.000Z</time>
      </trkpt>
      <trkpt lat="47.29959" lon="-2.18514">
        <ele>20</ele>
        <time>2020-04-09T15:02:42.000Z</time>
      </trkpt>
      <trkpt lat="47.29954" lon="-2.18518">
        <ele>19.8</ele>
        <time>2020-04-09T15:02:43.000Z</time>
      </trkpt>
      <trkpt lat="47.29949" lon="-2.18521">
        <ele>20</ele>
        <time>2020-04-09T15:02:44.000Z</time>
      </trkpt>
      <trkpt lat="47.29944" lon="-2.18525">
        <ele>20</ele>
        <time>2020-04-09T15:02:45.000Z</time>
      </trkpt>
      <trkpt lat="47.29939" lon="-2.18527">
        <ele>20.2</ele>
        <time>2020-04-09T15:02:46.000Z</time>
      </trkpt>
      <trkpt lat="47.29934" lon="-2.18526">
        <ele>20</ele>
        <time>2020-04-09T15:02:47.000Z</time>
      </trkpt>
      <trkpt lat="47.29931" lon="-2.18522">
        <ele>19.8</ele>
        <time>2020-04-09T15:02:48.000Z</time>
      </trkpt>
      <trkpt lat="47.29928" lon="-2.18517">
        <ele>20</ele>
        <time>2020-04-09T15:02:49.000Z</time>
      </trkpt>
      <trkpt lat="47.29926" lon="-2.18511">
        <ele>20</ele>
        <time>2020-04-09T15:02:50.000Z</time>
      </trkpt>
      <trkpt lat="47.29924" lon="-2.18505">
        <ele>19.8</ele>
        <time>2020-04-09T15:02:51.000Z</time>
      </trkpt>
      <trkpt lat="47.29922" lon="-2.18499">
        <ele>20.2</ele>
        <time>2020-04-09T15:02:52.000Z</time>
      </trkpt>
      <trkpt lat="47.29921" lon="-2.18493">
        <ele>20.2</ele>
        <time>2020-04-09T15:02:53.000Z</time>
      </trkpt>
      <trkpt lat="47.29919" lon="-2.18488">
        <ele>20.6</ele>
        <time>2020-04-09T15:02:54.000Z</time>
      </trkpt>
      <trkpt lat="47.29916" lon="-2.18485">
        <ele>20.8</ele>
        <time>2020-04-09T15:02:55.000Z</time>
      </trkpt>
      <trkpt lat="47.29913" lon="-2.18486">
        <ele>20.4</ele>
        <time>2020-04-09T15:02:56.000Z</time>
      </trkpt>
      <trkpt lat="47.29909" lon="-2.18489">
        <ele>20.2</ele>
        <time>2020-04-09T15:02:57.000Z</time>
      </trkpt>
      <trkpt lat="47.29906" lon="-2.18492">
        <ele>20</ele>
        <time>2020-04-09T15:02:58.000Z</time>
      </trkpt>
      <trkpt lat="47.29902" lon="-2.18495">
        <ele>20.4</ele>
        <time>2020-04-09T15:02:59.000Z</time>
      </trkpt>
      <trkpt lat="47.29898" lon="-2.18498">
        <ele>20.4</ele>
        <time>2020-04-09T15:03:00.000Z</time>
      </trkpt>
      <trkpt lat="47.29894" lon="-2.18502">
        <ele>20.2</ele>
        <time>2020-04-09T15:03:01.000Z</time>
      </trkpt>
      <trkpt lat="47.2989" lon="-2.18506">
        <ele>20.2</ele>
        <time>2020-04-09T15:03:02.000Z</time>
      </trkpt>
      <trkpt lat="47.29886" lon="-2.18511">
        <ele>20</ele>
        <time>2020-04-09T15:03:03.000Z</time>
      </trkpt>
      <trkpt lat="47.29882" lon="-2.18515">
        <ele>20</ele>
        <time>2020-04-09T15:03:04.000Z</time>
      </trkpt>
      <trkpt lat="47.29878" lon="-2.18519">
        <ele>20</ele>
        <time>2020-04-09T15:03:05.000Z</time>
      </trkpt>
      <trkpt lat="47.29874" lon="-2.18523">
        <ele>20</ele>
        <time>2020-04-09T15:03:06.000Z</time>
      </trkpt>
      <trkpt lat="47.2987" lon="-2.18527">
        <ele>20.2</ele>
        <time>2020-04-09T15:03:07.000Z</time>
      </trkpt>
      <trkpt lat="47.29866" lon="-2.18531">
        <ele>20.2</ele>
        <time>2020-04-09T15:03:08.000Z</time>
      </trkpt>
      <trkpt lat="47.29862" lon="-2.18536">
        <ele>20.2</ele>
        <time>2020-04-09T15:03:09.000Z</time>
      </trkpt>
      <trkpt lat="47.29859" lon="-2.1854">
        <ele>20.2</ele>
        <time>2020-04-09T15:03:10.000Z</time>
      </trkpt>
      <trkpt lat="47.29855" lon="-2.18544">
        <ele>20</ele>
        <time>2020-04-09T15:03:11.000Z</time>
      </trkpt>
      <trkpt lat="47.29851" lon="-2.18549">
        <ele>20.2</ele>
        <time>2020-04-09T15:03:12.000Z</time>
      </trkpt>
      <trkpt lat="47.29847" lon="-2.18553">
        <ele>20.2</ele>
        <time>2020-04-09T15:03:13.000Z</time>
      </trkpt>
      <trkpt lat="47.29843" lon="-2.18558">
        <ele>20.2</ele>
        <time>2020-04-09T15:03:14.000Z</time>
      </trkpt>
      <trkpt lat="47.2984" lon="-2.18563">
        <ele>20.4</ele>
        <time>2020-04-09T15:03:15.000Z</time>
      </trkpt>
      <trkpt lat="47.29836" lon="-2.18567">
        <ele>20.6</ele>
        <time>2020-04-09T15:03:16.000Z</time>
      </trkpt>
      <trkpt lat="47.29832" lon="-2.18571">
        <ele>20.2</ele>
        <time>2020-04-09T15:03:17.000Z</time>
      </trkpt>
      <trkpt lat="47.29827" lon="-2.18575">
        <ele>20.4</ele>
        <time>2020-04-09T15:03:18.000Z</time>
      </trkpt>
      <trkpt lat="47.29824" lon="-2.1858">
        <ele>20.2</ele>
        <time>2020-04-09T15:03:19.000Z</time>
      </trkpt>
      <trkpt lat="47.2982" lon="-2.18586">
        <ele>20.4</ele>
        <time>2020-04-09T15:03:20.000Z</time>
      </trkpt>
      <trkpt lat="47.29817" lon="-2.18591">
        <ele>20.2</ele>
        <time>2020-04-09T15:03:21.000Z</time>
      </trkpt>
      <trkpt lat="47.29813" lon="-2.18595">
        <ele>20.2</ele>
        <time>2020-04-09T15:03:22.000Z</time>
      </trkpt>
      <trkpt lat="47.29809" lon="-2.186">
        <ele>20</ele>
        <time>2020-04-09T15:03:23.000Z</time>
      </trkpt>
      <trkpt lat="47.29805" lon="-2.18604">
        <ele>20.2</ele>
        <time>2020-04-09T15:03:24.000Z</time>
      </trkpt>
      <trkpt lat="47.29802" lon="-2.18609">
        <ele>20</ele>
        <time>2020-04-09T15:03:25.000Z</time>
      </trkpt>
      <trkpt lat="47.29798" lon="-2.18614">
        <ele>20.4</ele>
        <time>2020-04-09T15:03:26.000Z</time>
      </trkpt>
      <trkpt lat="47.29795" lon="-2.18619">
        <ele>20.4</ele>
        <time>2020-04-09T15:03:27.000Z</time>
      </trkpt>
      <trkpt lat="47.29791" lon="-2.18624">
        <ele>20.4</ele>
        <time>2020-04-09T15:03:28.000Z</time>
      </trkpt>
      <trkpt lat="47.29788" lon="-2.18629">
        <ele>20.4</ele>
        <time>2020-04-09T15:03:29.000Z</time>
      </trkpt>
      <trkpt lat="47.29784" lon="-2.18634">
        <ele>20.4</ele>
        <time>2020-04-09T15:03:30.000Z</time>
      </trkpt>
      <trkpt lat="47.2978" lon="-2.18638">
        <ele>20.4</ele>
        <time>2020-04-09T15:03:31.000Z</time>
      </trkpt>
      <trkpt lat="47.29777" lon="-2.18643">
        <ele>20.2</ele>
        <time>2020-04-09T15:03:32.000Z</time>
      </trkpt>
      <trkpt lat="47.29773" lon="-2.18647">
        <ele>20.4</ele>
        <time>2020-04-09T15:03:33.000Z</time>
      </trkpt>
      <trkpt lat="47.2977" lon="-2.18652">
        <ele>20.2</ele>
        <time>2020-04-09T15:03:34.000Z</time>
      </trkpt>
      <trkpt lat="47.29766" lon="-2.18657">
        <ele>20.4</ele>
        <time>2020-04-09T15:03:35.000Z</time>
      </trkpt>
      <trkpt lat="47.29763" lon="-2.18661">
        <ele>20.6</ele>
        <time>2020-04-09T15:03:36.000Z</time>
      </trkpt>
      <trkpt lat="47.29759" lon="-2.18666">
        <ele>20.4</ele>
        <time>2020-04-09T15:03:37.000Z</time>
      </trkpt>
      <trkpt lat="47.29755" lon="-2.18671">
        <ele>20.4</ele>
        <time>2020-04-09T15:03:38.000Z</time>
      </trkpt>
      <trkpt lat="47.29752" lon="-2.18676">
        <ele>20.4</ele>
        <time>2020-04-09T15:03:39.000Z</time>
      </trkpt>
      <trkpt lat="47.29748" lon="-2.18681">
        <ele>20.4</ele>
        <time>2020-04-09T15:03:40.000Z</time>
      </trkpt>
      <trkpt lat="47.29745" lon="-2.18686">
        <ele>20.2</ele>
        <time>2020-04-09T15:03:41.000Z</time>
      </trkpt>
      <trkpt lat="47.29741" lon="-2.18691">
        <ele>20.4</ele>
        <time>2020-04-09T15:03:42.000Z</time>
      </trkpt>
      <trkpt lat="47.29737" lon="-2.18697">
        <ele>20.2</ele>
        <time>2020-04-09T15:03:43.000Z</time>
      </trkpt>
      <trkpt lat="47.29734" lon="-2.18703">
        <ele>20.4</ele>
        <time>2020-04-09T15:03:44.000Z</time>
      </trkpt>
      <trkpt lat="47.2973" lon="-2.18709">
        <ele>20.2</ele>
        <time>2020-04-09T15:03:45.000Z</time>
      </trkpt>
      <trkpt lat="47.29726" lon="-2.18715">
        <ele>20.2</ele>
        <time>2020-04-09T15:03:46.000Z</time>
      </trkpt>
      <trkpt lat="47.29722" lon="-2.18721">
        <ele>20.4</ele>
        <time>2020-04-09T15:03:47.000Z</time>
      </trkpt>
      <trkpt lat="47.29718" lon="-2.18726">
        <ele>20.2</ele>
        <time>2020-04-09T15:03:48.000Z</time>
      </trkpt>
      <trkpt lat="47.29715" lon="-2.18732">
        <ele>20.2</ele>
        <time>2020-04-09T15:03:49.000Z</time>
      </trkpt>
      <trkpt lat="47.29711" lon="-2.18737">
        <ele>20.2</ele>
        <time>2020-04-09T15:03:50.000Z</time>
      </trkpt>
      <trkpt lat="47.29707" lon="-2.18743">
        <ele>20.2</ele>
        <time>2020-04-09T15:03:51.000Z</time>
      </trkpt>
      <trkpt lat="47.29704" lon="-2.18749">
        <ele>20</ele>
        <time>2020-04-09T15:03:52.000Z</time>
      </trkpt>
      <trkpt lat="47.297" lon="-2.18755">
        <ele>20</ele>
        <time>2020-04-09T15:03:53.000Z</time>
      </trkpt>
      <trkpt lat="47.29697" lon="-2.18761">
        <ele>20</ele>
        <time>2020-04-09T15:03:54.000Z</time>
      </trkpt>
      <trkpt lat="47.29693" lon="-2.18767">
        <ele>20</ele>
        <time>2020-04-09T15:03:55.000Z</time>
      </trkpt>
      <trkpt lat="47.2969" lon="-2.18773">
        <ele>20.2</ele>
        <time>2020-04-09T15:03:56.000Z</time>
      </trkpt>
      <trkpt lat="47.29687" lon="-2.1878">
        <ele>20.2</ele>
        <time>2020-04-09T15:03:57.000Z</time>
      </trkpt>
      <trkpt lat="47.29684" lon="-2.18786">
        <ele>20</ele>
        <time>2020-04-09T15:03:58.000Z</time>
      </trkpt>
      <trkpt lat="47.29681" lon="-2.18791">
        <ele>19.8</ele>
        <time>2020-04-09T15:03:59.000Z</time>
      </trkpt>
      <trkpt lat="47.29673" lon="-2.18803">
        <ele>19.8</ele>
        <time>2020-04-09T15:04:01.000Z</time>
      </trkpt>
      <trkpt lat="47.2967" lon="-2.18809">
        <ele>19.8</ele>
        <time>2020-04-09T15:04:02.000Z</time>
      </trkpt>
      <trkpt lat="47.29667" lon="-2.18815">
        <ele>19.8</ele>
        <time>2020-04-09T15:04:03.000Z</time>
      </trkpt>
      <trkpt lat="47.29664" lon="-2.18821">
        <ele>20</ele>
        <time>2020-04-09T15:04:04.000Z</time>
      </trkpt>
      <trkpt lat="47.29661" lon="-2.18827">
        <ele>19.8</ele>
        <time>2020-04-09T15:04:05.000Z</time>
      </trkpt>
      <trkpt lat="47.29658" lon="-2.18833">
        <ele>19.8</ele>
        <time>2020-04-09T15:04:06.000Z</time>
      </trkpt>
      <trkpt lat="47.29655" lon="-2.18839">
        <ele>20</ele>
        <time>2020-04-09T15:04:07.000Z</time>
      </trkpt>
      <trkpt lat="47.29652" lon="-2.18845">
        <ele>20</ele>
        <time>2020-04-09T15:04:08.000Z</time>
      </trkpt>
      <trkpt lat="47.29649" lon="-2.18851">
        <ele>20</ele>
        <time>2020-04-09T15:04:09.000Z</time>
      </trkpt>
      <trkpt lat="47.29646" lon="-2.18857">
        <ele>20.2</ele>
        <time>2020-04-09T15:04:10.000Z</time>
      </trkpt>
      <trkpt lat="47.29643" lon="-2.18863">
        <ele>20.2</ele>
        <time>2020-04-09T15:04:11.000Z</time>
      </trkpt>
      <trkpt lat="47.2964" lon="-2.18869">
        <ele>20.2</ele>
        <time>2020-04-09T15:04:12.000Z</time>
      </trkpt>
      <trkpt lat="47.29637" lon="-2.18874">
        <ele>20</ele>
        <time>2020-04-09T15:04:13.000Z</time>
      </trkpt>
      <trkpt lat="47.29634" lon="-2.1888">
        <ele>20</ele>
        <time>2020-04-09T15:04:14.000Z</time>
      </trkpt>
      <trkpt lat="47.29631" lon="-2.18885">
        <ele>20.2</ele>
        <time>2020-04-09T15:04:15.000Z</time>
      </trkpt>
      <trkpt lat="47.29628" lon="-2.18891">
        <ele>20.2</ele>
        <time>2020-04-09T15:04:16.000Z</time>
      </trkpt>
      <trkpt lat="47.29625" lon="-2.18896">
        <ele>20.2</ele>
        <time>2020-04-09T15:04:17.000Z</time>
      </trkpt>
      <trkpt lat="47.29622" lon="-2.18899">
        <ele>20.4</ele>
        <time>2020-04-09T15:04:18.000Z</time>
      </trkpt>
      <trkpt lat="47.29617" lon="-2.189">
        <ele>20.4</ele>
        <time>2020-04-09T15:04:19.000Z</time>
      </trkpt>
      <trkpt lat="47.29612" lon="-2.189">
        <ele>20.2</ele>
        <time>2020-04-09T15:04:20.000Z</time>
      </trkpt>
      <trkpt lat="47.29603" lon="-2.18899">
        <ele>20.2</ele>
        <time>2020-04-09T15:04:21.000Z</time>
      </trkpt>
      <trkpt lat="47.29598" lon="-2.18899">
        <ele>20.2</ele>
        <time>2020-04-09T15:04:22.000Z</time>
      </trkpt>
      <trkpt lat="47.29593" lon="-2.18897">
        <ele>20.2</ele>
        <time>2020-04-09T15:04:23.000Z</time>
      </trkpt>
      <trkpt lat="47.29589" lon="-2.18896">
        <ele>20</ele>
        <time>2020-04-09T15:04:24.000Z</time>
      </trkpt>
      <trkpt lat="47.29584" lon="-2.18894">
        <ele>20.2</ele>
        <time>2020-04-09T15:04:25.000Z</time>
      </trkpt>
      <trkpt lat="47.2958" lon="-2.18892">
        <ele>20.2</ele>
        <time>2020-04-09T15:04:26.000Z</time>
      </trkpt>
      <trkpt lat="47.29575" lon="-2.18891">
        <ele>20.2</ele>
        <time>2020-04-09T15:04:27.000Z</time>
      </trkpt>
      <trkpt lat="47.2957" lon="-2.1889">
        <ele>20.4</ele>
        <time>2020-04-09T15:04:28.000Z</time>
      </trkpt>
      <trkpt lat="47.29566" lon="-2.18889">
        <ele>20.4</ele>
        <time>2020-04-09T15:04:30.000Z</time>
      </trkpt>
      <trkpt lat="47.29556" lon="-2.18887">
        <ele>20.4</ele>
        <time>2020-04-09T15:04:31.000Z</time>
      </trkpt>
      <trkpt lat="47.29552" lon="-2.18886">
        <ele>20.4</ele>
        <time>2020-04-09T15:04:32.000Z</time>
      </trkpt>
      <trkpt lat="47.29547" lon="-2.18885">
        <ele>20.4</ele>
        <time>2020-04-09T15:04:33.000Z</time>
      </trkpt>
      <trkpt lat="47.29543" lon="-2.18884">
        <ele>20.2</ele>
        <time>2020-04-09T15:04:34.000Z</time>
      </trkpt>
      <trkpt lat="47.29538" lon="-2.18884">
        <ele>19.8</ele>
        <time>2020-04-09T15:04:35.000Z</time>
      </trkpt>
      <trkpt lat="47.29534" lon="-2.18884">
        <ele>19.6</ele>
        <time>2020-04-09T15:04:36.000Z</time>
      </trkpt>
      <trkpt lat="47.2953" lon="-2.18883">
        <ele>19.6</ele>
        <time>2020-04-09T15:04:37.000Z</time>
      </trkpt>
      <trkpt lat="47.29526" lon="-2.18883">
        <ele>20</ele>
        <time>2020-04-09T15:04:38.000Z</time>
      </trkpt>
      <trkpt lat="47.29522" lon="-2.18883">
        <ele>20.2</ele>
        <time>2020-04-09T15:04:39.000Z</time>
      </trkpt>
      <trkpt lat="47.29518" lon="-2.18882">
        <ele>20.2</ele>
        <time>2020-04-09T15:04:40.000Z</time>
      </trkpt>
      <trkpt lat="47.29518" lon="-2.18882">
        <ele>20.2</ele>
        <time>2020-04-09T15:04:41.000Z</time>
      </trkpt>
      <trkpt lat="47.29514" lon="-2.18882">
        <ele>20.2</ele>
        <time>2020-04-09T15:04:42.000Z</time>
      </trkpt>
      <trkpt lat="47.29511" lon="-2.1888">
        <ele>20.4</ele>
        <time>2020-04-09T15:04:43.000Z</time>
      </trkpt>
      <trkpt lat="47.29504" lon="-2.1888">
        <ele>20.4</ele>
        <time>2020-04-09T15:04:44.000Z</time>
      </trkpt>
      <trkpt lat="47.29504" lon="-2.1888">
        <ele>20.2</ele>
        <time>2020-04-09T15:04:45.000Z</time>
      </trkpt>
      <trkpt lat="47.29501" lon="-2.18881">
        <ele>20.2</ele>
        <time>2020-04-09T15:04:46.000Z</time>
      </trkpt>
      <trkpt lat="47.29498" lon="-2.18884">
        <ele>20.2</ele>
        <time>2020-04-09T15:04:47.000Z</time>
      </trkpt>
      <trkpt lat="47.29497" lon="-2.18889">
        <ele>20.2</ele>
        <time>2020-04-09T15:04:49.000Z</time>
      </trkpt>
      <trkpt lat="47.29497" lon="-2.18899">
        <ele>20.4</ele>
        <time>2020-04-09T15:04:50.000Z</time>
      </trkpt>
      <trkpt lat="47.29497" lon="-2.18904">
        <ele>20.4</ele>
        <time>2020-04-09T15:04:51.000Z</time>
      </trkpt>
      <trkpt lat="47.29498" lon="-2.18909">
        <ele>20.4</ele>
        <time>2020-04-09T15:04:52.000Z</time>
      </trkpt>
      <trkpt lat="47.295" lon="-2.18913">
        <ele>20.4</ele>
        <time>2020-04-09T15:04:53.000Z</time>
      </trkpt>
      <trkpt lat="47.29502" lon="-2.18917">
        <ele>20.4</ele>
        <time>2020-04-09T15:04:54.000Z</time>
      </trkpt>
      <trkpt lat="47.29503" lon="-2.18922">
        <ele>20.4</ele>
        <time>2020-04-09T15:04:55.000Z</time>
      </trkpt>
      <trkpt lat="47.29504" lon="-2.18928">
        <ele>20.6</ele>
        <time>2020-04-09T15:04:56.000Z</time>
      </trkpt>
      <trkpt lat="47.29503" lon="-2.18933">
        <ele>20.6</ele>
        <time>2020-04-09T15:04:57.000Z</time>
      </trkpt>
      <trkpt lat="47.29503" lon="-2.18939">
        <ele>20.6</ele>
        <time>2020-04-09T15:04:58.000Z</time>
      </trkpt>
      <trkpt lat="47.29502" lon="-2.18945">
        <ele>20.6</ele>
        <time>2020-04-09T15:04:59.000Z</time>
      </trkpt>
      <trkpt lat="47.29501" lon="-2.1895">
        <ele>20.4</ele>
        <time>2020-04-09T15:05:00.000Z</time>
      </trkpt>
      <trkpt lat="47.295" lon="-2.18956">
        <ele>20.4</ele>
        <time>2020-04-09T15:05:01.000Z</time>
      </trkpt>
      <trkpt lat="47.29499" lon="-2.18962">
        <ele>20.2</ele>
        <time>2020-04-09T15:05:02.000Z</time>
      </trkpt>
      <trkpt lat="47.29499" lon="-2.18967">
        <ele>20.2</ele>
        <time>2020-04-09T15:05:03.000Z</time>
      </trkpt>
      <trkpt lat="47.29498" lon="-2.18973">
        <ele>20.2</ele>
        <time>2020-04-09T15:05:04.000Z</time>
      </trkpt>
      <trkpt lat="47.29497" lon="-2.18979">
        <ele>20.2</ele>
        <time>2020-04-09T15:05:05.000Z</time>
      </trkpt>
      <trkpt lat="47.29496" lon="-2.18984">
        <ele>20</ele>
        <time>2020-04-09T15:05:06.000Z</time>
      </trkpt>
      <trkpt lat="47.29496" lon="-2.1899">
        <ele>20</ele>
        <time>2020-04-09T15:05:07.000Z</time>
      </trkpt>
      <trkpt lat="47.29498" lon="-2.18994">
        <ele>20</ele>
        <time>2020-04-09T15:05:08.000Z</time>
      </trkpt>
      <trkpt lat="47.29501" lon="-2.18998">
        <ele>20</ele>
        <time>2020-04-09T15:05:09.000Z</time>
      </trkpt>
      <trkpt lat="47.29504" lon="-2.19001">
        <ele>20</ele>
        <time>2020-04-09T15:05:10.000Z</time>
      </trkpt>
      <trkpt lat="47.29507" lon="-2.19004">
        <ele>20</ele>
        <time>2020-04-09T15:05:11.000Z</time>
      </trkpt>
      <trkpt lat="47.2951" lon="-2.19007">
        <ele>20.2</ele>
        <time>2020-04-09T15:05:12.000Z</time>
      </trkpt>
      <trkpt lat="47.29514" lon="-2.1901">
        <ele>20.2</ele>
        <time>2020-04-09T15:05:13.000Z</time>
      </trkpt>
      <trkpt lat="47.29517" lon="-2.19012">
        <ele>20.2</ele>
        <time>2020-04-09T15:05:14.000Z</time>
      </trkpt>
      <trkpt lat="47.29521" lon="-2.19015">
        <ele>20.2</ele>
        <time>2020-04-09T15:05:15.000Z</time>
      </trkpt>
      <trkpt lat="47.29524" lon="-2.19018">
        <ele>20</ele>
        <time>2020-04-09T15:05:16.000Z</time>
      </trkpt>
      <trkpt lat="47.29528" lon="-2.19022">
        <ele>20.2</ele>
        <time>2020-04-09T15:05:17.000Z</time>
      </trkpt>
      <trkpt lat="47.29531" lon="-2.19026">
        <ele>20.4</ele>
        <time>2020-04-09T15:05:18.000Z</time>
      </trkpt>
      <trkpt lat="47.29534" lon="-2.1903">
        <ele>20.4</ele>
        <time>2020-04-09T15:05:19.000Z</time>
      </trkpt>
      <trkpt lat="47.29537" lon="-2.19034">
        <ele>20.4</ele>
        <time>2020-04-09T15:05:20.000Z</time>
      </trkpt>
      <trkpt lat="47.2954" lon="-2.19037">
        <ele>20.4</ele>
        <time>2020-04-09T15:05:21.000Z</time>
      </trkpt>
      <trkpt lat="47.29544" lon="-2.1904">
        <ele>20.4</ele>
        <time>2020-04-09T15:05:22.000Z</time>
      </trkpt>
      <trkpt lat="47.29547" lon="-2.19043">
        <ele>20.4</ele>
        <time>2020-04-09T15:05:23.000Z</time>
      </trkpt>
      <trkpt lat="47.29551" lon="-2.19046">
        <ele>20.2</ele>
        <time>2020-04-09T15:05:24.000Z</time>
      </trkpt>
      <trkpt lat="47.29555" lon="-2.19049">
        <ele>20</ele>
        <time>2020-04-09T15:05:25.000Z</time>
      </trkpt>
      <trkpt lat="47.29558" lon="-2.19052">
        <ele>20</ele>
        <time>2020-04-09T15:05:26.000Z</time>
      </trkpt>
      <trkpt lat="47.29562" lon="-2.19056">
        <ele>20</ele>
        <time>2020-04-09T15:05:27.000Z</time>
      </trkpt>
      <trkpt lat="47.29565" lon="-2.19059">
        <ele>20</ele>
        <time>2020-04-09T15:05:28.000Z</time>
      </trkpt>
      <trkpt lat="47.29568" lon="-2.19062">
        <ele>20.2</ele>
        <time>2020-04-09T15:05:29.000Z</time>
      </trkpt>
      <trkpt lat="47.29571" lon="-2.19066">
        <ele>20.2</ele>
        <time>2020-04-09T15:05:30.000Z</time>
      </trkpt>
      <trkpt lat="47.29574" lon="-2.19068">
        <ele>20</ele>
        <time>2020-04-09T15:05:31.000Z</time>
      </trkpt>
      <trkpt lat="47.29577" lon="-2.19071">
        <ele>20</ele>
        <time>2020-04-09T15:05:32.000Z</time>
      </trkpt>
      <trkpt lat="47.29581" lon="-2.19071">
        <ele>20</ele>
        <time>2020-04-09T15:05:33.000Z</time>
      </trkpt>
      <trkpt lat="47.29585" lon="-2.1907">
        <ele>20</ele>
        <time>2020-04-09T15:05:34.000Z</time>
      </trkpt>
      <trkpt lat="47.29588" lon="-2.19067">
        <ele>19.8</ele>
        <time>2020-04-09T15:05:35.000Z</time>
      </trkpt>
      <trkpt lat="47.29592" lon="-2.19065">
        <ele>20</ele>
        <time>2020-04-09T15:05:36.000Z</time>
      </trkpt>
      <trkpt lat="47.29596" lon="-2.19066">
        <ele>20</ele>
        <time>2020-04-09T15:05:37.000Z</time>
      </trkpt>
      <trkpt lat="47.29599" lon="-2.19069">
        <ele>19.6</ele>
        <time>2020-04-09T15:05:38.000Z</time>
      </trkpt>
      <trkpt lat="47.29602" lon="-2.19074">
        <ele>19.8</ele>
        <time>2020-04-09T15:05:39.000Z</time>
      </trkpt>
      <trkpt lat="47.29603" lon="-2.1908">
        <ele>19.8</ele>
        <time>2020-04-09T15:05:40.000Z</time>
      </trkpt>
      <trkpt lat="47.29604" lon="-2.19087">
        <ele>19.6</ele>
        <time>2020-04-09T15:05:41.000Z</time>
      </trkpt>
      <trkpt lat="47.29604" lon="-2.19093">
        <ele>19.6</ele>
        <time>2020-04-09T15:05:42.000Z</time>
      </trkpt>
      <trkpt lat="47.29605" lon="-2.191">
        <ele>19.6</ele>
        <time>2020-04-09T15:05:43.000Z</time>
      </trkpt>
      <trkpt lat="47.29606" lon="-2.19106">
        <ele>19.6</ele>
        <time>2020-04-09T15:05:44.000Z</time>
      </trkpt>
      <trkpt lat="47.29606" lon="-2.19113">
        <ele>19.8</ele>
        <time>2020-04-09T15:05:45.000Z</time>
      </trkpt>
      <trkpt lat="47.29607" lon="-2.1912">
        <ele>19.6</ele>
        <time>2020-04-09T15:05:46.000Z</time>
      </trkpt>
      <trkpt lat="47.29608" lon="-2.19126">
        <ele>19.6</ele>
        <time>2020-04-09T15:05:47.000Z</time>
      </trkpt>
      <trkpt lat="47.29608" lon="-2.19133">
        <ele>19.6</ele>
        <time>2020-04-09T15:05:48.000Z</time>
      </trkpt>
      <trkpt lat="47.29609" lon="-2.1914">
        <ele>19.4</ele>
        <time>2020-04-09T15:05:49.000Z</time>
      </trkpt>
      <trkpt lat="47.2961" lon="-2.19147">
        <ele>19.6</ele>
        <time>2020-04-09T15:05:50.000Z</time>
      </trkpt>
      <trkpt lat="47.29611" lon="-2.19154">
        <ele>19.6</ele>
        <time>2020-04-09T15:05:51.000Z</time>
      </trkpt>
      <trkpt lat="47.29612" lon="-2.19161">
        <ele>19.4</ele>
        <time>2020-04-09T15:05:52.000Z</time>
      </trkpt>
      <trkpt lat="47.29612" lon="-2.19168">
        <ele>19.6</ele>
        <time>2020-04-09T15:05:53.000Z</time>
      </trkpt>
      <trkpt lat="47.29613" lon="-2.19175">
        <ele>19.6</ele>
        <time>2020-04-09T15:05:54.000Z</time>
      </trkpt>
      <trkpt lat="47.29614" lon="-2.19182">
        <ele>19.4</ele>
        <time>2020-04-09T15:05:55.000Z</time>
      </trkpt>
      <trkpt lat="47.29615" lon="-2.19189">
        <ele>19.6</ele>
        <time>2020-04-09T15:05:56.000Z</time>
      </trkpt>
      <trkpt lat="47.29615" lon="-2.19196">
        <ele>19.6</ele>
        <time>2020-04-09T15:05:57.000Z</time>
      </trkpt>
      <trkpt lat="47.29616" lon="-2.19203">
        <ele>19.4</ele>
        <time>2020-04-09T15:05:58.000Z</time>
      </trkpt>
      <trkpt lat="47.29617" lon="-2.1921">
        <ele>19.4</ele>
        <time>2020-04-09T15:05:59.000Z</time>
      </trkpt>
      <trkpt lat="47.29618" lon="-2.19217">
        <ele>19.4</ele>
        <time>2020-04-09T15:06:00.000Z</time>
      </trkpt>
      <trkpt lat="47.29619" lon="-2.19224">
        <ele>19.4</ele>
        <time>2020-04-09T15:06:01.000Z</time>
      </trkpt>
      <trkpt lat="47.2962" lon="-2.19231">
        <ele>19.6</ele>
        <time>2020-04-09T15:06:02.000Z</time>
      </trkpt>
      <trkpt lat="47.2962" lon="-2.19238">
        <ele>19.8</ele>
        <time>2020-04-09T15:06:03.000Z</time>
      </trkpt>
      <trkpt lat="47.29621" lon="-2.19245">
        <ele>19.8</ele>
        <time>2020-04-09T15:06:04.000Z</time>
      </trkpt>
      <trkpt lat="47.29622" lon="-2.19251">
        <ele>19.6</ele>
        <time>2020-04-09T15:06:05.000Z</time>
      </trkpt>
      <trkpt lat="47.29623" lon="-2.19258">
        <ele>19</ele>
        <time>2020-04-09T15:06:06.000Z</time>
      </trkpt>
      <trkpt lat="47.29624" lon="-2.19266">
        <ele>19</ele>
        <time>2020-04-09T15:06:07.000Z</time>
      </trkpt>
      <trkpt lat="47.29625" lon="-2.19273">
        <ele>19.2</ele>
        <time>2020-04-09T15:06:08.000Z</time>
      </trkpt>
      <trkpt lat="47.29626" lon="-2.1928">
        <ele>19.2</ele>
        <time>2020-04-09T15:06:09.000Z</time>
      </trkpt>
      <trkpt lat="47.29627" lon="-2.19287">
        <ele>19.8</ele>
        <time>2020-04-09T15:06:10.000Z</time>
      </trkpt>
      <trkpt lat="47.29628" lon="-2.19294">
        <ele>20</ele>
        <time>2020-04-09T15:06:11.000Z</time>
      </trkpt>
      <trkpt lat="47.29629" lon="-2.19301">
        <ele>19.8</ele>
        <time>2020-04-09T15:06:12.000Z</time>
      </trkpt>
      <trkpt lat="47.2963" lon="-2.19308">
        <ele>19.6</ele>
        <time>2020-04-09T15:06:13.000Z</time>
      </trkpt>
      <trkpt lat="47.29632" lon="-2.19315">
        <ele>19.6</ele>
        <time>2020-04-09T15:06:14.000Z</time>
      </trkpt>
      <trkpt lat="47.29633" lon="-2.19322">
        <ele>19.6</ele>
        <time>2020-04-09T15:06:15.000Z</time>
      </trkpt>
      <trkpt lat="47.29634" lon="-2.19329">
        <ele>19.8</ele>
        <time>2020-04-09T15:06:16.000Z</time>
      </trkpt>
      <trkpt lat="47.29635" lon="-2.19336">
        <ele>19.6</ele>
        <time>2020-04-09T15:06:17.000Z</time>
      </trkpt>
      <trkpt lat="47.29636" lon="-2.19343">
        <ele>19.6</ele>
        <time>2020-04-09T15:06:18.000Z</time>
      </trkpt>
      <trkpt lat="47.29636" lon="-2.1935">
        <ele>19.6</ele>
        <time>2020-04-09T15:06:19.000Z</time>
      </trkpt>
      <trkpt lat="47.29637" lon="-2.19357">
        <ele>19.8</ele>
        <time>2020-04-09T15:06:20.000Z</time>
      </trkpt>
      <trkpt lat="47.29638" lon="-2.19364">
        <ele>19.8</ele>
        <time>2020-04-09T15:06:21.000Z</time>
      </trkpt>
      <trkpt lat="47.29639" lon="-2.19371">
        <ele>19.8</ele>
        <time>2020-04-09T15:06:22.000Z</time>
      </trkpt>
      <trkpt lat="47.29639" lon="-2.19378">
        <ele>19.8</ele>
        <time>2020-04-09T15:06:23.000Z</time>
      </trkpt>
      <trkpt lat="47.2964" lon="-2.19385">
        <ele>19.8</ele>
        <time>2020-04-09T15:06:24.000Z</time>
      </trkpt>
      <trkpt lat="47.29641" lon="-2.19391">
        <ele>19.6</ele>
        <time>2020-04-09T15:06:25.000Z</time>
      </trkpt>
      <trkpt lat="47.29642" lon="-2.19398">
        <ele>19.8</ele>
        <time>2020-04-09T15:06:26.000Z</time>
      </trkpt>
      <trkpt lat="47.29643" lon="-2.19405">
        <ele>19.6</ele>
        <time>2020-04-09T15:06:27.000Z</time>
      </trkpt>
      <trkpt lat="47.29644" lon="-2.19412">
        <ele>19.4</ele>
        <time>2020-04-09T15:06:28.000Z</time>
      </trkpt>
      <trkpt lat="47.29645" lon="-2.19419">
        <ele>19.4</ele>
        <time>2020-04-09T15:06:29.000Z</time>
      </trkpt>
      <trkpt lat="47.29646" lon="-2.19426">
        <ele>19.6</ele>
        <time>2020-04-09T15:06:30.000Z</time>
      </trkpt>
      <trkpt lat="47.29647" lon="-2.19433">
        <ele>19.6</ele>
        <time>2020-04-09T15:06:31.000Z</time>
      </trkpt>
      <trkpt lat="47.29647" lon="-2.19439">
        <ele>19.8</ele>
        <time>2020-04-09T15:06:32.000Z</time>
      </trkpt>
      <trkpt lat="47.29648" lon="-2.19446">
        <ele>19.8</ele>
        <time>2020-04-09T15:06:33.000Z</time>
      </trkpt>
      <trkpt lat="47.29649" lon="-2.19452">
        <ele>19.8</ele>
        <time>2020-04-09T15:06:34.000Z</time>
      </trkpt>
      <trkpt lat="47.2965" lon="-2.19458">
        <ele>20</ele>
        <time>2020-04-09T15:06:35.000Z</time>
      </trkpt>
      <trkpt lat="47.29651" lon="-2.19464">
        <ele>19.8</ele>
        <time>2020-04-09T15:06:36.000Z</time>
      </trkpt>
      <trkpt lat="47.29651" lon="-2.19469">
        <ele>19.8</ele>
        <time>2020-04-09T15:06:37.000Z</time>
      </trkpt>
      <trkpt lat="47.29652" lon="-2.19475">
        <ele>19.8</ele>
        <time>2020-04-09T15:06:38.000Z</time>
      </trkpt>
      <trkpt lat="47.29652" lon="-2.19481">
        <ele>19.8</ele>
        <time>2020-04-09T15:06:39.000Z</time>
      </trkpt>
      <trkpt lat="47.29652" lon="-2.19486">
        <ele>19.8</ele>
        <time>2020-04-09T15:06:40.000Z</time>
      </trkpt>
      <trkpt lat="47.29652" lon="-2.19491">
        <ele>19.6</ele>
        <time>2020-04-09T15:06:41.000Z</time>
      </trkpt>
      <trkpt lat="47.2965" lon="-2.19495">
        <ele>19.6</ele>
        <time>2020-04-09T15:06:42.000Z</time>
      </trkpt>
      <trkpt lat="47.29646" lon="-2.19498">
        <ele>19.6</ele>
        <time>2020-04-09T15:06:43.000Z</time>
      </trkpt>
      <trkpt lat="47.29643" lon="-2.19499">
        <ele>19.8</ele>
        <time>2020-04-09T15:06:44.000Z</time>
      </trkpt>
      <trkpt lat="47.2964" lon="-2.195">
        <ele>19.8</ele>
        <time>2020-04-09T15:06:45.000Z</time>
      </trkpt>
      <trkpt lat="47.29636" lon="-2.19501">
        <ele>19.8</ele>
        <time>2020-04-09T15:06:46.000Z</time>
      </trkpt>
      <trkpt lat="47.29632" lon="-2.19502">
        <ele>20</ele>
        <time>2020-04-09T15:06:47.000Z</time>
      </trkpt>
      <trkpt lat="47.29628" lon="-2.19503">
        <ele>19.8</ele>
        <time>2020-04-09T15:06:48.000Z</time>
      </trkpt>
      <trkpt lat="47.29624" lon="-2.19504">
        <ele>19.8</ele>
        <time>2020-04-09T15:06:49.000Z</time>
      </trkpt>
      <trkpt lat="47.29621" lon="-2.19505">
        <ele>20</ele>
        <time>2020-04-09T15:06:50.000Z</time>
      </trkpt>
      <trkpt lat="47.29617" lon="-2.19506">
        <ele>20</ele>
        <time>2020-04-09T15:06:51.000Z</time>
      </trkpt>
      <trkpt lat="47.29613" lon="-2.19507">
        <ele>20.2</ele>
        <time>2020-04-09T15:06:52.000Z</time>
      </trkpt>
      <trkpt lat="47.29609" lon="-2.19508">
        <ele>20</ele>
        <time>2020-04-09T15:06:53.000Z</time>
      </trkpt>
      <trkpt lat="47.29605" lon="-2.19509">
        <ele>20.2</ele>
        <time>2020-04-09T15:06:54.000Z</time>
      </trkpt>
      <trkpt lat="47.29601" lon="-2.19511">
        <ele>20</ele>
        <time>2020-04-09T15:06:55.000Z</time>
      </trkpt>
      <trkpt lat="47.29597" lon="-2.19511">
        <ele>20</ele>
        <time>2020-04-09T15:06:56.000Z</time>
      </trkpt>
      <trkpt lat="47.29593" lon="-2.19512">
        <ele>20</ele>
        <time>2020-04-09T15:06:57.000Z</time>
      </trkpt>
      <trkpt lat="47.29589" lon="-2.19513">
        <ele>20.2</ele>
        <time>2020-04-09T15:06:58.000Z</time>
      </trkpt>
      <trkpt lat="47.29585" lon="-2.19514">
        <ele>20.4</ele>
        <time>2020-04-09T15:06:59.000Z</time>
      </trkpt>
      <trkpt lat="47.2958" lon="-2.19516">
        <ele>20.4</ele>
        <time>2020-04-09T15:07:00.000Z</time>
      </trkpt>
      <trkpt lat="47.29576" lon="-2.19516">
        <ele>20.2</ele>
        <time>2020-04-09T15:07:01.000Z</time>
      </trkpt>
      <trkpt lat="47.29572" lon="-2.19518">
        <ele>20.2</ele>
        <time>2020-04-09T15:07:02.000Z</time>
      </trkpt>
      <trkpt lat="47.29568" lon="-2.19518">
        <ele>20.2</ele>
        <time>2020-04-09T15:07:03.000Z</time>
      </trkpt>
      <trkpt lat="47.29564" lon="-2.19519">
        <ele>20.2</ele>
        <time>2020-04-09T15:07:04.000Z</time>
      </trkpt>
      <trkpt lat="47.2956" lon="-2.1952">
        <ele>20.2</ele>
        <time>2020-04-09T15:07:05.000Z</time>
      </trkpt>
      <trkpt lat="47.29556" lon="-2.19521">
        <ele>20</ele>
        <time>2020-04-09T15:07:06.000Z</time>
      </trkpt>
      <trkpt lat="47.29552" lon="-2.19522">
        <ele>20.2</ele>
        <time>2020-04-09T15:07:07.000Z</time>
      </trkpt>
      <trkpt lat="47.29548" lon="-2.19523">
        <ele>20</ele>
        <time>2020-04-09T15:07:08.000Z</time>
      </trkpt>
      <trkpt lat="47.29544" lon="-2.19524">
        <ele>20</ele>
        <time>2020-04-09T15:07:09.000Z</time>
      </trkpt>
      <trkpt lat="47.29539" lon="-2.19525">
        <ele>20</ele>
        <time>2020-04-09T15:07:10.000Z</time>
      </trkpt>
      <trkpt lat="47.29535" lon="-2.19526">
        <ele>20.2</ele>
        <time>2020-04-09T15:07:11.000Z</time>
      </trkpt>
      <trkpt lat="47.29531" lon="-2.19527">
        <ele>20.2</ele>
        <time>2020-04-09T15:07:12.000Z</time>
      </trkpt>
      <trkpt lat="47.29527" lon="-2.19529">
        <ele>20.2</ele>
        <time>2020-04-09T15:07:13.000Z</time>
      </trkpt>
      <trkpt lat="47.29522" lon="-2.1953">
        <ele>20</ele>
        <time>2020-04-09T15:07:14.000Z</time>
      </trkpt>
      <trkpt lat="47.29518" lon="-2.19532">
        <ele>20</ele>
        <time>2020-04-09T15:07:15.000Z</time>
      </trkpt>
      <trkpt lat="47.29513" lon="-2.19532">
        <ele>20</ele>
        <time>2020-04-09T15:07:16.000Z</time>
      </trkpt>
      <trkpt lat="47.29509" lon="-2.19534">
        <ele>20</ele>
        <time>2020-04-09T15:07:17.000Z</time>
      </trkpt>
      <trkpt lat="47.29504" lon="-2.19535">
        <ele>20.2</ele>
        <time>2020-04-09T15:07:18.000Z</time>
      </trkpt>
      <trkpt lat="47.295" lon="-2.19536">
        <ele>20.2</ele>
        <time>2020-04-09T15:07:19.000Z</time>
      </trkpt>
      <trkpt lat="47.29496" lon="-2.19538">
        <ele>20.2</ele>
        <time>2020-04-09T15:07:20.000Z</time>
      </trkpt>
      <trkpt lat="47.29491" lon="-2.19539">
        <ele>20.2</ele>
        <time>2020-04-09T15:07:21.000Z</time>
      </trkpt>
      <trkpt lat="47.29487" lon="-2.1954">
        <ele>20</ele>
        <time>2020-04-09T15:07:22.000Z</time>
      </trkpt>
      <trkpt lat="47.29483" lon="-2.19542">
        <ele>19.8</ele>
        <time>2020-04-09T15:07:23.000Z</time>
      </trkpt>
      <trkpt lat="47.29479" lon="-2.19543">
        <ele>19.8</ele>
        <time>2020-04-09T15:07:24.000Z</time>
      </trkpt>
      <trkpt lat="47.29476" lon="-2.19541">
        <ele>19.8</ele>
        <time>2020-04-09T15:07:25.000Z</time>
      </trkpt>
      <trkpt lat="47.29473" lon="-2.19538">
        <ele>19.6</ele>
        <time>2020-04-09T15:07:26.000Z</time>
      </trkpt>
      <trkpt lat="47.29471" lon="-2.19534">
        <ele>19.8</ele>
        <time>2020-04-09T15:07:27.000Z</time>
      </trkpt>
      <trkpt lat="47.2947" lon="-2.1953">
        <ele>19.8</ele>
        <time>2020-04-09T15:07:28.000Z</time>
      </trkpt>
      <trkpt lat="47.29468" lon="-2.19526">
        <ele>19.8</ele>
        <time>2020-04-09T15:07:29.000Z</time>
      </trkpt>
      <trkpt lat="47.29467" lon="-2.19523">
        <ele>20.2</ele>
        <time>2020-04-09T15:07:30.000Z</time>
      </trkpt>
      <trkpt lat="47.29467" lon="-2.1952">
        <ele>20</ele>
        <time>2020-04-09T15:07:31.000Z</time>
      </trkpt>
      <trkpt lat="47.29467" lon="-2.19515">
        <ele>19.8</ele>
        <time>2020-04-09T15:07:32.000Z</time>
      </trkpt>
      <trkpt lat="47.29466" lon="-2.19512">
        <ele>20</ele>
        <time>2020-04-09T15:07:33.000Z</time>
      </trkpt>
      <trkpt lat="47.29466" lon="-2.19508">
        <ele>20</ele>
        <time>2020-04-09T15:07:34.000Z</time>
      </trkpt>
      <trkpt lat="47.29467" lon="-2.19505">
        <ele>19.8</ele>
        <time>2020-04-09T15:07:35.000Z</time>
      </trkpt>
      <trkpt lat="47.29466" lon="-2.19502">
        <ele>20</ele>
        <time>2020-04-09T15:07:36.000Z</time>
      </trkpt>
      <trkpt lat="47.29465" lon="-2.19498">
        <ele>20</ele>
        <time>2020-04-09T15:07:37.000Z</time>
      </trkpt>
      <trkpt lat="47.29464" lon="-2.19494">
        <ele>20</ele>
        <time>2020-04-09T15:07:38.000Z</time>
      </trkpt>
      <trkpt lat="47.29463" lon="-2.1949">
        <ele>20</ele>
        <time>2020-04-09T15:07:39.000Z</time>
      </trkpt>
      <trkpt lat="47.29461" lon="-2.19485">
        <ele>20</ele>
        <time>2020-04-09T15:07:40.000Z</time>
      </trkpt>
      <trkpt lat="47.2946" lon="-2.1948">
        <ele>20.2</ele>
        <time>2020-04-09T15:07:41.000Z</time>
      </trkpt>
      <trkpt lat="47.29459" lon="-2.19475">
        <ele>20.2</ele>
        <time>2020-04-09T15:07:42.000Z</time>
      </trkpt>
      <trkpt lat="47.29458" lon="-2.1947">
        <ele>20.2</ele>
        <time>2020-04-09T15:07:43.000Z</time>
      </trkpt>
      <trkpt lat="47.29456" lon="-2.19465">
        <ele>20.2</ele>
        <time>2020-04-09T15:07:44.000Z</time>
      </trkpt>
      <trkpt lat="47.29455" lon="-2.1946">
        <ele>20.2</ele>
        <time>2020-04-09T15:07:45.000Z</time>
      </trkpt>
      <trkpt lat="47.29454" lon="-2.19455">
        <ele>20.2</ele>
        <time>2020-04-09T15:07:46.000Z</time>
      </trkpt>
      <trkpt lat="47.29452" lon="-2.19449">
        <ele>20.4</ele>
        <time>2020-04-09T15:07:47.000Z</time>
      </trkpt>
      <trkpt lat="47.29451" lon="-2.19444">
        <ele>20.4</ele>
        <time>2020-04-09T15:07:48.000Z</time>
      </trkpt>
      <trkpt lat="47.29449" lon="-2.19439">
        <ele>20.2</ele>
        <time>2020-04-09T15:07:49.000Z</time>
      </trkpt>
      <trkpt lat="47.29448" lon="-2.19434">
        <ele>20.4</ele>
        <time>2020-04-09T15:07:50.000Z</time>
      </trkpt>
      <trkpt lat="47.29448" lon="-2.19429">
        <ele>20.4</ele>
        <time>2020-04-09T15:07:51.000Z</time>
      </trkpt>
      <trkpt lat="47.29449" lon="-2.19423">
        <ele>20.4</ele>
        <time>2020-04-09T15:07:52.000Z</time>
      </trkpt>
      <trkpt lat="47.29448" lon="-2.19417">
        <ele>20.6</ele>
        <time>2020-04-09T15:07:53.000Z</time>
      </trkpt>
      <trkpt lat="47.29447" lon="-2.19411">
        <ele>20.4</ele>
        <time>2020-04-09T15:07:54.000Z</time>
      </trkpt>
      <trkpt lat="47.29446" lon="-2.19406">
        <ele>20.6</ele>
        <time>2020-04-09T15:07:55.000Z</time>
      </trkpt>
      <trkpt lat="47.29445" lon="-2.194">
        <ele>20.6</ele>
        <time>2020-04-09T15:07:56.000Z</time>
      </trkpt>
      <trkpt lat="47.29444" lon="-2.19394">
        <ele>20.8</ele>
        <time>2020-04-09T15:07:57.000Z</time>
      </trkpt>
      <trkpt lat="47.29444" lon="-2.19387">
        <ele>20.6</ele>
        <time>2020-04-09T15:07:58.000Z</time>
      </trkpt>
      <trkpt lat="47.29444" lon="-2.19381">
        <ele>20.6</ele>
        <time>2020-04-09T15:07:59.000Z</time>
      </trkpt>
      <trkpt lat="47.29445" lon="-2.19375">
        <ele>20.8</ele>
        <time>2020-04-09T15:08:00.000Z</time>
      </trkpt>
      <trkpt lat="47.29446" lon="-2.19368">
        <ele>20.2</ele>
        <time>2020-04-09T15:08:01.000Z</time>
      </trkpt>
      <trkpt lat="47.29447" lon="-2.19362">
        <ele>20.2</ele>
        <time>2020-04-09T15:08:02.000Z</time>
      </trkpt>
      <trkpt lat="47.29447" lon="-2.19356">
        <ele>20</ele>
        <time>2020-04-09T15:08:03.000Z</time>
      </trkpt>
      <trkpt lat="47.29447" lon="-2.1935">
        <ele>19.6</ele>
        <time>2020-04-09T15:08:04.000Z</time>
      </trkpt>
      <trkpt lat="47.29446" lon="-2.19343">
        <ele>20</ele>
        <time>2020-04-09T15:08:05.000Z</time>
      </trkpt>
      <trkpt lat="47.29446" lon="-2.19337">
        <ele>20</ele>
        <time>2020-04-09T15:08:06.000Z</time>
      </trkpt>
      <trkpt lat="47.29445" lon="-2.19331">
        <ele>20.2</ele>
        <time>2020-04-09T15:08:07.000Z</time>
      </trkpt>
      <trkpt lat="47.29445" lon="-2.19325">
        <ele>20.2</ele>
        <time>2020-04-09T15:08:08.000Z</time>
      </trkpt>
      <trkpt lat="47.29445" lon="-2.19319">
        <ele>20.2</ele>
        <time>2020-04-09T15:08:09.000Z</time>
      </trkpt>
      <trkpt lat="47.29445" lon="-2.19314">
        <ele>20.2</ele>
        <time>2020-04-09T15:08:10.000Z</time>
      </trkpt>
      <trkpt lat="47.29444" lon="-2.19308">
        <ele>20.2</ele>
        <time>2020-04-09T15:08:11.000Z</time>
      </trkpt>
      <trkpt lat="47.29444" lon="-2.19303">
        <ele>20.2</ele>
        <time>2020-04-09T15:08:12.000Z</time>
      </trkpt>
      <trkpt lat="47.29443" lon="-2.19298">
        <ele>20.2</ele>
        <time>2020-04-09T15:08:13.000Z</time>
      </trkpt>
      <trkpt lat="47.29442" lon="-2.19294">
        <ele>20.2</ele>
        <time>2020-04-09T15:08:14.000Z</time>
      </trkpt>
      <trkpt lat="47.29439" lon="-2.1929">
        <ele>20</ele>
        <time>2020-04-09T15:08:15.000Z</time>
      </trkpt>
      <trkpt lat="47.29436" lon="-2.19289">
        <ele>20.2</ele>
        <time>2020-04-09T15:08:16.000Z</time>
      </trkpt>
      <trkpt lat="47.29433" lon="-2.19291">
        <ele>20</ele>
        <time>2020-04-09T15:08:17.000Z</time>
      </trkpt>
      <trkpt lat="47.29429" lon="-2.19292">
        <ele>20.2</ele>
        <time>2020-04-09T15:08:18.000Z</time>
      </trkpt>
      <trkpt lat="47.29426" lon="-2.19295">
        <ele>20.4</ele>
        <time>2020-04-09T15:08:19.000Z</time>
      </trkpt>
      <trkpt lat="47.29422" lon="-2.19297">
        <ele>20.4</ele>
        <time>2020-04-09T15:08:20.000Z</time>
      </trkpt>
      <trkpt lat="47.29419" lon="-2.193">
        <ele>20.6</ele>
        <time>2020-04-09T15:08:21.000Z</time>
      </trkpt>
      <trkpt lat="47.29415" lon="-2.19303">
        <ele>20.6</ele>
        <time>2020-04-09T15:08:22.000Z</time>
      </trkpt>
      <trkpt lat="47.29412" lon="-2.19306">
        <ele>20.4</ele>
        <time>2020-04-09T15:08:23.000Z</time>
      </trkpt>
      <trkpt lat="47.29408" lon="-2.19309">
        <ele>20.4</ele>
        <time>2020-04-09T15:08:24.000Z</time>
      </trkpt>
      <trkpt lat="47.29405" lon="-2.19311">
        <ele>20.4</ele>
        <time>2020-04-09T15:08:25.000Z</time>
      </trkpt>
      <trkpt lat="47.29401" lon="-2.19314">
        <ele>20.4</ele>
        <time>2020-04-09T15:08:26.000Z</time>
      </trkpt>
      <trkpt lat="47.29397" lon="-2.19317">
        <ele>20.4</ele>
        <time>2020-04-09T15:08:27.000Z</time>
      </trkpt>
      <trkpt lat="47.29394" lon="-2.1932">
        <ele>20.4</ele>
        <time>2020-04-09T15:08:28.000Z</time>
      </trkpt>
      <trkpt lat="47.2939" lon="-2.19323">
        <ele>20.4</ele>
        <time>2020-04-09T15:08:29.000Z</time>
      </trkpt>
      <trkpt lat="47.29386" lon="-2.19325">
        <ele>20.4</ele>
        <time>2020-04-09T15:08:30.000Z</time>
      </trkpt>
      <trkpt lat="47.29383" lon="-2.19328">
        <ele>20.4</ele>
        <time>2020-04-09T15:08:31.000Z</time>
      </trkpt>
      <trkpt lat="47.29379" lon="-2.19331">
        <ele>20.6</ele>
        <time>2020-04-09T15:08:32.000Z</time>
      </trkpt>
      <trkpt lat="47.29375" lon="-2.19335">
        <ele>20.4</ele>
        <time>2020-04-09T15:08:33.000Z</time>
      </trkpt>
      <trkpt lat="47.29372" lon="-2.19338">
        <ele>20.4</ele>
        <time>2020-04-09T15:08:34.000Z</time>
      </trkpt>
      <trkpt lat="47.29368" lon="-2.19342">
        <ele>20.4</ele>
        <time>2020-04-09T15:08:35.000Z</time>
      </trkpt>
      <trkpt lat="47.29364" lon="-2.19345">
        <ele>20.4</ele>
        <time>2020-04-09T15:08:36.000Z</time>
      </trkpt>
      <trkpt lat="47.29361" lon="-2.19347">
        <ele>20.4</ele>
        <time>2020-04-09T15:08:37.000Z</time>
      </trkpt>
      <trkpt lat="47.29357" lon="-2.1935">
        <ele>20.4</ele>
        <time>2020-04-09T15:08:38.000Z</time>
      </trkpt>
      <trkpt lat="47.29354" lon="-2.19352">
        <ele>20.4</ele>
        <time>2020-04-09T15:08:39.000Z</time>
      </trkpt>
      <trkpt lat="47.29347" lon="-2.19356">
        <ele>20.2</ele>
        <time>2020-04-09T15:08:40.000Z</time>
      </trkpt>
      <trkpt lat="47.29343" lon="-2.19359">
        <ele>20.2</ele>
        <time>2020-04-09T15:08:41.000Z</time>
      </trkpt>
      <trkpt lat="47.29339" lon="-2.19362">
        <ele>20.4</ele>
        <time>2020-04-09T15:08:42.000Z</time>
      </trkpt>
      <trkpt lat="47.29336" lon="-2.19365">
        <ele>20.2</ele>
        <time>2020-04-09T15:08:43.000Z</time>
      </trkpt>
      <trkpt lat="47.29332" lon="-2.19369">
        <ele>20.4</ele>
        <time>2020-04-09T15:08:45.000Z</time>
      </trkpt>
      <trkpt lat="47.29324" lon="-2.19375">
        <ele>20.2</ele>
        <time>2020-04-09T15:08:46.000Z</time>
      </trkpt>
      <trkpt lat="47.29321" lon="-2.19378">
        <ele>20.4</ele>
        <time>2020-04-09T15:08:47.000Z</time>
      </trkpt>
      <trkpt lat="47.29317" lon="-2.19381">
        <ele>20.2</ele>
        <time>2020-04-09T15:08:48.000Z</time>
      </trkpt>
      <trkpt lat="47.29313" lon="-2.19384">
        <ele>20.2</ele>
        <time>2020-04-09T15:08:49.000Z</time>
      </trkpt>
      <trkpt lat="47.2931" lon="-2.19387">
        <ele>20.2</ele>
        <time>2020-04-09T15:08:50.000Z</time>
      </trkpt>
      <trkpt lat="47.29306" lon="-2.1939">
        <ele>20.2</ele>
        <time>2020-04-09T15:08:51.000Z</time>
      </trkpt>
      <trkpt lat="47.29303" lon="-2.19393">
        <ele>20.6</ele>
        <time>2020-04-09T15:08:52.000Z</time>
      </trkpt>
      <trkpt lat="47.29299" lon="-2.19396">
        <ele>20.4</ele>
        <time>2020-04-09T15:08:53.000Z</time>
      </trkpt>
      <trkpt lat="47.29295" lon="-2.19397">
        <ele>20.2</ele>
        <time>2020-04-09T15:08:54.000Z</time>
      </trkpt>
      <trkpt lat="47.29292" lon="-2.194">
        <ele>20.2</ele>
        <time>2020-04-09T15:08:55.000Z</time>
      </trkpt>
      <trkpt lat="47.29288" lon="-2.19403">
        <ele>20.2</ele>
        <time>2020-04-09T15:08:56.000Z</time>
      </trkpt>
      <trkpt lat="47.29284" lon="-2.19406">
        <ele>20.4</ele>
        <time>2020-04-09T15:08:57.000Z</time>
      </trkpt>
      <trkpt lat="47.29281" lon="-2.19409">
        <ele>20.4</ele>
        <time>2020-04-09T15:08:58.000Z</time>
      </trkpt>
      <trkpt lat="47.29277" lon="-2.19412">
        <ele>20.4</ele>
        <time>2020-04-09T15:08:59.000Z</time>
      </trkpt>
      <trkpt lat="47.29273" lon="-2.19414">
        <ele>20.6</ele>
        <time>2020-04-09T15:09:00.000Z</time>
      </trkpt>
      <trkpt lat="47.29273" lon="-2.19414">
        <ele>20.6</ele>
        <time>2020-04-09T15:09:01.000Z</time>
      </trkpt>
      <trkpt lat="47.29269" lon="-2.19416">
        <ele>20.6</ele>
        <time>2020-04-09T15:09:02.000Z</time>
      </trkpt>
      <trkpt lat="47.29262" lon="-2.1942">
        <ele>20.4</ele>
        <time>2020-04-09T15:09:04.000Z</time>
      </trkpt>
      <trkpt lat="47.29254" lon="-2.19425">
        <ele>20.6</ele>
        <time>2020-04-09T15:09:05.000Z</time>
      </trkpt>
      <trkpt lat="47.2925" lon="-2.19427">
        <ele>20.6</ele>
        <time>2020-04-09T15:09:06.000Z</time>
      </trkpt>
      <trkpt lat="47.2925" lon="-2.19427">
        <ele>20.6</ele>
        <time>2020-04-09T15:09:07.000Z</time>
      </trkpt>
      <trkpt lat="47.29246" lon="-2.19429">
        <ele>20.6</ele>
        <time>2020-04-09T15:09:08.000Z</time>
      </trkpt>
      <trkpt lat="47.29241" lon="-2.19431">
        <ele>20.6</ele>
        <time>2020-04-09T15:09:09.000Z</time>
      </trkpt>
      <trkpt lat="47.29237" lon="-2.19433">
        <ele>20.6</ele>
        <time>2020-04-09T15:09:10.000Z</time>
      </trkpt>
      <trkpt lat="47.29233" lon="-2.19434">
        <ele>20.6</ele>
        <time>2020-04-09T15:09:11.000Z</time>
      </trkpt>
      <trkpt lat="47.29228" lon="-2.19435">
        <ele>20.8</ele>
        <time>2020-04-09T15:09:12.000Z</time>
      </trkpt>
      <trkpt lat="47.29223" lon="-2.19435">
        <ele>20.8</ele>
        <time>2020-04-09T15:09:13.000Z</time>
      </trkpt>
      <trkpt lat="47.29218" lon="-2.19436">
        <ele>20.6</ele>
        <time>2020-04-09T15:09:14.000Z</time>
      </trkpt>
      <trkpt lat="47.29213" lon="-2.19436">
        <ele>20.4</ele>
        <time>2020-04-09T15:09:15.000Z</time>
      </trkpt>
      <trkpt lat="47.29209" lon="-2.19437">
        <ele>20.4</ele>
        <time>2020-04-09T15:09:16.000Z</time>
      </trkpt>
      <trkpt lat="47.29204" lon="-2.19438">
        <ele>20.4</ele>
        <time>2020-04-09T15:09:17.000Z</time>
      </trkpt>
      <trkpt lat="47.29199" lon="-2.19439">
        <ele>20.4</ele>
        <time>2020-04-09T15:09:18.000Z</time>
      </trkpt>
      <trkpt lat="47.29194" lon="-2.1944">
        <ele>20.4</ele>
        <time>2020-04-09T15:09:19.000Z</time>
      </trkpt>
      <trkpt lat="47.2919" lon="-2.1944">
        <ele>20.4</ele>
        <time>2020-04-09T15:09:20.000Z</time>
      </trkpt>
      <trkpt lat="47.29186" lon="-2.1944">
        <ele>20.4</ele>
        <time>2020-04-09T15:09:21.000Z</time>
      </trkpt>
      <trkpt lat="47.29181" lon="-2.1944">
        <ele>20.2</ele>
        <time>2020-04-09T15:09:22.000Z</time>
      </trkpt>
      <trkpt lat="47.29177" lon="-2.1944">
        <ele>20.4</ele>
        <time>2020-04-09T15:09:23.000Z</time>
      </trkpt>
      <trkpt lat="47.29174" lon="-2.19438">
        <ele>20.2</ele>
        <time>2020-04-09T15:09:24.000Z</time>
      </trkpt>
      <trkpt lat="47.2917" lon="-2.19437">
        <ele>20.4</ele>
        <time>2020-04-09T15:09:25.000Z</time>
      </trkpt>
      <trkpt lat="47.29167" lon="-2.19435">
        <ele>20.6</ele>
        <time>2020-04-09T15:09:26.000Z</time>
      </trkpt>
      <trkpt lat="47.29163" lon="-2.19434">
        <ele>20.4</ele>
        <time>2020-04-09T15:09:27.000Z</time>
      </trkpt>
      <trkpt lat="47.2916" lon="-2.19432">
        <ele>20.4</ele>
        <time>2020-04-09T15:09:28.000Z</time>
      </trkpt>
      <trkpt lat="47.29156" lon="-2.1943">
        <ele>20.2</ele>
        <time>2020-04-09T15:09:29.000Z</time>
      </trkpt>
      <trkpt lat="47.29152" lon="-2.19428">
        <ele>20</ele>
        <time>2020-04-09T15:09:30.000Z</time>
      </trkpt>
      <trkpt lat="47.29149" lon="-2.19425">
        <ele>20</ele>
        <time>2020-04-09T15:09:31.000Z</time>
      </trkpt>
      <trkpt lat="47.29145" lon="-2.19423">
        <ele>19.8</ele>
        <time>2020-04-09T15:09:32.000Z</time>
      </trkpt>
      <trkpt lat="47.29141" lon="-2.19422">
        <ele>20</ele>
        <time>2020-04-09T15:09:33.000Z</time>
      </trkpt>
      <trkpt lat="47.29138" lon="-2.1942">
        <ele>20.2</ele>
        <time>2020-04-09T15:09:34.000Z</time>
      </trkpt>
      <trkpt lat="47.29134" lon="-2.19419">
        <ele>20.2</ele>
        <time>2020-04-09T15:09:35.000Z</time>
      </trkpt>
      <trkpt lat="47.29131" lon="-2.19417">
        <ele>20</ele>
        <time>2020-04-09T15:09:36.000Z</time>
      </trkpt>
      <trkpt lat="47.29128" lon="-2.19415">
        <ele>20.2</ele>
        <time>2020-04-09T15:09:37.000Z</time>
      </trkpt>
      <trkpt lat="47.29125" lon="-2.19414">
        <ele>20.2</ele>
        <time>2020-04-09T15:09:38.000Z</time>
      </trkpt>
      <trkpt lat="47.29122" lon="-2.19412">
        <ele>20.2</ele>
        <time>2020-04-09T15:09:39.000Z</time>
      </trkpt>
      <trkpt lat="47.2912" lon="-2.19411">
        <ele>20</ele>
        <time>2020-04-09T15:09:40.000Z</time>
      </trkpt>
      <trkpt lat="47.29118" lon="-2.19411">
        <ele>20.2</ele>
        <time>2020-04-09T15:09:41.000Z</time>
      </trkpt>
      <trkpt lat="47.29116" lon="-2.19412">
        <ele>20</ele>
        <time>2020-04-09T15:09:42.000Z</time>
      </trkpt>
      <trkpt lat="47.29115" lon="-2.19413">
        <ele>20</ele>
        <time>2020-04-09T15:09:43.000Z</time>
      </trkpt>
      <trkpt lat="47.29115" lon="-2.19414">
        <ele>20</ele>
        <time>2020-04-09T15:09:44.000Z</time>
      </trkpt>
      <trkpt lat="47.29115" lon="-2.19413">
        <ele>20</ele>
        <time>2020-04-09T15:09:45.000Z</time>
      </trkpt>
      <trkpt lat="47.29115" lon="-2.19413">
        <ele>20</ele>
        <time>2020-04-09T15:09:46.000Z</time>
      </trkpt>
      <trkpt lat="47.29115" lon="-2.19413">
        <ele>20</ele>
        <time>2020-04-09T15:09:47.000Z</time>
      </trkpt>
      <trkpt lat="47.29115" lon="-2.19413">
        <ele>20</ele>
        <time>2020-04-09T15:09:48.000Z</time>
      </trkpt>
      <trkpt lat="47.29114" lon="-2.19412">
        <ele>20</ele>
        <time>2020-04-09T15:09:49.000Z</time>
      </trkpt>
      <trkpt lat="47.29114" lon="-2.19412">
        <ele>20</ele>
        <time>2020-04-09T15:09:50.000Z</time>
      </trkpt>
      <trkpt lat="47.29114" lon="-2.19412">
        <ele>20.2</ele>
        <time>2020-04-09T15:09:51.000Z</time>
      </trkpt>
      <trkpt lat="47.29114" lon="-2.19412">
        <ele>20.2</ele>
        <time>2020-04-09T15:09:52.000Z</time>
      </trkpt>
      <trkpt lat="47.29114" lon="-2.19411">
        <ele>20</ele>
        <time>2020-04-09T15:09:53.000Z</time>
      </trkpt>
      <trkpt lat="47.29113" lon="-2.1941">
        <ele>20.2</ele>
        <time>2020-04-09T15:09:55.000Z</time>
      </trkpt>
      <trkpt lat="47.29113" lon="-2.1941">
        <ele>20.2</ele>
        <time>2020-04-09T15:09:56.000Z</time>
      </trkpt>
      <trkpt lat="47.29113" lon="-2.1941">
        <ele>20.4</ele>
        <time>2020-04-09T15:09:57.000Z</time>
      </trkpt>
      <trkpt lat="47.29114" lon="-2.1941">
        <ele>20</ele>
        <time>2020-04-09T15:10:00.000Z</time>
      </trkpt>
      <trkpt lat="47.29114" lon="-2.1941">
        <ele>20</ele>
        <time>2020-04-09T15:10:01.000Z</time>
      </trkpt>
      <trkpt lat="47.29114" lon="-2.19409">
        <ele>20.4</ele>
        <time>2020-04-09T15:10:02.000Z</time>
      </trkpt>
      <trkpt lat="47.29113" lon="-2.19409">
        <ele>20.2</ele>
        <time>2020-04-09T15:10:03.000Z</time>
      </trkpt>
      <trkpt lat="47.29112" lon="-2.19406">
        <ele>20</ele>
        <time>2020-04-09T15:10:12.000Z</time>
      </trkpt>
      <trkpt lat="47.29113" lon="-2.19408">
        <ele>20</ele>
        <time>2020-04-09T15:10:13.000Z</time>
      </trkpt>
      <trkpt lat="47.29114" lon="-2.19409">
        <ele>20</ele>
        <time>2020-04-09T15:10:14.000Z</time>
      </trkpt>
      <trkpt lat="47.29115" lon="-2.19411">
        <ele>20</ele>
        <time>2020-04-09T15:10:15.000Z</time>
      </trkpt>
      <trkpt lat="47.29116" lon="-2.19412">
        <ele>20</ele>
        <time>2020-04-09T15:10:16.000Z</time>
      </trkpt>
      <trkpt lat="47.29116" lon="-2.19412">
        <ele>20.2</ele>
        <time>2020-04-09T15:10:17.000Z</time>
      </trkpt>
      <trkpt lat="47.29116" lon="-2.1941">
        <ele>20.2</ele>
        <time>2020-04-09T15:10:18.000Z</time>
      </trkpt>
      <trkpt lat="47.29116" lon="-2.1941">
        <ele>20.2</ele>
        <time>2020-04-09T15:10:19.000Z</time>
      </trkpt>
      <trkpt lat="47.29116" lon="-2.19409">
        <ele>20.2</ele>
        <time>2020-04-09T15:10:20.000Z</time>
      </trkpt>
      <trkpt lat="47.29115" lon="-2.19408">
        <ele>20</ele>
        <time>2020-04-09T15:10:21.000Z</time>
      </trkpt>
      <trkpt lat="47.2911" lon="-2.19406">
        <ele>20.2</ele>
        <time>2020-04-09T15:10:39.000Z</time>
      </trkpt>
      <trkpt lat="47.2911" lon="-2.19407">
        <ele>20.4</ele>
        <time>2020-04-09T15:10:40.000Z</time>
      </trkpt>
      <trkpt lat="47.2911" lon="-2.19407">
        <ele>20.4</ele>
        <time>2020-04-09T15:10:41.000Z</time>
      </trkpt>
      <trkpt lat="47.2911" lon="-2.19406">
        <ele>20.4</ele>
        <time>2020-04-09T15:10:42.000Z</time>
      </trkpt>
      <trkpt lat="47.2911" lon="-2.19405">
        <ele>20.2</ele>
        <time>2020-04-09T15:10:43.000Z</time>
      </trkpt>
      <trkpt lat="47.2911" lon="-2.19405">
        <ele>20.2</ele>
        <time>2020-04-09T15:10:44.000Z</time>
      </trkpt>
      <trkpt lat="47.2911" lon="-2.19405">
        <ele>20.2</ele>
        <time>2020-04-09T15:10:45.000Z</time>
      </trkpt>
      <trkpt lat="47.2911" lon="-2.19404">
        <ele>20.2</ele>
        <time>2020-04-09T15:10:46.000Z</time>
      </trkpt>
      <trkpt lat="47.2911" lon="-2.19404">
        <ele>20.2</ele>
        <time>2020-04-09T15:10:47.000Z</time>
      </trkpt>
      <trkpt lat="47.2911" lon="-2.19404">
        <ele>20.2</ele>
        <time>2020-04-09T15:10:48.000Z</time>
      </trkpt>
      <trkpt lat="47.29111" lon="-2.19405">
        <ele>20.4</ele>
        <time>2020-04-09T15:10:49.000Z</time>
      </trkpt>
      <trkpt lat="47.29112" lon="-2.19407">
        <ele>20.4</ele>
        <time>2020-04-09T15:10:50.000Z</time>
      </trkpt>
      <trkpt lat="47.29113" lon="-2.1941">
        <ele>20.4</ele>
        <time>2020-04-09T15:10:51.000Z</time>
      </trkpt>
      <trkpt lat="47.29114" lon="-2.19413">
        <ele>20.2</ele>
        <time>2020-04-09T15:10:52.000Z</time>
      </trkpt>
      <trkpt lat="47.29114" lon="-2.19413">
        <ele>20.2</ele>
        <time>2020-04-09T15:10:53.000Z</time>
      </trkpt>
      <trkpt lat="47.29114" lon="-2.19412">
        <ele>20.2</ele>
        <time>2020-04-09T15:10:54.000Z</time>
      </trkpt>
      <trkpt lat="47.29114" lon="-2.19411">
        <ele>20.2</ele>
        <time>2020-04-09T15:10:55.000Z</time>
      </trkpt>
      <trkpt lat="47.29115" lon="-2.19411">
        <ele>20.4</ele>
        <time>2020-04-09T15:10:56.000Z</time>
      </trkpt>
      <trkpt lat="47.29115" lon="-2.19409">
        <ele>20.2</ele>
        <time>2020-04-09T15:10:57.000Z</time>
      </trkpt>
      <trkpt lat="47.29115" lon="-2.19408">
        <ele>20.2</ele>
        <time>2020-04-09T15:10:58.000Z</time>
      </trkpt>
      <trkpt lat="47.29113" lon="-2.19396">
        <ele>20.4</ele>
        <time>2020-04-09T15:12:10.000Z</time>
      </trkpt>
      <trkpt lat="47.29113" lon="-2.19396">
        <ele>20.2</ele>
        <time>2020-04-09T15:12:11.000Z</time>
      </trkpt>
      <trkpt lat="47.29114" lon="-2.19397">
        <ele>20.4</ele>
        <time>2020-04-09T15:12:12.000Z</time>
      </trkpt>
      <trkpt lat="47.29114" lon="-2.19398">
        <ele>20.4</ele>
        <time>2020-04-09T15:12:13.000Z</time>
      </trkpt>
      <trkpt lat="47.29114" lon="-2.19398">
        <ele>20.6</ele>
        <time>2020-04-09T15:12:14.000Z</time>
      </trkpt>
      <trkpt lat="47.29115" lon="-2.19397">
        <ele>20.4</ele>
        <time>2020-04-09T15:12:15.000Z</time>
      </trkpt>
      <trkpt lat="47.29115" lon="-2.19396">
        <ele>20.2</ele>
        <time>2020-04-09T15:12:16.000Z</time>
      </trkpt>
      <trkpt lat="47.29116" lon="-2.19396">
        <ele>20.2</ele>
        <time>2020-04-09T15:12:17.000Z</time>
      </trkpt>
      <trkpt lat="47.29117" lon="-2.19396">
        <ele>20.2</ele>
        <time>2020-04-09T15:12:18.000Z</time>
      </trkpt>
      <trkpt lat="47.29118" lon="-2.19395">
        <ele>20.2</ele>
        <time>2020-04-09T15:12:19.000Z</time>
      </trkpt>
      <trkpt lat="47.29117" lon="-2.19394">
        <ele>20.4</ele>
        <time>2020-04-09T15:12:20.000Z</time>
      </trkpt>
      <trkpt lat="47.29117" lon="-2.19393">
        <ele>20.4</ele>
        <time>2020-04-09T15:12:21.000Z</time>
      </trkpt>
      <trkpt lat="47.29119" lon="-2.19392">
        <ele>20.4</ele>
        <time>2020-04-09T15:12:22.000Z</time>
      </trkpt>
      <trkpt lat="47.29119" lon="-2.19392">
        <ele>20.4</ele>
        <time>2020-04-09T15:12:23.000Z</time>
      </trkpt>
      <trkpt lat="47.29118" lon="-2.19393">
        <ele>20.4</ele>
        <time>2020-04-09T15:12:24.000Z</time>
      </trkpt>
      <trkpt lat="47.29117" lon="-2.19393">
        <ele>20.2</ele>
        <time>2020-04-09T15:12:25.000Z</time>
      </trkpt>
      <trkpt lat="47.29117" lon="-2.19393">
        <ele>20.2</ele>
        <time>2020-04-09T15:12:26.000Z</time>
      </trkpt>
      <trkpt lat="47.29119" lon="-2.19391">
        <ele>20.2</ele>
        <time>2020-04-09T15:12:27.000Z</time>
      </trkpt>
      <trkpt lat="47.29118" lon="-2.19391">
        <ele>20.4</ele>
        <time>2020-04-09T15:12:28.000Z</time>
      </trkpt>
      <trkpt lat="47.29119" lon="-2.19391">
        <ele>20.4</ele>
        <time>2020-04-09T15:12:29.000Z</time>
      </trkpt>
      <trkpt lat="47.29119" lon="-2.19391">
        <ele>20.2</ele>
        <time>2020-04-09T15:12:30.000Z</time>
      </trkpt>
      <trkpt lat="47.29118" lon="-2.19393">
        <ele>20.4</ele>
        <time>2020-04-09T15:12:31.000Z</time>
      </trkpt>
      <trkpt lat="47.29117" lon="-2.19392">
        <ele>20.2</ele>
        <time>2020-04-09T15:12:32.000Z</time>
      </trkpt>
      <trkpt lat="47.29117" lon="-2.19394">
        <ele>20.4</ele>
        <time>2020-04-09T15:12:33.000Z</time>
      </trkpt>
      <trkpt lat="47.29116" lon="-2.19394">
        <ele>20.2</ele>
        <time>2020-04-09T15:12:34.000Z</time>
      </trkpt>
      <trkpt lat="47.29117" lon="-2.19394">
        <ele>20.2</ele>
        <time>2020-04-09T15:12:35.000Z</time>
      </trkpt>
      <trkpt lat="47.29117" lon="-2.19394">
        <ele>20.2</ele>
        <time>2020-04-09T15:12:36.000Z</time>
      </trkpt>
      <trkpt lat="47.29118" lon="-2.19395">
        <ele>20.2</ele>
        <time>2020-04-09T15:12:37.000Z</time>
      </trkpt>
      <trkpt lat="47.29119" lon="-2.19396">
        <ele>20.2</ele>
        <time>2020-04-09T15:12:38.000Z</time>
      </trkpt>
      <trkpt lat="47.29119" lon="-2.19398">
        <ele>20.2</ele>
        <time>2020-04-09T15:12:39.000Z</time>
      </trkpt>
      <trkpt lat="47.2912" lon="-2.19399">
        <ele>20.2</ele>
        <time>2020-04-09T15:12:40.000Z</time>
      </trkpt>
      <trkpt lat="47.2912" lon="-2.194">
        <ele>20.2</ele>
        <time>2020-04-09T15:12:41.000Z</time>
      </trkpt>
      <trkpt lat="47.2912" lon="-2.194">
        <ele>20.2</ele>
        <time>2020-04-09T15:12:42.000Z</time>
      </trkpt>
      <trkpt lat="47.2912" lon="-2.194">
        <ele>20.4</ele>
        <time>2020-04-09T15:12:43.000Z</time>
      </trkpt>
      <trkpt lat="47.29121" lon="-2.194">
        <ele>20.4</ele>
        <time>2020-04-09T15:12:44.000Z</time>
      </trkpt>
      <trkpt lat="47.29121" lon="-2.19401">
        <ele>20.2</ele>
        <time>2020-04-09T15:12:45.000Z</time>
      </trkpt>
      <trkpt lat="47.29121" lon="-2.194">
        <ele>20.2</ele>
        <time>2020-04-09T15:12:46.000Z</time>
      </trkpt>
      <trkpt lat="47.29121" lon="-2.194">
        <ele>20.2</ele>
        <time>2020-04-09T15:12:47.000Z</time>
      </trkpt>
      <trkpt lat="47.29122" lon="-2.19399">
        <ele>20.2</ele>
        <time>2020-04-09T15:12:48.000Z</time>
      </trkpt>
      <trkpt lat="47.29122" lon="-2.19399">
        <ele>20.4</ele>
        <time>2020-04-09T15:12:49.000Z</time>
      </trkpt>
      <trkpt lat="47.29122" lon="-2.19398">
        <ele>20.4</ele>
        <time>2020-04-09T15:12:50.000Z</time>
      </trkpt>
      <trkpt lat="47.29122" lon="-2.19397">
        <ele>20.4</ele>
        <time>2020-04-09T15:12:51.000Z</time>
      </trkpt>
      <trkpt lat="47.29121" lon="-2.19396">
        <ele>20.4</ele>
        <time>2020-04-09T15:12:52.000Z</time>
      </trkpt>
      <trkpt lat="47.29121" lon="-2.19396">
        <ele>20.2</ele>
        <time>2020-04-09T15:12:53.000Z</time>
      </trkpt>
      <trkpt lat="47.29121" lon="-2.19397">
        <ele>20.2</ele>
        <time>2020-04-09T15:12:54.000Z</time>
      </trkpt>
      <trkpt lat="47.29122" lon="-2.19397">
        <ele>20.2</ele>
        <time>2020-04-09T15:12:55.000Z</time>
      </trkpt>
      <trkpt lat="47.29123" lon="-2.19397">
        <ele>20.2</ele>
        <time>2020-04-09T15:12:56.000Z</time>
      </trkpt>
      <trkpt lat="47.29124" lon="-2.19398">
        <ele>20.4</ele>
        <time>2020-04-09T15:12:57.000Z</time>
      </trkpt>
      <trkpt lat="47.29126" lon="-2.19401">
        <ele>20.4</ele>
        <time>2020-04-09T15:12:58.000Z</time>
      </trkpt>
      <trkpt lat="47.29126" lon="-2.19402">
        <ele>20.4</ele>
        <time>2020-04-09T15:12:59.000Z</time>
      </trkpt>
      <trkpt lat="47.29127" lon="-2.19402">
        <ele>20.2</ele>
        <time>2020-04-09T15:13:00.000Z</time>
      </trkpt>
      <trkpt lat="47.29127" lon="-2.19402">
        <ele>20.2</ele>
        <time>2020-04-09T15:13:01.000Z</time>
      </trkpt>
      <trkpt lat="47.29127" lon="-2.19402">
        <ele>20.2</ele>
        <time>2020-04-09T15:13:02.000Z</time>
      </trkpt>
      <trkpt lat="47.29127" lon="-2.19401">
        <ele>20.4</ele>
        <time>2020-04-09T15:13:03.000Z</time>
      </trkpt>
      <trkpt lat="47.29127" lon="-2.194">
        <ele>20.4</ele>
        <time>2020-04-09T15:13:04.000Z</time>
      </trkpt>
      <trkpt lat="47.29127" lon="-2.194">
        <ele>20.4</ele>
        <time>2020-04-09T15:13:05.000Z</time>
      </trkpt>
      <trkpt lat="47.29127" lon="-2.19399">
        <ele>20.4</ele>
        <time>2020-04-09T15:13:06.000Z</time>
      </trkpt>
      <trkpt lat="47.29128" lon="-2.194">
        <ele>20.4</ele>
        <time>2020-04-09T15:13:07.000Z</time>
      </trkpt>
      <trkpt lat="47.29128" lon="-2.194">
        <ele>20.4</ele>
        <time>2020-04-09T15:13:08.000Z</time>
      </trkpt>
      <trkpt lat="47.29129" lon="-2.19401">
        <ele>20.4</ele>
        <time>2020-04-09T15:13:09.000Z</time>
      </trkpt>
      <trkpt lat="47.2913" lon="-2.19401">
        <ele>20.4</ele>
        <time>2020-04-09T15:13:10.000Z</time>
      </trkpt>
      <trkpt lat="47.2913" lon="-2.19401">
        <ele>20.4</ele>
        <time>2020-04-09T15:13:11.000Z</time>
      </trkpt>
      <trkpt lat="47.29131" lon="-2.19401">
        <ele>20.2</ele>
        <time>2020-04-09T15:13:12.000Z</time>
      </trkpt>
      <trkpt lat="47.29131" lon="-2.19401">
        <ele>20.2</ele>
        <time>2020-04-09T15:13:13.000Z</time>
      </trkpt>
      <trkpt lat="47.29131" lon="-2.194">
        <ele>20.2</ele>
        <time>2020-04-09T15:13:14.000Z</time>
      </trkpt>
      <trkpt lat="47.29131" lon="-2.194">
        <ele>20.2</ele>
        <time>2020-04-09T15:13:15.000Z</time>
      </trkpt>
      <trkpt lat="47.2913" lon="-2.194">
        <ele>20.2</ele>
        <time>2020-04-09T15:13:16.000Z</time>
      </trkpt>
      <trkpt lat="47.2913" lon="-2.19399">
        <ele>20.4</ele>
        <time>2020-04-09T15:13:18.000Z</time>
      </trkpt>
      <trkpt lat="47.29131" lon="-2.194">
        <ele>20.4</ele>
        <time>2020-04-09T15:13:19.000Z</time>
      </trkpt>
      <trkpt lat="47.29131" lon="-2.19401">
        <ele>20.4</ele>
        <time>2020-04-09T15:13:21.000Z</time>
      </trkpt>
      <trkpt lat="47.29131" lon="-2.19403">
        <ele>20.2</ele>
        <time>2020-04-09T15:13:22.000Z</time>
      </trkpt>
      <trkpt lat="47.29131" lon="-2.19404">
        <ele>20.4</ele>
        <time>2020-04-09T15:13:23.000Z</time>
      </trkpt>
      <trkpt lat="47.2913" lon="-2.19405">
        <ele>20.4</ele>
        <time>2020-04-09T15:13:24.000Z</time>
      </trkpt>
      <trkpt lat="47.2913" lon="-2.19406">
        <ele>20.4</ele>
        <time>2020-04-09T15:13:25.000Z</time>
      </trkpt>
      <trkpt lat="47.2913" lon="-2.19407">
        <ele>20.4</ele>
        <time>2020-04-09T15:13:26.000Z</time>
      </trkpt>
      <trkpt lat="47.29129" lon="-2.19408">
        <ele>20.4</ele>
        <time>2020-04-09T15:13:27.000Z</time>
      </trkpt>
      <trkpt lat="47.29129" lon="-2.19408">
        <ele>20.4</ele>
        <time>2020-04-09T15:13:28.000Z</time>
      </trkpt>
      <trkpt lat="47.2913" lon="-2.19408">
        <ele>20.4</ele>
        <time>2020-04-09T15:13:29.000Z</time>
      </trkpt>
      <trkpt lat="47.29129" lon="-2.19408">
        <ele>20.4</ele>
        <time>2020-04-09T15:13:30.000Z</time>
      </trkpt>
      <trkpt lat="47.29129" lon="-2.19408">
        <ele>20.2</ele>
        <time>2020-04-09T15:13:31.000Z</time>
      </trkpt>
      <trkpt lat="47.29129" lon="-2.19408">
        <ele>20.2</ele>
        <time>2020-04-09T15:13:32.000Z</time>
      </trkpt>
      <trkpt lat="47.29129" lon="-2.19409">
        <ele>20.2</ele>
        <time>2020-04-09T15:13:33.000Z</time>
      </trkpt>
      <trkpt lat="47.29129" lon="-2.19408">
        <ele>20.2</ele>
        <time>2020-04-09T15:13:34.000Z</time>
      </trkpt>
      <trkpt lat="47.29129" lon="-2.19409">
        <ele>20.2</ele>
        <time>2020-04-09T15:13:35.000Z</time>
      </trkpt>
      <trkpt lat="47.29129" lon="-2.19409">
        <ele>20.2</ele>
        <time>2020-04-09T15:13:36.000Z</time>
      </trkpt>
      <trkpt lat="47.29129" lon="-2.1941">
        <ele>20.2</ele>
        <time>2020-04-09T15:13:37.000Z</time>
      </trkpt>
      <trkpt lat="47.29129" lon="-2.1941">
        <ele>20.4</ele>
        <time>2020-04-09T15:13:38.000Z</time>
      </trkpt>
      <trkpt lat="47.29128" lon="-2.19409">
        <ele>20.4</ele>
        <time>2020-04-09T15:13:39.000Z</time>
      </trkpt>
      <trkpt lat="47.29128" lon="-2.19409">
        <ele>20.4</ele>
        <time>2020-04-09T15:13:40.000Z</time>
      </trkpt>
      <trkpt lat="47.29128" lon="-2.19409">
        <ele>20.4</ele>
        <time>2020-04-09T15:13:41.000Z</time>
      </trkpt>
      <trkpt lat="47.29127" lon="-2.19408">
        <ele>20.4</ele>
        <time>2020-04-09T15:13:42.000Z</time>
      </trkpt>
      <trkpt lat="47.29127" lon="-2.19408">
        <ele>20.4</ele>
        <time>2020-04-09T15:13:43.000Z</time>
      </trkpt>
      <trkpt lat="47.29126" lon="-2.19409">
        <ele>20.2</ele>
        <time>2020-04-09T15:13:45.000Z</time>
      </trkpt>
      <trkpt lat="47.29126" lon="-2.19409">
        <ele>20.2</ele>
        <time>2020-04-09T15:13:46.000Z</time>
      </trkpt>
      <trkpt lat="47.29126" lon="-2.19408">
        <ele>20.4</ele>
        <time>2020-04-09T15:13:47.000Z</time>
      </trkpt>
      <trkpt lat="47.29126" lon="-2.19406">
        <ele>20.2</ele>
        <time>2020-04-09T15:13:48.000Z</time>
      </trkpt>
      <trkpt lat="47.29126" lon="-2.19405">
        <ele>20.4</ele>
        <time>2020-04-09T15:13:49.000Z</time>
      </trkpt>
      <trkpt lat="47.29126" lon="-2.19403">
        <ele>20.2</ele>
        <time>2020-04-09T15:13:50.000Z</time>
      </trkpt>
      <trkpt lat="47.29126" lon="-2.19402">
        <ele>20.2</ele>
        <time>2020-04-09T15:13:51.000Z</time>
      </trkpt>
      <trkpt lat="47.29127" lon="-2.19402">
        <ele>20</ele>
        <time>2020-04-09T15:13:52.000Z</time>
      </trkpt>
      <trkpt lat="47.29128" lon="-2.19403">
        <ele>20.2</ele>
        <time>2020-04-09T15:13:53.000Z</time>
      </trkpt>
      <trkpt lat="47.29128" lon="-2.19403">
        <ele>20.2</ele>
        <time>2020-04-09T15:13:54.000Z</time>
      </trkpt>
      <trkpt lat="47.29127" lon="-2.19402">
        <ele>20.2</ele>
        <time>2020-04-09T15:13:55.000Z</time>
      </trkpt>
      <trkpt lat="47.29127" lon="-2.19402">
        <ele>20.4</ele>
        <time>2020-04-09T15:13:56.000Z</time>
      </trkpt>
      <trkpt lat="47.29128" lon="-2.19403">
        <ele>20.4</ele>
        <time>2020-04-09T15:13:57.000Z</time>
      </trkpt>
      <trkpt lat="47.29128" lon="-2.19403">
        <ele>20.2</ele>
        <time>2020-04-09T15:13:58.000Z</time>
      </trkpt>
      <trkpt lat="47.29129" lon="-2.19404">
        <ele>20.2</ele>
        <time>2020-04-09T15:13:59.000Z</time>
      </trkpt>
      <trkpt lat="47.29129" lon="-2.19404">
        <ele>20</ele>
        <time>2020-04-09T15:14:00.000Z</time>
      </trkpt>
      <trkpt lat="47.2913" lon="-2.19404">
        <ele>20.2</ele>
        <time>2020-04-09T15:14:01.000Z</time>
      </trkpt>
      <trkpt lat="47.29129" lon="-2.19405">
        <ele>20.2</ele>
        <time>2020-04-09T15:14:02.000Z</time>
      </trkpt>
      <trkpt lat="47.29129" lon="-2.19404">
        <ele>20.4</ele>
        <time>2020-04-09T15:14:03.000Z</time>
      </trkpt>
      <trkpt lat="47.29129" lon="-2.19403">
        <ele>20.6</ele>
        <time>2020-04-09T15:14:04.000Z</time>
      </trkpt>
      <trkpt lat="47.29128" lon="-2.19401">
        <ele>20.4</ele>
        <time>2020-04-09T15:14:05.000Z</time>
      </trkpt>
      <trkpt lat="47.29127" lon="-2.19401">
        <ele>20.4</ele>
        <time>2020-04-09T15:14:06.000Z</time>
      </trkpt>
      <trkpt lat="47.29126" lon="-2.19401">
        <ele>20.2</ele>
        <time>2020-04-09T15:14:07.000Z</time>
      </trkpt>
      <trkpt lat="47.29125" lon="-2.19403">
        <ele>20.2</ele>
        <time>2020-04-09T15:14:08.000Z</time>
      </trkpt>
      <trkpt lat="47.29125" lon="-2.19404">
        <ele>20.4</ele>
        <time>2020-04-09T15:14:09.000Z</time>
      </trkpt>
      <trkpt lat="47.29123" lon="-2.19405">
        <ele>20.2</ele>
        <time>2020-04-09T15:14:10.000Z</time>
      </trkpt>
      <trkpt lat="47.29123" lon="-2.19405">
        <ele>20.2</ele>
        <time>2020-04-09T15:14:11.000Z</time>
      </trkpt>
      <trkpt lat="47.29123" lon="-2.19405">
        <ele>20.4</ele>
        <time>2020-04-09T15:14:12.000Z</time>
      </trkpt>
      <trkpt lat="47.29124" lon="-2.19405">
        <ele>20.2</ele>
        <time>2020-04-09T15:14:13.000Z</time>
      </trkpt>
      <trkpt lat="47.29123" lon="-2.19406">
        <ele>20.2</ele>
        <time>2020-04-09T15:14:14.000Z</time>
      </trkpt>
      <trkpt lat="47.29124" lon="-2.19405">
        <ele>20.2</ele>
        <time>2020-04-09T15:14:15.000Z</time>
      </trkpt>
      <trkpt lat="47.29125" lon="-2.19405">
        <ele>20.2</ele>
        <time>2020-04-09T15:14:16.000Z</time>
      </trkpt>
      <trkpt lat="47.29128" lon="-2.19403">
        <ele>20.4</ele>
        <time>2020-04-09T15:14:21.000Z</time>
      </trkpt>
      <trkpt lat="47.2913" lon="-2.19403">
        <ele>20.2</ele>
        <time>2020-04-09T15:14:22.000Z</time>
      </trkpt>
      <trkpt lat="47.2913" lon="-2.19402">
        <ele>20.4</ele>
        <time>2020-04-09T15:14:23.000Z</time>
      </trkpt>
      <trkpt lat="47.2913" lon="-2.19403">
        <ele>20.2</ele>
        <time>2020-04-09T15:14:24.000Z</time>
      </trkpt>
      <trkpt lat="47.29131" lon="-2.19402">
        <ele>20.2</ele>
        <time>2020-04-09T15:14:25.000Z</time>
      </trkpt>
      <trkpt lat="47.29132" lon="-2.19401">
        <ele>20.2</ele>
        <time>2020-04-09T15:14:26.000Z</time>
      </trkpt>
      <trkpt lat="47.29133" lon="-2.194">
        <ele>20.2</ele>
        <time>2020-04-09T15:14:27.000Z</time>
      </trkpt>
      <trkpt lat="47.29133" lon="-2.19399">
        <ele>20.4</ele>
        <time>2020-04-09T15:14:28.000Z</time>
      </trkpt>
      <trkpt lat="47.29135" lon="-2.19402">
        <ele>20.2</ele>
        <time>2020-04-09T15:14:29.000Z</time>
      </trkpt>
      <trkpt lat="47.29137" lon="-2.19404">
        <ele>20.2</ele>
        <time>2020-04-09T15:14:30.000Z</time>
      </trkpt>
      <trkpt lat="47.29139" lon="-2.19405">
        <ele>20.4</ele>
        <time>2020-04-09T15:14:31.000Z</time>
      </trkpt>
      <trkpt lat="47.29142" lon="-2.19408">
        <ele>20.2</ele>
        <time>2020-04-09T15:14:32.000Z</time>
      </trkpt>
      <trkpt lat="47.29143" lon="-2.19408">
        <ele>20.4</ele>
        <time>2020-04-09T15:14:33.000Z</time>
      </trkpt>
      <trkpt lat="47.29145" lon="-2.19409">
        <ele>20.4</ele>
        <time>2020-04-09T15:14:34.000Z</time>
      </trkpt>
      <trkpt lat="47.29143" lon="-2.19406">
        <ele>20.2</ele>
        <time>2020-04-09T15:14:35.000Z</time>
      </trkpt>
      <trkpt lat="47.29142" lon="-2.19404">
        <ele>20.2</ele>
        <time>2020-04-09T15:14:36.000Z</time>
      </trkpt>
      <trkpt lat="47.29142" lon="-2.19403">
        <ele>20.4</ele>
        <time>2020-04-09T15:14:37.000Z</time>
      </trkpt>
      <trkpt lat="47.29142" lon="-2.194">
        <ele>20.2</ele>
        <time>2020-04-09T15:14:38.000Z</time>
      </trkpt>
      <trkpt lat="47.29142" lon="-2.19397">
        <ele>20.2</ele>
        <time>2020-04-09T15:14:39.000Z</time>
      </trkpt>
      <trkpt lat="47.2914" lon="-2.19396">
        <ele>20.2</ele>
        <time>2020-04-09T15:14:40.000Z</time>
      </trkpt>
      <trkpt lat="47.29143" lon="-2.19401">
        <ele>20.2</ele>
        <time>2020-04-09T15:14:41.000Z</time>
      </trkpt>
      <trkpt lat="47.29144" lon="-2.19407">
        <ele>20.2</ele>
        <time>2020-04-09T15:14:42.000Z</time>
      </trkpt>
      <trkpt lat="47.29146" lon="-2.1941">
        <ele>20.2</ele>
        <time>2020-04-09T15:14:43.000Z</time>
      </trkpt>
      <trkpt lat="47.29145" lon="-2.19414">
        <ele>20.4</ele>
        <time>2020-04-09T15:14:44.000Z</time>
      </trkpt>
      <trkpt lat="47.29145" lon="-2.19418">
        <ele>20.2</ele>
        <time>2020-04-09T15:14:45.000Z</time>
      </trkpt>
      <trkpt lat="47.29145" lon="-2.19422">
        <ele>20.4</ele>
        <time>2020-04-09T15:14:46.000Z</time>
      </trkpt>
      <trkpt lat="47.29143" lon="-2.19422">
        <ele>20.4</ele>
        <time>2020-04-09T15:14:47.000Z</time>
      </trkpt>
      <trkpt lat="47.29142" lon="-2.19421">
        <ele>20.2</ele>
        <time>2020-04-09T15:14:48.000Z</time>
      </trkpt>
      <trkpt lat="47.29142" lon="-2.1942">
        <ele>20.2</ele>
        <time>2020-04-09T15:14:49.000Z</time>
      </trkpt>
      <trkpt lat="47.29141" lon="-2.19419">
        <ele>20.4</ele>
        <time>2020-04-09T15:14:50.000Z</time>
      </trkpt>
      <trkpt lat="47.2914" lon="-2.1942">
        <ele>20.2</ele>
        <time>2020-04-09T15:14:51.000Z</time>
      </trkpt>
      <trkpt lat="47.2914" lon="-2.1942">
        <ele>20.4</ele>
        <time>2020-04-09T15:14:52.000Z</time>
      </trkpt>
      <trkpt lat="47.29139" lon="-2.1942">
        <ele>20.4</ele>
        <time>2020-04-09T15:14:53.000Z</time>
      </trkpt>
      <trkpt lat="47.29139" lon="-2.1942">
        <ele>20.2</ele>
        <time>2020-04-09T15:14:54.000Z</time>
      </trkpt>
      <trkpt lat="47.29138" lon="-2.1942">
        <ele>20.2</ele>
        <time>2020-04-09T15:14:55.000Z</time>
      </trkpt>
      <trkpt lat="47.29137" lon="-2.1942">
        <ele>20.2</ele>
        <time>2020-04-09T15:14:56.000Z</time>
      </trkpt>
      <trkpt lat="47.29135" lon="-2.19418">
        <ele>20.2</ele>
        <time>2020-04-09T15:14:57.000Z</time>
      </trkpt>
      <trkpt lat="47.29134" lon="-2.19416">
        <ele>20</ele>
        <time>2020-04-09T15:14:58.000Z</time>
      </trkpt>
      <trkpt lat="47.29134" lon="-2.19417">
        <ele>20.2</ele>
        <time>2020-04-09T15:14:59.000Z</time>
      </trkpt>
      <trkpt lat="47.29134" lon="-2.19417">
        <ele>20</ele>
        <time>2020-04-09T15:15:00.000Z</time>
      </trkpt>
      <trkpt lat="47.29134" lon="-2.19417">
        <ele>20.2</ele>
        <time>2020-04-09T15:15:01.000Z</time>
      </trkpt>
      <trkpt lat="47.29133" lon="-2.19416">
        <ele>20</ele>
        <time>2020-04-09T15:15:02.000Z</time>
      </trkpt>
      <trkpt lat="47.29133" lon="-2.19416">
        <ele>20.2</ele>
        <time>2020-04-09T15:15:03.000Z</time>
      </trkpt>
      <trkpt lat="47.29133" lon="-2.19415">
        <ele>20.2</ele>
        <time>2020-04-09T15:15:04.000Z</time>
      </trkpt>
      <trkpt lat="47.29133" lon="-2.19414">
        <ele>20.2</ele>
        <time>2020-04-09T15:15:05.000Z</time>
      </trkpt>
      <trkpt lat="47.29133" lon="-2.19414">
        <ele>20.2</ele>
        <time>2020-04-09T15:15:06.000Z</time>
      </trkpt>
      <trkpt lat="47.29133" lon="-2.19412">
        <ele>20.4</ele>
        <time>2020-04-09T15:15:07.000Z</time>
      </trkpt>
      <trkpt lat="47.29133" lon="-2.19413">
        <ele>20.4</ele>
        <time>2020-04-09T15:15:08.000Z</time>
      </trkpt>
      <trkpt lat="47.29134" lon="-2.19414">
        <ele>20.2</ele>
        <time>2020-04-09T15:15:09.000Z</time>
      </trkpt>
      <trkpt lat="47.29134" lon="-2.19414">
        <ele>20.2</ele>
        <time>2020-04-09T15:15:10.000Z</time>
      </trkpt>
      <trkpt lat="47.29135" lon="-2.19413">
        <ele>20.2</ele>
        <time>2020-04-09T15:15:11.000Z</time>
      </trkpt>
      <trkpt lat="47.29134" lon="-2.19413">
        <ele>20.2</ele>
        <time>2020-04-09T15:15:12.000Z</time>
      </trkpt>
      <trkpt lat="47.29134" lon="-2.19413">
        <ele>20.2</ele>
        <time>2020-04-09T15:15:13.000Z</time>
      </trkpt>
      <trkpt lat="47.29134" lon="-2.1941">
        <ele>20.2</ele>
        <time>2020-04-09T15:15:18.000Z</time>
      </trkpt>
      <trkpt lat="47.29132" lon="-2.19408">
        <ele>20.2</ele>
        <time>2020-04-09T15:15:19.000Z</time>
      </trkpt>
      <trkpt lat="47.29132" lon="-2.19407">
        <ele>20.2</ele>
        <time>2020-04-09T15:15:20.000Z</time>
      </trkpt>
      <trkpt lat="47.29133" lon="-2.19409">
        <ele>20.2</ele>
        <time>2020-04-09T15:15:21.000Z</time>
      </trkpt>
      <trkpt lat="47.29132" lon="-2.19409">
        <ele>20</ele>
        <time>2020-04-09T15:15:22.000Z</time>
      </trkpt>
      <trkpt lat="47.29133" lon="-2.19411">
        <ele>20</ele>
        <time>2020-04-09T15:15:23.000Z</time>
      </trkpt>
      <trkpt lat="47.29132" lon="-2.1941">
        <ele>20</ele>
        <time>2020-04-09T15:15:24.000Z</time>
      </trkpt>
      <trkpt lat="47.29131" lon="-2.19409">
        <ele>20</ele>
        <time>2020-04-09T15:15:25.000Z</time>
      </trkpt>
      <trkpt lat="47.29131" lon="-2.1941">
        <ele>20</ele>
        <time>2020-04-09T15:15:26.000Z</time>
      </trkpt>
      <trkpt lat="47.29131" lon="-2.19409">
        <ele>20</ele>
        <time>2020-04-09T15:15:27.000Z</time>
      </trkpt>
      <trkpt lat="47.29131" lon="-2.19412">
        <ele>20.2</ele>
        <time>2020-04-09T15:15:31.000Z</time>
      </trkpt>
      <trkpt lat="47.29131" lon="-2.19412">
        <ele>20.2</ele>
        <time>2020-04-09T15:15:32.000Z</time>
      </trkpt>
      <trkpt lat="47.29131" lon="-2.19412">
        <ele>20.2</ele>
        <time>2020-04-09T15:15:33.000Z</time>
      </trkpt>
      <trkpt lat="47.29131" lon="-2.19412">
        <ele>20.2</ele>
        <time>2020-04-09T15:15:34.000Z</time>
      </trkpt>
      <trkpt lat="47.29131" lon="-2.19413">
        <ele>20.2</ele>
        <time>2020-04-09T15:15:35.000Z</time>
      </trkpt>
      <trkpt lat="47.29132" lon="-2.19412">
        <ele>20.2</ele>
        <time>2020-04-09T15:15:36.000Z</time>
      </trkpt>
      <trkpt lat="47.29132" lon="-2.19413">
        <ele>20</ele>
        <time>2020-04-09T15:15:37.000Z</time>
      </trkpt>
      <trkpt lat="47.29132" lon="-2.19413">
        <ele>20</ele>
        <time>2020-04-09T15:15:38.000Z</time>
      </trkpt>
      <trkpt lat="47.2913" lon="-2.19412">
        <ele>20</ele>
        <time>2020-04-09T15:15:39.000Z</time>
      </trkpt>
      <trkpt lat="47.2913" lon="-2.19411">
        <ele>20</ele>
        <time>2020-04-09T15:15:40.000Z</time>
      </trkpt>
      <trkpt lat="47.29129" lon="-2.19413">
        <ele>20</ele>
        <time>2020-04-09T15:15:42.000Z</time>
      </trkpt>
      <trkpt lat="47.29128" lon="-2.19412">
        <ele>20</ele>
        <time>2020-04-09T15:15:43.000Z</time>
      </trkpt>
      <trkpt lat="47.29126" lon="-2.19411">
        <ele>20</ele>
        <time>2020-04-09T15:15:44.000Z</time>
      </trkpt>
      <trkpt lat="47.29127" lon="-2.19411">
        <ele>20</ele>
        <time>2020-04-09T15:15:45.000Z</time>
      </trkpt>
      <trkpt lat="47.29125" lon="-2.19411">
        <ele>20.2</ele>
        <time>2020-04-09T15:15:46.000Z</time>
      </trkpt>
      <trkpt lat="47.29121" lon="-2.19413">
        <ele>20.2</ele>
        <time>2020-04-09T15:15:47.000Z</time>
      </trkpt>
      <trkpt lat="47.29117" lon="-2.19414">
        <ele>20.2</ele>
        <time>2020-04-09T15:15:48.000Z</time>
      </trkpt>
      <trkpt lat="47.2911" lon="-2.19415">
        <ele>20.2</ele>
        <time>2020-04-09T15:15:49.000Z</time>
      </trkpt>
      <trkpt lat="47.29108" lon="-2.19415">
        <ele>20.2</ele>
        <time>2020-04-09T15:15:50.000Z</time>
      </trkpt>
      <trkpt lat="47.29108" lon="-2.19414">
        <ele>20.2</ele>
        <time>2020-04-09T15:15:51.000Z</time>
      </trkpt>
      <trkpt lat="47.29108" lon="-2.19415">
        <ele>20</ele>
        <time>2020-04-09T15:15:52.000Z</time>
      </trkpt>
      <trkpt lat="47.29108" lon="-2.19415">
        <ele>20.2</ele>
        <time>2020-04-09T15:15:53.000Z</time>
      </trkpt>
      <trkpt lat="47.29106" lon="-2.19416">
        <ele>20.2</ele>
        <time>2020-04-09T15:15:54.000Z</time>
      </trkpt>
      <trkpt lat="47.29104" lon="-2.19416">
        <ele>20.2</ele>
        <time>2020-04-09T15:15:55.000Z</time>
      </trkpt>
      <trkpt lat="47.29101" lon="-2.19417">
        <ele>20.2</ele>
        <time>2020-04-09T15:15:56.000Z</time>
      </trkpt>
      <trkpt lat="47.291" lon="-2.19418">
        <ele>20</ele>
        <time>2020-04-09T15:15:57.000Z</time>
      </trkpt>
      <trkpt lat="47.29099" lon="-2.19417">
        <ele>20.2</ele>
        <time>2020-04-09T15:15:58.000Z</time>
      </trkpt>
      <trkpt lat="47.29098" lon="-2.19416">
        <ele>20.2</ele>
        <time>2020-04-09T15:15:59.000Z</time>
      </trkpt>
      <trkpt lat="47.29097" lon="-2.19416">
        <ele>20</ele>
        <time>2020-04-09T15:16:00.000Z</time>
      </trkpt>
      <trkpt lat="47.29095" lon="-2.19416">
        <ele>20.2</ele>
        <time>2020-04-09T15:16:01.000Z</time>
      </trkpt>
      <trkpt lat="47.29094" lon="-2.19419">
        <ele>20.2</ele>
        <time>2020-04-09T15:16:02.000Z</time>
      </trkpt>
      <trkpt lat="47.29093" lon="-2.19418">
        <ele>20.2</ele>
        <time>2020-04-09T15:16:03.000Z</time>
      </trkpt>
      <trkpt lat="47.29096" lon="-2.19417">
        <ele>20</ele>
        <time>2020-04-09T15:16:04.000Z</time>
      </trkpt>
      <trkpt lat="47.29095" lon="-2.19416">
        <ele>20.2</ele>
        <time>2020-04-09T15:16:05.000Z</time>
      </trkpt>
      <trkpt lat="47.29092" lon="-2.19418">
        <ele>20.2</ele>
        <time>2020-04-09T15:16:06.000Z</time>
      </trkpt>
      <trkpt lat="47.29091" lon="-2.19417">
        <ele>20.2</ele>
        <time>2020-04-09T15:16:07.000Z</time>
      </trkpt>
      <trkpt lat="47.29091" lon="-2.19417">
        <ele>20.2</ele>
        <time>2020-04-09T15:16:08.000Z</time>
      </trkpt>
      <trkpt lat="47.29094" lon="-2.19416">
        <ele>20.2</ele>
        <time>2020-04-09T15:16:09.000Z</time>
      </trkpt>
      <trkpt lat="47.29093" lon="-2.19416">
        <ele>20</ele>
        <time>2020-04-09T15:16:10.000Z</time>
      </trkpt>
      <trkpt lat="47.29095" lon="-2.19415">
        <ele>20</ele>
        <time>2020-04-09T15:16:11.000Z</time>
      </trkpt>
      <trkpt lat="47.29098" lon="-2.19416">
        <ele>20</ele>
        <time>2020-04-09T15:16:12.000Z</time>
      </trkpt>
      <trkpt lat="47.29097" lon="-2.19415">
        <ele>20.2</ele>
        <time>2020-04-09T15:16:13.000Z</time>
      </trkpt>
      <trkpt lat="47.29098" lon="-2.19417">
        <ele>20</ele>
        <time>2020-04-09T15:16:14.000Z</time>
      </trkpt>
      <trkpt lat="47.29099" lon="-2.19419">
        <ele>20.2</ele>
        <time>2020-04-09T15:16:15.000Z</time>
      </trkpt>
      <trkpt lat="47.291" lon="-2.19421">
        <ele>20</ele>
        <time>2020-04-09T15:16:16.000Z</time>
      </trkpt>
      <trkpt lat="47.29101" lon="-2.19423">
        <ele>20.2</ele>
        <time>2020-04-09T15:16:17.000Z</time>
      </trkpt>
      <trkpt lat="47.29104" lon="-2.19425">
        <ele>20.2</ele>
        <time>2020-04-09T15:16:18.000Z</time>
      </trkpt>
      <trkpt lat="47.29105" lon="-2.19429">
        <ele>20.2</ele>
        <time>2020-04-09T15:16:19.000Z</time>
      </trkpt>
      <trkpt lat="47.29108" lon="-2.19431">
        <ele>20</ele>
        <time>2020-04-09T15:16:20.000Z</time>
      </trkpt>
      <trkpt lat="47.2911" lon="-2.19432">
        <ele>20.2</ele>
        <time>2020-04-09T15:16:21.000Z</time>
      </trkpt>
      <trkpt lat="47.29112" lon="-2.19433">
        <ele>20</ele>
        <time>2020-04-09T15:16:22.000Z</time>
      </trkpt>
      <trkpt lat="47.29114" lon="-2.19435">
        <ele>20</ele>
        <time>2020-04-09T15:16:23.000Z</time>
      </trkpt>
      <trkpt lat="47.29117" lon="-2.19435">
        <ele>20</ele>
        <time>2020-04-09T15:16:24.000Z</time>
      </trkpt>
      <trkpt lat="47.29119" lon="-2.19436">
        <ele>20.2</ele>
        <time>2020-04-09T15:16:25.000Z</time>
      </trkpt>
      <trkpt lat="47.2912" lon="-2.19438">
        <ele>20</ele>
        <time>2020-04-09T15:16:26.000Z</time>
      </trkpt>
      <trkpt lat="47.29119" lon="-2.19438">
        <ele>20.2</ele>
        <time>2020-04-09T15:16:27.000Z</time>
      </trkpt>
      <trkpt lat="47.2912" lon="-2.19438">
        <ele>20</ele>
        <time>2020-04-09T15:16:28.000Z</time>
      </trkpt>
      <trkpt lat="47.29119" lon="-2.19438">
        <ele>20</ele>
        <time>2020-04-09T15:16:29.000Z</time>
      </trkpt>
      <trkpt lat="47.29117" lon="-2.19437">
        <ele>20</ele>
        <time>2020-04-09T15:16:30.000Z</time>
      </trkpt>
      <trkpt lat="47.29117" lon="-2.19437">
        <ele>20.2</ele>
        <time>2020-04-09T15:16:31.000Z</time>
      </trkpt>
      <trkpt lat="47.29116" lon="-2.19439">
        <ele>20</ele>
        <time>2020-04-09T15:16:32.000Z</time>
      </trkpt>
      <trkpt lat="47.29117" lon="-2.1944">
        <ele>20</ele>
        <time>2020-04-09T15:16:33.000Z</time>
      </trkpt>
      <trkpt lat="47.29118" lon="-2.19441">
        <ele>20.2</ele>
        <time>2020-04-09T15:16:34.000Z</time>
      </trkpt>
      <trkpt lat="47.2912" lon="-2.19443">
        <ele>20.2</ele>
        <time>2020-04-09T15:16:35.000Z</time>
      </trkpt>
      <trkpt lat="47.29122" lon="-2.19445">
        <ele>20.2</ele>
        <time>2020-04-09T15:16:36.000Z</time>
      </trkpt>
      <trkpt lat="47.29122" lon="-2.19444">
        <ele>20.4</ele>
        <time>2020-04-09T15:16:37.000Z</time>
      </trkpt>
      <trkpt lat="47.29121" lon="-2.19445">
        <ele>20.4</ele>
        <time>2020-04-09T15:16:38.000Z</time>
      </trkpt>
      <trkpt lat="47.29121" lon="-2.19447">
        <ele>20.4</ele>
        <time>2020-04-09T15:16:39.000Z</time>
      </trkpt>
      <trkpt lat="47.2912" lon="-2.19447">
        <ele>20.4</ele>
        <time>2020-04-09T15:16:40.000Z</time>
      </trkpt>
      <trkpt lat="47.29117" lon="-2.19446">
        <ele>20.4</ele>
        <time>2020-04-09T15:16:41.000Z</time>
      </trkpt>
      <trkpt lat="47.29115" lon="-2.19445">
        <ele>20.2</ele>
        <time>2020-04-09T15:16:42.000Z</time>
      </trkpt>
      <trkpt lat="47.29115" lon="-2.19445">
        <ele>20.2</ele>
        <time>2020-04-09T15:16:43.000Z</time>
      </trkpt>
      <trkpt lat="47.29114" lon="-2.19445">
        <ele>20</ele>
        <time>2020-04-09T15:16:44.000Z</time>
      </trkpt>
      <trkpt lat="47.29114" lon="-2.19445">
        <ele>20</ele>
        <time>2020-04-09T15:16:45.000Z</time>
      </trkpt>
      <trkpt lat="47.29114" lon="-2.19445">
        <ele>20</ele>
        <time>2020-04-09T15:16:46.000Z</time>
      </trkpt>
      <trkpt lat="47.29116" lon="-2.19444">
        <ele>20</ele>
        <time>2020-04-09T15:16:47.000Z</time>
      </trkpt>
      <trkpt lat="47.29119" lon="-2.19443">
        <ele>20.2</ele>
        <time>2020-04-09T15:16:48.000Z</time>
      </trkpt>
      <trkpt lat="47.29121" lon="-2.19442">
        <ele>20</ele>
        <time>2020-04-09T15:16:49.000Z</time>
      </trkpt>
      <trkpt lat="47.29123" lon="-2.1944">
        <ele>20</ele>
        <time>2020-04-09T15:16:50.000Z</time>
      </trkpt>
      <trkpt lat="47.29124" lon="-2.19437">
        <ele>20.2</ele>
        <time>2020-04-09T15:16:51.000Z</time>
      </trkpt>
      <trkpt lat="47.29126" lon="-2.19434">
        <ele>20.2</ele>
        <time>2020-04-09T15:16:52.000Z</time>
      </trkpt>
      <trkpt lat="47.29127" lon="-2.19432">
        <ele>20.2</ele>
        <time>2020-04-09T15:16:53.000Z</time>
      </trkpt>
      <trkpt lat="47.29127" lon="-2.1943">
        <ele>20</ele>
        <time>2020-04-09T15:16:54.000Z</time>
      </trkpt>
      <trkpt lat="47.29128" lon="-2.19427">
        <ele>20.2</ele>
        <time>2020-04-09T15:16:55.000Z</time>
      </trkpt>
      <trkpt lat="47.29128" lon="-2.19426">
        <ele>20.2</ele>
        <time>2020-04-09T15:16:56.000Z</time>
      </trkpt>
      <trkpt lat="47.29129" lon="-2.19425">
        <ele>20</ele>
        <time>2020-04-09T15:16:57.000Z</time>
      </trkpt>
      <trkpt lat="47.2913" lon="-2.19424">
        <ele>20.2</ele>
        <time>2020-04-09T15:16:58.000Z</time>
      </trkpt>
      <trkpt lat="47.2913" lon="-2.19423">
        <ele>20</ele>
        <time>2020-04-09T15:16:59.000Z</time>
      </trkpt>
      <trkpt lat="47.2913" lon="-2.19421">
        <ele>20</ele>
        <time>2020-04-09T15:17:01.000Z</time>
      </trkpt>
      <trkpt lat="47.29129" lon="-2.1942">
        <ele>20</ele>
        <time>2020-04-09T15:17:02.000Z</time>
      </trkpt>
      <trkpt lat="47.29128" lon="-2.1942">
        <ele>20.2</ele>
        <time>2020-04-09T15:17:03.000Z</time>
      </trkpt>
      <trkpt lat="47.29126" lon="-2.19419">
        <ele>20.2</ele>
        <time>2020-04-09T15:17:04.000Z</time>
      </trkpt>
      <trkpt lat="47.29126" lon="-2.19419">
        <ele>20</ele>
        <time>2020-04-09T15:17:05.000Z</time>
      </trkpt>
      <trkpt lat="47.29125" lon="-2.19419">
        <ele>20.2</ele>
        <time>2020-04-09T15:17:06.000Z</time>
      </trkpt>
      <trkpt lat="47.29124" lon="-2.19419">
        <ele>20</ele>
        <time>2020-04-09T15:17:07.000Z</time>
      </trkpt>
      <trkpt lat="47.29123" lon="-2.19419">
        <ele>20.2</ele>
        <time>2020-04-09T15:17:08.000Z</time>
      </trkpt>
      <trkpt lat="47.29122" lon="-2.1942">
        <ele>20.2</ele>
        <time>2020-04-09T15:17:09.000Z</time>
      </trkpt>
      <trkpt lat="47.2912" lon="-2.1942">
        <ele>20</ele>
        <time>2020-04-09T15:17:10.000Z</time>
      </trkpt>
      <trkpt lat="47.29119" lon="-2.19419">
        <ele>20.2</ele>
        <time>2020-04-09T15:17:11.000Z</time>
      </trkpt>
      <trkpt lat="47.29117" lon="-2.19419">
        <ele>20</ele>
        <time>2020-04-09T15:17:12.000Z</time>
      </trkpt>
      <trkpt lat="47.29116" lon="-2.19418">
        <ele>20</ele>
        <time>2020-04-09T15:17:13.000Z</time>
      </trkpt>
      <trkpt lat="47.29114" lon="-2.19419">
        <ele>20</ele>
        <time>2020-04-09T15:17:14.000Z</time>
      </trkpt>
      <trkpt lat="47.29112" lon="-2.19419">
        <ele>20.2</ele>
        <time>2020-04-09T15:17:15.000Z</time>
      </trkpt>
      <trkpt lat="47.29109" lon="-2.1942">
        <ele>20</ele>
        <time>2020-04-09T15:17:16.000Z</time>
      </trkpt>
      <trkpt lat="47.29107" lon="-2.19421">
        <ele>20.2</ele>
        <time>2020-04-09T15:17:17.000Z</time>
      </trkpt>
      <trkpt lat="47.29105" lon="-2.19422">
        <ele>20.2</ele>
        <time>2020-04-09T15:17:18.000Z</time>
      </trkpt>
      <trkpt lat="47.29104" lon="-2.19423">
        <ele>20</ele>
        <time>2020-04-09T15:17:19.000Z</time>
      </trkpt>
      <trkpt lat="47.29101" lon="-2.19423">
        <ele>20</ele>
        <time>2020-04-09T15:17:20.000Z</time>
      </trkpt>
      <trkpt lat="47.29098" lon="-2.19423">
        <ele>20</ele>
        <time>2020-04-09T15:17:21.000Z</time>
      </trkpt>
      <trkpt lat="47.29096" lon="-2.19424">
        <ele>20.2</ele>
        <time>2020-04-09T15:17:22.000Z</time>
      </trkpt>
      <trkpt lat="47.29093" lon="-2.19424">
        <ele>20.2</ele>
        <time>2020-04-09T15:17:23.000Z</time>
      </trkpt>
      <trkpt lat="47.29092" lon="-2.19424">
        <ele>20</ele>
        <time>2020-04-09T15:17:24.000Z</time>
      </trkpt>
      <trkpt lat="47.29093" lon="-2.19423">
        <ele>20</ele>
        <time>2020-04-09T15:17:25.000Z</time>
      </trkpt>
      <trkpt lat="47.29094" lon="-2.19422">
        <ele>20</ele>
        <time>2020-04-09T15:17:26.000Z</time>
      </trkpt>
      <trkpt lat="47.29095" lon="-2.1942">
        <ele>20</ele>
        <time>2020-04-09T15:17:27.000Z</time>
      </trkpt>
      <trkpt lat="47.29096" lon="-2.19419">
        <ele>20.2</ele>
        <time>2020-04-09T15:17:29.000Z</time>
      </trkpt>
      <trkpt lat="47.29097" lon="-2.19416">
        <ele>20.2</ele>
        <time>2020-04-09T15:17:30.000Z</time>
      </trkpt>
      <trkpt lat="47.29099" lon="-2.19415">
        <ele>20.2</ele>
        <time>2020-04-09T15:17:31.000Z</time>
      </trkpt>
      <trkpt lat="47.291" lon="-2.19413">
        <ele>20.2</ele>
        <time>2020-04-09T15:17:32.000Z</time>
      </trkpt>
      <trkpt lat="47.29101" lon="-2.19412">
        <ele>20</ele>
        <time>2020-04-09T15:17:33.000Z</time>
      </trkpt>
      <trkpt lat="47.29108" lon="-2.19406">
        <ele>20</ele>
        <time>2020-04-09T15:17:34.000Z</time>
      </trkpt>
      <trkpt lat="47.29116" lon="-2.194">
        <ele>20.2</ele>
        <time>2020-04-09T15:17:35.000Z</time>
      </trkpt>
      <trkpt lat="47.29123" lon="-2.19395">
        <ele>20.4</ele>
        <time>2020-04-09T15:17:36.000Z</time>
      </trkpt>
      <trkpt lat="47.29129" lon="-2.19389">
        <ele>20.2</ele>
        <time>2020-04-09T15:17:37.000Z</time>
      </trkpt>
      <trkpt lat="47.29136" lon="-2.19384">
        <ele>20.4</ele>
        <time>2020-04-09T15:17:38.000Z</time>
      </trkpt>
      <trkpt lat="47.29143" lon="-2.19378">
        <ele>20.2</ele>
        <time>2020-04-09T15:17:39.000Z</time>
      </trkpt>
      <trkpt lat="47.29145" lon="-2.19377">
        <ele>20.2</ele>
        <time>2020-04-09T15:17:40.000Z</time>
      </trkpt>
      <trkpt lat="47.29145" lon="-2.19376">
        <ele>20</ele>
        <time>2020-04-09T15:17:41.000Z</time>
      </trkpt>
      <trkpt lat="47.29146" lon="-2.19376">
        <ele>20.2</ele>
        <time>2020-04-09T15:17:42.000Z</time>
      </trkpt>
      <trkpt lat="47.29146" lon="-2.19377">
        <ele>20.2</ele>
        <time>2020-04-09T15:17:43.000Z</time>
      </trkpt>
      <trkpt lat="47.29144" lon="-2.19377">
        <ele>20.2</ele>
        <time>2020-04-09T15:17:44.000Z</time>
      </trkpt>
      <trkpt lat="47.29143" lon="-2.19377">
        <ele>20.2</ele>
        <time>2020-04-09T15:17:45.000Z</time>
      </trkpt>
      <trkpt lat="47.29142" lon="-2.19376">
        <ele>20.2</ele>
        <time>2020-04-09T15:17:46.000Z</time>
      </trkpt>
      <trkpt lat="47.29141" lon="-2.19376">
        <ele>20.2</ele>
        <time>2020-04-09T15:17:47.000Z</time>
      </trkpt>
      <trkpt lat="47.2914" lon="-2.19376">
        <ele>20.2</ele>
        <time>2020-04-09T15:17:49.000Z</time>
      </trkpt>
      <trkpt lat="47.29129" lon="-2.19382">
        <ele>20.2</ele>
        <time>2020-04-09T15:17:50.000Z</time>
      </trkpt>
      <trkpt lat="47.29124" lon="-2.19385">
        <ele>20.2</ele>
        <time>2020-04-09T15:17:51.000Z</time>
      </trkpt>
      <trkpt lat="47.29124" lon="-2.19385">
        <ele>20</ele>
        <time>2020-04-09T15:17:52.000Z</time>
      </trkpt>
      <trkpt lat="47.29119" lon="-2.19388">
        <ele>20.2</ele>
        <time>2020-04-09T15:17:53.000Z</time>
      </trkpt>
      <trkpt lat="47.29119" lon="-2.19388">
        <ele>20.2</ele>
        <time>2020-04-09T15:17:54.000Z</time>
      </trkpt>
      <trkpt lat="47.29116" lon="-2.1939">
        <ele>20.2</ele>
        <time>2020-04-09T15:17:55.000Z</time>
      </trkpt>
      <trkpt lat="47.29114" lon="-2.1939">
        <ele>20.2</ele>
        <time>2020-04-09T15:17:56.000Z</time>
      </trkpt>
      <trkpt lat="47.29113" lon="-2.1939">
        <ele>20.2</ele>
        <time>2020-04-09T15:17:57.000Z</time>
      </trkpt>
      <trkpt lat="47.29113" lon="-2.1939">
        <ele>20.2</ele>
        <time>2020-04-09T15:17:58.000Z</time>
      </trkpt>
      <trkpt lat="47.29112" lon="-2.1939">
        <ele>20</ele>
        <time>2020-04-09T15:17:59.000Z</time>
      </trkpt>
      <trkpt lat="47.29111" lon="-2.1939">
        <ele>20</ele>
        <time>2020-04-09T15:18:00.000Z</time>
      </trkpt>
      <trkpt lat="47.2911" lon="-2.1939">
        <ele>20.2</ele>
        <time>2020-04-09T15:18:01.000Z</time>
      </trkpt>
      <trkpt lat="47.2911" lon="-2.19392">
        <ele>20.2</ele>
        <time>2020-04-09T15:18:02.000Z</time>
      </trkpt>
      <trkpt lat="47.29109" lon="-2.19394">
        <ele>20.2</ele>
        <time>2020-04-09T15:18:03.000Z</time>
      </trkpt>
      <trkpt lat="47.29108" lon="-2.19397">
        <ele>20.2</ele>
        <time>2020-04-09T15:18:04.000Z</time>
      </trkpt>
      <trkpt lat="47.29108" lon="-2.19398">
        <ele>20.2</ele>
        <time>2020-04-09T15:18:05.000Z</time>
      </trkpt>
      <trkpt lat="47.29108" lon="-2.194">
        <ele>20.2</ele>
        <time>2020-04-09T15:18:06.000Z</time>
      </trkpt>
      <trkpt lat="47.29108" lon="-2.19401">
        <ele>20.2</ele>
        <time>2020-04-09T15:18:07.000Z</time>
      </trkpt>
      <trkpt lat="47.29108" lon="-2.19402">
        <ele>20.2</ele>
        <time>2020-04-09T15:18:08.000Z</time>
      </trkpt>
      <trkpt lat="47.29109" lon="-2.19403">
        <ele>20.2</ele>
        <time>2020-04-09T15:18:09.000Z</time>
      </trkpt>
      <trkpt lat="47.29109" lon="-2.19404">
        <ele>20.4</ele>
        <time>2020-04-09T15:18:10.000Z</time>
      </trkpt>
      <trkpt lat="47.29106" lon="-2.19408">
        <ele>20.2</ele>
        <time>2020-04-09T15:18:17.000Z</time>
      </trkpt>
      <trkpt lat="47.29106" lon="-2.19409">
        <ele>20.2</ele>
        <time>2020-04-09T15:18:18.000Z</time>
      </trkpt>
      <trkpt lat="47.29106" lon="-2.1941">
        <ele>20.2</ele>
        <time>2020-04-09T15:18:19.000Z</time>
      </trkpt>
      <trkpt lat="47.29105" lon="-2.19409">
        <ele>20.2</ele>
        <time>2020-04-09T15:18:20.000Z</time>
      </trkpt>
      <trkpt lat="47.29105" lon="-2.1941">
        <ele>20.2</ele>
        <time>2020-04-09T15:18:21.000Z</time>
      </trkpt>
      <trkpt lat="47.29105" lon="-2.19414">
        <ele>20</ele>
        <time>2020-04-09T15:18:26.000Z</time>
      </trkpt>
      <trkpt lat="47.29103" lon="-2.19413">
        <ele>20.2</ele>
        <time>2020-04-09T15:18:27.000Z</time>
      </trkpt>
      <trkpt lat="47.29102" lon="-2.19411">
        <ele>20.2</ele>
        <time>2020-04-09T15:18:28.000Z</time>
      </trkpt>
      <trkpt lat="47.29102" lon="-2.19412">
        <ele>20.2</ele>
        <time>2020-04-09T15:18:31.000Z</time>
      </trkpt>
      <trkpt lat="47.29104" lon="-2.19412">
        <ele>20.2</ele>
        <time>2020-04-09T15:18:32.000Z</time>
      </trkpt>
      <trkpt lat="47.29104" lon="-2.19413">
        <ele>20.4</ele>
        <time>2020-04-09T15:18:33.000Z</time>
      </trkpt>
      <trkpt lat="47.29104" lon="-2.19414">
        <ele>20.4</ele>
        <time>2020-04-09T15:18:34.000Z</time>
      </trkpt>
      <trkpt lat="47.29105" lon="-2.19414">
        <ele>20.2</ele>
        <time>2020-04-09T15:18:35.000Z</time>
      </trkpt>
      <trkpt lat="47.29106" lon="-2.19414">
        <ele>20.4</ele>
        <time>2020-04-09T15:18:36.000Z</time>
      </trkpt>
      <trkpt lat="47.29107" lon="-2.19414">
        <ele>20.2</ele>
        <time>2020-04-09T15:18:37.000Z</time>
      </trkpt>
      <trkpt lat="47.29107" lon="-2.19414">
        <ele>20.2</ele>
        <time>2020-04-09T15:18:38.000Z</time>
      </trkpt>
      <trkpt lat="47.29109" lon="-2.19415">
        <ele>20.4</ele>
        <time>2020-04-09T15:18:39.000Z</time>
      </trkpt>
      <trkpt lat="47.29109" lon="-2.19415">
        <ele>20.4</ele>
        <time>2020-04-09T15:18:40.000Z</time>
      </trkpt>
      <trkpt lat="47.29108" lon="-2.19414">
        <ele>20.2</ele>
        <time>2020-04-09T15:18:41.000Z</time>
      </trkpt>
      <trkpt lat="47.29108" lon="-2.19413">
        <ele>20.2</ele>
        <time>2020-04-09T15:18:42.000Z</time>
      </trkpt>
      <trkpt lat="47.29106" lon="-2.19412">
        <ele>20</ele>
        <time>2020-04-09T15:18:44.000Z</time>
      </trkpt>
      <trkpt lat="47.29105" lon="-2.19412">
        <ele>20</ele>
        <time>2020-04-09T15:18:45.000Z</time>
      </trkpt>
      <trkpt lat="47.29105" lon="-2.19411">
        <ele>20.2</ele>
        <time>2020-04-09T15:18:46.000Z</time>
      </trkpt>
      <trkpt lat="47.29105" lon="-2.19412">
        <ele>20.2</ele>
        <time>2020-04-09T15:18:47.000Z</time>
      </trkpt>
      <trkpt lat="47.29105" lon="-2.19411">
        <ele>20.2</ele>
        <time>2020-04-09T15:18:48.000Z</time>
      </trkpt>
      <trkpt lat="47.29105" lon="-2.19411">
        <ele>20.4</ele>
        <time>2020-04-09T15:18:49.000Z</time>
      </trkpt>
      <trkpt lat="47.29106" lon="-2.1941">
        <ele>20.2</ele>
        <time>2020-04-09T15:18:50.000Z</time>
      </trkpt>
      <trkpt lat="47.29106" lon="-2.19409">
        <ele>20.2</ele>
        <time>2020-04-09T15:18:51.000Z</time>
      </trkpt>
      <trkpt lat="47.29107" lon="-2.19408">
        <ele>20.2</ele>
        <time>2020-04-09T15:18:52.000Z</time>
      </trkpt>
      <trkpt lat="47.29107" lon="-2.19407">
        <ele>20.2</ele>
        <time>2020-04-09T15:18:53.000Z</time>
      </trkpt>
      <trkpt lat="47.29108" lon="-2.19406">
        <ele>20.2</ele>
        <time>2020-04-09T15:18:54.000Z</time>
      </trkpt>
      <trkpt lat="47.29108" lon="-2.19405">
        <ele>20.2</ele>
        <time>2020-04-09T15:18:55.000Z</time>
      </trkpt>
      <trkpt lat="47.29108" lon="-2.19405">
        <ele>20.2</ele>
        <time>2020-04-09T15:18:56.000Z</time>
      </trkpt>
      <trkpt lat="47.29109" lon="-2.19406">
        <ele>20.4</ele>
        <time>2020-04-09T15:18:57.000Z</time>
      </trkpt>
      <trkpt lat="47.2911" lon="-2.19406">
        <ele>20.4</ele>
        <time>2020-04-09T15:18:58.000Z</time>
      </trkpt>
      <trkpt lat="47.29111" lon="-2.19406">
        <ele>20.4</ele>
        <time>2020-04-09T15:18:59.000Z</time>
      </trkpt>
      <trkpt lat="47.29112" lon="-2.19407">
        <ele>20.2</ele>
        <time>2020-04-09T15:19:00.000Z</time>
      </trkpt>
      <trkpt lat="47.29112" lon="-2.19405">
        <ele>20.2</ele>
        <time>2020-04-09T15:19:01.000Z</time>
      </trkpt>
      <trkpt lat="47.29112" lon="-2.19404">
        <ele>20.2</ele>
        <time>2020-04-09T15:19:02.000Z</time>
      </trkpt>
      <trkpt lat="47.29111" lon="-2.19404">
        <ele>20.2</ele>
        <time>2020-04-09T15:19:03.000Z</time>
      </trkpt>
      <trkpt lat="47.29111" lon="-2.19402">
        <ele>20.2</ele>
        <time>2020-04-09T15:19:04.000Z</time>
      </trkpt>
      <trkpt lat="47.2911" lon="-2.19402">
        <ele>20.4</ele>
        <time>2020-04-09T15:19:05.000Z</time>
      </trkpt>
      <trkpt lat="47.2911" lon="-2.19402">
        <ele>20.4</ele>
        <time>2020-04-09T15:19:06.000Z</time>
      </trkpt>
      <trkpt lat="47.2911" lon="-2.19402">
        <ele>20.2</ele>
        <time>2020-04-09T15:19:07.000Z</time>
      </trkpt>
      <trkpt lat="47.2911" lon="-2.19401">
        <ele>20.2</ele>
        <time>2020-04-09T15:19:08.000Z</time>
      </trkpt>
      <trkpt lat="47.29109" lon="-2.194">
        <ele>20.2</ele>
        <time>2020-04-09T15:19:09.000Z</time>
      </trkpt>
      <trkpt lat="47.29109" lon="-2.19398">
        <ele>20.2</ele>
        <time>2020-04-09T15:19:10.000Z</time>
      </trkpt>
      <trkpt lat="47.29108" lon="-2.19398">
        <ele>20</ele>
        <time>2020-04-09T15:19:11.000Z</time>
      </trkpt>
      <trkpt lat="47.29108" lon="-2.19398">
        <ele>20.2</ele>
        <time>2020-04-09T15:19:12.000Z</time>
      </trkpt>
      <trkpt lat="47.29108" lon="-2.19396">
        <ele>20</ele>
        <time>2020-04-09T15:19:13.000Z</time>
      </trkpt>
      <trkpt lat="47.29109" lon="-2.19396">
        <ele>20.2</ele>
        <time>2020-04-09T15:19:14.000Z</time>
      </trkpt>
      <trkpt lat="47.29109" lon="-2.19395">
        <ele>20.4</ele>
        <time>2020-04-09T15:19:15.000Z</time>
      </trkpt>
      <trkpt lat="47.2911" lon="-2.19394">
        <ele>20.4</ele>
        <time>2020-04-09T15:19:16.000Z</time>
      </trkpt>
      <trkpt lat="47.29111" lon="-2.19393">
        <ele>20.2</ele>
        <time>2020-04-09T15:19:17.000Z</time>
      </trkpt>
      <trkpt lat="47.29111" lon="-2.19393">
        <ele>20.2</ele>
        <time>2020-04-09T15:19:18.000Z</time>
      </trkpt>
      <trkpt lat="47.29111" lon="-2.19393">
        <ele>20.2</ele>
        <time>2020-04-09T15:19:19.000Z</time>
      </trkpt>
      <trkpt lat="47.2911" lon="-2.19394">
        <ele>20.2</ele>
        <time>2020-04-09T15:19:20.000Z</time>
      </trkpt>
      <trkpt lat="47.29109" lon="-2.19394">
        <ele>20.4</ele>
        <time>2020-04-09T15:19:21.000Z</time>
      </trkpt>
      <trkpt lat="47.29108" lon="-2.19394">
        <ele>20.2</ele>
        <time>2020-04-09T15:19:22.000Z</time>
      </trkpt>
      <trkpt lat="47.29108" lon="-2.19393">
        <ele>20.2</ele>
        <time>2020-04-09T15:19:23.000Z</time>
      </trkpt>
      <trkpt lat="47.29107" lon="-2.19394">
        <ele>20.2</ele>
        <time>2020-04-09T15:19:24.000Z</time>
      </trkpt>
      <trkpt lat="47.29107" lon="-2.19393">
        <ele>20.2</ele>
        <time>2020-04-09T15:19:25.000Z</time>
      </trkpt>
      <trkpt lat="47.29107" lon="-2.19394">
        <ele>20.2</ele>
        <time>2020-04-09T15:19:26.000Z</time>
      </trkpt>
      <trkpt lat="47.29106" lon="-2.19393">
        <ele>20.4</ele>
        <time>2020-04-09T15:19:27.000Z</time>
      </trkpt>
      <trkpt lat="47.29106" lon="-2.19394">
        <ele>20.2</ele>
        <time>2020-04-09T15:19:28.000Z</time>
      </trkpt>
      <trkpt lat="47.29106" lon="-2.19395">
        <ele>20.4</ele>
        <time>2020-04-09T15:19:29.000Z</time>
      </trkpt>
      <trkpt lat="47.29106" lon="-2.19398">
        <ele>20.2</ele>
        <time>2020-04-09T15:19:30.000Z</time>
      </trkpt>
      <trkpt lat="47.29107" lon="-2.194">
        <ele>20.4</ele>
        <time>2020-04-09T15:19:31.000Z</time>
      </trkpt>
      <trkpt lat="47.29105" lon="-2.19398">
        <ele>20.4</ele>
        <time>2020-04-09T15:19:32.000Z</time>
      </trkpt>
      <trkpt lat="47.29105" lon="-2.19398">
        <ele>20.4</ele>
        <time>2020-04-09T15:19:33.000Z</time>
      </trkpt>
      <trkpt lat="47.29106" lon="-2.19397">
        <ele>20.4</ele>
        <time>2020-04-09T15:19:34.000Z</time>
      </trkpt>
      <trkpt lat="47.29107" lon="-2.19395">
        <ele>20.4</ele>
        <time>2020-04-09T15:19:35.000Z</time>
      </trkpt>
      <trkpt lat="47.29107" lon="-2.19391">
        <ele>20.2</ele>
        <time>2020-04-09T15:19:36.000Z</time>
      </trkpt>
      <trkpt lat="47.29109" lon="-2.19389">
        <ele>20.2</ele>
        <time>2020-04-09T15:19:37.000Z</time>
      </trkpt>
      <trkpt lat="47.2911" lon="-2.19388">
        <ele>20.2</ele>
        <time>2020-04-09T15:19:38.000Z</time>
      </trkpt>
      <trkpt lat="47.2911" lon="-2.19386">
        <ele>20.2</ele>
        <time>2020-04-09T15:19:39.000Z</time>
      </trkpt>
      <trkpt lat="47.29112" lon="-2.19386">
        <ele>20.2</ele>
        <time>2020-04-09T15:19:40.000Z</time>
      </trkpt>
      <trkpt lat="47.29111" lon="-2.19386">
        <ele>20.2</ele>
        <time>2020-04-09T15:19:41.000Z</time>
      </trkpt>
      <trkpt lat="47.2911" lon="-2.19386">
        <ele>20.2</ele>
        <time>2020-04-09T15:19:42.000Z</time>
      </trkpt>
      <trkpt lat="47.29109" lon="-2.19386">
        <ele>20.2</ele>
        <time>2020-04-09T15:19:43.000Z</time>
      </trkpt>
      <trkpt lat="47.29108" lon="-2.19385">
        <ele>20.2</ele>
        <time>2020-04-09T15:19:44.000Z</time>
      </trkpt>
      <trkpt lat="47.29109" lon="-2.19385">
        <ele>20.4</ele>
        <time>2020-04-09T15:19:45.000Z</time>
      </trkpt>
      <trkpt lat="47.29108" lon="-2.19385">
        <ele>20.2</ele>
        <time>2020-04-09T15:19:46.000Z</time>
      </trkpt>
      <trkpt lat="47.29108" lon="-2.19383">
        <ele>20.4</ele>
        <time>2020-04-09T15:19:48.000Z</time>
      </trkpt>
      <trkpt lat="47.29107" lon="-2.19381">
        <ele>20.2</ele>
        <time>2020-04-09T15:19:49.000Z</time>
      </trkpt>
      <trkpt lat="47.29107" lon="-2.19379">
        <ele>20.2</ele>
        <time>2020-04-09T15:19:50.000Z</time>
      </trkpt>
      <trkpt lat="47.29106" lon="-2.19376">
        <ele>20.2</ele>
        <time>2020-04-09T15:19:51.000Z</time>
      </trkpt>
      <trkpt lat="47.29106" lon="-2.19373">
        <ele>20.2</ele>
        <time>2020-04-09T15:19:52.000Z</time>
      </trkpt>
      <trkpt lat="47.29105" lon="-2.19372">
        <ele>20.2</ele>
        <time>2020-04-09T15:19:53.000Z</time>
      </trkpt>
      <trkpt lat="47.29105" lon="-2.19372">
        <ele>20.2</ele>
        <time>2020-04-09T15:19:54.000Z</time>
      </trkpt>
      <trkpt lat="47.29104" lon="-2.19371">
        <ele>20.2</ele>
        <time>2020-04-09T15:19:55.000Z</time>
      </trkpt>
      <trkpt lat="47.29105" lon="-2.19373">
        <ele>20.2</ele>
        <time>2020-04-09T15:19:56.000Z</time>
      </trkpt>
      <trkpt lat="47.29104" lon="-2.19373">
        <ele>20.2</ele>
        <time>2020-04-09T15:19:57.000Z</time>
      </trkpt>
      <trkpt lat="47.29104" lon="-2.19375">
        <ele>20.2</ele>
        <time>2020-04-09T15:19:58.000Z</time>
      </trkpt>
      <trkpt lat="47.29106" lon="-2.19375">
        <ele>20.4</ele>
        <time>2020-04-09T15:20:00.000Z</time>
      </trkpt>
      <trkpt lat="47.29107" lon="-2.19376">
        <ele>20.2</ele>
        <time>2020-04-09T15:20:01.000Z</time>
      </trkpt>
      <trkpt lat="47.29106" lon="-2.19377">
        <ele>20.2</ele>
        <time>2020-04-09T15:20:02.000Z</time>
      </trkpt>
      <trkpt lat="47.29106" lon="-2.19379">
        <ele>20.4</ele>
        <time>2020-04-09T15:20:03.000Z</time>
      </trkpt>
      <trkpt lat="47.29106" lon="-2.19383">
        <ele>20.2</ele>
        <time>2020-04-09T15:20:04.000Z</time>
      </trkpt>
      <trkpt lat="47.29106" lon="-2.19386">
        <ele>20.2</ele>
        <time>2020-04-09T15:20:05.000Z</time>
      </trkpt>
      <trkpt lat="47.29106" lon="-2.1939">
        <ele>20.2</ele>
        <time>2020-04-09T15:20:06.000Z</time>
      </trkpt>
      <trkpt lat="47.29106" lon="-2.19394">
        <ele>20.2</ele>
        <time>2020-04-09T15:20:07.000Z</time>
      </trkpt>
      <trkpt lat="47.29106" lon="-2.19397">
        <ele>20.2</ele>
        <time>2020-04-09T15:20:08.000Z</time>
      </trkpt>
      <trkpt lat="47.29105" lon="-2.194">
        <ele>20.4</ele>
        <time>2020-04-09T15:20:09.000Z</time>
      </trkpt>
      <trkpt lat="47.29105" lon="-2.19404">
        <ele>20.2</ele>
        <time>2020-04-09T15:20:10.000Z</time>
      </trkpt>
      <trkpt lat="47.29104" lon="-2.19405">
        <ele>20.4</ele>
        <time>2020-04-09T15:20:11.000Z</time>
      </trkpt>
      <trkpt lat="47.29104" lon="-2.19407">
        <ele>20.4</ele>
        <time>2020-04-09T15:20:12.000Z</time>
      </trkpt>
      <trkpt lat="47.29104" lon="-2.1941">
        <ele>20.2</ele>
        <time>2020-04-09T15:20:13.000Z</time>
      </trkpt>
      <trkpt lat="47.29104" lon="-2.19411">
        <ele>20.4</ele>
        <time>2020-04-09T15:20:14.000Z</time>
      </trkpt>
      <trkpt lat="47.29105" lon="-2.19412">
        <ele>20.4</ele>
        <time>2020-04-09T15:20:15.000Z</time>
      </trkpt>
      <trkpt lat="47.29106" lon="-2.19413">
        <ele>20.2</ele>
        <time>2020-04-09T15:20:16.000Z</time>
      </trkpt>
      <trkpt lat="47.29105" lon="-2.19415">
        <ele>20.2</ele>
        <time>2020-04-09T15:20:17.000Z</time>
      </trkpt>
      <trkpt lat="47.29105" lon="-2.19416">
        <ele>20.2</ele>
        <time>2020-04-09T15:20:18.000Z</time>
      </trkpt>
      <trkpt lat="47.29104" lon="-2.19416">
        <ele>20.2</ele>
        <time>2020-04-09T15:20:19.000Z</time>
      </trkpt>
      <trkpt lat="47.29104" lon="-2.19417">
        <ele>20</ele>
        <time>2020-04-09T15:20:20.000Z</time>
      </trkpt>
      <trkpt lat="47.29104" lon="-2.19417">
        <ele>20.2</ele>
        <time>2020-04-09T15:20:21.000Z</time>
      </trkpt>
      <trkpt lat="47.29103" lon="-2.19417">
        <ele>20</ele>
        <time>2020-04-09T15:20:22.000Z</time>
      </trkpt>
      <trkpt lat="47.29104" lon="-2.19415">
        <ele>20</ele>
        <time>2020-04-09T15:20:23.000Z</time>
      </trkpt>
      <trkpt lat="47.29105" lon="-2.19414">
        <ele>20</ele>
        <time>2020-04-09T15:20:24.000Z</time>
      </trkpt>
      <trkpt lat="47.29104" lon="-2.19413">
        <ele>20</ele>
        <time>2020-04-09T15:20:25.000Z</time>
      </trkpt>
      <trkpt lat="47.29104" lon="-2.1941">
        <ele>20.2</ele>
        <time>2020-04-09T15:20:26.000Z</time>
      </trkpt>
      <trkpt lat="47.29104" lon="-2.19406">
        <ele>20.2</ele>
        <time>2020-04-09T15:20:27.000Z</time>
      </trkpt>
      <trkpt lat="47.29104" lon="-2.19402">
        <ele>20.2</ele>
        <time>2020-04-09T15:20:28.000Z</time>
      </trkpt>
      <trkpt lat="47.29105" lon="-2.19396">
        <ele>20.2</ele>
        <time>2020-04-09T15:20:29.000Z</time>
      </trkpt>
      <trkpt lat="47.29106" lon="-2.1939">
        <ele>20.2</ele>
        <time>2020-04-09T15:20:30.000Z</time>
      </trkpt>
      <trkpt lat="47.29106" lon="-2.19383">
        <ele>20.2</ele>
        <time>2020-04-09T15:20:31.000Z</time>
      </trkpt>
      <trkpt lat="47.29106" lon="-2.19382">
        <ele>20.2</ele>
        <time>2020-04-09T15:20:32.000Z</time>
      </trkpt>
      <trkpt lat="47.29105" lon="-2.19381">
        <ele>20.2</ele>
        <time>2020-04-09T15:20:33.000Z</time>
      </trkpt>
      <trkpt lat="47.29105" lon="-2.1938">
        <ele>20.4</ele>
        <time>2020-04-09T15:20:34.000Z</time>
      </trkpt>
      <trkpt lat="47.29104" lon="-2.19379">
        <ele>20.2</ele>
        <time>2020-04-09T15:20:35.000Z</time>
      </trkpt>
      <trkpt lat="47.29105" lon="-2.1938">
        <ele>20.2</ele>
        <time>2020-04-09T15:20:36.000Z</time>
      </trkpt>
      <trkpt lat="47.29106" lon="-2.1938">
        <ele>20.2</ele>
        <time>2020-04-09T15:20:37.000Z</time>
      </trkpt>
      <trkpt lat="47.29105" lon="-2.1938">
        <ele>20.2</ele>
        <time>2020-04-09T15:20:38.000Z</time>
      </trkpt>
      <trkpt lat="47.29105" lon="-2.1938">
        <ele>20.2</ele>
        <time>2020-04-09T15:20:39.000Z</time>
      </trkpt>
      <trkpt lat="47.29106" lon="-2.19379">
        <ele>20.2</ele>
        <time>2020-04-09T15:20:40.000Z</time>
      </trkpt>
      <trkpt lat="47.29105" lon="-2.1938">
        <ele>20.2</ele>
        <time>2020-04-09T15:20:41.000Z</time>
      </trkpt>
      <trkpt lat="47.29108" lon="-2.19379">
        <ele>20.4</ele>
        <time>2020-04-09T15:20:42.000Z</time>
      </trkpt>
      <trkpt lat="47.29109" lon="-2.19378">
        <ele>20.2</ele>
        <time>2020-04-09T15:20:43.000Z</time>
      </trkpt>
      <trkpt lat="47.2911" lon="-2.19379">
        <ele>20.2</ele>
        <time>2020-04-09T15:20:44.000Z</time>
      </trkpt>
      <trkpt lat="47.29112" lon="-2.1938">
        <ele>20</ele>
        <time>2020-04-09T15:20:45.000Z</time>
      </trkpt>
      <trkpt lat="47.29112" lon="-2.19381">
        <ele>20</ele>
        <time>2020-04-09T15:20:46.000Z</time>
      </trkpt>
      <trkpt lat="47.29112" lon="-2.19383">
        <ele>20</ele>
        <time>2020-04-09T15:20:47.000Z</time>
      </trkpt>
      <trkpt lat="47.29112" lon="-2.19383">
        <ele>20</ele>
        <time>2020-04-09T15:20:48.000Z</time>
      </trkpt>
      <trkpt lat="47.29112" lon="-2.19386">
        <ele>20.2</ele>
        <time>2020-04-09T15:20:49.000Z</time>
      </trkpt>
      <trkpt lat="47.29112" lon="-2.19385">
        <ele>20.2</ele>
        <time>2020-04-09T15:20:50.000Z</time>
      </trkpt>
      <trkpt lat="47.29112" lon="-2.19384">
        <ele>20.2</ele>
        <time>2020-04-09T15:20:51.000Z</time>
      </trkpt>
      <trkpt lat="47.29113" lon="-2.19385">
        <ele>20.2</ele>
        <time>2020-04-09T15:20:52.000Z</time>
      </trkpt>
      <trkpt lat="47.29113" lon="-2.19386">
        <ele>20.2</ele>
        <time>2020-04-09T15:20:53.000Z</time>
      </trkpt>
      <trkpt lat="47.29114" lon="-2.19388">
        <ele>20</ele>
        <time>2020-04-09T15:20:54.000Z</time>
      </trkpt>
      <trkpt lat="47.29116" lon="-2.19388">
        <ele>20</ele>
        <time>2020-04-09T15:20:55.000Z</time>
      </trkpt>
      <trkpt lat="47.29116" lon="-2.19389">
        <ele>20</ele>
        <time>2020-04-09T15:20:56.000Z</time>
      </trkpt>
      <trkpt lat="47.2912" lon="-2.19387">
        <ele>20</ele>
        <time>2020-04-09T15:20:57.000Z</time>
      </trkpt>
      <trkpt lat="47.29123" lon="-2.19387">
        <ele>19.8</ele>
        <time>2020-04-09T15:20:58.000Z</time>
      </trkpt>
      <trkpt lat="47.29123" lon="-2.19387">
        <ele>20.2</ele>
        <time>2020-04-09T15:20:59.000Z</time>
      </trkpt>
      <trkpt lat="47.29123" lon="-2.19387">
        <ele>20.2</ele>
        <time>2020-04-09T15:21:00.000Z</time>
      </trkpt>
      <trkpt lat="47.29123" lon="-2.19387">
        <ele>20.2</ele>
        <time>2020-04-09T15:21:01.000Z</time>
      </trkpt>
      <trkpt lat="47.29123" lon="-2.19387">
        <ele>20.2</ele>
        <time>2020-04-09T15:21:02.000Z</time>
      </trkpt>
      <trkpt lat="47.29128" lon="-2.19396">
        <ele>20.2</ele>
        <time>2020-04-09T15:21:05.000Z</time>
      </trkpt>
      <trkpt lat="47.29122" lon="-2.19396">
        <ele>20.2</ele>
        <time>2020-04-09T15:21:06.000Z</time>
      </trkpt>
    </trkseg>
  </trk>
</gpx>